<?xml version="1.0" encoding="UTF-8" standalone="no" ?>
<gpx xmlns="http://www.topografix.com/GPX/1/1" xmlns:xsi="http://www.w3.org/2001/XMLSchema-instance" xsi:schemaLocation="http://www.topografix.com/GPX/1/1 http://www.topografix.com/GPX/1/1/gpx.xsd" version="1.1" creator="VisuGPX - https://www.visugpx.com">
  <metadata>
    <name>Guerchy-Auxerre</name>
    <desc><![CDATA[Chemin de Compostelle 2014-1 : Guerchy-Auxerre]]></desc>
  </metadata>
  <trk>
    <name><![CDATA[9 Guerchy Auxerre]]></name>
    <trkseg>
      <trkpt lat="47.89239" lon="3.43528">
        <ele>106</ele>
        <time>2014-04-15T06:39:27Z</time>
      </trkpt>
      <trkpt lat="47.89236" lon="3.4352">
        <ele>106</ele>
        <time>2014-04-15T06:39:35Z</time>
      </trkpt>
      <trkpt lat="47.89233" lon="3.43515">
        <ele>106</ele>
        <time>2014-04-15T06:39:38Z</time>
      </trkpt>
      <trkpt lat="47.89229" lon="3.43508">
        <ele>106</ele>
        <time>2014-04-15T06:39:42Z</time>
      </trkpt>
      <trkpt lat="47.89227" lon="3.43501">
        <ele>106</ele>
        <time>2014-04-15T06:39:47Z</time>
      </trkpt>
      <trkpt lat="47.89224" lon="3.43494">
        <ele>104</ele>
        <time>2014-04-15T06:39:49Z</time>
      </trkpt>
      <trkpt lat="47.89221" lon="3.43487">
        <ele>105</ele>
        <time>2014-04-15T06:39:54Z</time>
      </trkpt>
      <trkpt lat="47.89218" lon="3.43481">
        <ele>105</ele>
        <time>2014-04-15T06:39:57Z</time>
      </trkpt>
      <trkpt lat="47.89215" lon="3.43476">
        <ele>105</ele>
        <time>2014-04-15T06:40:01Z</time>
      </trkpt>
      <trkpt lat="47.89212" lon="3.43471">
        <ele>105</ele>
        <time>2014-04-15T06:40:05Z</time>
      </trkpt>
      <trkpt lat="47.89208" lon="3.43467">
        <ele>105</ele>
        <time>2014-04-15T06:40:12Z</time>
      </trkpt>
      <trkpt lat="47.89204" lon="3.43463">
        <ele>105</ele>
        <time>2014-04-15T06:40:16Z</time>
      </trkpt>
      <trkpt lat="47.89201" lon="3.43456">
        <ele>105</ele>
        <time>2014-04-15T06:40:22Z</time>
      </trkpt>
      <trkpt lat="47.89197" lon="3.43451">
        <ele>105</ele>
        <time>2014-04-15T06:40:26Z</time>
      </trkpt>
      <trkpt lat="47.89193" lon="3.43446">
        <ele>105</ele>
        <time>2014-04-15T06:40:31Z</time>
      </trkpt>
      <trkpt lat="47.89189" lon="3.43442">
        <ele>105</ele>
        <time>2014-04-15T06:40:36Z</time>
      </trkpt>
      <trkpt lat="47.89184" lon="3.43438">
        <ele>105</ele>
        <time>2014-04-15T06:40:40Z</time>
      </trkpt>
      <trkpt lat="47.89179" lon="3.43434">
        <ele>105</ele>
        <time>2014-04-15T06:40:44Z</time>
      </trkpt>
      <trkpt lat="47.89174" lon="3.43431">
        <ele>105</ele>
        <time>2014-04-15T06:40:48Z</time>
      </trkpt>
      <trkpt lat="47.8917" lon="3.43428">
        <ele>105</ele>
        <time>2014-04-15T06:40:52Z</time>
      </trkpt>
      <trkpt lat="47.89167" lon="3.43422">
        <ele>105</ele>
        <time>2014-04-15T06:40:57Z</time>
      </trkpt>
      <trkpt lat="47.89163" lon="3.43416">
        <ele>105</ele>
        <time>2014-04-15T06:41:02Z</time>
      </trkpt>
      <trkpt lat="47.89157" lon="3.43414">
        <ele>106</ele>
        <time>2014-04-15T06:41:06Z</time>
      </trkpt>
      <trkpt lat="47.89152" lon="3.43412">
        <ele>106</ele>
        <time>2014-04-15T06:41:07Z</time>
      </trkpt>
      <trkpt lat="47.89148" lon="3.43408">
        <ele>106</ele>
        <time>2014-04-15T06:41:11Z</time>
      </trkpt>
      <trkpt lat="47.89144" lon="3.43403">
        <ele>106</ele>
        <time>2014-04-15T06:41:16Z</time>
      </trkpt>
      <trkpt lat="47.89141" lon="3.43397">
        <ele>106</ele>
        <time>2014-04-15T06:41:22Z</time>
      </trkpt>
      <trkpt lat="47.89138" lon="3.43391">
        <ele>107</ele>
        <time>2014-04-15T06:41:26Z</time>
      </trkpt>
      <trkpt lat="47.89134" lon="3.43387">
        <ele>107</ele>
        <time>2014-04-15T06:41:29Z</time>
      </trkpt>
      <trkpt lat="47.8913" lon="3.43384">
        <ele>107</ele>
        <time>2014-04-15T06:41:32Z</time>
      </trkpt>
      <trkpt lat="47.89126" lon="3.43379">
        <ele>107</ele>
        <time>2014-04-15T06:41:37Z</time>
      </trkpt>
      <trkpt lat="47.89122" lon="3.43374">
        <ele>107</ele>
        <time>2014-04-15T06:41:42Z</time>
      </trkpt>
      <trkpt lat="47.89122" lon="3.43367">
        <ele>107</ele>
        <time>2014-04-15T06:41:48Z</time>
      </trkpt>
      <trkpt lat="47.89119" lon="3.43362">
        <ele>107</ele>
        <time>2014-04-15T06:41:52Z</time>
      </trkpt>
      <trkpt lat="47.89115" lon="3.43356">
        <ele>107</ele>
        <time>2014-04-15T06:41:57Z</time>
      </trkpt>
      <trkpt lat="47.89114" lon="3.4335">
        <ele>107</ele>
        <time>2014-04-15T06:42:03Z</time>
      </trkpt>
      <trkpt lat="47.89108" lon="3.43345">
        <ele>107</ele>
        <time>2014-04-15T06:42:08Z</time>
      </trkpt>
      <trkpt lat="47.89105" lon="3.4334">
        <ele>107</ele>
        <time>2014-04-15T06:42:11Z</time>
      </trkpt>
      <trkpt lat="47.89102" lon="3.43331">
        <ele>106</ele>
        <time>2014-04-15T06:42:15Z</time>
      </trkpt>
      <trkpt lat="47.89102" lon="3.43322">
        <ele>106</ele>
        <time>2014-04-15T06:42:19Z</time>
      </trkpt>
      <trkpt lat="47.891" lon="3.43316">
        <ele>106</ele>
        <time>2014-04-15T06:42:23Z</time>
      </trkpt>
      <trkpt lat="47.89096" lon="3.43308">
        <ele>106</ele>
        <time>2014-04-15T06:42:27Z</time>
      </trkpt>
      <trkpt lat="47.89094" lon="3.43301">
        <ele>106</ele>
        <time>2014-04-15T06:42:32Z</time>
      </trkpt>
      <trkpt lat="47.89092" lon="3.43295">
        <ele>106</ele>
        <time>2014-04-15T06:42:36Z</time>
      </trkpt>
      <trkpt lat="47.8909" lon="3.43288">
        <ele>106</ele>
        <time>2014-04-15T06:42:40Z</time>
      </trkpt>
      <trkpt lat="47.89089" lon="3.43281">
        <ele>106</ele>
        <time>2014-04-15T06:42:44Z</time>
      </trkpt>
      <trkpt lat="47.89086" lon="3.43275">
        <ele>106</ele>
        <time>2014-04-15T06:42:48Z</time>
      </trkpt>
      <trkpt lat="47.89082" lon="3.4327">
        <ele>106</ele>
        <time>2014-04-15T06:42:53Z</time>
      </trkpt>
      <trkpt lat="47.89079" lon="3.43263">
        <ele>106</ele>
        <time>2014-04-15T06:42:57Z</time>
      </trkpt>
      <trkpt lat="47.89078" lon="3.43256">
        <ele>105</ele>
        <time>2014-04-15T06:43:00Z</time>
      </trkpt>
      <trkpt lat="47.89079" lon="3.43249">
        <ele>105</ele>
        <time>2014-04-15T06:43:05Z</time>
      </trkpt>
      <trkpt lat="47.89074" lon="3.43248">
        <ele>105</ele>
        <time>2014-04-15T06:43:09Z</time>
      </trkpt>
      <trkpt lat="47.89069" lon="3.43244">
        <ele>105</ele>
        <time>2014-04-15T06:43:14Z</time>
      </trkpt>
      <trkpt lat="47.89063" lon="3.43242">
        <ele>105</ele>
        <time>2014-04-15T06:43:16Z</time>
      </trkpt>
      <trkpt lat="47.89058" lon="3.43239">
        <ele>106</ele>
        <time>2014-04-15T06:43:20Z</time>
      </trkpt>
      <trkpt lat="47.89053" lon="3.43238">
        <ele>106</ele>
        <time>2014-04-15T06:43:25Z</time>
      </trkpt>
      <trkpt lat="47.89048" lon="3.43238">
        <ele>106</ele>
        <time>2014-04-15T06:43:33Z</time>
      </trkpt>
      <trkpt lat="47.89044" lon="3.43243">
        <ele>105</ele>
        <time>2014-04-15T06:43:41Z</time>
      </trkpt>
      <trkpt lat="47.89039" lon="3.43248">
        <ele>105</ele>
        <time>2014-04-15T06:43:46Z</time>
      </trkpt>
      <trkpt lat="47.89035" lon="3.43251">
        <ele>106</ele>
        <time>2014-04-15T06:43:49Z</time>
      </trkpt>
      <trkpt lat="47.8903" lon="3.43255">
        <ele>106</ele>
        <time>2014-04-15T06:43:53Z</time>
      </trkpt>
      <trkpt lat="47.89025" lon="3.43259">
        <ele>106</ele>
        <time>2014-04-15T06:43:57Z</time>
      </trkpt>
      <trkpt lat="47.8902" lon="3.43261">
        <ele>106</ele>
        <time>2014-04-15T06:44:01Z</time>
      </trkpt>
      <trkpt lat="47.89018" lon="3.4327">
        <ele>106</ele>
        <time>2014-04-15T06:44:16Z</time>
      </trkpt>
      <trkpt lat="47.89015" lon="3.43275">
        <ele>106</ele>
        <time>2014-04-15T06:44:19Z</time>
      </trkpt>
      <trkpt lat="47.89011" lon="3.4328">
        <ele>106</ele>
        <time>2014-04-15T06:44:23Z</time>
      </trkpt>
      <trkpt lat="47.89007" lon="3.43283">
        <ele>106</ele>
        <time>2014-04-15T06:44:28Z</time>
      </trkpt>
      <trkpt lat="47.89002" lon="3.43285">
        <ele>106</ele>
        <time>2014-04-15T06:44:31Z</time>
      </trkpt>
      <trkpt lat="47.88997" lon="3.43287">
        <ele>105</ele>
        <time>2014-04-15T06:44:34Z</time>
      </trkpt>
      <trkpt lat="47.88994" lon="3.43291">
        <ele>106</ele>
        <time>2014-04-15T06:44:38Z</time>
      </trkpt>
      <trkpt lat="47.88991" lon="3.43298">
        <ele>106</ele>
        <time>2014-04-15T06:44:44Z</time>
      </trkpt>
      <trkpt lat="47.88988" lon="3.43303">
        <ele>106</ele>
        <time>2014-04-15T06:44:48Z</time>
      </trkpt>
      <trkpt lat="47.88983" lon="3.43307">
        <ele>106</ele>
        <time>2014-04-15T06:44:52Z</time>
      </trkpt>
      <trkpt lat="47.88978" lon="3.43313">
        <ele>106</ele>
        <time>2014-04-15T06:44:56Z</time>
      </trkpt>
      <trkpt lat="47.88974" lon="3.43316">
        <ele>106</ele>
        <time>2014-04-15T06:45:00Z</time>
      </trkpt>
      <trkpt lat="47.8897" lon="3.43321">
        <ele>106</ele>
        <time>2014-04-15T06:45:02Z</time>
      </trkpt>
      <trkpt lat="47.88966" lon="3.43328">
        <ele>106</ele>
        <time>2014-04-15T06:45:05Z</time>
      </trkpt>
      <trkpt lat="47.88963" lon="3.43335">
        <ele>107</ele>
        <time>2014-04-15T06:45:08Z</time>
      </trkpt>
      <trkpt lat="47.8896" lon="3.43341">
        <ele>107</ele>
        <time>2014-04-15T06:45:11Z</time>
      </trkpt>
      <trkpt lat="47.8896" lon="3.43348">
        <ele>107</ele>
        <time>2014-04-15T06:45:20Z</time>
      </trkpt>
      <trkpt lat="47.88958" lon="3.43354">
        <ele>107</ele>
        <time>2014-04-15T06:45:26Z</time>
      </trkpt>
      <trkpt lat="47.88956" lon="3.4336">
        <ele>107</ele>
        <time>2014-04-15T06:45:31Z</time>
      </trkpt>
      <trkpt lat="47.88952" lon="3.43364">
        <ele>107</ele>
        <time>2014-04-15T06:45:36Z</time>
      </trkpt>
      <trkpt lat="47.88948" lon="3.43369">
        <ele>107</ele>
        <time>2014-04-15T06:45:39Z</time>
      </trkpt>
      <trkpt lat="47.88945" lon="3.43374">
        <ele>107</ele>
        <time>2014-04-15T06:45:42Z</time>
      </trkpt>
      <trkpt lat="47.88941" lon="3.43379">
        <ele>107</ele>
        <time>2014-04-15T06:45:47Z</time>
      </trkpt>
      <trkpt lat="47.88936" lon="3.43385">
        <ele>107</ele>
        <time>2014-04-15T06:45:50Z</time>
      </trkpt>
      <trkpt lat="47.88932" lon="3.43388">
        <ele>106</ele>
        <time>2014-04-15T06:45:53Z</time>
      </trkpt>
      <trkpt lat="47.88928" lon="3.43393">
        <ele>106</ele>
        <time>2014-04-15T06:45:57Z</time>
      </trkpt>
      <trkpt lat="47.88923" lon="3.43397">
        <ele>106</ele>
        <time>2014-04-15T06:46:02Z</time>
      </trkpt>
      <trkpt lat="47.88919" lon="3.43402">
        <ele>106</ele>
        <time>2014-04-15T06:46:04Z</time>
      </trkpt>
      <trkpt lat="47.88915" lon="3.43409">
        <ele>104</ele>
        <time>2014-04-15T06:46:08Z</time>
      </trkpt>
      <trkpt lat="47.88912" lon="3.43415">
        <ele>105</ele>
        <time>2014-04-15T06:46:12Z</time>
      </trkpt>
      <trkpt lat="47.88909" lon="3.43421">
        <ele>105</ele>
        <time>2014-04-15T06:46:17Z</time>
      </trkpt>
      <trkpt lat="47.88907" lon="3.43427">
        <ele>105</ele>
        <time>2014-04-15T06:46:22Z</time>
      </trkpt>
      <trkpt lat="47.88905" lon="3.43435">
        <ele>105</ele>
        <time>2014-04-15T06:46:27Z</time>
      </trkpt>
      <trkpt lat="47.88902" lon="3.43443">
        <ele>105</ele>
        <time>2014-04-15T06:46:31Z</time>
      </trkpt>
      <trkpt lat="47.88899" lon="3.43449">
        <ele>105</ele>
        <time>2014-04-15T06:46:35Z</time>
      </trkpt>
      <trkpt lat="47.88895" lon="3.43456">
        <ele>105</ele>
        <time>2014-04-15T06:46:41Z</time>
      </trkpt>
      <trkpt lat="47.8889" lon="3.43461">
        <ele>105</ele>
        <time>2014-04-15T06:46:45Z</time>
      </trkpt>
      <trkpt lat="47.88889" lon="3.43457">
        <ele>105</ele>
        <time>2014-04-15T06:46:53Z</time>
      </trkpt>
      <trkpt lat="47.88885" lon="3.43461">
        <ele>105</ele>
        <time>2014-04-15T06:46:57Z</time>
      </trkpt>
      <trkpt lat="47.88883" lon="3.43467">
        <ele>105</ele>
        <time>2014-04-15T06:47:03Z</time>
      </trkpt>
      <trkpt lat="47.88881" lon="3.43473">
        <ele>105</ele>
        <time>2014-04-15T06:47:07Z</time>
      </trkpt>
      <trkpt lat="47.88877" lon="3.4348">
        <ele>105</ele>
        <time>2014-04-15T06:47:11Z</time>
      </trkpt>
      <trkpt lat="47.88874" lon="3.43486">
        <ele>105</ele>
        <time>2014-04-15T06:47:15Z</time>
      </trkpt>
      <trkpt lat="47.88871" lon="3.43493">
        <ele>105</ele>
        <time>2014-04-15T06:47:20Z</time>
      </trkpt>
      <trkpt lat="47.88868" lon="3.43498">
        <ele>105</ele>
        <time>2014-04-15T06:47:23Z</time>
      </trkpt>
      <trkpt lat="47.88865" lon="3.43503">
        <ele>107</ele>
        <time>2014-04-15T06:47:27Z</time>
      </trkpt>
      <trkpt lat="47.88861" lon="3.43508">
        <ele>107</ele>
        <time>2014-04-15T06:47:31Z</time>
      </trkpt>
      <trkpt lat="47.88858" lon="3.43512">
        <ele>107</ele>
        <time>2014-04-15T06:47:35Z</time>
      </trkpt>
      <trkpt lat="47.88854" lon="3.43518">
        <ele>107</ele>
        <time>2014-04-15T06:47:39Z</time>
      </trkpt>
      <trkpt lat="47.8885" lon="3.43522">
        <ele>107</ele>
        <time>2014-04-15T06:47:43Z</time>
      </trkpt>
      <trkpt lat="47.88847" lon="3.43528">
        <ele>107</ele>
        <time>2014-04-15T06:47:48Z</time>
      </trkpt>
      <trkpt lat="47.88843" lon="3.43533">
        <ele>107</ele>
        <time>2014-04-15T06:47:52Z</time>
      </trkpt>
      <trkpt lat="47.88839" lon="3.43538">
        <ele>107</ele>
        <time>2014-04-15T06:47:56Z</time>
      </trkpt>
      <trkpt lat="47.88836" lon="3.43542">
        <ele>107</ele>
        <time>2014-04-15T06:48:00Z</time>
      </trkpt>
      <trkpt lat="47.88832" lon="3.43547">
        <ele>105</ele>
        <time>2014-04-15T06:48:04Z</time>
      </trkpt>
      <trkpt lat="47.88828" lon="3.43552">
        <ele>105</ele>
        <time>2014-04-15T06:48:08Z</time>
      </trkpt>
      <trkpt lat="47.88824" lon="3.43557">
        <ele>105</ele>
        <time>2014-04-15T06:48:12Z</time>
      </trkpt>
      <trkpt lat="47.88821" lon="3.43561">
        <ele>105</ele>
        <time>2014-04-15T06:48:16Z</time>
      </trkpt>
      <trkpt lat="47.88817" lon="3.43566">
        <ele>105</ele>
        <time>2014-04-15T06:48:20Z</time>
      </trkpt>
      <trkpt lat="47.88813" lon="3.43571">
        <ele>105</ele>
        <time>2014-04-15T06:48:24Z</time>
      </trkpt>
      <trkpt lat="47.8881" lon="3.43576">
        <ele>105</ele>
        <time>2014-04-15T06:48:28Z</time>
      </trkpt>
      <trkpt lat="47.88806" lon="3.4358">
        <ele>105</ele>
        <time>2014-04-15T06:48:34Z</time>
      </trkpt>
      <trkpt lat="47.88802" lon="3.43585">
        <ele>107</ele>
        <time>2014-04-15T06:48:39Z</time>
      </trkpt>
      <trkpt lat="47.88799" lon="3.4359">
        <ele>107</ele>
        <time>2014-04-15T06:48:43Z</time>
      </trkpt>
      <trkpt lat="47.88796" lon="3.43595">
        <ele>107</ele>
        <time>2014-04-15T06:48:47Z</time>
      </trkpt>
      <trkpt lat="47.88793" lon="3.43601">
        <ele>107</ele>
        <time>2014-04-15T06:48:51Z</time>
      </trkpt>
      <trkpt lat="47.88789" lon="3.43606">
        <ele>107</ele>
        <time>2014-04-15T06:48:55Z</time>
      </trkpt>
      <trkpt lat="47.88785" lon="3.43611">
        <ele>107</ele>
        <time>2014-04-15T06:49:00Z</time>
      </trkpt>
      <trkpt lat="47.88782" lon="3.43616">
        <ele>107</ele>
        <time>2014-04-15T06:49:04Z</time>
      </trkpt>
      <trkpt lat="47.88778" lon="3.43621">
        <ele>107</ele>
        <time>2014-04-15T06:49:09Z</time>
      </trkpt>
      <trkpt lat="47.88773" lon="3.43624">
        <ele>107</ele>
        <time>2014-04-15T06:49:15Z</time>
      </trkpt>
      <trkpt lat="47.88769" lon="3.4363">
        <ele>107</ele>
        <time>2014-04-15T06:49:19Z</time>
      </trkpt>
      <trkpt lat="47.88766" lon="3.43635">
        <ele>107</ele>
        <time>2014-04-15T06:49:23Z</time>
      </trkpt>
      <trkpt lat="47.88761" lon="3.4364">
        <ele>107</ele>
        <time>2014-04-15T06:49:28Z</time>
      </trkpt>
      <trkpt lat="47.88757" lon="3.43645">
        <ele>107</ele>
        <time>2014-04-15T06:49:32Z</time>
      </trkpt>
      <trkpt lat="47.88753" lon="3.43649">
        <ele>107</ele>
        <time>2014-04-15T06:49:35Z</time>
      </trkpt>
      <trkpt lat="47.88748" lon="3.43653">
        <ele>107</ele>
        <time>2014-04-15T06:49:39Z</time>
      </trkpt>
      <trkpt lat="47.88744" lon="3.43656">
        <ele>107</ele>
        <time>2014-04-15T06:49:43Z</time>
      </trkpt>
      <trkpt lat="47.88739" lon="3.4366">
        <ele>107</ele>
        <time>2014-04-15T06:49:49Z</time>
      </trkpt>
      <trkpt lat="47.88735" lon="3.43663">
        <ele>107</ele>
        <time>2014-04-15T06:49:53Z</time>
      </trkpt>
      <trkpt lat="47.8873" lon="3.43668">
        <ele>110</ele>
        <time>2014-04-15T06:49:58Z</time>
      </trkpt>
      <trkpt lat="47.88726" lon="3.43671">
        <ele>110</ele>
        <time>2014-04-15T06:50:02Z</time>
      </trkpt>
      <trkpt lat="47.88721" lon="3.43673">
        <ele>110</ele>
        <time>2014-04-15T06:50:05Z</time>
      </trkpt>
      <trkpt lat="47.88716" lon="3.43677">
        <ele>111</ele>
        <time>2014-04-15T06:50:10Z</time>
      </trkpt>
      <trkpt lat="47.88711" lon="3.43679">
        <ele>111</ele>
        <time>2014-04-15T06:50:14Z</time>
      </trkpt>
      <trkpt lat="47.88705" lon="3.43679">
        <ele>111</ele>
        <time>2014-04-15T06:50:19Z</time>
      </trkpt>
      <trkpt lat="47.88701" lon="3.43681">
        <ele>111</ele>
        <time>2014-04-15T06:50:23Z</time>
      </trkpt>
      <trkpt lat="47.88696" lon="3.43683">
        <ele>111</ele>
        <time>2014-04-15T06:50:27Z</time>
      </trkpt>
      <trkpt lat="47.88691" lon="3.43686">
        <ele>111</ele>
        <time>2014-04-15T06:50:32Z</time>
      </trkpt>
      <trkpt lat="47.88687" lon="3.43689">
        <ele>111</ele>
        <time>2014-04-15T06:50:36Z</time>
      </trkpt>
      <trkpt lat="47.88682" lon="3.43691">
        <ele>111</ele>
        <time>2014-04-15T06:50:40Z</time>
      </trkpt>
      <trkpt lat="47.88678" lon="3.43693">
        <ele>111</ele>
        <time>2014-04-15T06:50:44Z</time>
      </trkpt>
      <trkpt lat="47.88673" lon="3.43694">
        <ele>111</ele>
        <time>2014-04-15T06:50:48Z</time>
      </trkpt>
      <trkpt lat="47.88668" lon="3.43696">
        <ele>111</ele>
        <time>2014-04-15T06:50:52Z</time>
      </trkpt>
      <trkpt lat="47.88663" lon="3.43698">
        <ele>111</ele>
        <time>2014-04-15T06:50:57Z</time>
      </trkpt>
      <trkpt lat="47.88658" lon="3.437">
        <ele>111</ele>
        <time>2014-04-15T06:51:03Z</time>
      </trkpt>
      <trkpt lat="47.88653" lon="3.43702">
        <ele>112</ele>
        <time>2014-04-15T06:51:07Z</time>
      </trkpt>
      <trkpt lat="47.8865" lon="3.43707">
        <ele>112</ele>
        <time>2014-04-15T06:51:11Z</time>
      </trkpt>
      <trkpt lat="47.88646" lon="3.43712">
        <ele>112</ele>
        <time>2014-04-15T06:51:16Z</time>
      </trkpt>
      <trkpt lat="47.88641" lon="3.43715">
        <ele>112</ele>
        <time>2014-04-15T06:51:20Z</time>
      </trkpt>
      <trkpt lat="47.88636" lon="3.43717">
        <ele>112</ele>
        <time>2014-04-15T06:51:26Z</time>
      </trkpt>
      <trkpt lat="47.88631" lon="3.4372">
        <ele>112</ele>
        <time>2014-04-15T06:51:32Z</time>
      </trkpt>
      <trkpt lat="47.88627" lon="3.43722">
        <ele>112</ele>
        <time>2014-04-15T06:51:37Z</time>
      </trkpt>
      <trkpt lat="47.88622" lon="3.43719">
        <ele>112</ele>
        <time>2014-04-15T06:51:42Z</time>
      </trkpt>
      <trkpt lat="47.88618" lon="3.43721">
        <ele>112</ele>
        <time>2014-04-15T06:51:54Z</time>
      </trkpt>
      <trkpt lat="47.88614" lon="3.43723">
        <ele>112</ele>
        <time>2014-04-15T06:51:58Z</time>
      </trkpt>
      <trkpt lat="47.88608" lon="3.43726">
        <ele>113</ele>
        <time>2014-04-15T06:52:03Z</time>
      </trkpt>
      <trkpt lat="47.88604" lon="3.43729">
        <ele>113</ele>
        <time>2014-04-15T06:52:07Z</time>
      </trkpt>
      <trkpt lat="47.88599" lon="3.43731">
        <ele>113</ele>
        <time>2014-04-15T06:52:10Z</time>
      </trkpt>
      <trkpt lat="47.88595" lon="3.43734">
        <ele>113</ele>
        <time>2014-04-15T06:52:15Z</time>
      </trkpt>
      <trkpt lat="47.8859" lon="3.43739">
        <ele>113</ele>
        <time>2014-04-15T06:52:18Z</time>
      </trkpt>
      <trkpt lat="47.88586" lon="3.43744">
        <ele>114</ele>
        <time>2014-04-15T06:52:23Z</time>
      </trkpt>
      <trkpt lat="47.88582" lon="3.43747">
        <ele>114</ele>
        <time>2014-04-15T06:52:29Z</time>
      </trkpt>
      <trkpt lat="47.88577" lon="3.43748">
        <ele>113</ele>
        <time>2014-04-15T06:52:35Z</time>
      </trkpt>
      <trkpt lat="47.88572" lon="3.4375">
        <ele>113</ele>
        <time>2014-04-15T06:52:42Z</time>
      </trkpt>
      <trkpt lat="47.88567" lon="3.43751">
        <ele>114</ele>
        <time>2014-04-15T06:52:47Z</time>
      </trkpt>
      <trkpt lat="47.88563" lon="3.43753">
        <ele>114</ele>
        <time>2014-04-15T06:52:50Z</time>
      </trkpt>
      <trkpt lat="47.88557" lon="3.43755">
        <ele>114</ele>
        <time>2014-04-15T06:52:54Z</time>
      </trkpt>
      <trkpt lat="47.88552" lon="3.43757">
        <ele>114</ele>
        <time>2014-04-15T06:52:58Z</time>
      </trkpt>
      <trkpt lat="47.88548" lon="3.43761">
        <ele>114</ele>
        <time>2014-04-15T06:53:03Z</time>
      </trkpt>
      <trkpt lat="47.88546" lon="3.43767">
        <ele>114</ele>
        <time>2014-04-15T06:53:09Z</time>
      </trkpt>
      <trkpt lat="47.88541" lon="3.4377">
        <ele>114</ele>
        <time>2014-04-15T06:53:16Z</time>
      </trkpt>
      <trkpt lat="47.88536" lon="3.43774">
        <ele>114</ele>
        <time>2014-04-15T06:53:21Z</time>
      </trkpt>
      <trkpt lat="47.88532" lon="3.43776">
        <ele>114</ele>
        <time>2014-04-15T06:53:24Z</time>
      </trkpt>
      <trkpt lat="47.88529" lon="3.43784">
        <ele>114</ele>
        <time>2014-04-15T06:53:29Z</time>
      </trkpt>
      <trkpt lat="47.88526" lon="3.4379">
        <ele>114</ele>
        <time>2014-04-15T06:53:32Z</time>
      </trkpt>
      <trkpt lat="47.88522" lon="3.43796">
        <ele>114</ele>
        <time>2014-04-15T06:53:36Z</time>
      </trkpt>
      <trkpt lat="47.88521" lon="3.43803">
        <ele>114</ele>
        <time>2014-04-15T06:53:41Z</time>
      </trkpt>
      <trkpt lat="47.88518" lon="3.4381">
        <ele>114</ele>
        <time>2014-04-15T06:53:47Z</time>
      </trkpt>
      <trkpt lat="47.88514" lon="3.43815">
        <ele>114</ele>
        <time>2014-04-15T06:53:52Z</time>
      </trkpt>
      <trkpt lat="47.88509" lon="3.43816">
        <ele>114</ele>
        <time>2014-04-15T06:53:56Z</time>
      </trkpt>
      <trkpt lat="47.88507" lon="3.43825">
        <ele>114</ele>
        <time>2014-04-15T06:54:01Z</time>
      </trkpt>
      <trkpt lat="47.8851" lon="3.43822">
        <ele>114</ele>
        <time>2014-04-15T06:54:22Z</time>
      </trkpt>
      <trkpt lat="47.88507" lon="3.43817">
        <ele>114</ele>
        <time>2014-04-15T06:54:27Z</time>
      </trkpt>
      <trkpt lat="47.88507" lon="3.4382">
        <ele>114</ele>
        <time>2014-04-15T06:55:23Z</time>
      </trkpt>
      <trkpt lat="47.88511" lon="3.43824">
        <ele>114</ele>
        <time>2014-04-15T06:55:49Z</time>
      </trkpt>
      <trkpt lat="47.8851" lon="3.43831">
        <ele>114</ele>
        <time>2014-04-15T06:55:55Z</time>
      </trkpt>
      <trkpt lat="47.88506" lon="3.43836">
        <ele>114</ele>
        <time>2014-04-15T06:55:58Z</time>
      </trkpt>
      <trkpt lat="47.88504" lon="3.43842">
        <ele>115</ele>
        <time>2014-04-15T06:56:02Z</time>
      </trkpt>
      <trkpt lat="47.88495" lon="3.43862">
        <ele>114</ele>
        <time>2014-04-15T06:56:18Z</time>
      </trkpt>
      <trkpt lat="47.88492" lon="3.43869">
        <ele>115</ele>
        <time>2014-04-15T06:56:22Z</time>
      </trkpt>
      <trkpt lat="47.88489" lon="3.43874">
        <ele>115</ele>
        <time>2014-04-15T06:56:28Z</time>
      </trkpt>
      <trkpt lat="47.88487" lon="3.43882">
        <ele>115</ele>
        <time>2014-04-15T06:56:32Z</time>
      </trkpt>
      <trkpt lat="47.88486" lon="3.43889">
        <ele>115</ele>
        <time>2014-04-15T06:56:35Z</time>
      </trkpt>
      <trkpt lat="47.88485" lon="3.43896">
        <ele>115</ele>
        <time>2014-04-15T06:56:38Z</time>
      </trkpt>
      <trkpt lat="47.88485" lon="3.43905">
        <ele>116</ele>
        <time>2014-04-15T06:56:42Z</time>
      </trkpt>
      <trkpt lat="47.88484" lon="3.43913">
        <ele>116</ele>
        <time>2014-04-15T06:56:46Z</time>
      </trkpt>
      <trkpt lat="47.88483" lon="3.4392">
        <ele>117</ele>
        <time>2014-04-15T06:56:51Z</time>
      </trkpt>
      <trkpt lat="47.88482" lon="3.43928">
        <ele>117</ele>
        <time>2014-04-15T06:56:56Z</time>
      </trkpt>
      <trkpt lat="47.88481" lon="3.43935">
        <ele>116</ele>
        <time>2014-04-15T06:57:01Z</time>
      </trkpt>
      <trkpt lat="47.88478" lon="3.4394">
        <ele>116</ele>
        <time>2014-04-15T06:57:05Z</time>
      </trkpt>
      <trkpt lat="47.88474" lon="3.43946">
        <ele>116</ele>
        <time>2014-04-15T06:57:11Z</time>
      </trkpt>
      <trkpt lat="47.88472" lon="3.43952">
        <ele>116</ele>
        <time>2014-04-15T06:57:14Z</time>
      </trkpt>
      <trkpt lat="47.88469" lon="3.43956">
        <ele>116</ele>
        <time>2014-04-15T06:57:18Z</time>
      </trkpt>
      <trkpt lat="47.88464" lon="3.43959">
        <ele>116</ele>
        <time>2014-04-15T06:57:20Z</time>
      </trkpt>
      <trkpt lat="47.8846" lon="3.43963">
        <ele>116</ele>
        <time>2014-04-15T06:57:26Z</time>
      </trkpt>
      <trkpt lat="47.88456" lon="3.43968">
        <ele>116</ele>
        <time>2014-04-15T06:57:30Z</time>
      </trkpt>
      <trkpt lat="47.88452" lon="3.43972">
        <ele>116</ele>
        <time>2014-04-15T06:57:35Z</time>
      </trkpt>
      <trkpt lat="47.88448" lon="3.43977">
        <ele>116</ele>
        <time>2014-04-15T06:57:38Z</time>
      </trkpt>
      <trkpt lat="47.88444" lon="3.4398">
        <ele>115</ele>
        <time>2014-04-15T06:57:42Z</time>
      </trkpt>
      <trkpt lat="47.88439" lon="3.43983">
        <ele>115</ele>
        <time>2014-04-15T06:57:46Z</time>
      </trkpt>
      <trkpt lat="47.88435" lon="3.43988">
        <ele>115</ele>
        <time>2014-04-15T06:57:48Z</time>
      </trkpt>
      <trkpt lat="47.88431" lon="3.43993">
        <ele>114</ele>
        <time>2014-04-15T06:57:51Z</time>
      </trkpt>
      <trkpt lat="47.88429" lon="3.43999">
        <ele>114</ele>
        <time>2014-04-15T06:57:55Z</time>
      </trkpt>
      <trkpt lat="47.88425" lon="3.44005">
        <ele>114</ele>
        <time>2014-04-15T06:58:00Z</time>
      </trkpt>
      <trkpt lat="47.88422" lon="3.44011">
        <ele>114</ele>
        <time>2014-04-15T06:58:05Z</time>
      </trkpt>
      <trkpt lat="47.88419" lon="3.44017">
        <ele>115</ele>
        <time>2014-04-15T06:58:10Z</time>
      </trkpt>
      <trkpt lat="47.88415" lon="3.44022">
        <ele>112</ele>
        <time>2014-04-15T06:58:14Z</time>
      </trkpt>
      <trkpt lat="47.8841" lon="3.44026">
        <ele>112</ele>
        <time>2014-04-15T06:58:17Z</time>
      </trkpt>
      <trkpt lat="47.88406" lon="3.4403">
        <ele>112</ele>
        <time>2014-04-15T06:58:20Z</time>
      </trkpt>
      <trkpt lat="47.88402" lon="3.44034">
        <ele>112</ele>
        <time>2014-04-15T06:58:24Z</time>
      </trkpt>
      <trkpt lat="47.88398" lon="3.44038">
        <ele>112</ele>
        <time>2014-04-15T06:58:29Z</time>
      </trkpt>
      <trkpt lat="47.88394" lon="3.44042">
        <ele>112</ele>
        <time>2014-04-15T06:58:34Z</time>
      </trkpt>
      <trkpt lat="47.88391" lon="3.44049">
        <ele>112</ele>
        <time>2014-04-15T06:58:40Z</time>
      </trkpt>
      <trkpt lat="47.88388" lon="3.44054">
        <ele>112</ele>
        <time>2014-04-15T06:58:46Z</time>
      </trkpt>
      <trkpt lat="47.88384" lon="3.4406">
        <ele>112</ele>
        <time>2014-04-15T06:58:51Z</time>
      </trkpt>
      <trkpt lat="47.8838" lon="3.44066">
        <ele>112</ele>
        <time>2014-04-15T06:58:55Z</time>
      </trkpt>
      <trkpt lat="47.88374" lon="3.44069">
        <ele>112</ele>
        <time>2014-04-15T06:58:59Z</time>
      </trkpt>
      <trkpt lat="47.8837" lon="3.44073">
        <ele>112</ele>
        <time>2014-04-15T06:59:01Z</time>
      </trkpt>
      <trkpt lat="47.88368" lon="3.44079">
        <ele>112</ele>
        <time>2014-04-15T06:59:04Z</time>
      </trkpt>
      <trkpt lat="47.88365" lon="3.44086">
        <ele>114</ele>
        <time>2014-04-15T06:59:10Z</time>
      </trkpt>
      <trkpt lat="47.88363" lon="3.44093">
        <ele>114</ele>
        <time>2014-04-15T06:59:16Z</time>
      </trkpt>
      <trkpt lat="47.8836" lon="3.44099">
        <ele>114</ele>
        <time>2014-04-15T06:59:22Z</time>
      </trkpt>
      <trkpt lat="47.8836" lon="3.44106">
        <ele>114</ele>
        <time>2014-04-15T06:59:27Z</time>
      </trkpt>
      <trkpt lat="47.88357" lon="3.44112">
        <ele>114</ele>
        <time>2014-04-15T06:59:31Z</time>
      </trkpt>
      <trkpt lat="47.88354" lon="3.44118">
        <ele>114</ele>
        <time>2014-04-15T06:59:34Z</time>
      </trkpt>
      <trkpt lat="47.88351" lon="3.44124">
        <ele>114</ele>
        <time>2014-04-15T06:59:38Z</time>
      </trkpt>
      <trkpt lat="47.88347" lon="3.44129">
        <ele>114</ele>
        <time>2014-04-15T06:59:42Z</time>
      </trkpt>
      <trkpt lat="47.88343" lon="3.44134">
        <ele>114</ele>
        <time>2014-04-15T06:59:48Z</time>
      </trkpt>
      <trkpt lat="47.88339" lon="3.44137">
        <ele>114</ele>
        <time>2014-04-15T06:59:53Z</time>
      </trkpt>
      <trkpt lat="47.88337" lon="3.44143">
        <ele>114</ele>
        <time>2014-04-15T06:59:57Z</time>
      </trkpt>
      <trkpt lat="47.88332" lon="3.44148">
        <ele>112</ele>
        <time>2014-04-15T07:00:00Z</time>
      </trkpt>
      <trkpt lat="47.88328" lon="3.44152">
        <ele>112</ele>
        <time>2014-04-15T07:00:03Z</time>
      </trkpt>
      <trkpt lat="47.88325" lon="3.44157">
        <ele>112</ele>
        <time>2014-04-15T07:00:07Z</time>
      </trkpt>
      <trkpt lat="47.88321" lon="3.44162">
        <ele>112</ele>
        <time>2014-04-15T07:00:12Z</time>
      </trkpt>
      <trkpt lat="47.88318" lon="3.44169">
        <ele>113</ele>
        <time>2014-04-15T07:00:17Z</time>
      </trkpt>
      <trkpt lat="47.88314" lon="3.44172">
        <ele>113</ele>
        <time>2014-04-15T07:00:21Z</time>
      </trkpt>
      <trkpt lat="47.88309" lon="3.44174">
        <ele>113</ele>
        <time>2014-04-15T07:00:23Z</time>
      </trkpt>
      <trkpt lat="47.88304" lon="3.44177">
        <ele>113</ele>
        <time>2014-04-15T07:00:27Z</time>
      </trkpt>
      <trkpt lat="47.88301" lon="3.44183">
        <ele>113</ele>
        <time>2014-04-15T07:00:32Z</time>
      </trkpt>
      <trkpt lat="47.88297" lon="3.44187">
        <ele>113</ele>
        <time>2014-04-15T07:00:36Z</time>
      </trkpt>
      <trkpt lat="47.88292" lon="3.44193">
        <ele>113</ele>
        <time>2014-04-15T07:00:40Z</time>
      </trkpt>
      <trkpt lat="47.88289" lon="3.44199">
        <ele>113</ele>
        <time>2014-04-15T07:00:44Z</time>
      </trkpt>
      <trkpt lat="47.88287" lon="3.44206">
        <ele>113</ele>
        <time>2014-04-15T07:00:49Z</time>
      </trkpt>
      <trkpt lat="47.88285" lon="3.44212">
        <ele>113</ele>
        <time>2014-04-15T07:00:52Z</time>
      </trkpt>
      <trkpt lat="47.88282" lon="3.44218">
        <ele>113</ele>
        <time>2014-04-15T07:00:56Z</time>
      </trkpt>
      <trkpt lat="47.88278" lon="3.44222">
        <ele>113</ele>
        <time>2014-04-15T07:01:01Z</time>
      </trkpt>
      <trkpt lat="47.88274" lon="3.44227">
        <ele>113</ele>
        <time>2014-04-15T07:01:03Z</time>
      </trkpt>
      <trkpt lat="47.88271" lon="3.44233">
        <ele>113</ele>
        <time>2014-04-15T07:01:06Z</time>
      </trkpt>
      <trkpt lat="47.88269" lon="3.44239">
        <ele>113</ele>
        <time>2014-04-15T07:01:11Z</time>
      </trkpt>
      <trkpt lat="47.88265" lon="3.44244">
        <ele>112</ele>
        <time>2014-04-15T07:01:15Z</time>
      </trkpt>
      <trkpt lat="47.88261" lon="3.44248">
        <ele>112</ele>
        <time>2014-04-15T07:01:19Z</time>
      </trkpt>
      <trkpt lat="47.88259" lon="3.44254">
        <ele>114</ele>
        <time>2014-04-15T07:01:23Z</time>
      </trkpt>
      <trkpt lat="47.88254" lon="3.4425">
        <ele>112</ele>
        <time>2014-04-15T07:01:29Z</time>
      </trkpt>
      <trkpt lat="47.88249" lon="3.44249">
        <ele>111</ele>
        <time>2014-04-15T07:01:35Z</time>
      </trkpt>
      <trkpt lat="47.88246" lon="3.44255">
        <ele>111</ele>
        <time>2014-04-15T07:01:40Z</time>
      </trkpt>
      <trkpt lat="47.88243" lon="3.44261">
        <ele>111</ele>
        <time>2014-04-15T07:01:45Z</time>
      </trkpt>
      <trkpt lat="47.88241" lon="3.44267">
        <ele>111</ele>
        <time>2014-04-15T07:01:51Z</time>
      </trkpt>
      <trkpt lat="47.88239" lon="3.44275">
        <ele>111</ele>
        <time>2014-04-15T07:01:56Z</time>
      </trkpt>
      <trkpt lat="47.88235" lon="3.4428">
        <ele>111</ele>
        <time>2014-04-15T07:02:00Z</time>
      </trkpt>
      <trkpt lat="47.88232" lon="3.44286">
        <ele>111</ele>
        <time>2014-04-15T07:02:04Z</time>
      </trkpt>
      <trkpt lat="47.88227" lon="3.4429">
        <ele>111</ele>
        <time>2014-04-15T07:02:08Z</time>
      </trkpt>
      <trkpt lat="47.88223" lon="3.44294">
        <ele>111</ele>
        <time>2014-04-15T07:02:11Z</time>
      </trkpt>
      <trkpt lat="47.88219" lon="3.44299">
        <ele>111</ele>
        <time>2014-04-15T07:02:14Z</time>
      </trkpt>
      <trkpt lat="47.88215" lon="3.44304">
        <ele>111</ele>
        <time>2014-04-15T07:02:17Z</time>
      </trkpt>
      <trkpt lat="47.88211" lon="3.44309">
        <ele>111</ele>
        <time>2014-04-15T07:02:21Z</time>
      </trkpt>
      <trkpt lat="47.88207" lon="3.44314">
        <ele>111</ele>
        <time>2014-04-15T07:02:27Z</time>
      </trkpt>
      <trkpt lat="47.88206" lon="3.44322">
        <ele>111</ele>
        <time>2014-04-15T07:02:32Z</time>
      </trkpt>
      <trkpt lat="47.88205" lon="3.44329">
        <ele>111</ele>
        <time>2014-04-15T07:02:38Z</time>
      </trkpt>
      <trkpt lat="47.88202" lon="3.44334">
        <ele>115</ele>
        <time>2014-04-15T07:02:42Z</time>
      </trkpt>
      <trkpt lat="47.88198" lon="3.44339">
        <ele>115</ele>
        <time>2014-04-15T07:02:46Z</time>
      </trkpt>
      <trkpt lat="47.88196" lon="3.44347">
        <ele>115</ele>
        <time>2014-04-15T07:02:50Z</time>
      </trkpt>
      <trkpt lat="47.88191" lon="3.44352">
        <ele>115</ele>
        <time>2014-04-15T07:02:55Z</time>
      </trkpt>
      <trkpt lat="47.88186" lon="3.44356">
        <ele>115</ele>
        <time>2014-04-15T07:02:59Z</time>
      </trkpt>
      <trkpt lat="47.88183" lon="3.44362">
        <ele>115</ele>
        <time>2014-04-15T07:03:02Z</time>
      </trkpt>
      <trkpt lat="47.88178" lon="3.44365">
        <ele>115</ele>
        <time>2014-04-15T07:03:06Z</time>
      </trkpt>
      <trkpt lat="47.88174" lon="3.44367">
        <ele>115</ele>
        <time>2014-04-15T07:03:10Z</time>
      </trkpt>
      <trkpt lat="47.88171" lon="3.44373">
        <ele>116</ele>
        <time>2014-04-15T07:03:15Z</time>
      </trkpt>
      <trkpt lat="47.88167" lon="3.44386">
        <ele>116</ele>
        <time>2014-04-15T07:03:24Z</time>
      </trkpt>
      <trkpt lat="47.88164" lon="3.4439">
        <ele>114</ele>
        <time>2014-04-15T07:03:28Z</time>
      </trkpt>
      <trkpt lat="47.8816" lon="3.44395">
        <ele>114</ele>
        <time>2014-04-15T07:03:32Z</time>
      </trkpt>
      <trkpt lat="47.88157" lon="3.44399">
        <ele>114</ele>
        <time>2014-04-15T07:03:36Z</time>
      </trkpt>
      <trkpt lat="47.88152" lon="3.44401">
        <ele>114</ele>
        <time>2014-04-15T07:03:39Z</time>
      </trkpt>
      <trkpt lat="47.88147" lon="3.44405">
        <ele>114</ele>
        <time>2014-04-15T07:03:44Z</time>
      </trkpt>
      <trkpt lat="47.88142" lon="3.44407">
        <ele>114</ele>
        <time>2014-04-15T07:03:48Z</time>
      </trkpt>
      <trkpt lat="47.88137" lon="3.44408">
        <ele>114</ele>
        <time>2014-04-15T07:03:55Z</time>
      </trkpt>
      <trkpt lat="47.88132" lon="3.4441">
        <ele>114</ele>
        <time>2014-04-15T07:04:01Z</time>
      </trkpt>
      <trkpt lat="47.88127" lon="3.44412">
        <ele>114</ele>
        <time>2014-04-15T07:04:05Z</time>
      </trkpt>
      <trkpt lat="47.88122" lon="3.44416">
        <ele>114</ele>
        <time>2014-04-15T07:04:09Z</time>
      </trkpt>
      <trkpt lat="47.88118" lon="3.44421">
        <ele>119</ele>
        <time>2014-04-15T07:04:12Z</time>
      </trkpt>
      <trkpt lat="47.88114" lon="3.44424">
        <ele>119</ele>
        <time>2014-04-15T07:04:15Z</time>
      </trkpt>
      <trkpt lat="47.88108" lon="3.44427">
        <ele>119</ele>
        <time>2014-04-15T07:04:19Z</time>
      </trkpt>
      <trkpt lat="47.88103" lon="3.44427">
        <ele>119</ele>
        <time>2014-04-15T07:04:24Z</time>
      </trkpt>
      <trkpt lat="47.88098" lon="3.4443">
        <ele>118</ele>
        <time>2014-04-15T07:04:27Z</time>
      </trkpt>
      <trkpt lat="47.88092" lon="3.44429">
        <ele>118</ele>
        <time>2014-04-15T07:04:31Z</time>
      </trkpt>
      <trkpt lat="47.88087" lon="3.44428">
        <ele>117</ele>
        <time>2014-04-15T07:04:34Z</time>
      </trkpt>
      <trkpt lat="47.88083" lon="3.44429">
        <ele>116</ele>
        <time>2014-04-15T07:04:37Z</time>
      </trkpt>
      <trkpt lat="47.88078" lon="3.44431">
        <ele>117</ele>
        <time>2014-04-15T07:04:40Z</time>
      </trkpt>
      <trkpt lat="47.88073" lon="3.44433">
        <ele>117</ele>
        <time>2014-04-15T07:04:43Z</time>
      </trkpt>
      <trkpt lat="47.88067" lon="3.44435">
        <ele>117</ele>
        <time>2014-04-15T07:04:47Z</time>
      </trkpt>
      <trkpt lat="47.88062" lon="3.44437">
        <ele>117</ele>
        <time>2014-04-15T07:04:51Z</time>
      </trkpt>
      <trkpt lat="47.88058" lon="3.44441">
        <ele>117</ele>
        <time>2014-04-15T07:04:54Z</time>
      </trkpt>
      <trkpt lat="47.88054" lon="3.44443">
        <ele>118</ele>
        <time>2014-04-15T07:04:58Z</time>
      </trkpt>
      <trkpt lat="47.88048" lon="3.44445">
        <ele>118</ele>
        <time>2014-04-15T07:05:01Z</time>
      </trkpt>
      <trkpt lat="47.88044" lon="3.44448">
        <ele>118</ele>
        <time>2014-04-15T07:05:05Z</time>
      </trkpt>
      <trkpt lat="47.88039" lon="3.44451">
        <ele>118</ele>
        <time>2014-04-15T07:05:09Z</time>
      </trkpt>
      <trkpt lat="47.88034" lon="3.44451">
        <ele>118</ele>
        <time>2014-04-15T07:05:15Z</time>
      </trkpt>
      <trkpt lat="47.88029" lon="3.4445">
        <ele>118</ele>
        <time>2014-04-15T07:05:21Z</time>
      </trkpt>
      <trkpt lat="47.88024" lon="3.44453">
        <ele>118</ele>
        <time>2014-04-15T07:05:23Z</time>
      </trkpt>
      <trkpt lat="47.88019" lon="3.44457">
        <ele>118</ele>
        <time>2014-04-15T07:05:27Z</time>
      </trkpt>
      <trkpt lat="47.88015" lon="3.44461">
        <ele>118</ele>
        <time>2014-04-15T07:05:30Z</time>
      </trkpt>
      <trkpt lat="47.88011" lon="3.44466">
        <ele>118</ele>
        <time>2014-04-15T07:05:35Z</time>
      </trkpt>
      <trkpt lat="47.88006" lon="3.4447">
        <ele>118</ele>
        <time>2014-04-15T07:05:38Z</time>
      </trkpt>
      <trkpt lat="47.88001" lon="3.44473">
        <ele>118</ele>
        <time>2014-04-15T07:05:42Z</time>
      </trkpt>
      <trkpt lat="47.87996" lon="3.44473">
        <ele>117</ele>
        <time>2014-04-15T07:05:45Z</time>
      </trkpt>
      <trkpt lat="47.87992" lon="3.44477">
        <ele>117</ele>
        <time>2014-04-15T07:05:53Z</time>
      </trkpt>
      <trkpt lat="47.87963" lon="3.44489">
        <ele>118</ele>
        <time>2014-04-15T07:06:23Z</time>
      </trkpt>
      <trkpt lat="47.87953" lon="3.44489">
        <ele>118</ele>
        <time>2014-04-15T07:06:26Z</time>
      </trkpt>
      <trkpt lat="47.87949" lon="3.44492">
        <ele>118</ele>
        <time>2014-04-15T07:06:27Z</time>
      </trkpt>
      <trkpt lat="47.87943" lon="3.44497">
        <ele>118</ele>
        <time>2014-04-15T07:06:31Z</time>
      </trkpt>
      <trkpt lat="47.87939" lon="3.44502">
        <ele>120</ele>
        <time>2014-04-15T07:06:36Z</time>
      </trkpt>
      <trkpt lat="47.87935" lon="3.44504">
        <ele>120</ele>
        <time>2014-04-15T07:06:40Z</time>
      </trkpt>
      <trkpt lat="47.8793" lon="3.44506">
        <ele>120</ele>
        <time>2014-04-15T07:06:44Z</time>
      </trkpt>
      <trkpt lat="47.87925" lon="3.44507">
        <ele>120</ele>
        <time>2014-04-15T07:06:48Z</time>
      </trkpt>
      <trkpt lat="47.87919" lon="3.44507">
        <ele>120</ele>
        <time>2014-04-15T07:06:50Z</time>
      </trkpt>
      <trkpt lat="47.87914" lon="3.44509">
        <ele>119</ele>
        <time>2014-04-15T07:06:57Z</time>
      </trkpt>
      <trkpt lat="47.8791" lon="3.44511">
        <ele>119</ele>
        <time>2014-04-15T07:07:02Z</time>
      </trkpt>
      <trkpt lat="47.87904" lon="3.44514">
        <ele>119</ele>
        <time>2014-04-15T07:07:05Z</time>
      </trkpt>
      <trkpt lat="47.87899" lon="3.44516">
        <ele>119</ele>
        <time>2014-04-15T07:07:08Z</time>
      </trkpt>
      <trkpt lat="47.87893" lon="3.44517">
        <ele>119</ele>
        <time>2014-04-15T07:07:12Z</time>
      </trkpt>
      <trkpt lat="47.87888" lon="3.44516">
        <ele>119</ele>
        <time>2014-04-15T07:07:16Z</time>
      </trkpt>
      <trkpt lat="47.87883" lon="3.44516">
        <ele>119</ele>
        <time>2014-04-15T07:07:19Z</time>
      </trkpt>
      <trkpt lat="47.87879" lon="3.44517">
        <ele>119</ele>
        <time>2014-04-15T07:07:24Z</time>
      </trkpt>
      <trkpt lat="47.87878" lon="3.44521">
        <ele>119</ele>
        <time>2014-04-15T07:07:30Z</time>
      </trkpt>
      <trkpt lat="47.87873" lon="3.44525">
        <ele>119</ele>
        <time>2014-04-15T07:07:36Z</time>
      </trkpt>
      <trkpt lat="47.87867" lon="3.44527">
        <ele>119</ele>
        <time>2014-04-15T07:07:40Z</time>
      </trkpt>
      <trkpt lat="47.87862" lon="3.44528">
        <ele>119</ele>
        <time>2014-04-15T07:07:44Z</time>
      </trkpt>
      <trkpt lat="47.87857" lon="3.44529">
        <ele>118</ele>
        <time>2014-04-15T07:07:48Z</time>
      </trkpt>
      <trkpt lat="47.87852" lon="3.44529">
        <ele>118</ele>
        <time>2014-04-15T07:07:52Z</time>
      </trkpt>
      <trkpt lat="47.87847" lon="3.44532">
        <ele>118</ele>
        <time>2014-04-15T07:07:55Z</time>
      </trkpt>
      <trkpt lat="47.87842" lon="3.44536">
        <ele>118</ele>
        <time>2014-04-15T07:07:58Z</time>
      </trkpt>
      <trkpt lat="47.87838" lon="3.44538">
        <ele>119</ele>
        <time>2014-04-15T07:08:03Z</time>
      </trkpt>
      <trkpt lat="47.87833" lon="3.44534">
        <ele>118</ele>
        <time>2014-04-15T07:08:09Z</time>
      </trkpt>
      <trkpt lat="47.8783" lon="3.44538">
        <ele>115</ele>
        <time>2014-04-15T07:08:16Z</time>
      </trkpt>
      <trkpt lat="47.87826" lon="3.44542">
        <ele>116</ele>
        <time>2014-04-15T07:08:23Z</time>
      </trkpt>
      <trkpt lat="47.87821" lon="3.44543">
        <ele>115</ele>
        <time>2014-04-15T07:08:27Z</time>
      </trkpt>
      <trkpt lat="47.87816" lon="3.44546">
        <ele>116</ele>
        <time>2014-04-15T07:08:29Z</time>
      </trkpt>
      <trkpt lat="47.87811" lon="3.4455">
        <ele>116</ele>
        <time>2014-04-15T07:08:32Z</time>
      </trkpt>
      <trkpt lat="47.87804" lon="3.44555">
        <ele>115</ele>
        <time>2014-04-15T07:08:38Z</time>
      </trkpt>
      <trkpt lat="47.878" lon="3.44559">
        <ele>115</ele>
        <time>2014-04-15T07:08:41Z</time>
      </trkpt>
      <trkpt lat="47.87795" lon="3.44563">
        <ele>115</ele>
        <time>2014-04-15T07:08:46Z</time>
      </trkpt>
      <trkpt lat="47.8779" lon="3.44563">
        <ele>115</ele>
        <time>2014-04-15T07:08:52Z</time>
      </trkpt>
      <trkpt lat="47.87784" lon="3.44563">
        <ele>115</ele>
        <time>2014-04-15T07:08:55Z</time>
      </trkpt>
      <trkpt lat="47.8778" lon="3.44565">
        <ele>114</ele>
        <time>2014-04-15T07:08:58Z</time>
      </trkpt>
      <trkpt lat="47.87775" lon="3.44565">
        <ele>114</ele>
        <time>2014-04-15T07:09:04Z</time>
      </trkpt>
      <trkpt lat="47.87774" lon="3.44557">
        <ele>114</ele>
        <time>2014-04-15T07:09:08Z</time>
      </trkpt>
      <trkpt lat="47.87776" lon="3.44547">
        <ele>114</ele>
        <time>2014-04-15T07:09:11Z</time>
      </trkpt>
      <trkpt lat="47.87777" lon="3.4454">
        <ele>114</ele>
        <time>2014-04-15T07:09:14Z</time>
      </trkpt>
      <trkpt lat="47.8778" lon="3.44533">
        <ele>114</ele>
        <time>2014-04-15T07:09:19Z</time>
      </trkpt>
      <trkpt lat="47.87782" lon="3.44526">
        <ele>114</ele>
        <time>2014-04-15T07:09:23Z</time>
      </trkpt>
      <trkpt lat="47.87782" lon="3.44518">
        <ele>114</ele>
        <time>2014-04-15T07:09:25Z</time>
      </trkpt>
      <trkpt lat="47.87781" lon="3.44504">
        <ele>113</ele>
        <time>2014-04-15T07:09:31Z</time>
      </trkpt>
      <trkpt lat="47.8778" lon="3.44497">
        <ele>114</ele>
        <time>2014-04-15T07:09:35Z</time>
      </trkpt>
      <trkpt lat="47.87782" lon="3.4449">
        <ele>114</ele>
        <time>2014-04-15T07:09:41Z</time>
      </trkpt>
      <trkpt lat="47.87781" lon="3.44482">
        <ele>114</ele>
        <time>2014-04-15T07:09:45Z</time>
      </trkpt>
      <trkpt lat="47.8778" lon="3.44474">
        <ele>114</ele>
        <time>2014-04-15T07:09:48Z</time>
      </trkpt>
      <trkpt lat="47.87778" lon="3.44467">
        <ele>115</ele>
        <time>2014-04-15T07:09:54Z</time>
      </trkpt>
      <trkpt lat="47.87777" lon="3.44459">
        <ele>115</ele>
        <time>2014-04-15T07:09:58Z</time>
      </trkpt>
      <trkpt lat="47.87778" lon="3.44451">
        <ele>115</ele>
        <time>2014-04-15T07:10:02Z</time>
      </trkpt>
      <trkpt lat="47.8778" lon="3.44443">
        <ele>116</ele>
        <time>2014-04-15T07:10:08Z</time>
      </trkpt>
      <trkpt lat="47.8778" lon="3.44435">
        <ele>116</ele>
        <time>2014-04-15T07:10:13Z</time>
      </trkpt>
      <trkpt lat="47.87774" lon="3.44429">
        <ele>116</ele>
        <time>2014-04-15T07:10:16Z</time>
      </trkpt>
      <trkpt lat="47.87777" lon="3.44426">
        <ele>116</ele>
        <time>2014-04-15T07:10:26Z</time>
      </trkpt>
      <trkpt lat="47.87779" lon="3.44419">
        <ele>116</ele>
        <time>2014-04-15T07:10:29Z</time>
      </trkpt>
      <trkpt lat="47.87779" lon="3.44411">
        <ele>118</ele>
        <time>2014-04-15T07:10:35Z</time>
      </trkpt>
      <trkpt lat="47.87781" lon="3.44405">
        <ele>118</ele>
        <time>2014-04-15T07:10:38Z</time>
      </trkpt>
      <trkpt lat="47.87783" lon="3.44398">
        <ele>118</ele>
        <time>2014-04-15T07:10:44Z</time>
      </trkpt>
      <trkpt lat="47.87783" lon="3.44391">
        <ele>118</ele>
        <time>2014-04-15T07:10:48Z</time>
      </trkpt>
      <trkpt lat="47.87784" lon="3.44384">
        <ele>118</ele>
        <time>2014-04-15T07:10:52Z</time>
      </trkpt>
      <trkpt lat="47.87783" lon="3.44377">
        <ele>119</ele>
        <time>2014-04-15T07:10:58Z</time>
      </trkpt>
      <trkpt lat="47.87784" lon="3.44367">
        <ele>119</ele>
        <time>2014-04-15T07:11:03Z</time>
      </trkpt>
      <trkpt lat="47.87783" lon="3.44359">
        <ele>119</ele>
        <time>2014-04-15T07:11:06Z</time>
      </trkpt>
      <trkpt lat="47.8778" lon="3.44352">
        <ele>119</ele>
        <time>2014-04-15T07:11:11Z</time>
      </trkpt>
      <trkpt lat="47.87781" lon="3.44344">
        <ele>119</ele>
        <time>2014-04-15T07:11:14Z</time>
      </trkpt>
      <trkpt lat="47.87782" lon="3.44337">
        <ele>119</ele>
        <time>2014-04-15T07:11:18Z</time>
      </trkpt>
      <trkpt lat="47.87782" lon="3.4433">
        <ele>119</ele>
        <time>2014-04-15T07:11:22Z</time>
      </trkpt>
      <trkpt lat="47.87782" lon="3.44322">
        <ele>119</ele>
        <time>2014-04-15T07:11:26Z</time>
      </trkpt>
      <trkpt lat="47.87782" lon="3.44314">
        <ele>118</ele>
        <time>2014-04-15T07:11:30Z</time>
      </trkpt>
      <trkpt lat="47.87782" lon="3.44306">
        <ele>118</ele>
        <time>2014-04-15T07:11:34Z</time>
      </trkpt>
      <trkpt lat="47.87781" lon="3.443">
        <ele>118</ele>
        <time>2014-04-15T07:11:39Z</time>
      </trkpt>
      <trkpt lat="47.8778" lon="3.44293">
        <ele>118</ele>
        <time>2014-04-15T07:11:42Z</time>
      </trkpt>
      <trkpt lat="47.87779" lon="3.44286">
        <ele>118</ele>
        <time>2014-04-15T07:11:45Z</time>
      </trkpt>
      <trkpt lat="47.8778" lon="3.44277">
        <ele>118</ele>
        <time>2014-04-15T07:11:57Z</time>
      </trkpt>
      <trkpt lat="47.87779" lon="3.44268">
        <ele>118</ele>
        <time>2014-04-15T07:12:01Z</time>
      </trkpt>
      <trkpt lat="47.87777" lon="3.44261">
        <ele>118</ele>
        <time>2014-04-15T07:12:04Z</time>
      </trkpt>
      <trkpt lat="47.87775" lon="3.44254">
        <ele>118</ele>
        <time>2014-04-15T07:12:08Z</time>
      </trkpt>
      <trkpt lat="47.87772" lon="3.44258">
        <ele>118</ele>
        <time>2014-04-15T07:12:26Z</time>
      </trkpt>
      <trkpt lat="47.87767" lon="3.44263">
        <ele>118</ele>
        <time>2014-04-15T07:12:31Z</time>
      </trkpt>
      <trkpt lat="47.87762" lon="3.44265">
        <ele>118</ele>
        <time>2014-04-15T07:12:33Z</time>
      </trkpt>
      <trkpt lat="47.87757" lon="3.44268">
        <ele>118</ele>
        <time>2014-04-15T07:12:37Z</time>
      </trkpt>
      <trkpt lat="47.87752" lon="3.44269">
        <ele>118</ele>
        <time>2014-04-15T07:12:40Z</time>
      </trkpt>
      <trkpt lat="47.87747" lon="3.44272">
        <ele>118</ele>
        <time>2014-04-15T07:12:44Z</time>
      </trkpt>
      <trkpt lat="47.87743" lon="3.44276">
        <ele>118</ele>
        <time>2014-04-15T07:12:47Z</time>
      </trkpt>
      <trkpt lat="47.87739" lon="3.4428">
        <ele>118</ele>
        <time>2014-04-15T07:12:52Z</time>
      </trkpt>
      <trkpt lat="47.87735" lon="3.44284">
        <ele>118</ele>
        <time>2014-04-15T07:12:57Z</time>
      </trkpt>
      <trkpt lat="47.8773" lon="3.44286">
        <ele>118</ele>
        <time>2014-04-15T07:13:02Z</time>
      </trkpt>
      <trkpt lat="47.87726" lon="3.4429">
        <ele>118</ele>
        <time>2014-04-15T07:13:05Z</time>
      </trkpt>
      <trkpt lat="47.87723" lon="3.44295">
        <ele>118</ele>
        <time>2014-04-15T07:13:10Z</time>
      </trkpt>
      <trkpt lat="47.87718" lon="3.44298">
        <ele>118</ele>
        <time>2014-04-15T07:13:15Z</time>
      </trkpt>
      <trkpt lat="47.87713" lon="3.443">
        <ele>118</ele>
        <time>2014-04-15T07:13:18Z</time>
      </trkpt>
      <trkpt lat="47.87706" lon="3.443">
        <ele>118</ele>
        <time>2014-04-15T07:13:20Z</time>
      </trkpt>
      <trkpt lat="47.877" lon="3.44301">
        <ele>118</ele>
        <time>2014-04-15T07:13:23Z</time>
      </trkpt>
      <trkpt lat="47.87696" lon="3.44303">
        <ele>118</ele>
        <time>2014-04-15T07:13:27Z</time>
      </trkpt>
      <trkpt lat="47.87692" lon="3.44307">
        <ele>118</ele>
        <time>2014-04-15T07:13:32Z</time>
      </trkpt>
      <trkpt lat="47.87686" lon="3.44308">
        <ele>117</ele>
        <time>2014-04-15T07:13:38Z</time>
      </trkpt>
      <trkpt lat="47.87683" lon="3.4431">
        <ele>117</ele>
        <time>2014-04-15T07:14:04Z</time>
      </trkpt>
      <trkpt lat="47.87677" lon="3.44311">
        <ele>117</ele>
        <time>2014-04-15T07:14:07Z</time>
      </trkpt>
      <trkpt lat="47.87672" lon="3.44312">
        <ele>117</ele>
        <time>2014-04-15T07:14:11Z</time>
      </trkpt>
      <trkpt lat="47.87666" lon="3.44313">
        <ele>115</ele>
        <time>2014-04-15T07:14:14Z</time>
      </trkpt>
      <trkpt lat="47.87661" lon="3.44316">
        <ele>115</ele>
        <time>2014-04-15T07:14:16Z</time>
      </trkpt>
      <trkpt lat="47.87656" lon="3.44318">
        <ele>115</ele>
        <time>2014-04-15T07:14:19Z</time>
      </trkpt>
      <trkpt lat="47.87653" lon="3.44324">
        <ele>115</ele>
        <time>2014-04-15T07:14:28Z</time>
      </trkpt>
      <trkpt lat="47.87648" lon="3.44326">
        <ele>115</ele>
        <time>2014-04-15T07:14:32Z</time>
      </trkpt>
      <trkpt lat="47.87644" lon="3.44329">
        <ele>115</ele>
        <time>2014-04-15T07:14:36Z</time>
      </trkpt>
      <trkpt lat="47.8764" lon="3.44334">
        <ele>115</ele>
        <time>2014-04-15T07:14:41Z</time>
      </trkpt>
      <trkpt lat="47.87636" lon="3.44337">
        <ele>114</ele>
        <time>2014-04-15T07:14:46Z</time>
      </trkpt>
      <trkpt lat="47.87631" lon="3.4434">
        <ele>114</ele>
        <time>2014-04-15T07:14:50Z</time>
      </trkpt>
      <trkpt lat="47.87626" lon="3.44342">
        <ele>114</ele>
        <time>2014-04-15T07:14:55Z</time>
      </trkpt>
      <trkpt lat="47.87621" lon="3.44344">
        <ele>113</ele>
        <time>2014-04-15T07:14:57Z</time>
      </trkpt>
      <trkpt lat="47.87617" lon="3.44346">
        <ele>113</ele>
        <time>2014-04-15T07:15:02Z</time>
      </trkpt>
      <trkpt lat="47.87613" lon="3.4435">
        <ele>113</ele>
        <time>2014-04-15T07:15:05Z</time>
      </trkpt>
      <trkpt lat="47.87609" lon="3.44354">
        <ele>113</ele>
        <time>2014-04-15T07:15:09Z</time>
      </trkpt>
      <trkpt lat="47.87605" lon="3.44358">
        <ele>113</ele>
        <time>2014-04-15T07:15:15Z</time>
      </trkpt>
      <trkpt lat="47.87601" lon="3.44364">
        <ele>113</ele>
        <time>2014-04-15T07:15:20Z</time>
      </trkpt>
      <trkpt lat="47.87597" lon="3.44366">
        <ele>113</ele>
        <time>2014-04-15T07:15:23Z</time>
      </trkpt>
      <trkpt lat="47.87591" lon="3.44367">
        <ele>113</ele>
        <time>2014-04-15T07:15:27Z</time>
      </trkpt>
      <trkpt lat="47.87586" lon="3.4437">
        <ele>113</ele>
        <time>2014-04-15T07:15:33Z</time>
      </trkpt>
      <trkpt lat="47.87581" lon="3.44374">
        <ele>111</ele>
        <time>2014-04-15T07:15:40Z</time>
      </trkpt>
      <trkpt lat="47.87577" lon="3.44376">
        <ele>111</ele>
        <time>2014-04-15T07:15:44Z</time>
      </trkpt>
      <trkpt lat="47.87573" lon="3.44379">
        <ele>111</ele>
        <time>2014-04-15T07:15:53Z</time>
      </trkpt>
      <trkpt lat="47.87569" lon="3.44382">
        <ele>111</ele>
        <time>2014-04-15T07:15:55Z</time>
      </trkpt>
      <trkpt lat="47.87563" lon="3.44385">
        <ele>111</ele>
        <time>2014-04-15T07:16:32Z</time>
      </trkpt>
      <trkpt lat="47.87559" lon="3.44389">
        <ele>111</ele>
        <time>2014-04-15T07:16:37Z</time>
      </trkpt>
      <trkpt lat="47.87555" lon="3.44385">
        <ele>111</ele>
        <time>2014-04-15T07:16:42Z</time>
      </trkpt>
      <trkpt lat="47.87552" lon="3.44378">
        <ele>111</ele>
        <time>2014-04-15T07:16:44Z</time>
      </trkpt>
      <trkpt lat="47.87547" lon="3.44379">
        <ele>111</ele>
        <time>2014-04-15T07:16:49Z</time>
      </trkpt>
      <trkpt lat="47.87542" lon="3.44382">
        <ele>111</ele>
        <time>2014-04-15T07:16:53Z</time>
      </trkpt>
      <trkpt lat="47.87538" lon="3.44385">
        <ele>112</ele>
        <time>2014-04-15T07:16:57Z</time>
      </trkpt>
      <trkpt lat="47.87534" lon="3.44392">
        <ele>112</ele>
        <time>2014-04-15T07:17:00Z</time>
      </trkpt>
      <trkpt lat="47.87532" lon="3.44399">
        <ele>112</ele>
        <time>2014-04-15T07:17:05Z</time>
      </trkpt>
      <trkpt lat="47.87529" lon="3.44404">
        <ele>112</ele>
        <time>2014-04-15T07:17:10Z</time>
      </trkpt>
      <trkpt lat="47.87525" lon="3.44408">
        <ele>112</ele>
        <time>2014-04-15T07:17:14Z</time>
      </trkpt>
      <trkpt lat="47.87521" lon="3.4441">
        <ele>112</ele>
        <time>2014-04-15T07:17:19Z</time>
      </trkpt>
      <trkpt lat="47.87516" lon="3.44412">
        <ele>112</ele>
        <time>2014-04-15T07:17:24Z</time>
      </trkpt>
      <trkpt lat="47.87511" lon="3.44418">
        <ele>112</ele>
        <time>2014-04-15T07:17:29Z</time>
      </trkpt>
      <trkpt lat="47.87506" lon="3.44419">
        <ele>113</ele>
        <time>2014-04-15T07:17:32Z</time>
      </trkpt>
      <trkpt lat="47.87502" lon="3.44423">
        <ele>113</ele>
        <time>2014-04-15T07:17:37Z</time>
      </trkpt>
      <trkpt lat="47.87497" lon="3.44426">
        <ele>113</ele>
        <time>2014-04-15T07:17:42Z</time>
      </trkpt>
      <trkpt lat="47.87492" lon="3.44428">
        <ele>113</ele>
        <time>2014-04-15T07:17:48Z</time>
      </trkpt>
      <trkpt lat="47.87488" lon="3.44431">
        <ele>113</ele>
        <time>2014-04-15T07:17:52Z</time>
      </trkpt>
      <trkpt lat="47.87483" lon="3.44434">
        <ele>113</ele>
        <time>2014-04-15T07:17:57Z</time>
      </trkpt>
      <trkpt lat="47.87479" lon="3.44438">
        <ele>113</ele>
        <time>2014-04-15T07:18:02Z</time>
      </trkpt>
      <trkpt lat="47.87475" lon="3.44442">
        <ele>113</ele>
        <time>2014-04-15T07:18:07Z</time>
      </trkpt>
      <trkpt lat="47.87469" lon="3.44444">
        <ele>113</ele>
        <time>2014-04-15T07:18:12Z</time>
      </trkpt>
      <trkpt lat="47.87462" lon="3.44444">
        <ele>113</ele>
        <time>2014-04-15T07:18:15Z</time>
      </trkpt>
      <trkpt lat="47.87457" lon="3.44445">
        <ele>113</ele>
        <time>2014-04-15T07:18:18Z</time>
      </trkpt>
      <trkpt lat="47.87452" lon="3.44448">
        <ele>113</ele>
        <time>2014-04-15T07:18:21Z</time>
      </trkpt>
      <trkpt lat="47.87448" lon="3.44453">
        <ele>112</ele>
        <time>2014-04-15T07:18:24Z</time>
      </trkpt>
      <trkpt lat="47.87445" lon="3.44459">
        <ele>112</ele>
        <time>2014-04-15T07:18:26Z</time>
      </trkpt>
      <trkpt lat="47.87442" lon="3.44465">
        <ele>112</ele>
        <time>2014-04-15T07:18:33Z</time>
      </trkpt>
      <trkpt lat="47.87438" lon="3.44469">
        <ele>112</ele>
        <time>2014-04-15T07:18:37Z</time>
      </trkpt>
      <trkpt lat="47.87434" lon="3.44473">
        <ele>112</ele>
        <time>2014-04-15T07:18:40Z</time>
      </trkpt>
      <trkpt lat="47.87429" lon="3.44475">
        <ele>112</ele>
        <time>2014-04-15T07:18:44Z</time>
      </trkpt>
      <trkpt lat="47.87424" lon="3.4448">
        <ele>112</ele>
        <time>2014-04-15T07:18:47Z</time>
      </trkpt>
      <trkpt lat="47.87419" lon="3.44482">
        <ele>112</ele>
        <time>2014-04-15T07:18:49Z</time>
      </trkpt>
      <trkpt lat="47.87414" lon="3.44483">
        <ele>113</ele>
        <time>2014-04-15T07:18:52Z</time>
      </trkpt>
      <trkpt lat="47.87409" lon="3.44485">
        <ele>113</ele>
        <time>2014-04-15T07:18:57Z</time>
      </trkpt>
      <trkpt lat="47.87404" lon="3.44488">
        <ele>113</ele>
        <time>2014-04-15T07:19:02Z</time>
      </trkpt>
      <trkpt lat="47.874" lon="3.44492">
        <ele>113</ele>
        <time>2014-04-15T07:19:06Z</time>
      </trkpt>
      <trkpt lat="47.87396" lon="3.44496">
        <ele>113</ele>
        <time>2014-04-15T07:19:10Z</time>
      </trkpt>
      <trkpt lat="47.8739" lon="3.44498">
        <ele>114</ele>
        <time>2014-04-15T07:19:14Z</time>
      </trkpt>
      <trkpt lat="47.87385" lon="3.44502">
        <ele>112</ele>
        <time>2014-04-15T07:19:18Z</time>
      </trkpt>
      <trkpt lat="47.87381" lon="3.44505">
        <ele>112</ele>
        <time>2014-04-15T07:19:20Z</time>
      </trkpt>
      <trkpt lat="47.87376" lon="3.44505">
        <ele>112</ele>
        <time>2014-04-15T07:19:26Z</time>
      </trkpt>
      <trkpt lat="47.87371" lon="3.44505">
        <ele>113</ele>
        <time>2014-04-15T07:19:31Z</time>
      </trkpt>
      <trkpt lat="47.87367" lon="3.44508">
        <ele>113</ele>
        <time>2014-04-15T07:19:37Z</time>
      </trkpt>
      <trkpt lat="47.87363" lon="3.44511">
        <ele>113</ele>
        <time>2014-04-15T07:19:42Z</time>
      </trkpt>
      <trkpt lat="47.87358" lon="3.44514">
        <ele>113</ele>
        <time>2014-04-15T07:19:48Z</time>
      </trkpt>
      <trkpt lat="47.87353" lon="3.44516">
        <ele>113</ele>
        <time>2014-04-15T07:19:52Z</time>
      </trkpt>
      <trkpt lat="47.87349" lon="3.44519">
        <ele>113</ele>
        <time>2014-04-15T07:19:56Z</time>
      </trkpt>
      <trkpt lat="47.87344" lon="3.44523">
        <ele>113</ele>
        <time>2014-04-15T07:20:02Z</time>
      </trkpt>
      <trkpt lat="47.87339" lon="3.44527">
        <ele>113</ele>
        <time>2014-04-15T07:20:05Z</time>
      </trkpt>
      <trkpt lat="47.87332" lon="3.4453">
        <ele>113</ele>
        <time>2014-04-15T07:20:07Z</time>
      </trkpt>
      <trkpt lat="47.87328" lon="3.44533">
        <ele>113</ele>
        <time>2014-04-15T07:20:10Z</time>
      </trkpt>
      <trkpt lat="47.87323" lon="3.44536">
        <ele>113</ele>
        <time>2014-04-15T07:20:14Z</time>
      </trkpt>
      <trkpt lat="47.87318" lon="3.44536">
        <ele>113</ele>
        <time>2014-04-15T07:20:21Z</time>
      </trkpt>
      <trkpt lat="47.87313" lon="3.44539">
        <ele>113</ele>
        <time>2014-04-15T07:20:26Z</time>
      </trkpt>
      <trkpt lat="47.8731" lon="3.44544">
        <ele>113</ele>
        <time>2014-04-15T07:20:29Z</time>
      </trkpt>
      <trkpt lat="47.87305" lon="3.44548">
        <ele>113</ele>
        <time>2014-04-15T07:20:32Z</time>
      </trkpt>
      <trkpt lat="47.873" lon="3.44551">
        <ele>112</ele>
        <time>2014-04-15T07:20:36Z</time>
      </trkpt>
      <trkpt lat="47.87295" lon="3.4455">
        <ele>113</ele>
        <time>2014-04-15T07:20:40Z</time>
      </trkpt>
      <trkpt lat="47.87289" lon="3.44552">
        <ele>113</ele>
        <time>2014-04-15T07:20:44Z</time>
      </trkpt>
      <trkpt lat="47.87282" lon="3.44553">
        <ele>113</ele>
        <time>2014-04-15T07:20:48Z</time>
      </trkpt>
      <trkpt lat="47.87274" lon="3.44559">
        <ele>113</ele>
        <time>2014-04-15T07:20:54Z</time>
      </trkpt>
      <trkpt lat="47.87268" lon="3.44565">
        <ele>113</ele>
        <time>2014-04-15T07:20:59Z</time>
      </trkpt>
      <trkpt lat="47.87262" lon="3.44565">
        <ele>113</ele>
        <time>2014-04-15T07:21:03Z</time>
      </trkpt>
      <trkpt lat="47.87258" lon="3.44568">
        <ele>113</ele>
        <time>2014-04-15T07:21:07Z</time>
      </trkpt>
      <trkpt lat="47.87253" lon="3.44572">
        <ele>113</ele>
        <time>2014-04-15T07:21:11Z</time>
      </trkpt>
      <trkpt lat="47.8725" lon="3.44575">
        <ele>114</ele>
        <time>2014-04-15T07:21:14Z</time>
      </trkpt>
      <trkpt lat="47.87245" lon="3.44578">
        <ele>114</ele>
        <time>2014-04-15T07:21:20Z</time>
      </trkpt>
      <trkpt lat="47.8724" lon="3.44581">
        <ele>114</ele>
        <time>2014-04-15T07:21:24Z</time>
      </trkpt>
      <trkpt lat="47.87235" lon="3.44585">
        <ele>115</ele>
        <time>2014-04-15T07:21:28Z</time>
      </trkpt>
      <trkpt lat="47.8723" lon="3.44589">
        <ele>115</ele>
        <time>2014-04-15T07:21:32Z</time>
      </trkpt>
      <trkpt lat="47.87226" lon="3.44593">
        <ele>115</ele>
        <time>2014-04-15T07:21:35Z</time>
      </trkpt>
      <trkpt lat="47.87222" lon="3.44587">
        <ele>116</ele>
        <time>2014-04-15T07:21:42Z</time>
      </trkpt>
      <trkpt lat="47.87217" lon="3.44588">
        <ele>116</ele>
        <time>2014-04-15T07:21:48Z</time>
      </trkpt>
      <trkpt lat="47.87212" lon="3.44593">
        <ele>116</ele>
        <time>2014-04-15T07:21:53Z</time>
      </trkpt>
      <trkpt lat="47.87206" lon="3.44597">
        <ele>117</ele>
        <time>2014-04-15T07:21:55Z</time>
      </trkpt>
      <trkpt lat="47.87202" lon="3.446">
        <ele>117</ele>
        <time>2014-04-15T07:21:59Z</time>
      </trkpt>
      <trkpt lat="47.87198" lon="3.44605">
        <ele>117</ele>
        <time>2014-04-15T07:22:06Z</time>
      </trkpt>
      <trkpt lat="47.87193" lon="3.44609">
        <ele>117</ele>
        <time>2014-04-15T07:22:11Z</time>
      </trkpt>
      <trkpt lat="47.87189" lon="3.4461">
        <ele>118</ele>
        <time>2014-04-15T07:22:15Z</time>
      </trkpt>
      <trkpt lat="47.87184" lon="3.44612">
        <ele>118</ele>
        <time>2014-04-15T07:22:20Z</time>
      </trkpt>
      <trkpt lat="47.87179" lon="3.44614">
        <ele>118</ele>
        <time>2014-04-15T07:22:25Z</time>
      </trkpt>
      <trkpt lat="47.87174" lon="3.44616">
        <ele>118</ele>
        <time>2014-04-15T07:22:31Z</time>
      </trkpt>
      <trkpt lat="47.87169" lon="3.4462">
        <ele>118</ele>
        <time>2014-04-15T07:22:35Z</time>
      </trkpt>
      <trkpt lat="47.87165" lon="3.44625">
        <ele>120</ele>
        <time>2014-04-15T07:22:39Z</time>
      </trkpt>
      <trkpt lat="47.8716" lon="3.44629">
        <ele>120</ele>
        <time>2014-04-15T07:22:45Z</time>
      </trkpt>
      <trkpt lat="47.87155" lon="3.44631">
        <ele>120</ele>
        <time>2014-04-15T07:22:49Z</time>
      </trkpt>
      <trkpt lat="47.8715" lon="3.44637">
        <ele>120</ele>
        <time>2014-04-15T07:22:54Z</time>
      </trkpt>
      <trkpt lat="47.87146" lon="3.44644">
        <ele>120</ele>
        <time>2014-04-15T07:22:57Z</time>
      </trkpt>
      <trkpt lat="47.87142" lon="3.44648">
        <ele>120</ele>
        <time>2014-04-15T07:23:01Z</time>
      </trkpt>
      <trkpt lat="47.87136" lon="3.4465">
        <ele>120</ele>
        <time>2014-04-15T07:23:06Z</time>
      </trkpt>
      <trkpt lat="47.87131" lon="3.44649">
        <ele>120</ele>
        <time>2014-04-15T07:23:10Z</time>
      </trkpt>
      <trkpt lat="47.87126" lon="3.4465">
        <ele>120</ele>
        <time>2014-04-15T07:23:13Z</time>
      </trkpt>
      <trkpt lat="47.87121" lon="3.44651">
        <ele>120</ele>
        <time>2014-04-15T07:23:20Z</time>
      </trkpt>
      <trkpt lat="47.87117" lon="3.44655">
        <ele>120</ele>
        <time>2014-04-15T07:23:24Z</time>
      </trkpt>
      <trkpt lat="47.87112" lon="3.44658">
        <ele>120</ele>
        <time>2014-04-15T07:23:27Z</time>
      </trkpt>
      <trkpt lat="47.87106" lon="3.44657">
        <ele>120</ele>
        <time>2014-04-15T07:23:31Z</time>
      </trkpt>
      <trkpt lat="47.87101" lon="3.44655">
        <ele>120</ele>
        <time>2014-04-15T07:23:35Z</time>
      </trkpt>
      <trkpt lat="47.87096" lon="3.44653">
        <ele>120</ele>
        <time>2014-04-15T07:23:40Z</time>
      </trkpt>
      <trkpt lat="47.87092" lon="3.4466">
        <ele>120</ele>
        <time>2014-04-15T07:23:44Z</time>
      </trkpt>
      <trkpt lat="47.87087" lon="3.44666">
        <ele>120</ele>
        <time>2014-04-15T07:23:46Z</time>
      </trkpt>
      <trkpt lat="47.87082" lon="3.44666">
        <ele>120</ele>
        <time>2014-04-15T07:23:52Z</time>
      </trkpt>
      <trkpt lat="47.87078" lon="3.44667">
        <ele>120</ele>
        <time>2014-04-15T07:23:54Z</time>
      </trkpt>
      <trkpt lat="47.87073" lon="3.44667">
        <ele>120</ele>
        <time>2014-04-15T07:23:58Z</time>
      </trkpt>
      <trkpt lat="47.87068" lon="3.44664">
        <ele>120</ele>
        <time>2014-04-15T07:24:02Z</time>
      </trkpt>
      <trkpt lat="47.87063" lon="3.44666">
        <ele>120</ele>
        <time>2014-04-15T07:24:06Z</time>
      </trkpt>
      <trkpt lat="47.87057" lon="3.44667">
        <ele>120</ele>
        <time>2014-04-15T07:24:10Z</time>
      </trkpt>
      <trkpt lat="47.87052" lon="3.44668">
        <ele>120</ele>
        <time>2014-04-15T07:24:14Z</time>
      </trkpt>
      <trkpt lat="47.87046" lon="3.44666">
        <ele>120</ele>
        <time>2014-04-15T07:24:18Z</time>
      </trkpt>
      <trkpt lat="47.87042" lon="3.44665">
        <ele>120</ele>
        <time>2014-04-15T07:24:22Z</time>
      </trkpt>
      <trkpt lat="47.87037" lon="3.4466">
        <ele>120</ele>
        <time>2014-04-15T07:24:26Z</time>
      </trkpt>
      <trkpt lat="47.87033" lon="3.44656">
        <ele>120</ele>
        <time>2014-04-15T07:24:30Z</time>
      </trkpt>
      <trkpt lat="47.8703" lon="3.4465">
        <ele>120</ele>
        <time>2014-04-15T07:24:34Z</time>
      </trkpt>
      <trkpt lat="47.87025" lon="3.44645">
        <ele>120</ele>
        <time>2014-04-15T07:24:38Z</time>
      </trkpt>
      <trkpt lat="47.87021" lon="3.44641">
        <ele>120</ele>
        <time>2014-04-15T07:24:40Z</time>
      </trkpt>
      <trkpt lat="47.87019" lon="3.44634">
        <ele>120</ele>
        <time>2014-04-15T07:24:44Z</time>
      </trkpt>
      <trkpt lat="47.87016" lon="3.44629">
        <ele>120</ele>
        <time>2014-04-15T07:24:50Z</time>
      </trkpt>
      <trkpt lat="47.87012" lon="3.44622">
        <ele>120</ele>
        <time>2014-04-15T07:24:56Z</time>
      </trkpt>
      <trkpt lat="47.87009" lon="3.44616">
        <ele>120</ele>
        <time>2014-04-15T07:25:01Z</time>
      </trkpt>
      <trkpt lat="47.87006" lon="3.4461">
        <ele>120</ele>
        <time>2014-04-15T07:25:04Z</time>
      </trkpt>
      <trkpt lat="47.87009" lon="3.44604">
        <ele>120</ele>
        <time>2014-04-15T07:25:09Z</time>
      </trkpt>
      <trkpt lat="47.87012" lon="3.44599">
        <ele>120</ele>
        <time>2014-04-15T07:25:12Z</time>
      </trkpt>
      <trkpt lat="47.87014" lon="3.44593">
        <ele>120</ele>
        <time>2014-04-15T07:25:15Z</time>
      </trkpt>
      <trkpt lat="47.87016" lon="3.44585">
        <ele>120</ele>
        <time>2014-04-15T07:25:18Z</time>
      </trkpt>
      <trkpt lat="47.87019" lon="3.44578">
        <ele>121</ele>
        <time>2014-04-15T07:25:23Z</time>
      </trkpt>
      <trkpt lat="47.87022" lon="3.44571">
        <ele>121</ele>
        <time>2014-04-15T07:25:26Z</time>
      </trkpt>
      <trkpt lat="47.87023" lon="3.44564">
        <ele>121</ele>
        <time>2014-04-15T07:25:31Z</time>
      </trkpt>
      <trkpt lat="47.87027" lon="3.44557">
        <ele>121</ele>
        <time>2014-04-15T07:25:38Z</time>
      </trkpt>
      <trkpt lat="47.87029" lon="3.44551">
        <ele>121</ele>
        <time>2014-04-15T07:25:43Z</time>
      </trkpt>
      <trkpt lat="47.87031" lon="3.44545">
        <ele>121</ele>
        <time>2014-04-15T07:25:48Z</time>
      </trkpt>
      <trkpt lat="47.87034" lon="3.44538">
        <ele>121</ele>
        <time>2014-04-15T07:25:55Z</time>
      </trkpt>
      <trkpt lat="47.87033" lon="3.44531">
        <ele>121</ele>
        <time>2014-04-15T07:25:58Z</time>
      </trkpt>
      <trkpt lat="47.87033" lon="3.44524">
        <ele>121</ele>
        <time>2014-04-15T07:26:01Z</time>
      </trkpt>
      <trkpt lat="47.87033" lon="3.44517">
        <ele>121</ele>
        <time>2014-04-15T07:26:08Z</time>
      </trkpt>
      <trkpt lat="47.87032" lon="3.44509">
        <ele>121</ele>
        <time>2014-04-15T07:26:13Z</time>
      </trkpt>
      <trkpt lat="47.87035" lon="3.44504">
        <ele>121</ele>
        <time>2014-04-15T07:26:22Z</time>
      </trkpt>
      <trkpt lat="47.87032" lon="3.44503">
        <ele>121</ele>
        <time>2014-04-15T07:26:36Z</time>
      </trkpt>
      <trkpt lat="47.87028" lon="3.44508">
        <ele>121</ele>
        <time>2014-04-15T07:26:41Z</time>
      </trkpt>
      <trkpt lat="47.87024" lon="3.44507">
        <ele>121</ele>
        <time>2014-04-15T07:26:46Z</time>
      </trkpt>
      <trkpt lat="47.8702" lon="3.44503">
        <ele>121</ele>
        <time>2014-04-15T07:26:50Z</time>
      </trkpt>
      <trkpt lat="47.87018" lon="3.44496">
        <ele>122</ele>
        <time>2014-04-15T07:26:56Z</time>
      </trkpt>
      <trkpt lat="47.87022" lon="3.4449">
        <ele>122</ele>
        <time>2014-04-15T07:26:58Z</time>
      </trkpt>
      <trkpt lat="47.8703" lon="3.44482">
        <ele>123</ele>
        <time>2014-04-15T07:27:05Z</time>
      </trkpt>
      <trkpt lat="47.87033" lon="3.44469">
        <ele>123</ele>
        <time>2014-04-15T07:27:12Z</time>
      </trkpt>
      <trkpt lat="47.87029" lon="3.44464">
        <ele>123</ele>
        <time>2014-04-15T07:27:19Z</time>
      </trkpt>
      <trkpt lat="47.87026" lon="3.44472">
        <ele>123</ele>
        <time>2014-04-15T07:27:22Z</time>
      </trkpt>
      <trkpt lat="47.87024" lon="3.44479">
        <ele>123</ele>
        <time>2014-04-15T07:27:27Z</time>
      </trkpt>
      <trkpt lat="47.87023" lon="3.44489">
        <ele>122</ele>
        <time>2014-04-15T07:27:31Z</time>
      </trkpt>
      <trkpt lat="47.87023" lon="3.44496">
        <ele>122</ele>
        <time>2014-04-15T07:27:35Z</time>
      </trkpt>
      <trkpt lat="47.87021" lon="3.44504">
        <ele>121</ele>
        <time>2014-04-15T07:27:37Z</time>
      </trkpt>
      <trkpt lat="47.87017" lon="3.44509">
        <ele>121</ele>
        <time>2014-04-15T07:27:41Z</time>
      </trkpt>
      <trkpt lat="47.87012" lon="3.44506">
        <ele>121</ele>
        <time>2014-04-15T07:27:43Z</time>
      </trkpt>
      <trkpt lat="47.87004" lon="3.44497">
        <ele>121</ele>
        <time>2014-04-15T07:27:49Z</time>
      </trkpt>
      <trkpt lat="47.87001" lon="3.44487">
        <ele>122</ele>
        <time>2014-04-15T07:27:52Z</time>
      </trkpt>
      <trkpt lat="47.87" lon="3.4448">
        <ele>122</ele>
        <time>2014-04-15T07:27:55Z</time>
      </trkpt>
      <trkpt lat="47.86999" lon="3.44473">
        <ele>122</ele>
        <time>2014-04-15T07:27:59Z</time>
      </trkpt>
      <trkpt lat="47.86998" lon="3.44465">
        <ele>123</ele>
        <time>2014-04-15T07:28:02Z</time>
      </trkpt>
      <trkpt lat="47.86996" lon="3.44456">
        <ele>123</ele>
        <time>2014-04-15T07:28:08Z</time>
      </trkpt>
      <trkpt lat="47.86994" lon="3.44448">
        <ele>123</ele>
        <time>2014-04-15T07:28:12Z</time>
      </trkpt>
      <trkpt lat="47.86995" lon="3.4444">
        <ele>124</ele>
        <time>2014-04-15T07:28:16Z</time>
      </trkpt>
      <trkpt lat="47.86994" lon="3.44433">
        <ele>124</ele>
        <time>2014-04-15T07:28:20Z</time>
      </trkpt>
      <trkpt lat="47.86991" lon="3.44428">
        <ele>125</ele>
        <time>2014-04-15T07:28:23Z</time>
      </trkpt>
      <trkpt lat="47.86985" lon="3.44425">
        <ele>124</ele>
        <time>2014-04-15T07:28:28Z</time>
      </trkpt>
      <trkpt lat="47.8698" lon="3.44424">
        <ele>124</ele>
        <time>2014-04-15T07:28:33Z</time>
      </trkpt>
      <trkpt lat="47.86976" lon="3.44425">
        <ele>124</ele>
        <time>2014-04-15T07:28:36Z</time>
      </trkpt>
      <trkpt lat="47.86971" lon="3.44427">
        <ele>124</ele>
        <time>2014-04-15T07:28:38Z</time>
      </trkpt>
      <trkpt lat="47.86967" lon="3.44427">
        <ele>124</ele>
        <time>2014-04-15T07:28:40Z</time>
      </trkpt>
      <trkpt lat="47.86962" lon="3.44427">
        <ele>123</ele>
        <time>2014-04-15T07:28:43Z</time>
      </trkpt>
      <trkpt lat="47.86956" lon="3.44428">
        <ele>123</ele>
        <time>2014-04-15T07:28:47Z</time>
      </trkpt>
      <trkpt lat="47.86951" lon="3.44425">
        <ele>123</ele>
        <time>2014-04-15T07:28:51Z</time>
      </trkpt>
      <trkpt lat="47.86947" lon="3.44421">
        <ele>123</ele>
        <time>2014-04-15T07:28:55Z</time>
      </trkpt>
      <trkpt lat="47.86943" lon="3.44418">
        <ele>123</ele>
        <time>2014-04-15T07:28:58Z</time>
      </trkpt>
      <trkpt lat="47.86939" lon="3.44413">
        <ele>124</ele>
        <time>2014-04-15T07:29:02Z</time>
      </trkpt>
      <trkpt lat="47.86937" lon="3.44408">
        <ele>124</ele>
        <time>2014-04-15T07:29:05Z</time>
      </trkpt>
      <trkpt lat="47.86927" lon="3.44403">
        <ele>124</ele>
        <time>2014-04-15T07:29:16Z</time>
      </trkpt>
      <trkpt lat="47.86922" lon="3.44403">
        <ele>124</ele>
        <time>2014-04-15T07:29:22Z</time>
      </trkpt>
      <trkpt lat="47.86918" lon="3.44397">
        <ele>124</ele>
        <time>2014-04-15T07:29:26Z</time>
      </trkpt>
      <trkpt lat="47.86914" lon="3.44393">
        <ele>124</ele>
        <time>2014-04-15T07:29:30Z</time>
      </trkpt>
      <trkpt lat="47.86909" lon="3.44396">
        <ele>124</ele>
        <time>2014-04-15T07:29:34Z</time>
      </trkpt>
      <trkpt lat="47.86904" lon="3.44396">
        <ele>124</ele>
        <time>2014-04-15T07:29:39Z</time>
      </trkpt>
      <trkpt lat="47.86898" lon="3.44396">
        <ele>124</ele>
        <time>2014-04-15T07:29:44Z</time>
      </trkpt>
      <trkpt lat="47.86893" lon="3.44394">
        <ele>124</ele>
        <time>2014-04-15T07:29:48Z</time>
      </trkpt>
      <trkpt lat="47.86888" lon="3.44393">
        <ele>124</ele>
        <time>2014-04-15T07:29:51Z</time>
      </trkpt>
      <trkpt lat="47.86883" lon="3.44391">
        <ele>124</ele>
        <time>2014-04-15T07:29:55Z</time>
      </trkpt>
      <trkpt lat="47.86879" lon="3.44387">
        <ele>124</ele>
        <time>2014-04-15T07:29:59Z</time>
      </trkpt>
      <trkpt lat="47.86875" lon="3.44384">
        <ele>124</ele>
        <time>2014-04-15T07:30:03Z</time>
      </trkpt>
      <trkpt lat="47.8687" lon="3.44384">
        <ele>124</ele>
        <time>2014-04-15T07:30:07Z</time>
      </trkpt>
      <trkpt lat="47.86863" lon="3.44385">
        <ele>124</ele>
        <time>2014-04-15T07:30:10Z</time>
      </trkpt>
      <trkpt lat="47.86858" lon="3.44383">
        <ele>124</ele>
        <time>2014-04-15T07:30:14Z</time>
      </trkpt>
      <trkpt lat="47.86857" lon="3.44376">
        <ele>124</ele>
        <time>2014-04-15T07:30:16Z</time>
      </trkpt>
      <trkpt lat="47.86853" lon="3.44371">
        <ele>124</ele>
        <time>2014-04-15T07:30:21Z</time>
      </trkpt>
      <trkpt lat="47.86849" lon="3.44366">
        <ele>124</ele>
        <time>2014-04-15T07:30:25Z</time>
      </trkpt>
      <trkpt lat="47.86846" lon="3.44359">
        <ele>124</ele>
        <time>2014-04-15T07:30:30Z</time>
      </trkpt>
      <trkpt lat="47.86845" lon="3.44352">
        <ele>124</ele>
        <time>2014-04-15T07:30:34Z</time>
      </trkpt>
      <trkpt lat="47.86844" lon="3.44344">
        <ele>124</ele>
        <time>2014-04-15T07:30:39Z</time>
      </trkpt>
      <trkpt lat="47.86843" lon="3.44338">
        <ele>124</ele>
        <time>2014-04-15T07:30:42Z</time>
      </trkpt>
      <trkpt lat="47.86841" lon="3.44331">
        <ele>124</ele>
        <time>2014-04-15T07:30:47Z</time>
      </trkpt>
      <trkpt lat="47.86837" lon="3.44325">
        <ele>124</ele>
        <time>2014-04-15T07:30:50Z</time>
      </trkpt>
      <trkpt lat="47.86834" lon="3.4432">
        <ele>124</ele>
        <time>2014-04-15T07:30:55Z</time>
      </trkpt>
      <trkpt lat="47.86829" lon="3.44316">
        <ele>124</ele>
        <time>2014-04-15T07:31:00Z</time>
      </trkpt>
      <trkpt lat="47.86824" lon="3.4431">
        <ele>123</ele>
        <time>2014-04-15T07:31:07Z</time>
      </trkpt>
      <trkpt lat="47.86821" lon="3.44303">
        <ele>123</ele>
        <time>2014-04-15T07:31:11Z</time>
      </trkpt>
      <trkpt lat="47.86816" lon="3.44298">
        <ele>123</ele>
        <time>2014-04-15T07:31:15Z</time>
      </trkpt>
      <trkpt lat="47.86811" lon="3.44299">
        <ele>123</ele>
        <time>2014-04-15T07:31:20Z</time>
      </trkpt>
      <trkpt lat="47.86807" lon="3.44295">
        <ele>123</ele>
        <time>2014-04-15T07:31:25Z</time>
      </trkpt>
      <trkpt lat="47.86803" lon="3.44288">
        <ele>123</ele>
        <time>2014-04-15T07:31:30Z</time>
      </trkpt>
      <trkpt lat="47.86801" lon="3.44282">
        <ele>123</ele>
        <time>2014-04-15T07:31:35Z</time>
      </trkpt>
      <trkpt lat="47.86796" lon="3.4428">
        <ele>123</ele>
        <time>2014-04-15T07:31:40Z</time>
      </trkpt>
      <trkpt lat="47.86791" lon="3.44276">
        <ele>123</ele>
        <time>2014-04-15T07:31:44Z</time>
      </trkpt>
      <trkpt lat="47.86787" lon="3.44271">
        <ele>123</ele>
        <time>2014-04-15T07:31:48Z</time>
      </trkpt>
      <trkpt lat="47.86778" lon="3.44265">
        <ele>123</ele>
        <time>2014-04-15T07:31:57Z</time>
      </trkpt>
      <trkpt lat="47.86774" lon="3.44262">
        <ele>123</ele>
        <time>2014-04-15T07:32:02Z</time>
      </trkpt>
      <trkpt lat="47.8677" lon="3.44255">
        <ele>123</ele>
        <time>2014-04-15T07:32:04Z</time>
      </trkpt>
      <trkpt lat="47.86767" lon="3.44251">
        <ele>122</ele>
        <time>2014-04-15T07:32:07Z</time>
      </trkpt>
      <trkpt lat="47.86762" lon="3.44248">
        <ele>122</ele>
        <time>2014-04-15T07:32:11Z</time>
      </trkpt>
      <trkpt lat="47.86758" lon="3.44246">
        <ele>122</ele>
        <time>2014-04-15T07:32:16Z</time>
      </trkpt>
      <trkpt lat="47.86753" lon="3.44241">
        <ele>122</ele>
        <time>2014-04-15T07:32:20Z</time>
      </trkpt>
      <trkpt lat="47.86749" lon="3.44236">
        <ele>122</ele>
        <time>2014-04-15T07:32:23Z</time>
      </trkpt>
      <trkpt lat="47.86745" lon="3.44232">
        <ele>122</ele>
        <time>2014-04-15T07:32:27Z</time>
      </trkpt>
      <trkpt lat="47.8674" lon="3.4423">
        <ele>121</ele>
        <time>2014-04-15T07:32:30Z</time>
      </trkpt>
      <trkpt lat="47.86736" lon="3.44227">
        <ele>121</ele>
        <time>2014-04-15T07:32:35Z</time>
      </trkpt>
      <trkpt lat="47.86731" lon="3.44223">
        <ele>121</ele>
        <time>2014-04-15T07:32:40Z</time>
      </trkpt>
      <trkpt lat="47.86726" lon="3.44219">
        <ele>121</ele>
        <time>2014-04-15T07:32:44Z</time>
      </trkpt>
      <trkpt lat="47.86722" lon="3.44213">
        <ele>121</ele>
        <time>2014-04-15T07:32:48Z</time>
      </trkpt>
      <trkpt lat="47.86718" lon="3.44208">
        <ele>121</ele>
        <time>2014-04-15T07:32:53Z</time>
      </trkpt>
      <trkpt lat="47.86713" lon="3.44207">
        <ele>121</ele>
        <time>2014-04-15T07:33:00Z</time>
      </trkpt>
      <trkpt lat="47.86708" lon="3.44207">
        <ele>121</ele>
        <time>2014-04-15T07:33:03Z</time>
      </trkpt>
      <trkpt lat="47.86703" lon="3.44205">
        <ele>121</ele>
        <time>2014-04-15T07:33:09Z</time>
      </trkpt>
      <trkpt lat="47.86699" lon="3.44206">
        <ele>121</ele>
        <time>2014-04-15T07:33:24Z</time>
      </trkpt>
      <trkpt lat="47.86699" lon="3.44214">
        <ele>121</ele>
        <time>2014-04-15T07:33:41Z</time>
      </trkpt>
      <trkpt lat="47.86699" lon="3.44222">
        <ele>121</ele>
        <time>2014-04-15T07:33:45Z</time>
      </trkpt>
      <trkpt lat="47.86701" lon="3.44229">
        <ele>121</ele>
        <time>2014-04-15T07:33:47Z</time>
      </trkpt>
      <trkpt lat="47.86704" lon="3.44237">
        <ele>121</ele>
        <time>2014-04-15T07:33:52Z</time>
      </trkpt>
      <trkpt lat="47.86711" lon="3.44248">
        <ele>121</ele>
        <time>2014-04-15T07:33:58Z</time>
      </trkpt>
      <trkpt lat="47.86716" lon="3.44261">
        <ele>122</ele>
        <time>2014-04-15T07:34:04Z</time>
      </trkpt>
      <trkpt lat="47.86711" lon="3.44267">
        <ele>122</ele>
        <time>2014-04-15T07:34:08Z</time>
      </trkpt>
      <trkpt lat="47.86699" lon="3.44262">
        <ele>122</ele>
        <time>2014-04-15T07:34:14Z</time>
      </trkpt>
      <trkpt lat="47.86695" lon="3.44257">
        <ele>122</ele>
        <time>2014-04-15T07:34:20Z</time>
      </trkpt>
      <trkpt lat="47.8669" lon="3.44252">
        <ele>122</ele>
        <time>2014-04-15T07:34:24Z</time>
      </trkpt>
      <trkpt lat="47.86686" lon="3.44247">
        <ele>121</ele>
        <time>2014-04-15T07:34:29Z</time>
      </trkpt>
      <trkpt lat="47.8668" lon="3.44236">
        <ele>121</ele>
        <time>2014-04-15T07:34:34Z</time>
      </trkpt>
      <trkpt lat="47.86676" lon="3.44232">
        <ele>121</ele>
        <time>2014-04-15T07:34:38Z</time>
      </trkpt>
      <trkpt lat="47.8667" lon="3.4423">
        <ele>121</ele>
        <time>2014-04-15T07:34:41Z</time>
      </trkpt>
      <trkpt lat="47.86666" lon="3.44229">
        <ele>121</ele>
        <time>2014-04-15T07:34:43Z</time>
      </trkpt>
      <trkpt lat="47.86662" lon="3.44223">
        <ele>121</ele>
        <time>2014-04-15T07:34:48Z</time>
      </trkpt>
      <trkpt lat="47.86658" lon="3.44218">
        <ele>121</ele>
        <time>2014-04-15T07:34:53Z</time>
      </trkpt>
      <trkpt lat="47.86653" lon="3.44215">
        <ele>121</ele>
        <time>2014-04-15T07:34:58Z</time>
      </trkpt>
      <trkpt lat="47.86631" lon="3.44202">
        <ele>121</ele>
        <time>2014-04-15T07:35:28Z</time>
      </trkpt>
      <trkpt lat="47.86627" lon="3.44198">
        <ele>121</ele>
        <time>2014-04-15T07:35:31Z</time>
      </trkpt>
      <trkpt lat="47.86624" lon="3.44192">
        <ele>121</ele>
        <time>2014-04-15T07:35:36Z</time>
      </trkpt>
      <trkpt lat="47.86619" lon="3.44189">
        <ele>121</ele>
        <time>2014-04-15T07:35:41Z</time>
      </trkpt>
      <trkpt lat="47.86615" lon="3.44187">
        <ele>121</ele>
        <time>2014-04-15T07:35:46Z</time>
      </trkpt>
      <trkpt lat="47.86611" lon="3.44184">
        <ele>121</ele>
        <time>2014-04-15T07:35:49Z</time>
      </trkpt>
      <trkpt lat="47.86607" lon="3.44178">
        <ele>121</ele>
        <time>2014-04-15T07:35:52Z</time>
      </trkpt>
      <trkpt lat="47.86603" lon="3.44173">
        <ele>121</ele>
        <time>2014-04-15T07:35:55Z</time>
      </trkpt>
      <trkpt lat="47.866" lon="3.44166">
        <ele>120</ele>
        <time>2014-04-15T07:35:59Z</time>
      </trkpt>
      <trkpt lat="47.86598" lon="3.44161">
        <ele>120</ele>
        <time>2014-04-15T07:36:03Z</time>
      </trkpt>
      <trkpt lat="47.86594" lon="3.44156">
        <ele>120</ele>
        <time>2014-04-15T07:36:08Z</time>
      </trkpt>
      <trkpt lat="47.8659" lon="3.44151">
        <ele>120</ele>
        <time>2014-04-15T07:36:12Z</time>
      </trkpt>
      <trkpt lat="47.86585" lon="3.44149">
        <ele>120</ele>
        <time>2014-04-15T07:36:15Z</time>
      </trkpt>
      <trkpt lat="47.86581" lon="3.44146">
        <ele>122</ele>
        <time>2014-04-15T07:36:19Z</time>
      </trkpt>
      <trkpt lat="47.86577" lon="3.44143">
        <ele>122</ele>
        <time>2014-04-15T07:36:23Z</time>
      </trkpt>
      <trkpt lat="47.86572" lon="3.44139">
        <ele>122</ele>
        <time>2014-04-15T07:36:27Z</time>
      </trkpt>
      <trkpt lat="47.86568" lon="3.44134">
        <ele>122</ele>
        <time>2014-04-15T07:36:31Z</time>
      </trkpt>
      <trkpt lat="47.86564" lon="3.4413">
        <ele>122</ele>
        <time>2014-04-15T07:36:34Z</time>
      </trkpt>
      <trkpt lat="47.8656" lon="3.44126">
        <ele>123</ele>
        <time>2014-04-15T07:36:40Z</time>
      </trkpt>
      <trkpt lat="47.86555" lon="3.44122">
        <ele>123</ele>
        <time>2014-04-15T07:36:43Z</time>
      </trkpt>
      <trkpt lat="47.86551" lon="3.44118">
        <ele>123</ele>
        <time>2014-04-15T07:36:47Z</time>
      </trkpt>
      <trkpt lat="47.86547" lon="3.44114">
        <ele>123</ele>
        <time>2014-04-15T07:36:52Z</time>
      </trkpt>
      <trkpt lat="47.86543" lon="3.44109">
        <ele>123</ele>
        <time>2014-04-15T07:36:56Z</time>
      </trkpt>
      <trkpt lat="47.86538" lon="3.44104">
        <ele>123</ele>
        <time>2014-04-15T07:37:01Z</time>
      </trkpt>
      <trkpt lat="47.86533" lon="3.44102">
        <ele>124</ele>
        <time>2014-04-15T07:37:05Z</time>
      </trkpt>
      <trkpt lat="47.86528" lon="3.44101">
        <ele>124</ele>
        <time>2014-04-15T07:37:08Z</time>
      </trkpt>
      <trkpt lat="47.86523" lon="3.44097">
        <ele>124</ele>
        <time>2014-04-15T07:37:12Z</time>
      </trkpt>
      <trkpt lat="47.86518" lon="3.44093">
        <ele>124</ele>
        <time>2014-04-15T07:37:14Z</time>
      </trkpt>
      <trkpt lat="47.86514" lon="3.44089">
        <ele>125</ele>
        <time>2014-04-15T07:37:18Z</time>
      </trkpt>
      <trkpt lat="47.86509" lon="3.44087">
        <ele>125</ele>
        <time>2014-04-15T07:37:22Z</time>
      </trkpt>
      <trkpt lat="47.86505" lon="3.44084">
        <ele>125</ele>
        <time>2014-04-15T07:37:28Z</time>
      </trkpt>
      <trkpt lat="47.865" lon="3.44081">
        <ele>126</ele>
        <time>2014-04-15T07:37:33Z</time>
      </trkpt>
      <trkpt lat="47.86495" lon="3.44079">
        <ele>126</ele>
        <time>2014-04-15T07:37:37Z</time>
      </trkpt>
      <trkpt lat="47.86491" lon="3.44076">
        <ele>126</ele>
        <time>2014-04-15T07:37:44Z</time>
      </trkpt>
      <trkpt lat="47.86486" lon="3.44075">
        <ele>127</ele>
        <time>2014-04-15T07:37:51Z</time>
      </trkpt>
      <trkpt lat="47.86481" lon="3.44072">
        <ele>127</ele>
        <time>2014-04-15T07:37:56Z</time>
      </trkpt>
      <trkpt lat="47.86476" lon="3.44068">
        <ele>127</ele>
        <time>2014-04-15T07:38:00Z</time>
      </trkpt>
      <trkpt lat="47.86471" lon="3.44066">
        <ele>127</ele>
        <time>2014-04-15T07:38:04Z</time>
      </trkpt>
      <trkpt lat="47.86466" lon="3.44065">
        <ele>127</ele>
        <time>2014-04-15T07:38:09Z</time>
      </trkpt>
      <trkpt lat="47.86462" lon="3.4406">
        <ele>127</ele>
        <time>2014-04-15T07:38:14Z</time>
      </trkpt>
      <trkpt lat="47.86456" lon="3.44058">
        <ele>127</ele>
        <time>2014-04-15T07:38:18Z</time>
      </trkpt>
      <trkpt lat="47.86451" lon="3.44054">
        <ele>127</ele>
        <time>2014-04-15T07:38:23Z</time>
      </trkpt>
      <trkpt lat="47.86446" lon="3.44051">
        <ele>127</ele>
        <time>2014-04-15T07:38:27Z</time>
      </trkpt>
      <trkpt lat="47.86441" lon="3.44047">
        <ele>127</ele>
        <time>2014-04-15T07:38:32Z</time>
      </trkpt>
      <trkpt lat="47.86436" lon="3.44044">
        <ele>127</ele>
        <time>2014-04-15T07:38:36Z</time>
      </trkpt>
      <trkpt lat="47.86431" lon="3.44043">
        <ele>127</ele>
        <time>2014-04-15T07:38:39Z</time>
      </trkpt>
      <trkpt lat="47.86426" lon="3.44042">
        <ele>127</ele>
        <time>2014-04-15T07:38:43Z</time>
      </trkpt>
      <trkpt lat="47.86421" lon="3.44036">
        <ele>127</ele>
        <time>2014-04-15T07:38:46Z</time>
      </trkpt>
      <trkpt lat="47.86417" lon="3.44031">
        <ele>127</ele>
        <time>2014-04-15T07:38:50Z</time>
      </trkpt>
      <trkpt lat="47.86417" lon="3.44035">
        <ele>127</ele>
        <time>2014-04-15T07:39:00Z</time>
      </trkpt>
      <trkpt lat="47.86412" lon="3.44036">
        <ele>126</ele>
        <time>2014-04-15T07:39:20Z</time>
      </trkpt>
      <trkpt lat="47.86408" lon="3.4403">
        <ele>126</ele>
        <time>2014-04-15T07:39:24Z</time>
      </trkpt>
      <trkpt lat="47.86405" lon="3.44023">
        <ele>126</ele>
        <time>2014-04-15T07:39:32Z</time>
      </trkpt>
      <trkpt lat="47.864" lon="3.44018">
        <ele>126</ele>
        <time>2014-04-15T07:39:36Z</time>
      </trkpt>
      <trkpt lat="47.86394" lon="3.44019">
        <ele>125</ele>
        <time>2014-04-15T07:40:00Z</time>
      </trkpt>
      <trkpt lat="47.86389" lon="3.44016">
        <ele>125</ele>
        <time>2014-04-15T07:40:04Z</time>
      </trkpt>
      <trkpt lat="47.86385" lon="3.44014">
        <ele>125</ele>
        <time>2014-04-15T07:40:07Z</time>
      </trkpt>
      <trkpt lat="47.8638" lon="3.44012">
        <ele>125</ele>
        <time>2014-04-15T07:40:11Z</time>
      </trkpt>
      <trkpt lat="47.86375" lon="3.44012">
        <ele>125</ele>
        <time>2014-04-15T07:40:14Z</time>
      </trkpt>
      <trkpt lat="47.8637" lon="3.44011">
        <ele>124</ele>
        <time>2014-04-15T07:40:17Z</time>
      </trkpt>
      <trkpt lat="47.86366" lon="3.44007">
        <ele>124</ele>
        <time>2014-04-15T07:40:27Z</time>
      </trkpt>
      <trkpt lat="47.86361" lon="3.44007">
        <ele>124</ele>
        <time>2014-04-15T07:40:31Z</time>
      </trkpt>
      <trkpt lat="47.86355" lon="3.44006">
        <ele>124</ele>
        <time>2014-04-15T07:40:36Z</time>
      </trkpt>
      <trkpt lat="47.8635" lon="3.44004">
        <ele>123</ele>
        <time>2014-04-15T07:40:40Z</time>
      </trkpt>
      <trkpt lat="47.86345" lon="3.44003">
        <ele>123</ele>
        <time>2014-04-15T07:40:43Z</time>
      </trkpt>
      <trkpt lat="47.86341" lon="3.44003">
        <ele>123</ele>
        <time>2014-04-15T07:40:47Z</time>
      </trkpt>
      <trkpt lat="47.86335" lon="3.44001">
        <ele>122</ele>
        <time>2014-04-15T07:40:51Z</time>
      </trkpt>
      <trkpt lat="47.8633" lon="3.43999">
        <ele>122</ele>
        <time>2014-04-15T07:40:55Z</time>
      </trkpt>
      <trkpt lat="47.86325" lon="3.43996">
        <ele>122</ele>
        <time>2014-04-15T07:40:58Z</time>
      </trkpt>
      <trkpt lat="47.8632" lon="3.43993">
        <ele>121</ele>
        <time>2014-04-15T07:41:01Z</time>
      </trkpt>
      <trkpt lat="47.86315" lon="3.43989">
        <ele>121</ele>
        <time>2014-04-15T07:41:06Z</time>
      </trkpt>
      <trkpt lat="47.8631" lon="3.43986">
        <ele>121</ele>
        <time>2014-04-15T07:41:10Z</time>
      </trkpt>
      <trkpt lat="47.86306" lon="3.43982">
        <ele>121</ele>
        <time>2014-04-15T07:41:15Z</time>
      </trkpt>
      <trkpt lat="47.86301" lon="3.43981">
        <ele>121</ele>
        <time>2014-04-15T07:41:20Z</time>
      </trkpt>
      <trkpt lat="47.86296" lon="3.43979">
        <ele>121</ele>
        <time>2014-04-15T07:41:24Z</time>
      </trkpt>
      <trkpt lat="47.86291" lon="3.43979">
        <ele>121</ele>
        <time>2014-04-15T07:41:28Z</time>
      </trkpt>
      <trkpt lat="47.86287" lon="3.43977">
        <ele>121</ele>
        <time>2014-04-15T07:41:32Z</time>
      </trkpt>
      <trkpt lat="47.86282" lon="3.43976">
        <ele>121</ele>
        <time>2014-04-15T07:41:36Z</time>
      </trkpt>
      <trkpt lat="47.86277" lon="3.43976">
        <ele>121</ele>
        <time>2014-04-15T07:41:40Z</time>
      </trkpt>
      <trkpt lat="47.86271" lon="3.43977">
        <ele>122</ele>
        <time>2014-04-15T07:41:44Z</time>
      </trkpt>
      <trkpt lat="47.86266" lon="3.43977">
        <ele>122</ele>
        <time>2014-04-15T07:41:47Z</time>
      </trkpt>
      <trkpt lat="47.86261" lon="3.43974">
        <ele>122</ele>
        <time>2014-04-15T07:41:51Z</time>
      </trkpt>
      <trkpt lat="47.86256" lon="3.43973">
        <ele>122</ele>
        <time>2014-04-15T07:41:56Z</time>
      </trkpt>
      <trkpt lat="47.86251" lon="3.43973">
        <ele>122</ele>
        <time>2014-04-15T07:42:00Z</time>
      </trkpt>
      <trkpt lat="47.86246" lon="3.43972">
        <ele>123</ele>
        <time>2014-04-15T07:42:06Z</time>
      </trkpt>
      <trkpt lat="47.86241" lon="3.43971">
        <ele>123</ele>
        <time>2014-04-15T07:42:10Z</time>
      </trkpt>
      <trkpt lat="47.86237" lon="3.43969">
        <ele>123</ele>
        <time>2014-04-15T07:42:16Z</time>
      </trkpt>
      <trkpt lat="47.86231" lon="3.43969">
        <ele>123</ele>
        <time>2014-04-15T07:42:20Z</time>
      </trkpt>
      <trkpt lat="47.86225" lon="3.43969">
        <ele>123</ele>
        <time>2014-04-15T07:42:24Z</time>
      </trkpt>
      <trkpt lat="47.86221" lon="3.43969">
        <ele>123</ele>
        <time>2014-04-15T07:42:28Z</time>
      </trkpt>
      <trkpt lat="47.86216" lon="3.4397">
        <ele>123</ele>
        <time>2014-04-15T07:42:31Z</time>
      </trkpt>
      <trkpt lat="47.8621" lon="3.4397">
        <ele>124</ele>
        <time>2014-04-15T07:42:34Z</time>
      </trkpt>
      <trkpt lat="47.86205" lon="3.4397">
        <ele>124</ele>
        <time>2014-04-15T07:42:39Z</time>
      </trkpt>
      <trkpt lat="47.862" lon="3.4397">
        <ele>124</ele>
        <time>2014-04-15T07:42:45Z</time>
      </trkpt>
      <trkpt lat="47.86195" lon="3.43969">
        <ele>124</ele>
        <time>2014-04-15T07:42:48Z</time>
      </trkpt>
      <trkpt lat="47.8619" lon="3.43968">
        <ele>124</ele>
        <time>2014-04-15T07:42:53Z</time>
      </trkpt>
      <trkpt lat="47.86185" lon="3.43968">
        <ele>124</ele>
        <time>2014-04-15T07:42:57Z</time>
      </trkpt>
      <trkpt lat="47.8618" lon="3.4397">
        <ele>124</ele>
        <time>2014-04-15T07:43:01Z</time>
      </trkpt>
      <trkpt lat="47.86174" lon="3.43969">
        <ele>124</ele>
        <time>2014-04-15T07:43:05Z</time>
      </trkpt>
      <trkpt lat="47.86169" lon="3.43967">
        <ele>124</ele>
        <time>2014-04-15T07:43:09Z</time>
      </trkpt>
      <trkpt lat="47.86164" lon="3.43965">
        <ele>126</ele>
        <time>2014-04-15T07:43:13Z</time>
      </trkpt>
      <trkpt lat="47.8616" lon="3.43967">
        <ele>126</ele>
        <time>2014-04-15T07:43:17Z</time>
      </trkpt>
      <trkpt lat="47.86154" lon="3.43968">
        <ele>126</ele>
        <time>2014-04-15T07:43:20Z</time>
      </trkpt>
      <trkpt lat="47.86149" lon="3.43965">
        <ele>126</ele>
        <time>2014-04-15T07:43:25Z</time>
      </trkpt>
      <trkpt lat="47.86143" lon="3.43962">
        <ele>126</ele>
        <time>2014-04-15T07:43:29Z</time>
      </trkpt>
      <trkpt lat="47.86138" lon="3.43958">
        <ele>125</ele>
        <time>2014-04-15T07:43:33Z</time>
      </trkpt>
      <trkpt lat="47.86133" lon="3.43955">
        <ele>125</ele>
        <time>2014-04-15T07:43:38Z</time>
      </trkpt>
      <trkpt lat="47.86128" lon="3.43954">
        <ele>125</ele>
        <time>2014-04-15T07:43:42Z</time>
      </trkpt>
      <trkpt lat="47.86124" lon="3.43956">
        <ele>125</ele>
        <time>2014-04-15T07:43:46Z</time>
      </trkpt>
      <trkpt lat="47.86119" lon="3.43957">
        <ele>126</ele>
        <time>2014-04-15T07:43:52Z</time>
      </trkpt>
      <trkpt lat="47.86114" lon="3.43958">
        <ele>126</ele>
        <time>2014-04-15T07:43:56Z</time>
      </trkpt>
      <trkpt lat="47.8611" lon="3.43957">
        <ele>126</ele>
        <time>2014-04-15T07:43:59Z</time>
      </trkpt>
      <trkpt lat="47.86104" lon="3.43955">
        <ele>126</ele>
        <time>2014-04-15T07:44:01Z</time>
      </trkpt>
      <trkpt lat="47.861" lon="3.43953">
        <ele>126</ele>
        <time>2014-04-15T07:44:06Z</time>
      </trkpt>
      <trkpt lat="47.86095" lon="3.4395">
        <ele>125</ele>
        <time>2014-04-15T07:44:10Z</time>
      </trkpt>
      <trkpt lat="47.86089" lon="3.43949">
        <ele>125</ele>
        <time>2014-04-15T07:44:15Z</time>
      </trkpt>
      <trkpt lat="47.86084" lon="3.43947">
        <ele>125</ele>
        <time>2014-04-15T07:44:19Z</time>
      </trkpt>
      <trkpt lat="47.86078" lon="3.43946">
        <ele>124</ele>
        <time>2014-04-15T07:44:24Z</time>
      </trkpt>
      <trkpt lat="47.86074" lon="3.43946">
        <ele>124</ele>
        <time>2014-04-15T07:44:28Z</time>
      </trkpt>
      <trkpt lat="47.86069" lon="3.43946">
        <ele>124</ele>
        <time>2014-04-15T07:44:33Z</time>
      </trkpt>
      <trkpt lat="47.86063" lon="3.43947">
        <ele>124</ele>
        <time>2014-04-15T07:44:37Z</time>
      </trkpt>
      <trkpt lat="47.86059" lon="3.43948">
        <ele>124</ele>
        <time>2014-04-15T07:44:42Z</time>
      </trkpt>
      <trkpt lat="47.86054" lon="3.4395">
        <ele>124</ele>
        <time>2014-04-15T07:44:47Z</time>
      </trkpt>
      <trkpt lat="47.86049" lon="3.4395">
        <ele>123</ele>
        <time>2014-04-15T07:44:51Z</time>
      </trkpt>
      <trkpt lat="47.86044" lon="3.43949">
        <ele>123</ele>
        <time>2014-04-15T07:44:55Z</time>
      </trkpt>
      <trkpt lat="47.86038" lon="3.43949">
        <ele>123</ele>
        <time>2014-04-15T07:45:00Z</time>
      </trkpt>
      <trkpt lat="47.86033" lon="3.4395">
        <ele>123</ele>
        <time>2014-04-15T07:45:04Z</time>
      </trkpt>
      <trkpt lat="47.86028" lon="3.43952">
        <ele>123</ele>
        <time>2014-04-15T07:45:08Z</time>
      </trkpt>
      <trkpt lat="47.86023" lon="3.43954">
        <ele>123</ele>
        <time>2014-04-15T07:45:12Z</time>
      </trkpt>
      <trkpt lat="47.86018" lon="3.43956">
        <ele>123</ele>
        <time>2014-04-15T07:45:14Z</time>
      </trkpt>
      <trkpt lat="47.86012" lon="3.43957">
        <ele>122</ele>
        <time>2014-04-15T07:45:19Z</time>
      </trkpt>
      <trkpt lat="47.86007" lon="3.43958">
        <ele>122</ele>
        <time>2014-04-15T07:45:23Z</time>
      </trkpt>
      <trkpt lat="47.86002" lon="3.4396">
        <ele>122</ele>
        <time>2014-04-15T07:45:28Z</time>
      </trkpt>
      <trkpt lat="47.85998" lon="3.43962">
        <ele>121</ele>
        <time>2014-04-15T07:45:32Z</time>
      </trkpt>
      <trkpt lat="47.85993" lon="3.43964">
        <ele>121</ele>
        <time>2014-04-15T07:45:35Z</time>
      </trkpt>
      <trkpt lat="47.85989" lon="3.43958">
        <ele>121</ele>
        <time>2014-04-15T07:45:40Z</time>
      </trkpt>
      <trkpt lat="47.85984" lon="3.43959">
        <ele>121</ele>
        <time>2014-04-15T07:45:43Z</time>
      </trkpt>
      <trkpt lat="47.8598" lon="3.43963">
        <ele>121</ele>
        <time>2014-04-15T07:45:46Z</time>
      </trkpt>
      <trkpt lat="47.85976" lon="3.43966">
        <ele>121</ele>
        <time>2014-04-15T07:45:51Z</time>
      </trkpt>
      <trkpt lat="47.8597" lon="3.43969">
        <ele>121</ele>
        <time>2014-04-15T07:45:55Z</time>
      </trkpt>
      <trkpt lat="47.85966" lon="3.43973">
        <ele>121</ele>
        <time>2014-04-15T07:45:59Z</time>
      </trkpt>
      <trkpt lat="47.85961" lon="3.43976">
        <ele>121</ele>
        <time>2014-04-15T07:46:02Z</time>
      </trkpt>
      <trkpt lat="47.85956" lon="3.43977">
        <ele>121</ele>
        <time>2014-04-15T07:46:06Z</time>
      </trkpt>
      <trkpt lat="47.85951" lon="3.4398">
        <ele>121</ele>
        <time>2014-04-15T07:46:11Z</time>
      </trkpt>
      <trkpt lat="47.85947" lon="3.43985">
        <ele>121</ele>
        <time>2014-04-15T07:46:16Z</time>
      </trkpt>
      <trkpt lat="47.85943" lon="3.43987">
        <ele>122</ele>
        <time>2014-04-15T07:46:20Z</time>
      </trkpt>
      <trkpt lat="47.85938" lon="3.43992">
        <ele>122</ele>
        <time>2014-04-15T07:46:24Z</time>
      </trkpt>
      <trkpt lat="47.85934" lon="3.43996">
        <ele>122</ele>
        <time>2014-04-15T07:46:28Z</time>
      </trkpt>
      <trkpt lat="47.85929" lon="3.43997">
        <ele>122</ele>
        <time>2014-04-15T07:46:32Z</time>
      </trkpt>
      <trkpt lat="47.85924" lon="3.43999">
        <ele>122</ele>
        <time>2014-04-15T07:46:36Z</time>
      </trkpt>
      <trkpt lat="47.85922" lon="3.43999">
        <ele>123</ele>
        <time>2014-04-15T07:46:42Z</time>
      </trkpt>
      <trkpt lat="47.85917" lon="3.44001">
        <ele>123</ele>
        <time>2014-04-15T07:46:46Z</time>
      </trkpt>
      <trkpt lat="47.85912" lon="3.44001">
        <ele>123</ele>
        <time>2014-04-15T07:46:54Z</time>
      </trkpt>
      <trkpt lat="47.85908" lon="3.44004">
        <ele>123</ele>
        <time>2014-04-15T07:46:58Z</time>
      </trkpt>
      <trkpt lat="47.85903" lon="3.44007">
        <ele>123</ele>
        <time>2014-04-15T07:47:04Z</time>
      </trkpt>
      <trkpt lat="47.85897" lon="3.44009">
        <ele>124</ele>
        <time>2014-04-15T07:47:08Z</time>
      </trkpt>
      <trkpt lat="47.85893" lon="3.4401">
        <ele>124</ele>
        <time>2014-04-15T07:47:13Z</time>
      </trkpt>
      <trkpt lat="47.85888" lon="3.44012">
        <ele>124</ele>
        <time>2014-04-15T07:47:18Z</time>
      </trkpt>
      <trkpt lat="47.85883" lon="3.44013">
        <ele>124</ele>
        <time>2014-04-15T07:47:22Z</time>
      </trkpt>
      <trkpt lat="47.85878" lon="3.44015">
        <ele>124</ele>
        <time>2014-04-15T07:47:26Z</time>
      </trkpt>
      <trkpt lat="47.85873" lon="3.44017">
        <ele>124</ele>
        <time>2014-04-15T07:47:30Z</time>
      </trkpt>
      <trkpt lat="47.85868" lon="3.44021">
        <ele>124</ele>
        <time>2014-04-15T07:47:35Z</time>
      </trkpt>
      <trkpt lat="47.85863" lon="3.44024">
        <ele>124</ele>
        <time>2014-04-15T07:47:39Z</time>
      </trkpt>
      <trkpt lat="47.85859" lon="3.44027">
        <ele>124</ele>
        <time>2014-04-15T07:47:43Z</time>
      </trkpt>
      <trkpt lat="47.85854" lon="3.44028">
        <ele>124</ele>
        <time>2014-04-15T07:47:48Z</time>
      </trkpt>
      <trkpt lat="47.85849" lon="3.4403">
        <ele>124</ele>
        <time>2014-04-15T07:47:54Z</time>
      </trkpt>
      <trkpt lat="47.85844" lon="3.44034">
        <ele>124</ele>
        <time>2014-04-15T07:47:57Z</time>
      </trkpt>
      <trkpt lat="47.8584" lon="3.44036">
        <ele>124</ele>
        <time>2014-04-15T07:48:02Z</time>
      </trkpt>
      <trkpt lat="47.85835" lon="3.4404">
        <ele>124</ele>
        <time>2014-04-15T07:48:07Z</time>
      </trkpt>
      <trkpt lat="47.8583" lon="3.44042">
        <ele>125</ele>
        <time>2014-04-15T07:48:09Z</time>
      </trkpt>
      <trkpt lat="47.85825" lon="3.44044">
        <ele>125</ele>
        <time>2014-04-15T07:48:14Z</time>
      </trkpt>
      <trkpt lat="47.8582" lon="3.44047">
        <ele>125</ele>
        <time>2014-04-15T07:48:16Z</time>
      </trkpt>
      <trkpt lat="47.85816" lon="3.44049">
        <ele>125</ele>
        <time>2014-04-15T07:48:20Z</time>
      </trkpt>
      <trkpt lat="47.8581" lon="3.44051">
        <ele>125</ele>
        <time>2014-04-15T07:48:25Z</time>
      </trkpt>
      <trkpt lat="47.85806" lon="3.44054">
        <ele>125</ele>
        <time>2014-04-15T07:48:30Z</time>
      </trkpt>
      <trkpt lat="47.85802" lon="3.44055">
        <ele>125</ele>
        <time>2014-04-15T07:48:34Z</time>
      </trkpt>
      <trkpt lat="47.85797" lon="3.44057">
        <ele>125</ele>
        <time>2014-04-15T07:48:38Z</time>
      </trkpt>
      <trkpt lat="47.85792" lon="3.44059">
        <ele>125</ele>
        <time>2014-04-15T07:48:42Z</time>
      </trkpt>
      <trkpt lat="47.85788" lon="3.44063">
        <ele>125</ele>
        <time>2014-04-15T07:48:46Z</time>
      </trkpt>
      <trkpt lat="47.85782" lon="3.44065">
        <ele>125</ele>
        <time>2014-04-15T07:48:50Z</time>
      </trkpt>
      <trkpt lat="47.85777" lon="3.44068">
        <ele>125</ele>
        <time>2014-04-15T07:48:55Z</time>
      </trkpt>
      <trkpt lat="47.85773" lon="3.44073">
        <ele>125</ele>
        <time>2014-04-15T07:49:03Z</time>
      </trkpt>
      <trkpt lat="47.85767" lon="3.44075">
        <ele>125</ele>
        <time>2014-04-15T07:49:08Z</time>
      </trkpt>
      <trkpt lat="47.85762" lon="3.44077">
        <ele>125</ele>
        <time>2014-04-15T07:49:11Z</time>
      </trkpt>
      <trkpt lat="47.85757" lon="3.4408">
        <ele>126</ele>
        <time>2014-04-15T07:49:17Z</time>
      </trkpt>
      <trkpt lat="47.85752" lon="3.44084">
        <ele>126</ele>
        <time>2014-04-15T07:49:22Z</time>
      </trkpt>
      <trkpt lat="47.85748" lon="3.44082">
        <ele>126</ele>
        <time>2014-04-15T07:49:25Z</time>
      </trkpt>
      <trkpt lat="47.85742" lon="3.44082">
        <ele>126</ele>
        <time>2014-04-15T07:49:31Z</time>
      </trkpt>
      <trkpt lat="47.85737" lon="3.44084">
        <ele>127</ele>
        <time>2014-04-15T07:49:41Z</time>
      </trkpt>
      <trkpt lat="47.85734" lon="3.44083">
        <ele>127</ele>
        <time>2014-04-15T07:50:02Z</time>
      </trkpt>
      <trkpt lat="47.85736" lon="3.44089">
        <ele>127</ele>
        <time>2014-04-15T07:51:53Z</time>
      </trkpt>
      <trkpt lat="47.85734" lon="3.44092">
        <ele>127</ele>
        <time>2014-04-15T07:52:04Z</time>
      </trkpt>
      <trkpt lat="47.85732" lon="3.44098">
        <ele>127</ele>
        <time>2014-04-15T07:52:58Z</time>
      </trkpt>
      <trkpt lat="47.85728" lon="3.44095">
        <ele>127</ele>
        <time>2014-04-15T07:53:14Z</time>
      </trkpt>
      <trkpt lat="47.85722" lon="3.44097">
        <ele>128</ele>
        <time>2014-04-15T07:53:19Z</time>
      </trkpt>
      <trkpt lat="47.85717" lon="3.44098">
        <ele>128</ele>
        <time>2014-04-15T07:53:23Z</time>
      </trkpt>
      <trkpt lat="47.85713" lon="3.44102">
        <ele>128</ele>
        <time>2014-04-15T07:53:26Z</time>
      </trkpt>
      <trkpt lat="47.85709" lon="3.44106">
        <ele>128</ele>
        <time>2014-04-15T07:53:30Z</time>
      </trkpt>
      <trkpt lat="47.85704" lon="3.44109">
        <ele>128</ele>
        <time>2014-04-15T07:53:34Z</time>
      </trkpt>
      <trkpt lat="47.85699" lon="3.44111">
        <ele>128</ele>
        <time>2014-04-15T07:53:37Z</time>
      </trkpt>
      <trkpt lat="47.85695" lon="3.44114">
        <ele>128</ele>
        <time>2014-04-15T07:53:43Z</time>
      </trkpt>
      <trkpt lat="47.8569" lon="3.44116">
        <ele>128</ele>
        <time>2014-04-15T07:53:48Z</time>
      </trkpt>
      <trkpt lat="47.85685" lon="3.44118">
        <ele>129</ele>
        <time>2014-04-15T07:53:52Z</time>
      </trkpt>
      <trkpt lat="47.8568" lon="3.4412">
        <ele>129</ele>
        <time>2014-04-15T07:53:56Z</time>
      </trkpt>
      <trkpt lat="47.85675" lon="3.44124">
        <ele>129</ele>
        <time>2014-04-15T07:54:00Z</time>
      </trkpt>
      <trkpt lat="47.8567" lon="3.44128">
        <ele>129</ele>
        <time>2014-04-15T07:54:04Z</time>
      </trkpt>
      <trkpt lat="47.85667" lon="3.44132">
        <ele>129</ele>
        <time>2014-04-15T07:54:08Z</time>
      </trkpt>
      <trkpt lat="47.85662" lon="3.44133">
        <ele>130</ele>
        <time>2014-04-15T07:54:13Z</time>
      </trkpt>
      <trkpt lat="47.85657" lon="3.44131">
        <ele>129</ele>
        <time>2014-04-15T07:54:19Z</time>
      </trkpt>
      <trkpt lat="47.85652" lon="3.44131">
        <ele>129</ele>
        <time>2014-04-15T07:54:22Z</time>
      </trkpt>
      <trkpt lat="47.85648" lon="3.44135">
        <ele>129</ele>
        <time>2014-04-15T07:54:31Z</time>
      </trkpt>
      <trkpt lat="47.85644" lon="3.44137">
        <ele>129</ele>
        <time>2014-04-15T07:54:35Z</time>
      </trkpt>
      <trkpt lat="47.8564" lon="3.4414">
        <ele>129</ele>
        <time>2014-04-15T07:54:39Z</time>
      </trkpt>
      <trkpt lat="47.85634" lon="3.44142">
        <ele>129</ele>
        <time>2014-04-15T07:54:42Z</time>
      </trkpt>
      <trkpt lat="47.85629" lon="3.44143">
        <ele>129</ele>
        <time>2014-04-15T07:54:45Z</time>
      </trkpt>
      <trkpt lat="47.85623" lon="3.44143">
        <ele>129</ele>
        <time>2014-04-15T07:54:49Z</time>
      </trkpt>
      <trkpt lat="47.8562" lon="3.44148">
        <ele>129</ele>
        <time>2014-04-15T07:54:53Z</time>
      </trkpt>
      <trkpt lat="47.85616" lon="3.44152">
        <ele>129</ele>
        <time>2014-04-15T07:54:57Z</time>
      </trkpt>
      <trkpt lat="47.85612" lon="3.44157">
        <ele>129</ele>
        <time>2014-04-15T07:55:01Z</time>
      </trkpt>
      <trkpt lat="47.85609" lon="3.44163">
        <ele>129</ele>
        <time>2014-04-15T07:55:04Z</time>
      </trkpt>
      <trkpt lat="47.85607" lon="3.44169">
        <ele>131</ele>
        <time>2014-04-15T07:55:08Z</time>
      </trkpt>
      <trkpt lat="47.85602" lon="3.44173">
        <ele>131</ele>
        <time>2014-04-15T07:55:12Z</time>
      </trkpt>
      <trkpt lat="47.85598" lon="3.44176">
        <ele>131</ele>
        <time>2014-04-15T07:55:16Z</time>
      </trkpt>
      <trkpt lat="47.85595" lon="3.4418">
        <ele>131</ele>
        <time>2014-04-15T07:55:22Z</time>
      </trkpt>
      <trkpt lat="47.85592" lon="3.44186">
        <ele>131</ele>
        <time>2014-04-15T07:55:27Z</time>
      </trkpt>
      <trkpt lat="47.85589" lon="3.44192">
        <ele>131</ele>
        <time>2014-04-15T07:55:29Z</time>
      </trkpt>
      <trkpt lat="47.85585" lon="3.44195">
        <ele>131</ele>
        <time>2014-04-15T07:55:32Z</time>
      </trkpt>
      <trkpt lat="47.85581" lon="3.442">
        <ele>129</ele>
        <time>2014-04-15T07:55:37Z</time>
      </trkpt>
      <trkpt lat="47.85578" lon="3.44205">
        <ele>130</ele>
        <time>2014-04-15T07:55:42Z</time>
      </trkpt>
      <trkpt lat="47.85574" lon="3.4421">
        <ele>130</ele>
        <time>2014-04-15T07:55:46Z</time>
      </trkpt>
      <trkpt lat="47.85571" lon="3.44217">
        <ele>130</ele>
        <time>2014-04-15T07:55:52Z</time>
      </trkpt>
      <trkpt lat="47.85567" lon="3.44222">
        <ele>130</ele>
        <time>2014-04-15T07:55:57Z</time>
      </trkpt>
      <trkpt lat="47.85563" lon="3.44226">
        <ele>130</ele>
        <time>2014-04-15T07:56:00Z</time>
      </trkpt>
      <trkpt lat="47.8556" lon="3.44231">
        <ele>130</ele>
        <time>2014-04-15T07:56:06Z</time>
      </trkpt>
      <trkpt lat="47.85557" lon="3.44236">
        <ele>130</ele>
        <time>2014-04-15T07:56:12Z</time>
      </trkpt>
      <trkpt lat="47.85554" lon="3.44241">
        <ele>130</ele>
        <time>2014-04-15T07:56:16Z</time>
      </trkpt>
      <trkpt lat="47.8555" lon="3.44246">
        <ele>129</ele>
        <time>2014-04-15T07:56:20Z</time>
      </trkpt>
      <trkpt lat="47.85547" lon="3.44253">
        <ele>131</ele>
        <time>2014-04-15T07:56:24Z</time>
      </trkpt>
      <trkpt lat="47.85543" lon="3.44259">
        <ele>131</ele>
        <time>2014-04-15T07:56:28Z</time>
      </trkpt>
      <trkpt lat="47.8554" lon="3.44266">
        <ele>131</ele>
        <time>2014-04-15T07:56:31Z</time>
      </trkpt>
      <trkpt lat="47.85536" lon="3.44271">
        <ele>130</ele>
        <time>2014-04-15T07:56:35Z</time>
      </trkpt>
      <trkpt lat="47.85532" lon="3.44276">
        <ele>130</ele>
        <time>2014-04-15T07:56:39Z</time>
      </trkpt>
      <trkpt lat="47.85529" lon="3.44283">
        <ele>130</ele>
        <time>2014-04-15T07:56:43Z</time>
      </trkpt>
      <trkpt lat="47.85525" lon="3.4429">
        <ele>131</ele>
        <time>2014-04-15T07:56:47Z</time>
      </trkpt>
      <trkpt lat="47.85521" lon="3.44295">
        <ele>131</ele>
        <time>2014-04-15T07:56:52Z</time>
      </trkpt>
      <trkpt lat="47.85517" lon="3.44299">
        <ele>131</ele>
        <time>2014-04-15T07:56:56Z</time>
      </trkpt>
      <trkpt lat="47.85514" lon="3.44304">
        <ele>131</ele>
        <time>2014-04-15T07:57:01Z</time>
      </trkpt>
      <trkpt lat="47.8551" lon="3.4431">
        <ele>131</ele>
        <time>2014-04-15T07:57:05Z</time>
      </trkpt>
      <trkpt lat="47.85508" lon="3.44317">
        <ele>131</ele>
        <time>2014-04-15T07:57:09Z</time>
      </trkpt>
      <trkpt lat="47.85506" lon="3.44323">
        <ele>131</ele>
        <time>2014-04-15T07:57:12Z</time>
      </trkpt>
      <trkpt lat="47.85504" lon="3.4433">
        <ele>131</ele>
        <time>2014-04-15T07:57:18Z</time>
      </trkpt>
      <trkpt lat="47.85501" lon="3.44337">
        <ele>131</ele>
        <time>2014-04-15T07:57:22Z</time>
      </trkpt>
      <trkpt lat="47.85497" lon="3.44342">
        <ele>131</ele>
        <time>2014-04-15T07:57:25Z</time>
      </trkpt>
      <trkpt lat="47.85494" lon="3.44347">
        <ele>131</ele>
        <time>2014-04-15T07:57:29Z</time>
      </trkpt>
      <trkpt lat="47.85491" lon="3.44351">
        <ele>131</ele>
        <time>2014-04-15T07:57:34Z</time>
      </trkpt>
      <trkpt lat="47.85487" lon="3.44358">
        <ele>131</ele>
        <time>2014-04-15T07:57:38Z</time>
      </trkpt>
      <trkpt lat="47.85485" lon="3.44365">
        <ele>131</ele>
        <time>2014-04-15T07:57:41Z</time>
      </trkpt>
      <trkpt lat="47.85482" lon="3.44371">
        <ele>131</ele>
        <time>2014-04-15T07:57:47Z</time>
      </trkpt>
      <trkpt lat="47.85478" lon="3.44376">
        <ele>131</ele>
        <time>2014-04-15T07:57:49Z</time>
      </trkpt>
      <trkpt lat="47.85475" lon="3.44382">
        <ele>131</ele>
        <time>2014-04-15T07:57:53Z</time>
      </trkpt>
      <trkpt lat="47.85471" lon="3.44386">
        <ele>131</ele>
        <time>2014-04-15T07:57:56Z</time>
      </trkpt>
      <trkpt lat="47.85467" lon="3.44391">
        <ele>131</ele>
        <time>2014-04-15T07:58:03Z</time>
      </trkpt>
      <trkpt lat="47.85463" lon="3.44396">
        <ele>131</ele>
        <time>2014-04-15T07:58:08Z</time>
      </trkpt>
      <trkpt lat="47.85461" lon="3.44405">
        <ele>131</ele>
        <time>2014-04-15T07:58:13Z</time>
      </trkpt>
      <trkpt lat="47.85458" lon="3.4441">
        <ele>131</ele>
        <time>2014-04-15T07:58:17Z</time>
      </trkpt>
      <trkpt lat="47.85455" lon="3.44417">
        <ele>131</ele>
        <time>2014-04-15T07:58:22Z</time>
      </trkpt>
      <trkpt lat="47.85452" lon="3.44421">
        <ele>132</ele>
        <time>2014-04-15T07:58:25Z</time>
      </trkpt>
      <trkpt lat="47.85448" lon="3.44427">
        <ele>132</ele>
        <time>2014-04-15T07:58:28Z</time>
      </trkpt>
      <trkpt lat="47.85445" lon="3.44432">
        <ele>132</ele>
        <time>2014-04-15T07:58:31Z</time>
      </trkpt>
      <trkpt lat="47.8544" lon="3.44437">
        <ele>132</ele>
        <time>2014-04-15T07:58:35Z</time>
      </trkpt>
      <trkpt lat="47.85436" lon="3.4444">
        <ele>132</ele>
        <time>2014-04-15T07:58:41Z</time>
      </trkpt>
      <trkpt lat="47.85432" lon="3.44445">
        <ele>132</ele>
        <time>2014-04-15T07:58:44Z</time>
      </trkpt>
      <trkpt lat="47.85429" lon="3.44451">
        <ele>132</ele>
        <time>2014-04-15T07:58:48Z</time>
      </trkpt>
      <trkpt lat="47.85426" lon="3.44458">
        <ele>132</ele>
        <time>2014-04-15T07:58:52Z</time>
      </trkpt>
      <trkpt lat="47.85424" lon="3.44465">
        <ele>132</ele>
        <time>2014-04-15T07:58:55Z</time>
      </trkpt>
      <trkpt lat="47.85421" lon="3.44471">
        <ele>132</ele>
        <time>2014-04-15T07:59:00Z</time>
      </trkpt>
      <trkpt lat="47.85418" lon="3.44477">
        <ele>133</ele>
        <time>2014-04-15T07:59:03Z</time>
      </trkpt>
      <trkpt lat="47.85415" lon="3.44484">
        <ele>131</ele>
        <time>2014-04-15T07:59:06Z</time>
      </trkpt>
      <trkpt lat="47.85411" lon="3.44488">
        <ele>131</ele>
        <time>2014-04-15T07:59:11Z</time>
      </trkpt>
      <trkpt lat="47.85407" lon="3.44493">
        <ele>132</ele>
        <time>2014-04-15T07:59:18Z</time>
      </trkpt>
      <trkpt lat="47.85404" lon="3.44499">
        <ele>131</ele>
        <time>2014-04-15T07:59:22Z</time>
      </trkpt>
      <trkpt lat="47.85401" lon="3.44506">
        <ele>132</ele>
        <time>2014-04-15T07:59:27Z</time>
      </trkpt>
      <trkpt lat="47.85397" lon="3.44512">
        <ele>132</ele>
        <time>2014-04-15T07:59:30Z</time>
      </trkpt>
      <trkpt lat="47.85393" lon="3.44516">
        <ele>132</ele>
        <time>2014-04-15T07:59:33Z</time>
      </trkpt>
      <trkpt lat="47.8539" lon="3.44522">
        <ele>132</ele>
        <time>2014-04-15T07:59:36Z</time>
      </trkpt>
      <trkpt lat="47.85388" lon="3.44528">
        <ele>132</ele>
        <time>2014-04-15T07:59:40Z</time>
      </trkpt>
      <trkpt lat="47.85385" lon="3.44534">
        <ele>132</ele>
        <time>2014-04-15T07:59:44Z</time>
      </trkpt>
      <trkpt lat="47.85381" lon="3.4454">
        <ele>132</ele>
        <time>2014-04-15T07:59:48Z</time>
      </trkpt>
      <trkpt lat="47.85377" lon="3.44543">
        <ele>132</ele>
        <time>2014-04-15T07:59:53Z</time>
      </trkpt>
      <trkpt lat="47.85374" lon="3.44548">
        <ele>132</ele>
        <time>2014-04-15T07:59:57Z</time>
      </trkpt>
      <trkpt lat="47.85371" lon="3.44556">
        <ele>132</ele>
        <time>2014-04-15T08:00:01Z</time>
      </trkpt>
      <trkpt lat="47.85368" lon="3.44562">
        <ele>132</ele>
        <time>2014-04-15T08:00:04Z</time>
      </trkpt>
      <trkpt lat="47.85364" lon="3.44567">
        <ele>132</ele>
        <time>2014-04-15T08:00:08Z</time>
      </trkpt>
      <trkpt lat="47.8536" lon="3.44572">
        <ele>132</ele>
        <time>2014-04-15T08:00:15Z</time>
      </trkpt>
      <trkpt lat="47.85357" lon="3.44578">
        <ele>132</ele>
        <time>2014-04-15T08:00:17Z</time>
      </trkpt>
      <trkpt lat="47.85353" lon="3.44582">
        <ele>132</ele>
        <time>2014-04-15T08:00:20Z</time>
      </trkpt>
      <trkpt lat="47.85349" lon="3.44588">
        <ele>133</ele>
        <time>2014-04-15T08:00:24Z</time>
      </trkpt>
      <trkpt lat="47.85344" lon="3.44594">
        <ele>133</ele>
        <time>2014-04-15T08:00:28Z</time>
      </trkpt>
      <trkpt lat="47.8534" lon="3.446">
        <ele>133</ele>
        <time>2014-04-15T08:00:32Z</time>
      </trkpt>
      <trkpt lat="47.85336" lon="3.44604">
        <ele>133</ele>
        <time>2014-04-15T08:00:34Z</time>
      </trkpt>
      <trkpt lat="47.85334" lon="3.4461">
        <ele>133</ele>
        <time>2014-04-15T08:00:41Z</time>
      </trkpt>
      <trkpt lat="47.85331" lon="3.44616">
        <ele>133</ele>
        <time>2014-04-15T08:00:46Z</time>
      </trkpt>
      <trkpt lat="47.85327" lon="3.4462">
        <ele>133</ele>
        <time>2014-04-15T08:00:51Z</time>
      </trkpt>
      <trkpt lat="47.85322" lon="3.44624">
        <ele>133</ele>
        <time>2014-04-15T08:00:57Z</time>
      </trkpt>
      <trkpt lat="47.85321" lon="3.44631">
        <ele>134</ele>
        <time>2014-04-15T08:01:04Z</time>
      </trkpt>
      <trkpt lat="47.85317" lon="3.44636">
        <ele>134</ele>
        <time>2014-04-15T08:01:08Z</time>
      </trkpt>
      <trkpt lat="47.85313" lon="3.44642">
        <ele>134</ele>
        <time>2014-04-15T08:01:12Z</time>
      </trkpt>
      <trkpt lat="47.85309" lon="3.44646">
        <ele>134</ele>
        <time>2014-04-15T08:01:16Z</time>
      </trkpt>
      <trkpt lat="47.85305" lon="3.44651">
        <ele>134</ele>
        <time>2014-04-15T08:01:19Z</time>
      </trkpt>
      <trkpt lat="47.85301" lon="3.44655">
        <ele>134</ele>
        <time>2014-04-15T08:01:22Z</time>
      </trkpt>
      <trkpt lat="47.85297" lon="3.44659">
        <ele>134</ele>
        <time>2014-04-15T08:01:24Z</time>
      </trkpt>
      <trkpt lat="47.85293" lon="3.44664">
        <ele>134</ele>
        <time>2014-04-15T08:01:28Z</time>
      </trkpt>
      <trkpt lat="47.85289" lon="3.44667">
        <ele>136</ele>
        <time>2014-04-15T08:01:32Z</time>
      </trkpt>
      <trkpt lat="47.85285" lon="3.44671">
        <ele>136</ele>
        <time>2014-04-15T08:01:36Z</time>
      </trkpt>
      <trkpt lat="47.85281" lon="3.44675">
        <ele>136</ele>
        <time>2014-04-15T08:01:40Z</time>
      </trkpt>
      <trkpt lat="47.85277" lon="3.44681">
        <ele>136</ele>
        <time>2014-04-15T08:01:44Z</time>
      </trkpt>
      <trkpt lat="47.85272" lon="3.44686">
        <ele>135</ele>
        <time>2014-04-15T08:01:48Z</time>
      </trkpt>
      <trkpt lat="47.85267" lon="3.44689">
        <ele>135</ele>
        <time>2014-04-15T08:01:52Z</time>
      </trkpt>
      <trkpt lat="47.85262" lon="3.44692">
        <ele>135</ele>
        <time>2014-04-15T08:01:55Z</time>
      </trkpt>
      <trkpt lat="47.85258" lon="3.44695">
        <ele>135</ele>
        <time>2014-04-15T08:01:59Z</time>
      </trkpt>
      <trkpt lat="47.85254" lon="3.44699">
        <ele>135</ele>
        <time>2014-04-15T08:02:00Z</time>
      </trkpt>
      <trkpt lat="47.85249" lon="3.447">
        <ele>133</ele>
        <time>2014-04-15T08:02:04Z</time>
      </trkpt>
      <trkpt lat="47.85245" lon="3.44702">
        <ele>133</ele>
        <time>2014-04-15T08:02:08Z</time>
      </trkpt>
      <trkpt lat="47.8524" lon="3.44705">
        <ele>133</ele>
        <time>2014-04-15T08:02:12Z</time>
      </trkpt>
      <trkpt lat="47.85235" lon="3.44708">
        <ele>133</ele>
        <time>2014-04-15T08:02:15Z</time>
      </trkpt>
      <trkpt lat="47.85231" lon="3.44712">
        <ele>133</ele>
        <time>2014-04-15T08:02:18Z</time>
      </trkpt>
      <trkpt lat="47.85226" lon="3.44715">
        <ele>133</ele>
        <time>2014-04-15T08:02:23Z</time>
      </trkpt>
      <trkpt lat="47.85222" lon="3.44718">
        <ele>133</ele>
        <time>2014-04-15T08:02:26Z</time>
      </trkpt>
      <trkpt lat="47.85216" lon="3.4472">
        <ele>133</ele>
        <time>2014-04-15T08:02:30Z</time>
      </trkpt>
      <trkpt lat="47.85211" lon="3.44721">
        <ele>133</ele>
        <time>2014-04-15T08:02:34Z</time>
      </trkpt>
      <trkpt lat="47.85206" lon="3.44723">
        <ele>133</ele>
        <time>2014-04-15T08:02:38Z</time>
      </trkpt>
      <trkpt lat="47.85201" lon="3.44727">
        <ele>133</ele>
        <time>2014-04-15T08:02:44Z</time>
      </trkpt>
      <trkpt lat="47.85196" lon="3.44726">
        <ele>132</ele>
        <time>2014-04-15T08:02:48Z</time>
      </trkpt>
      <trkpt lat="47.8519" lon="3.44729">
        <ele>132</ele>
        <time>2014-04-15T08:02:51Z</time>
      </trkpt>
      <trkpt lat="47.85185" lon="3.44733">
        <ele>132</ele>
        <time>2014-04-15T08:02:54Z</time>
      </trkpt>
      <trkpt lat="47.8518" lon="3.44736">
        <ele>132</ele>
        <time>2014-04-15T08:02:57Z</time>
      </trkpt>
      <trkpt lat="47.85175" lon="3.44735">
        <ele>132</ele>
        <time>2014-04-15T08:03:03Z</time>
      </trkpt>
      <trkpt lat="47.85171" lon="3.44737">
        <ele>132</ele>
        <time>2014-04-15T08:03:07Z</time>
      </trkpt>
      <trkpt lat="47.85166" lon="3.44739">
        <ele>131</ele>
        <time>2014-04-15T08:03:11Z</time>
      </trkpt>
      <trkpt lat="47.8516" lon="3.44739">
        <ele>131</ele>
        <time>2014-04-15T08:03:15Z</time>
      </trkpt>
      <trkpt lat="47.85156" lon="3.44741">
        <ele>131</ele>
        <time>2014-04-15T08:03:21Z</time>
      </trkpt>
      <trkpt lat="47.85151" lon="3.44745">
        <ele>131</ele>
        <time>2014-04-15T08:03:25Z</time>
      </trkpt>
      <trkpt lat="47.85147" lon="3.44749">
        <ele>131</ele>
        <time>2014-04-15T08:03:29Z</time>
      </trkpt>
      <trkpt lat="47.85141" lon="3.44751">
        <ele>132</ele>
        <time>2014-04-15T08:03:33Z</time>
      </trkpt>
      <trkpt lat="47.85136" lon="3.44754">
        <ele>133</ele>
        <time>2014-04-15T08:03:38Z</time>
      </trkpt>
      <trkpt lat="47.85138" lon="3.44747">
        <ele>131</ele>
        <time>2014-04-15T08:03:41Z</time>
      </trkpt>
      <trkpt lat="47.85132" lon="3.44748">
        <ele>131</ele>
        <time>2014-04-15T08:03:47Z</time>
      </trkpt>
      <trkpt lat="47.85127" lon="3.44751">
        <ele>133</ele>
        <time>2014-04-15T08:03:51Z</time>
      </trkpt>
      <trkpt lat="47.85121" lon="3.44752">
        <ele>133</ele>
        <time>2014-04-15T08:03:53Z</time>
      </trkpt>
      <trkpt lat="47.85116" lon="3.44755">
        <ele>133</ele>
        <time>2014-04-15T08:03:57Z</time>
      </trkpt>
      <trkpt lat="47.85112" lon="3.44758">
        <ele>133</ele>
        <time>2014-04-15T08:04:01Z</time>
      </trkpt>
      <trkpt lat="47.85107" lon="3.4476">
        <ele>132</ele>
        <time>2014-04-15T08:04:05Z</time>
      </trkpt>
      <trkpt lat="47.85102" lon="3.44764">
        <ele>132</ele>
        <time>2014-04-15T08:04:07Z</time>
      </trkpt>
      <trkpt lat="47.85097" lon="3.44766">
        <ele>132</ele>
        <time>2014-04-15T08:04:11Z</time>
      </trkpt>
      <trkpt lat="47.85092" lon="3.44767">
        <ele>132</ele>
        <time>2014-04-15T08:04:17Z</time>
      </trkpt>
      <trkpt lat="47.85088" lon="3.44769">
        <ele>132</ele>
        <time>2014-04-15T08:04:20Z</time>
      </trkpt>
      <trkpt lat="47.85083" lon="3.4477">
        <ele>133</ele>
        <time>2014-04-15T08:04:22Z</time>
      </trkpt>
      <trkpt lat="47.85078" lon="3.44772">
        <ele>133</ele>
        <time>2014-04-15T08:04:26Z</time>
      </trkpt>
      <trkpt lat="47.85074" lon="3.44774">
        <ele>133</ele>
        <time>2014-04-15T08:04:28Z</time>
      </trkpt>
      <trkpt lat="47.85068" lon="3.44776">
        <ele>133</ele>
        <time>2014-04-15T08:04:32Z</time>
      </trkpt>
      <trkpt lat="47.85063" lon="3.44777">
        <ele>133</ele>
        <time>2014-04-15T08:04:40Z</time>
      </trkpt>
      <trkpt lat="47.85058" lon="3.4478">
        <ele>133</ele>
        <time>2014-04-15T08:04:44Z</time>
      </trkpt>
      <trkpt lat="47.85053" lon="3.44784">
        <ele>133</ele>
        <time>2014-04-15T08:04:48Z</time>
      </trkpt>
      <trkpt lat="47.8505" lon="3.4479">
        <ele>134</ele>
        <time>2014-04-15T08:04:53Z</time>
      </trkpt>
      <trkpt lat="47.85044" lon="3.44791">
        <ele>134</ele>
        <time>2014-04-15T08:04:57Z</time>
      </trkpt>
      <trkpt lat="47.85039" lon="3.44791">
        <ele>134</ele>
        <time>2014-04-15T08:05:01Z</time>
      </trkpt>
      <trkpt lat="47.85033" lon="3.44793">
        <ele>134</ele>
        <time>2014-04-15T08:05:04Z</time>
      </trkpt>
      <trkpt lat="47.85029" lon="3.44798">
        <ele>134</ele>
        <time>2014-04-15T08:05:09Z</time>
      </trkpt>
      <trkpt lat="47.85024" lon="3.44801">
        <ele>134</ele>
        <time>2014-04-15T08:05:12Z</time>
      </trkpt>
      <trkpt lat="47.8502" lon="3.44806">
        <ele>134</ele>
        <time>2014-04-15T08:05:15Z</time>
      </trkpt>
      <trkpt lat="47.85015" lon="3.4481">
        <ele>134</ele>
        <time>2014-04-15T08:05:18Z</time>
      </trkpt>
      <trkpt lat="47.8501" lon="3.44814">
        <ele>135</ele>
        <time>2014-04-15T08:05:20Z</time>
      </trkpt>
      <trkpt lat="47.85005" lon="3.44817">
        <ele>135</ele>
        <time>2014-04-15T08:05:24Z</time>
      </trkpt>
      <trkpt lat="47.85" lon="3.44821">
        <ele>135</ele>
        <time>2014-04-15T08:05:27Z</time>
      </trkpt>
      <trkpt lat="47.84995" lon="3.44826">
        <ele>135</ele>
        <time>2014-04-15T08:05:32Z</time>
      </trkpt>
      <trkpt lat="47.8499" lon="3.44829">
        <ele>135</ele>
        <time>2014-04-15T08:05:37Z</time>
      </trkpt>
      <trkpt lat="47.84985" lon="3.4483">
        <ele>135</ele>
        <time>2014-04-15T08:05:43Z</time>
      </trkpt>
      <trkpt lat="47.8498" lon="3.44833">
        <ele>136</ele>
        <time>2014-04-15T08:05:47Z</time>
      </trkpt>
      <trkpt lat="47.84978" lon="3.44837">
        <ele>136</ele>
        <time>2014-04-15T08:05:54Z</time>
      </trkpt>
      <trkpt lat="47.84976" lon="3.44843">
        <ele>136</ele>
        <time>2014-04-15T08:06:00Z</time>
      </trkpt>
      <trkpt lat="47.84971" lon="3.44849">
        <ele>136</ele>
        <time>2014-04-15T08:06:04Z</time>
      </trkpt>
      <trkpt lat="47.84968" lon="3.44851">
        <ele>136</ele>
        <time>2014-04-15T08:06:12Z</time>
      </trkpt>
      <trkpt lat="47.84964" lon="3.44855">
        <ele>136</ele>
        <time>2014-04-15T08:06:23Z</time>
      </trkpt>
      <trkpt lat="47.8496" lon="3.44859">
        <ele>136</ele>
        <time>2014-04-15T08:06:27Z</time>
      </trkpt>
      <trkpt lat="47.84954" lon="3.44858">
        <ele>136</ele>
        <time>2014-04-15T08:06:32Z</time>
      </trkpt>
      <trkpt lat="47.8495" lon="3.44857">
        <ele>136</ele>
        <time>2014-04-15T08:06:37Z</time>
      </trkpt>
      <trkpt lat="47.84946" lon="3.44862">
        <ele>136</ele>
        <time>2014-04-15T08:06:41Z</time>
      </trkpt>
      <trkpt lat="47.84942" lon="3.44867">
        <ele>136</ele>
        <time>2014-04-15T08:06:46Z</time>
      </trkpt>
      <trkpt lat="47.84938" lon="3.4487">
        <ele>136</ele>
        <time>2014-04-15T08:06:51Z</time>
      </trkpt>
      <trkpt lat="47.84934" lon="3.44873">
        <ele>136</ele>
        <time>2014-04-15T08:06:55Z</time>
      </trkpt>
      <trkpt lat="47.84929" lon="3.44876">
        <ele>136</ele>
        <time>2014-04-15T08:07:00Z</time>
      </trkpt>
      <trkpt lat="47.84926" lon="3.44882">
        <ele>136</ele>
        <time>2014-04-15T08:07:04Z</time>
      </trkpt>
      <trkpt lat="47.84921" lon="3.44884">
        <ele>136</ele>
        <time>2014-04-15T08:07:08Z</time>
      </trkpt>
      <trkpt lat="47.84915" lon="3.44884">
        <ele>135</ele>
        <time>2014-04-15T08:07:12Z</time>
      </trkpt>
      <trkpt lat="47.84912" lon="3.4489">
        <ele>136</ele>
        <time>2014-04-15T08:07:15Z</time>
      </trkpt>
      <trkpt lat="47.84908" lon="3.44896">
        <ele>136</ele>
        <time>2014-04-15T08:07:19Z</time>
      </trkpt>
      <trkpt lat="47.84904" lon="3.44902">
        <ele>136</ele>
        <time>2014-04-15T08:07:22Z</time>
      </trkpt>
      <trkpt lat="47.849" lon="3.44909">
        <ele>136</ele>
        <time>2014-04-15T08:07:26Z</time>
      </trkpt>
      <trkpt lat="47.84897" lon="3.44914">
        <ele>136</ele>
        <time>2014-04-15T08:07:29Z</time>
      </trkpt>
      <trkpt lat="47.84894" lon="3.44921">
        <ele>137</ele>
        <time>2014-04-15T08:07:35Z</time>
      </trkpt>
      <trkpt lat="47.84891" lon="3.44923">
        <ele>137</ele>
        <time>2014-04-15T08:07:42Z</time>
      </trkpt>
      <trkpt lat="47.84888" lon="3.44929">
        <ele>137</ele>
        <time>2014-04-15T08:07:54Z</time>
      </trkpt>
      <trkpt lat="47.84885" lon="3.44935">
        <ele>137</ele>
        <time>2014-04-15T08:07:57Z</time>
      </trkpt>
      <trkpt lat="47.84882" lon="3.44941">
        <ele>137</ele>
        <time>2014-04-15T08:07:58Z</time>
      </trkpt>
      <trkpt lat="47.84877" lon="3.44945">
        <ele>137</ele>
        <time>2014-04-15T08:08:02Z</time>
      </trkpt>
      <trkpt lat="47.84872" lon="3.44947">
        <ele>137</ele>
        <time>2014-04-15T08:08:04Z</time>
      </trkpt>
      <trkpt lat="47.84868" lon="3.4495">
        <ele>137</ele>
        <time>2014-04-15T08:08:08Z</time>
      </trkpt>
      <trkpt lat="47.84863" lon="3.44954">
        <ele>137</ele>
        <time>2014-04-15T08:08:11Z</time>
      </trkpt>
      <trkpt lat="47.8486" lon="3.4496">
        <ele>137</ele>
        <time>2014-04-15T08:08:17Z</time>
      </trkpt>
      <trkpt lat="47.84856" lon="3.44964">
        <ele>137</ele>
        <time>2014-04-15T08:08:20Z</time>
      </trkpt>
      <trkpt lat="47.84851" lon="3.44966">
        <ele>137</ele>
        <time>2014-04-15T08:08:24Z</time>
      </trkpt>
      <trkpt lat="47.84847" lon="3.44969">
        <ele>137</ele>
        <time>2014-04-15T08:08:28Z</time>
      </trkpt>
      <trkpt lat="47.84843" lon="3.44976">
        <ele>137</ele>
        <time>2014-04-15T08:08:31Z</time>
      </trkpt>
      <trkpt lat="47.8484" lon="3.44981">
        <ele>137</ele>
        <time>2014-04-15T08:08:33Z</time>
      </trkpt>
      <trkpt lat="47.84836" lon="3.44987">
        <ele>137</ele>
        <time>2014-04-15T08:08:36Z</time>
      </trkpt>
      <trkpt lat="47.84833" lon="3.44992">
        <ele>137</ele>
        <time>2014-04-15T08:08:39Z</time>
      </trkpt>
      <trkpt lat="47.84828" lon="3.44996">
        <ele>137</ele>
        <time>2014-04-15T08:08:44Z</time>
      </trkpt>
      <trkpt lat="47.84824" lon="3.45">
        <ele>137</ele>
        <time>2014-04-15T08:08:47Z</time>
      </trkpt>
      <trkpt lat="47.84818" lon="3.45004">
        <ele>137</ele>
        <time>2014-04-15T08:08:51Z</time>
      </trkpt>
      <trkpt lat="47.84815" lon="3.45009">
        <ele>137</ele>
        <time>2014-04-15T08:08:56Z</time>
      </trkpt>
      <trkpt lat="47.84812" lon="3.45015">
        <ele>137</ele>
        <time>2014-04-15T08:08:59Z</time>
      </trkpt>
      <trkpt lat="47.84808" lon="3.45019">
        <ele>136</ele>
        <time>2014-04-15T08:09:03Z</time>
      </trkpt>
      <trkpt lat="47.84804" lon="3.45023">
        <ele>136</ele>
        <time>2014-04-15T08:09:05Z</time>
      </trkpt>
      <trkpt lat="47.84799" lon="3.45028">
        <ele>136</ele>
        <time>2014-04-15T08:09:09Z</time>
      </trkpt>
      <trkpt lat="47.84795" lon="3.45033">
        <ele>136</ele>
        <time>2014-04-15T08:09:14Z</time>
      </trkpt>
      <trkpt lat="47.84791" lon="3.45037">
        <ele>136</ele>
        <time>2014-04-15T08:09:18Z</time>
      </trkpt>
      <trkpt lat="47.84787" lon="3.45042">
        <ele>136</ele>
        <time>2014-04-15T08:09:22Z</time>
      </trkpt>
      <trkpt lat="47.84783" lon="3.45048">
        <ele>136</ele>
        <time>2014-04-15T08:09:26Z</time>
      </trkpt>
      <trkpt lat="47.84779" lon="3.45052">
        <ele>136</ele>
        <time>2014-04-15T08:09:31Z</time>
      </trkpt>
      <trkpt lat="47.84774" lon="3.45056">
        <ele>136</ele>
        <time>2014-04-15T08:09:36Z</time>
      </trkpt>
      <trkpt lat="47.84769" lon="3.45058">
        <ele>136</ele>
        <time>2014-04-15T08:09:39Z</time>
      </trkpt>
      <trkpt lat="47.84766" lon="3.45063">
        <ele>135</ele>
        <time>2014-04-15T08:09:43Z</time>
      </trkpt>
      <trkpt lat="47.84761" lon="3.45069">
        <ele>135</ele>
        <time>2014-04-15T08:09:51Z</time>
      </trkpt>
      <trkpt lat="47.84758" lon="3.45074">
        <ele>135</ele>
        <time>2014-04-15T08:09:55Z</time>
      </trkpt>
      <trkpt lat="47.84753" lon="3.45078">
        <ele>135</ele>
        <time>2014-04-15T08:09:58Z</time>
      </trkpt>
      <trkpt lat="47.84749" lon="3.45082">
        <ele>134</ele>
        <time>2014-04-15T08:10:02Z</time>
      </trkpt>
      <trkpt lat="47.84746" lon="3.45088">
        <ele>134</ele>
        <time>2014-04-15T08:10:06Z</time>
      </trkpt>
      <trkpt lat="47.84741" lon="3.45094">
        <ele>135</ele>
        <time>2014-04-15T08:10:11Z</time>
      </trkpt>
      <trkpt lat="47.84736" lon="3.45094">
        <ele>135</ele>
        <time>2014-04-15T08:10:18Z</time>
      </trkpt>
      <trkpt lat="47.84732" lon="3.451">
        <ele>135</ele>
        <time>2014-04-15T08:10:24Z</time>
      </trkpt>
      <trkpt lat="47.8473" lon="3.45105">
        <ele>135</ele>
        <time>2014-04-15T08:10:29Z</time>
      </trkpt>
      <trkpt lat="47.84725" lon="3.45109">
        <ele>135</ele>
        <time>2014-04-15T08:10:32Z</time>
      </trkpt>
      <trkpt lat="47.84721" lon="3.45116">
        <ele>135</ele>
        <time>2014-04-15T08:10:36Z</time>
      </trkpt>
      <trkpt lat="47.84717" lon="3.45118">
        <ele>135</ele>
        <time>2014-04-15T08:10:40Z</time>
      </trkpt>
      <trkpt lat="47.84712" lon="3.45121">
        <ele>135</ele>
        <time>2014-04-15T08:10:42Z</time>
      </trkpt>
      <trkpt lat="47.84707" lon="3.45126">
        <ele>136</ele>
        <time>2014-04-15T08:10:47Z</time>
      </trkpt>
      <trkpt lat="47.84702" lon="3.45131">
        <ele>136</ele>
        <time>2014-04-15T08:10:51Z</time>
      </trkpt>
      <trkpt lat="47.84699" lon="3.45137">
        <ele>136</ele>
        <time>2014-04-15T08:10:55Z</time>
      </trkpt>
      <trkpt lat="47.84695" lon="3.45141">
        <ele>136</ele>
        <time>2014-04-15T08:10:57Z</time>
      </trkpt>
      <trkpt lat="47.84689" lon="3.45145">
        <ele>137</ele>
        <time>2014-04-15T08:11:00Z</time>
      </trkpt>
      <trkpt lat="47.84686" lon="3.45151">
        <ele>137</ele>
        <time>2014-04-15T08:11:03Z</time>
      </trkpt>
      <trkpt lat="47.84682" lon="3.45155">
        <ele>137</ele>
        <time>2014-04-15T08:11:08Z</time>
      </trkpt>
      <trkpt lat="47.84678" lon="3.45159">
        <ele>138</ele>
        <time>2014-04-15T08:11:14Z</time>
      </trkpt>
      <trkpt lat="47.84673" lon="3.45165">
        <ele>139</ele>
        <time>2014-04-15T08:11:17Z</time>
      </trkpt>
      <trkpt lat="47.84669" lon="3.4517">
        <ele>139</ele>
        <time>2014-04-15T08:11:21Z</time>
      </trkpt>
      <trkpt lat="47.84666" lon="3.45175">
        <ele>141</ele>
        <time>2014-04-15T08:11:25Z</time>
      </trkpt>
      <trkpt lat="47.84662" lon="3.45181">
        <ele>141</ele>
        <time>2014-04-15T08:11:29Z</time>
      </trkpt>
      <trkpt lat="47.84658" lon="3.45186">
        <ele>141</ele>
        <time>2014-04-15T08:11:33Z</time>
      </trkpt>
      <trkpt lat="47.84654" lon="3.4519">
        <ele>142</ele>
        <time>2014-04-15T08:11:36Z</time>
      </trkpt>
      <trkpt lat="47.8465" lon="3.45195">
        <ele>142</ele>
        <time>2014-04-15T08:11:41Z</time>
      </trkpt>
      <trkpt lat="47.84646" lon="3.452">
        <ele>142</ele>
        <time>2014-04-15T08:11:45Z</time>
      </trkpt>
      <trkpt lat="47.84642" lon="3.45204">
        <ele>142</ele>
        <time>2014-04-15T08:11:50Z</time>
      </trkpt>
      <trkpt lat="47.84638" lon="3.45209">
        <ele>142</ele>
        <time>2014-04-15T08:11:52Z</time>
      </trkpt>
      <trkpt lat="47.84634" lon="3.45213">
        <ele>142</ele>
        <time>2014-04-15T08:11:56Z</time>
      </trkpt>
      <trkpt lat="47.84629" lon="3.45218">
        <ele>143</ele>
        <time>2014-04-15T08:12:01Z</time>
      </trkpt>
      <trkpt lat="47.84625" lon="3.45222">
        <ele>143</ele>
        <time>2014-04-15T08:12:05Z</time>
      </trkpt>
      <trkpt lat="47.84621" lon="3.45227">
        <ele>143</ele>
        <time>2014-04-15T08:12:10Z</time>
      </trkpt>
      <trkpt lat="47.84616" lon="3.4523">
        <ele>143</ele>
        <time>2014-04-15T08:12:14Z</time>
      </trkpt>
      <trkpt lat="47.84612" lon="3.45235">
        <ele>143</ele>
        <time>2014-04-15T08:12:17Z</time>
      </trkpt>
      <trkpt lat="47.84608" lon="3.4524">
        <ele>144</ele>
        <time>2014-04-15T08:12:20Z</time>
      </trkpt>
      <trkpt lat="47.84604" lon="3.45246">
        <ele>144</ele>
        <time>2014-04-15T08:12:22Z</time>
      </trkpt>
      <trkpt lat="47.846" lon="3.4525">
        <ele>144</ele>
        <time>2014-04-15T08:12:25Z</time>
      </trkpt>
      <trkpt lat="47.84598" lon="3.45257">
        <ele>144</ele>
        <time>2014-04-15T08:12:31Z</time>
      </trkpt>
      <trkpt lat="47.84594" lon="3.45262">
        <ele>144</ele>
        <time>2014-04-15T08:12:38Z</time>
      </trkpt>
      <trkpt lat="47.8459" lon="3.45266">
        <ele>144</ele>
        <time>2014-04-15T08:12:44Z</time>
      </trkpt>
      <trkpt lat="47.84587" lon="3.45271">
        <ele>144</ele>
        <time>2014-04-15T08:12:49Z</time>
      </trkpt>
      <trkpt lat="47.84583" lon="3.45275">
        <ele>146</ele>
        <time>2014-04-15T08:12:55Z</time>
      </trkpt>
      <trkpt lat="47.84578" lon="3.4528">
        <ele>146</ele>
        <time>2014-04-15T08:12:59Z</time>
      </trkpt>
      <trkpt lat="47.84574" lon="3.45282">
        <ele>146</ele>
        <time>2014-04-15T08:13:06Z</time>
      </trkpt>
      <trkpt lat="47.84569" lon="3.45289">
        <ele>146</ele>
        <time>2014-04-15T08:13:11Z</time>
      </trkpt>
      <trkpt lat="47.84565" lon="3.45293">
        <ele>146</ele>
        <time>2014-04-15T08:13:15Z</time>
      </trkpt>
      <trkpt lat="47.8456" lon="3.45295">
        <ele>146</ele>
        <time>2014-04-15T08:13:21Z</time>
      </trkpt>
      <trkpt lat="47.84556" lon="3.453">
        <ele>146</ele>
        <time>2014-04-15T08:13:24Z</time>
      </trkpt>
      <trkpt lat="47.84552" lon="3.45303">
        <ele>146</ele>
        <time>2014-04-15T08:13:30Z</time>
      </trkpt>
      <trkpt lat="47.84547" lon="3.45308">
        <ele>146</ele>
        <time>2014-04-15T08:13:34Z</time>
      </trkpt>
      <trkpt lat="47.84543" lon="3.45312">
        <ele>146</ele>
        <time>2014-04-15T08:13:36Z</time>
      </trkpt>
      <trkpt lat="47.84539" lon="3.45317">
        <ele>146</ele>
        <time>2014-04-15T08:13:40Z</time>
      </trkpt>
      <trkpt lat="47.84534" lon="3.45319">
        <ele>147</ele>
        <time>2014-04-15T08:13:44Z</time>
      </trkpt>
      <trkpt lat="47.84529" lon="3.45321">
        <ele>147</ele>
        <time>2014-04-15T08:13:49Z</time>
      </trkpt>
      <trkpt lat="47.84525" lon="3.45323">
        <ele>147</ele>
        <time>2014-04-15T08:13:54Z</time>
      </trkpt>
      <trkpt lat="47.84519" lon="3.45327">
        <ele>147</ele>
        <time>2014-04-15T08:13:57Z</time>
      </trkpt>
      <trkpt lat="47.84516" lon="3.45332">
        <ele>147</ele>
        <time>2014-04-15T08:14:00Z</time>
      </trkpt>
      <trkpt lat="47.84511" lon="3.45336">
        <ele>146</ele>
        <time>2014-04-15T08:14:04Z</time>
      </trkpt>
      <trkpt lat="47.84505" lon="3.45339">
        <ele>146</ele>
        <time>2014-04-15T08:14:09Z</time>
      </trkpt>
      <trkpt lat="47.84501" lon="3.45343">
        <ele>146</ele>
        <time>2014-04-15T08:14:12Z</time>
      </trkpt>
      <trkpt lat="47.84496" lon="3.45344">
        <ele>145</ele>
        <time>2014-04-15T08:14:16Z</time>
      </trkpt>
      <trkpt lat="47.84493" lon="3.45349">
        <ele>145</ele>
        <time>2014-04-15T08:14:20Z</time>
      </trkpt>
      <trkpt lat="47.84489" lon="3.45356">
        <ele>144</ele>
        <time>2014-04-15T08:14:24Z</time>
      </trkpt>
      <trkpt lat="47.84485" lon="3.45361">
        <ele>143</ele>
        <time>2014-04-15T08:14:28Z</time>
      </trkpt>
      <trkpt lat="47.84481" lon="3.45365">
        <ele>143</ele>
        <time>2014-04-15T08:14:30Z</time>
      </trkpt>
      <trkpt lat="47.84478" lon="3.45371">
        <ele>143</ele>
        <time>2014-04-15T08:14:32Z</time>
      </trkpt>
      <trkpt lat="47.84472" lon="3.45379">
        <ele>143</ele>
        <time>2014-04-15T08:14:40Z</time>
      </trkpt>
      <trkpt lat="47.84468" lon="3.45384">
        <ele>142</ele>
        <time>2014-04-15T08:14:44Z</time>
      </trkpt>
      <trkpt lat="47.84462" lon="3.45387">
        <ele>142</ele>
        <time>2014-04-15T08:14:53Z</time>
      </trkpt>
      <trkpt lat="47.84457" lon="3.45389">
        <ele>142</ele>
        <time>2014-04-15T08:15:00Z</time>
      </trkpt>
      <trkpt lat="47.84454" lon="3.45394">
        <ele>142</ele>
        <time>2014-04-15T08:15:05Z</time>
      </trkpt>
      <trkpt lat="47.84449" lon="3.45398">
        <ele>142</ele>
        <time>2014-04-15T08:15:08Z</time>
      </trkpt>
      <trkpt lat="47.84444" lon="3.45403">
        <ele>142</ele>
        <time>2014-04-15T08:15:13Z</time>
      </trkpt>
      <trkpt lat="47.84439" lon="3.45406">
        <ele>141</ele>
        <time>2014-04-15T08:15:17Z</time>
      </trkpt>
      <trkpt lat="47.84435" lon="3.45409">
        <ele>141</ele>
        <time>2014-04-15T08:15:21Z</time>
      </trkpt>
      <trkpt lat="47.8443" lon="3.45411">
        <ele>141</ele>
        <time>2014-04-15T08:15:27Z</time>
      </trkpt>
      <trkpt lat="47.84426" lon="3.45415">
        <ele>141</ele>
        <time>2014-04-15T08:15:30Z</time>
      </trkpt>
      <trkpt lat="47.84421" lon="3.45419">
        <ele>140</ele>
        <time>2014-04-15T08:15:33Z</time>
      </trkpt>
      <trkpt lat="47.84413" lon="3.45431">
        <ele>141</ele>
        <time>2014-04-15T08:15:37Z</time>
      </trkpt>
      <trkpt lat="47.84409" lon="3.45435">
        <ele>142</ele>
        <time>2014-04-15T08:15:41Z</time>
      </trkpt>
      <trkpt lat="47.84404" lon="3.45439">
        <ele>142</ele>
        <time>2014-04-15T08:15:46Z</time>
      </trkpt>
      <trkpt lat="47.84398" lon="3.45441">
        <ele>142</ele>
        <time>2014-04-15T08:15:50Z</time>
      </trkpt>
      <trkpt lat="47.84394" lon="3.45443">
        <ele>142</ele>
        <time>2014-04-15T08:15:53Z</time>
      </trkpt>
      <trkpt lat="47.84389" lon="3.45446">
        <ele>142</ele>
        <time>2014-04-15T08:15:56Z</time>
      </trkpt>
      <trkpt lat="47.84383" lon="3.45447">
        <ele>143</ele>
        <time>2014-04-15T08:16:02Z</time>
      </trkpt>
      <trkpt lat="47.84379" lon="3.45449">
        <ele>143</ele>
        <time>2014-04-15T08:16:08Z</time>
      </trkpt>
      <trkpt lat="47.84373" lon="3.45451">
        <ele>143</ele>
        <time>2014-04-15T08:16:12Z</time>
      </trkpt>
      <trkpt lat="47.84368" lon="3.45452">
        <ele>143</ele>
        <time>2014-04-15T08:16:15Z</time>
      </trkpt>
      <trkpt lat="47.84363" lon="3.45455">
        <ele>143</ele>
        <time>2014-04-15T08:16:20Z</time>
      </trkpt>
      <trkpt lat="47.84359" lon="3.45457">
        <ele>143</ele>
        <time>2014-04-15T08:16:24Z</time>
      </trkpt>
      <trkpt lat="47.84353" lon="3.45459">
        <ele>143</ele>
        <time>2014-04-15T08:16:31Z</time>
      </trkpt>
      <trkpt lat="47.84348" lon="3.45462">
        <ele>144</ele>
        <time>2014-04-15T08:16:33Z</time>
      </trkpt>
      <trkpt lat="47.84343" lon="3.45467">
        <ele>144</ele>
        <time>2014-04-15T08:16:36Z</time>
      </trkpt>
      <trkpt lat="47.84338" lon="3.45469">
        <ele>144</ele>
        <time>2014-04-15T08:16:40Z</time>
      </trkpt>
      <trkpt lat="47.84334" lon="3.45472">
        <ele>144</ele>
        <time>2014-04-15T08:16:46Z</time>
      </trkpt>
      <trkpt lat="47.84329" lon="3.45475">
        <ele>145</ele>
        <time>2014-04-15T08:16:51Z</time>
      </trkpt>
      <trkpt lat="47.84325" lon="3.45478">
        <ele>145</ele>
        <time>2014-04-15T08:16:54Z</time>
      </trkpt>
      <trkpt lat="47.84319" lon="3.45479">
        <ele>145</ele>
        <time>2014-04-15T08:17:01Z</time>
      </trkpt>
      <trkpt lat="47.84314" lon="3.45481">
        <ele>145</ele>
        <time>2014-04-15T08:17:03Z</time>
      </trkpt>
      <trkpt lat="47.84309" lon="3.45484">
        <ele>145</ele>
        <time>2014-04-15T08:17:06Z</time>
      </trkpt>
      <trkpt lat="47.84305" lon="3.45486">
        <ele>145</ele>
        <time>2014-04-15T08:17:10Z</time>
      </trkpt>
      <trkpt lat="47.843" lon="3.4549">
        <ele>145</ele>
        <time>2014-04-15T08:17:16Z</time>
      </trkpt>
      <trkpt lat="47.84296" lon="3.45494">
        <ele>145</ele>
        <time>2014-04-15T08:17:21Z</time>
      </trkpt>
      <trkpt lat="47.84291" lon="3.45498">
        <ele>145</ele>
        <time>2014-04-15T08:17:26Z</time>
      </trkpt>
      <trkpt lat="47.84286" lon="3.45499">
        <ele>145</ele>
        <time>2014-04-15T08:17:30Z</time>
      </trkpt>
      <trkpt lat="47.84281" lon="3.45498">
        <ele>145</ele>
        <time>2014-04-15T08:17:35Z</time>
      </trkpt>
      <trkpt lat="47.84276" lon="3.455">
        <ele>145</ele>
        <time>2014-04-15T08:17:38Z</time>
      </trkpt>
      <trkpt lat="47.84272" lon="3.45503">
        <ele>146</ele>
        <time>2014-04-15T08:17:42Z</time>
      </trkpt>
      <trkpt lat="47.84267" lon="3.45505">
        <ele>146</ele>
        <time>2014-04-15T08:17:44Z</time>
      </trkpt>
      <trkpt lat="47.84264" lon="3.45506">
        <ele>146</ele>
        <time>2014-04-15T08:17:51Z</time>
      </trkpt>
      <trkpt lat="47.84259" lon="3.45511">
        <ele>146</ele>
        <time>2014-04-15T08:17:54Z</time>
      </trkpt>
      <trkpt lat="47.84255" lon="3.45515">
        <ele>146</ele>
        <time>2014-04-15T08:17:57Z</time>
      </trkpt>
      <trkpt lat="47.84251" lon="3.45519">
        <ele>146</ele>
        <time>2014-04-15T08:17:59Z</time>
      </trkpt>
      <trkpt lat="47.84246" lon="3.45523">
        <ele>145</ele>
        <time>2014-04-15T08:18:03Z</time>
      </trkpt>
      <trkpt lat="47.84241" lon="3.45523">
        <ele>145</ele>
        <time>2014-04-15T08:18:05Z</time>
      </trkpt>
      <trkpt lat="47.84236" lon="3.45521">
        <ele>145</ele>
        <time>2014-04-15T08:18:10Z</time>
      </trkpt>
      <trkpt lat="47.84231" lon="3.45522">
        <ele>145</ele>
        <time>2014-04-15T08:18:14Z</time>
      </trkpt>
      <trkpt lat="47.84226" lon="3.45524">
        <ele>145</ele>
        <time>2014-04-15T08:18:19Z</time>
      </trkpt>
      <trkpt lat="47.84222" lon="3.45528">
        <ele>145</ele>
        <time>2014-04-15T08:18:22Z</time>
      </trkpt>
      <trkpt lat="47.84217" lon="3.4553">
        <ele>145</ele>
        <time>2014-04-15T08:18:26Z</time>
      </trkpt>
      <trkpt lat="47.84212" lon="3.45533">
        <ele>145</ele>
        <time>2014-04-15T08:18:31Z</time>
      </trkpt>
      <trkpt lat="47.84209" lon="3.45534">
        <ele>145</ele>
        <time>2014-04-15T08:18:38Z</time>
      </trkpt>
      <trkpt lat="47.84205" lon="3.45539">
        <ele>145</ele>
        <time>2014-04-15T08:18:43Z</time>
      </trkpt>
      <trkpt lat="47.84201" lon="3.45544">
        <ele>145</ele>
        <time>2014-04-15T08:18:48Z</time>
      </trkpt>
      <trkpt lat="47.84196" lon="3.45549">
        <ele>145</ele>
        <time>2014-04-15T08:18:53Z</time>
      </trkpt>
      <trkpt lat="47.84191" lon="3.45554">
        <ele>146</ele>
        <time>2014-04-15T08:18:57Z</time>
      </trkpt>
      <trkpt lat="47.84187" lon="3.45559">
        <ele>146</ele>
        <time>2014-04-15T08:19:01Z</time>
      </trkpt>
      <trkpt lat="47.84183" lon="3.45562">
        <ele>146</ele>
        <time>2014-04-15T08:19:06Z</time>
      </trkpt>
      <trkpt lat="47.8418" lon="3.45568">
        <ele>146</ele>
        <time>2014-04-15T08:19:12Z</time>
      </trkpt>
      <trkpt lat="47.84178" lon="3.45574">
        <ele>146</ele>
        <time>2014-04-15T08:19:15Z</time>
      </trkpt>
      <trkpt lat="47.84176" lon="3.4558">
        <ele>146</ele>
        <time>2014-04-15T08:19:20Z</time>
      </trkpt>
      <trkpt lat="47.84171" lon="3.45586">
        <ele>147</ele>
        <time>2014-04-15T08:19:24Z</time>
      </trkpt>
      <trkpt lat="47.84168" lon="3.45593">
        <ele>147</ele>
        <time>2014-04-15T08:19:27Z</time>
      </trkpt>
      <trkpt lat="47.84165" lon="3.45602">
        <ele>148</ele>
        <time>2014-04-15T08:19:31Z</time>
      </trkpt>
      <trkpt lat="47.84163" lon="3.4561">
        <ele>148</ele>
        <time>2014-04-15T08:19:35Z</time>
      </trkpt>
      <trkpt lat="47.8416" lon="3.45616">
        <ele>149</ele>
        <time>2014-04-15T08:19:37Z</time>
      </trkpt>
      <trkpt lat="47.8416" lon="3.45621">
        <ele>149</ele>
        <time>2014-04-15T08:19:47Z</time>
      </trkpt>
      <trkpt lat="47.84156" lon="3.45625">
        <ele>149</ele>
        <time>2014-04-15T08:19:57Z</time>
      </trkpt>
      <trkpt lat="47.84153" lon="3.45632">
        <ele>150</ele>
        <time>2014-04-15T08:20:09Z</time>
      </trkpt>
      <trkpt lat="47.84148" lon="3.45635">
        <ele>150</ele>
        <time>2014-04-15T08:20:12Z</time>
      </trkpt>
      <trkpt lat="47.84144" lon="3.45639">
        <ele>150</ele>
        <time>2014-04-15T08:20:15Z</time>
      </trkpt>
      <trkpt lat="47.8414" lon="3.45643">
        <ele>150</ele>
        <time>2014-04-15T08:20:20Z</time>
      </trkpt>
      <trkpt lat="47.84137" lon="3.45649">
        <ele>150</ele>
        <time>2014-04-15T08:20:26Z</time>
      </trkpt>
      <trkpt lat="47.84134" lon="3.45655">
        <ele>151</ele>
        <time>2014-04-15T08:20:33Z</time>
      </trkpt>
      <trkpt lat="47.8413" lon="3.45661">
        <ele>151</ele>
        <time>2014-04-15T08:20:36Z</time>
      </trkpt>
      <trkpt lat="47.84128" lon="3.45667">
        <ele>154</ele>
        <time>2014-04-15T08:20:39Z</time>
      </trkpt>
      <trkpt lat="47.84127" lon="3.45674">
        <ele>154</ele>
        <time>2014-04-15T08:20:41Z</time>
      </trkpt>
      <trkpt lat="47.84124" lon="3.45681">
        <ele>154</ele>
        <time>2014-04-15T08:20:46Z</time>
      </trkpt>
      <trkpt lat="47.84121" lon="3.45688">
        <ele>155</ele>
        <time>2014-04-15T08:20:51Z</time>
      </trkpt>
      <trkpt lat="47.8412" lon="3.45696">
        <ele>155</ele>
        <time>2014-04-15T08:20:56Z</time>
      </trkpt>
      <trkpt lat="47.84117" lon="3.45702">
        <ele>155</ele>
        <time>2014-04-15T08:21:00Z</time>
      </trkpt>
      <trkpt lat="47.84114" lon="3.45708">
        <ele>155</ele>
        <time>2014-04-15T08:21:05Z</time>
      </trkpt>
      <trkpt lat="47.8411" lon="3.45713">
        <ele>155</ele>
        <time>2014-04-15T08:21:08Z</time>
      </trkpt>
      <trkpt lat="47.84107" lon="3.4572">
        <ele>155</ele>
        <time>2014-04-15T08:21:14Z</time>
      </trkpt>
      <trkpt lat="47.84104" lon="3.45727">
        <ele>156</ele>
        <time>2014-04-15T08:21:16Z</time>
      </trkpt>
      <trkpt lat="47.84101" lon="3.45733">
        <ele>156</ele>
        <time>2014-04-15T08:21:20Z</time>
      </trkpt>
      <trkpt lat="47.84097" lon="3.45737">
        <ele>156</ele>
        <time>2014-04-15T08:21:23Z</time>
      </trkpt>
      <trkpt lat="47.84093" lon="3.45741">
        <ele>156</ele>
        <time>2014-04-15T08:21:28Z</time>
      </trkpt>
      <trkpt lat="47.84093" lon="3.45748">
        <ele>156</ele>
        <time>2014-04-15T08:21:31Z</time>
      </trkpt>
      <trkpt lat="47.84092" lon="3.45755">
        <ele>157</ele>
        <time>2014-04-15T08:21:35Z</time>
      </trkpt>
      <trkpt lat="47.84091" lon="3.45762">
        <ele>157</ele>
        <time>2014-04-15T08:21:38Z</time>
      </trkpt>
      <trkpt lat="47.84089" lon="3.45769">
        <ele>157</ele>
        <time>2014-04-15T08:21:40Z</time>
      </trkpt>
      <trkpt lat="47.84085" lon="3.45775">
        <ele>157</ele>
        <time>2014-04-15T08:21:46Z</time>
      </trkpt>
      <trkpt lat="47.84082" lon="3.45782">
        <ele>157</ele>
        <time>2014-04-15T08:21:48Z</time>
      </trkpt>
      <trkpt lat="47.84078" lon="3.45789">
        <ele>157</ele>
        <time>2014-04-15T08:21:52Z</time>
      </trkpt>
      <trkpt lat="47.84073" lon="3.45797">
        <ele>157</ele>
        <time>2014-04-15T08:21:55Z</time>
      </trkpt>
      <trkpt lat="47.84069" lon="3.45802">
        <ele>157</ele>
        <time>2014-04-15T08:21:58Z</time>
      </trkpt>
      <trkpt lat="47.84065" lon="3.45807">
        <ele>157</ele>
        <time>2014-04-15T08:22:02Z</time>
      </trkpt>
      <trkpt lat="47.84061" lon="3.45809">
        <ele>157</ele>
        <time>2014-04-15T08:22:07Z</time>
      </trkpt>
      <trkpt lat="47.84056" lon="3.45811">
        <ele>157</ele>
        <time>2014-04-15T08:22:13Z</time>
      </trkpt>
      <trkpt lat="47.84051" lon="3.45813">
        <ele>157</ele>
        <time>2014-04-15T08:22:17Z</time>
      </trkpt>
      <trkpt lat="47.84047" lon="3.45817">
        <ele>157</ele>
        <time>2014-04-15T08:22:22Z</time>
      </trkpt>
      <trkpt lat="47.84043" lon="3.45823">
        <ele>157</ele>
        <time>2014-04-15T08:22:26Z</time>
      </trkpt>
      <trkpt lat="47.8404" lon="3.4583">
        <ele>157</ele>
        <time>2014-04-15T08:22:28Z</time>
      </trkpt>
      <trkpt lat="47.84038" lon="3.45836">
        <ele>158</ele>
        <time>2014-04-15T08:22:31Z</time>
      </trkpt>
      <trkpt lat="47.84035" lon="3.45842">
        <ele>158</ele>
        <time>2014-04-15T08:22:33Z</time>
      </trkpt>
      <trkpt lat="47.84031" lon="3.45849">
        <ele>158</ele>
        <time>2014-04-15T08:22:36Z</time>
      </trkpt>
      <trkpt lat="47.84026" lon="3.45854">
        <ele>158</ele>
        <time>2014-04-15T08:22:40Z</time>
      </trkpt>
      <trkpt lat="47.84022" lon="3.45857">
        <ele>158</ele>
        <time>2014-04-15T08:22:43Z</time>
      </trkpt>
      <trkpt lat="47.84017" lon="3.45859">
        <ele>158</ele>
        <time>2014-04-15T08:22:49Z</time>
      </trkpt>
      <trkpt lat="47.84012" lon="3.45859">
        <ele>158</ele>
        <time>2014-04-15T08:22:54Z</time>
      </trkpt>
      <trkpt lat="47.84006" lon="3.45861">
        <ele>158</ele>
        <time>2014-04-15T08:22:59Z</time>
      </trkpt>
      <trkpt lat="47.84002" lon="3.45863">
        <ele>158</ele>
        <time>2014-04-15T08:23:02Z</time>
      </trkpt>
      <trkpt lat="47.83997" lon="3.45867">
        <ele>158</ele>
        <time>2014-04-15T08:23:08Z</time>
      </trkpt>
      <trkpt lat="47.83992" lon="3.4587">
        <ele>158</ele>
        <time>2014-04-15T08:23:12Z</time>
      </trkpt>
      <trkpt lat="47.83986" lon="3.45875">
        <ele>158</ele>
        <time>2014-04-15T08:23:15Z</time>
      </trkpt>
      <trkpt lat="47.83981" lon="3.45875">
        <ele>158</ele>
        <time>2014-04-15T08:23:19Z</time>
      </trkpt>
      <trkpt lat="47.83976" lon="3.45874">
        <ele>158</ele>
        <time>2014-04-15T08:23:26Z</time>
      </trkpt>
      <trkpt lat="47.8397" lon="3.45877">
        <ele>159</ele>
        <time>2014-04-15T08:23:29Z</time>
      </trkpt>
      <trkpt lat="47.83965" lon="3.45878">
        <ele>159</ele>
        <time>2014-04-15T08:23:33Z</time>
      </trkpt>
      <trkpt lat="47.8396" lon="3.45876">
        <ele>159</ele>
        <time>2014-04-15T08:23:39Z</time>
      </trkpt>
      <trkpt lat="47.83955" lon="3.45875">
        <ele>159</ele>
        <time>2014-04-15T08:23:43Z</time>
      </trkpt>
      <trkpt lat="47.8395" lon="3.45876">
        <ele>159</ele>
        <time>2014-04-15T08:23:45Z</time>
      </trkpt>
      <trkpt lat="47.83945" lon="3.45879">
        <ele>159</ele>
        <time>2014-04-15T08:23:49Z</time>
      </trkpt>
      <trkpt lat="47.8394" lon="3.45882">
        <ele>159</ele>
        <time>2014-04-15T08:23:53Z</time>
      </trkpt>
      <trkpt lat="47.83937" lon="3.45887">
        <ele>159</ele>
        <time>2014-04-15T08:23:58Z</time>
      </trkpt>
      <trkpt lat="47.83932" lon="3.45892">
        <ele>159</ele>
        <time>2014-04-15T08:24:02Z</time>
      </trkpt>
      <trkpt lat="47.83926" lon="3.45894">
        <ele>159</ele>
        <time>2014-04-15T08:24:06Z</time>
      </trkpt>
      <trkpt lat="47.83922" lon="3.45899">
        <ele>159</ele>
        <time>2014-04-15T08:24:10Z</time>
      </trkpt>
      <trkpt lat="47.83918" lon="3.45904">
        <ele>159</ele>
        <time>2014-04-15T08:24:13Z</time>
      </trkpt>
      <trkpt lat="47.83912" lon="3.45908">
        <ele>159</ele>
        <time>2014-04-15T08:24:15Z</time>
      </trkpt>
      <trkpt lat="47.83908" lon="3.45913">
        <ele>160</ele>
        <time>2014-04-15T08:24:18Z</time>
      </trkpt>
      <trkpt lat="47.83904" lon="3.45915">
        <ele>160</ele>
        <time>2014-04-15T08:24:24Z</time>
      </trkpt>
      <trkpt lat="47.83899" lon="3.4592">
        <ele>161</ele>
        <time>2014-04-15T08:24:27Z</time>
      </trkpt>
      <trkpt lat="47.83896" lon="3.45925">
        <ele>161</ele>
        <time>2014-04-15T08:24:31Z</time>
      </trkpt>
      <trkpt lat="47.83892" lon="3.4593">
        <ele>162</ele>
        <time>2014-04-15T08:24:38Z</time>
      </trkpt>
      <trkpt lat="47.83887" lon="3.45934">
        <ele>162</ele>
        <time>2014-04-15T08:24:42Z</time>
      </trkpt>
      <trkpt lat="47.83883" lon="3.45937">
        <ele>162</ele>
        <time>2014-04-15T08:24:47Z</time>
      </trkpt>
      <trkpt lat="47.83878" lon="3.45939">
        <ele>163</ele>
        <time>2014-04-15T08:24:52Z</time>
      </trkpt>
      <trkpt lat="47.83874" lon="3.45942">
        <ele>163</ele>
        <time>2014-04-15T08:24:55Z</time>
      </trkpt>
      <trkpt lat="47.83869" lon="3.45945">
        <ele>163</ele>
        <time>2014-04-15T08:24:59Z</time>
      </trkpt>
      <trkpt lat="47.83865" lon="3.45949">
        <ele>163</ele>
        <time>2014-04-15T08:25:04Z</time>
      </trkpt>
      <trkpt lat="47.83861" lon="3.45953">
        <ele>163</ele>
        <time>2014-04-15T08:25:09Z</time>
      </trkpt>
      <trkpt lat="47.83856" lon="3.45959">
        <ele>164</ele>
        <time>2014-04-15T08:25:13Z</time>
      </trkpt>
      <trkpt lat="47.83852" lon="3.45964">
        <ele>164</ele>
        <time>2014-04-15T08:25:26Z</time>
      </trkpt>
      <trkpt lat="47.83849" lon="3.45966">
        <ele>164</ele>
        <time>2014-04-15T08:25:39Z</time>
      </trkpt>
      <trkpt lat="47.83846" lon="3.45969">
        <ele>164</ele>
        <time>2014-04-15T08:25:51Z</time>
      </trkpt>
      <trkpt lat="47.83841" lon="3.45972">
        <ele>164</ele>
        <time>2014-04-15T08:25:55Z</time>
      </trkpt>
      <trkpt lat="47.83838" lon="3.45978">
        <ele>165</ele>
        <time>2014-04-15T08:26:00Z</time>
      </trkpt>
      <trkpt lat="47.83833" lon="3.45981">
        <ele>166</ele>
        <time>2014-04-15T08:26:04Z</time>
      </trkpt>
      <trkpt lat="47.8383" lon="3.45985">
        <ele>166</ele>
        <time>2014-04-15T08:26:11Z</time>
      </trkpt>
      <trkpt lat="47.83825" lon="3.45989">
        <ele>166</ele>
        <time>2014-04-15T08:26:16Z</time>
      </trkpt>
      <trkpt lat="47.8382" lon="3.45993">
        <ele>166</ele>
        <time>2014-04-15T08:26:21Z</time>
      </trkpt>
      <trkpt lat="47.83815" lon="3.45996">
        <ele>166</ele>
        <time>2014-04-15T08:26:24Z</time>
      </trkpt>
      <trkpt lat="47.8381" lon="3.45998">
        <ele>166</ele>
        <time>2014-04-15T08:26:27Z</time>
      </trkpt>
      <trkpt lat="47.83804" lon="3.46001">
        <ele>169</ele>
        <time>2014-04-15T08:26:33Z</time>
      </trkpt>
      <trkpt lat="47.838" lon="3.46006">
        <ele>169</ele>
        <time>2014-04-15T08:26:36Z</time>
      </trkpt>
      <trkpt lat="47.83795" lon="3.46008">
        <ele>170</ele>
        <time>2014-04-15T08:26:41Z</time>
      </trkpt>
      <trkpt lat="47.8379" lon="3.46009">
        <ele>170</ele>
        <time>2014-04-15T08:26:45Z</time>
      </trkpt>
      <trkpt lat="47.83786" lon="3.46012">
        <ele>170</ele>
        <time>2014-04-15T08:26:49Z</time>
      </trkpt>
      <trkpt lat="47.83782" lon="3.46016">
        <ele>170</ele>
        <time>2014-04-15T08:26:55Z</time>
      </trkpt>
      <trkpt lat="47.83778" lon="3.46021">
        <ele>170</ele>
        <time>2014-04-15T08:26:59Z</time>
      </trkpt>
      <trkpt lat="47.83775" lon="3.46025">
        <ele>170</ele>
        <time>2014-04-15T08:27:06Z</time>
      </trkpt>
      <trkpt lat="47.83771" lon="3.46029">
        <ele>170</ele>
        <time>2014-04-15T08:27:12Z</time>
      </trkpt>
      <trkpt lat="47.83766" lon="3.46033">
        <ele>170</ele>
        <time>2014-04-15T08:27:17Z</time>
      </trkpt>
      <trkpt lat="47.83762" lon="3.46037">
        <ele>171</ele>
        <time>2014-04-15T08:27:20Z</time>
      </trkpt>
      <trkpt lat="47.83757" lon="3.4604">
        <ele>171</ele>
        <time>2014-04-15T08:27:24Z</time>
      </trkpt>
      <trkpt lat="47.83753" lon="3.4604">
        <ele>171</ele>
        <time>2014-04-15T08:27:29Z</time>
      </trkpt>
      <trkpt lat="47.83748" lon="3.4604">
        <ele>169</ele>
        <time>2014-04-15T08:27:36Z</time>
      </trkpt>
      <trkpt lat="47.83743" lon="3.46043">
        <ele>169</ele>
        <time>2014-04-15T08:27:40Z</time>
      </trkpt>
      <trkpt lat="47.83739" lon="3.46047">
        <ele>169</ele>
        <time>2014-04-15T08:27:43Z</time>
      </trkpt>
      <trkpt lat="47.83735" lon="3.46051">
        <ele>169</ele>
        <time>2014-04-15T08:27:45Z</time>
      </trkpt>
      <trkpt lat="47.8373" lon="3.46056">
        <ele>169</ele>
        <time>2014-04-15T08:27:49Z</time>
      </trkpt>
      <trkpt lat="47.83726" lon="3.4606">
        <ele>169</ele>
        <time>2014-04-15T08:27:53Z</time>
      </trkpt>
      <trkpt lat="47.83721" lon="3.46062">
        <ele>169</ele>
        <time>2014-04-15T08:27:58Z</time>
      </trkpt>
      <trkpt lat="47.83716" lon="3.46062">
        <ele>169</ele>
        <time>2014-04-15T08:28:03Z</time>
      </trkpt>
      <trkpt lat="47.83712" lon="3.46063">
        <ele>169</ele>
        <time>2014-04-15T08:28:08Z</time>
      </trkpt>
      <trkpt lat="47.83707" lon="3.46064">
        <ele>168</ele>
        <time>2014-04-15T08:28:15Z</time>
      </trkpt>
      <trkpt lat="47.83703" lon="3.46068">
        <ele>168</ele>
        <time>2014-04-15T08:28:17Z</time>
      </trkpt>
      <trkpt lat="47.83698" lon="3.4607">
        <ele>168</ele>
        <time>2014-04-15T08:28:21Z</time>
      </trkpt>
      <trkpt lat="47.83693" lon="3.46072">
        <ele>168</ele>
        <time>2014-04-15T08:28:24Z</time>
      </trkpt>
      <trkpt lat="47.8369" lon="3.46075">
        <ele>168</ele>
        <time>2014-04-15T08:28:26Z</time>
      </trkpt>
      <trkpt lat="47.83685" lon="3.46079">
        <ele>168</ele>
        <time>2014-04-15T08:28:30Z</time>
      </trkpt>
      <trkpt lat="47.83681" lon="3.46082">
        <ele>168</ele>
        <time>2014-04-15T08:28:33Z</time>
      </trkpt>
      <trkpt lat="47.83675" lon="3.46085">
        <ele>170</ele>
        <time>2014-04-15T08:28:37Z</time>
      </trkpt>
      <trkpt lat="47.83671" lon="3.46088">
        <ele>169</ele>
        <time>2014-04-15T08:28:40Z</time>
      </trkpt>
      <trkpt lat="47.83667" lon="3.4609">
        <ele>169</ele>
        <time>2014-04-15T08:28:44Z</time>
      </trkpt>
      <trkpt lat="47.83662" lon="3.46094">
        <ele>169</ele>
        <time>2014-04-15T08:28:48Z</time>
      </trkpt>
      <trkpt lat="47.83657" lon="3.46098">
        <ele>169</ele>
        <time>2014-04-15T08:28:52Z</time>
      </trkpt>
      <trkpt lat="47.83653" lon="3.46102">
        <ele>170</ele>
        <time>2014-04-15T08:28:55Z</time>
      </trkpt>
      <trkpt lat="47.83649" lon="3.46107">
        <ele>170</ele>
        <time>2014-04-15T08:28:57Z</time>
      </trkpt>
      <trkpt lat="47.83644" lon="3.46111">
        <ele>170</ele>
        <time>2014-04-15T08:28:59Z</time>
      </trkpt>
      <trkpt lat="47.83641" lon="3.46115">
        <ele>170</ele>
        <time>2014-04-15T08:29:03Z</time>
      </trkpt>
      <trkpt lat="47.83636" lon="3.46118">
        <ele>170</ele>
        <time>2014-04-15T08:29:08Z</time>
      </trkpt>
      <trkpt lat="47.8363" lon="3.46122">
        <ele>170</ele>
        <time>2014-04-15T08:29:32Z</time>
      </trkpt>
      <trkpt lat="47.83625" lon="3.4612">
        <ele>170</ele>
        <time>2014-04-15T08:29:39Z</time>
      </trkpt>
      <trkpt lat="47.8362" lon="3.46119">
        <ele>170</ele>
        <time>2014-04-15T08:29:44Z</time>
      </trkpt>
      <trkpt lat="47.83616" lon="3.46122">
        <ele>170</ele>
        <time>2014-04-15T08:29:49Z</time>
      </trkpt>
      <trkpt lat="47.83611" lon="3.46124">
        <ele>170</ele>
        <time>2014-04-15T08:29:54Z</time>
      </trkpt>
      <trkpt lat="47.83606" lon="3.46126">
        <ele>170</ele>
        <time>2014-04-15T08:29:58Z</time>
      </trkpt>
      <trkpt lat="47.836" lon="3.46127">
        <ele>170</ele>
        <time>2014-04-15T08:30:01Z</time>
      </trkpt>
      <trkpt lat="47.83595" lon="3.46128">
        <ele>170</ele>
        <time>2014-04-15T08:30:06Z</time>
      </trkpt>
      <trkpt lat="47.8359" lon="3.46129">
        <ele>170</ele>
        <time>2014-04-15T08:30:10Z</time>
      </trkpt>
      <trkpt lat="47.83585" lon="3.46131">
        <ele>170</ele>
        <time>2014-04-15T08:30:13Z</time>
      </trkpt>
      <trkpt lat="47.83579" lon="3.46133">
        <ele>169</ele>
        <time>2014-04-15T08:30:18Z</time>
      </trkpt>
      <trkpt lat="47.83575" lon="3.4613">
        <ele>169</ele>
        <time>2014-04-15T08:30:21Z</time>
      </trkpt>
      <trkpt lat="47.83571" lon="3.46126">
        <ele>169</ele>
        <time>2014-04-15T08:30:26Z</time>
      </trkpt>
      <trkpt lat="47.83566" lon="3.46126">
        <ele>169</ele>
        <time>2014-04-15T08:30:29Z</time>
      </trkpt>
      <trkpt lat="47.83562" lon="3.46127">
        <ele>169</ele>
        <time>2014-04-15T08:30:32Z</time>
      </trkpt>
      <trkpt lat="47.83557" lon="3.4613">
        <ele>169</ele>
        <time>2014-04-15T08:30:34Z</time>
      </trkpt>
      <trkpt lat="47.83552" lon="3.46131">
        <ele>169</ele>
        <time>2014-04-15T08:30:38Z</time>
      </trkpt>
      <trkpt lat="47.83548" lon="3.46131">
        <ele>169</ele>
        <time>2014-04-15T08:30:43Z</time>
      </trkpt>
      <trkpt lat="47.83543" lon="3.46131">
        <ele>169</ele>
        <time>2014-04-15T08:30:48Z</time>
      </trkpt>
      <trkpt lat="47.83538" lon="3.46127">
        <ele>169</ele>
        <time>2014-04-15T08:30:51Z</time>
      </trkpt>
      <trkpt lat="47.83533" lon="3.46124">
        <ele>169</ele>
        <time>2014-04-15T08:30:58Z</time>
      </trkpt>
      <trkpt lat="47.83526" lon="3.46123">
        <ele>169</ele>
        <time>2014-04-15T08:31:01Z</time>
      </trkpt>
      <trkpt lat="47.83521" lon="3.46125">
        <ele>169</ele>
        <time>2014-04-15T08:31:04Z</time>
      </trkpt>
      <trkpt lat="47.83516" lon="3.46127">
        <ele>169</ele>
        <time>2014-04-15T08:31:06Z</time>
      </trkpt>
      <trkpt lat="47.8351" lon="3.46128">
        <ele>169</ele>
        <time>2014-04-15T08:31:11Z</time>
      </trkpt>
      <trkpt lat="47.83506" lon="3.4613">
        <ele>169</ele>
        <time>2014-04-15T08:31:16Z</time>
      </trkpt>
      <trkpt lat="47.83501" lon="3.4613">
        <ele>169</ele>
        <time>2014-04-15T08:31:19Z</time>
      </trkpt>
      <trkpt lat="47.83496" lon="3.46132">
        <ele>171</ele>
        <time>2014-04-15T08:31:21Z</time>
      </trkpt>
      <trkpt lat="47.83492" lon="3.46134">
        <ele>171</ele>
        <time>2014-04-15T08:31:26Z</time>
      </trkpt>
      <trkpt lat="47.83487" lon="3.46134">
        <ele>171</ele>
        <time>2014-04-15T08:31:33Z</time>
      </trkpt>
      <trkpt lat="47.83481" lon="3.46133">
        <ele>171</ele>
        <time>2014-04-15T08:31:39Z</time>
      </trkpt>
      <trkpt lat="47.83476" lon="3.46131">
        <ele>171</ele>
        <time>2014-04-15T08:31:43Z</time>
      </trkpt>
      <trkpt lat="47.83472" lon="3.46129">
        <ele>171</ele>
        <time>2014-04-15T08:31:46Z</time>
      </trkpt>
      <trkpt lat="47.83467" lon="3.46128">
        <ele>171</ele>
        <time>2014-04-15T08:31:50Z</time>
      </trkpt>
      <trkpt lat="47.83461" lon="3.4613">
        <ele>171</ele>
        <time>2014-04-15T08:31:55Z</time>
      </trkpt>
      <trkpt lat="47.83455" lon="3.46129">
        <ele>171</ele>
        <time>2014-04-15T08:31:58Z</time>
      </trkpt>
      <trkpt lat="47.83451" lon="3.46128">
        <ele>171</ele>
        <time>2014-04-15T08:32:01Z</time>
      </trkpt>
      <trkpt lat="47.83446" lon="3.46125">
        <ele>171</ele>
        <time>2014-04-15T08:32:04Z</time>
      </trkpt>
      <trkpt lat="47.83441" lon="3.46122">
        <ele>171</ele>
        <time>2014-04-15T08:32:09Z</time>
      </trkpt>
      <trkpt lat="47.83436" lon="3.46119">
        <ele>171</ele>
        <time>2014-04-15T08:32:12Z</time>
      </trkpt>
      <trkpt lat="47.83431" lon="3.46117">
        <ele>171</ele>
        <time>2014-04-15T08:32:15Z</time>
      </trkpt>
      <trkpt lat="47.83427" lon="3.46117">
        <ele>171</ele>
        <time>2014-04-15T08:32:19Z</time>
      </trkpt>
      <trkpt lat="47.83421" lon="3.46118">
        <ele>171</ele>
        <time>2014-04-15T08:32:23Z</time>
      </trkpt>
      <trkpt lat="47.83416" lon="3.46118">
        <ele>173</ele>
        <time>2014-04-15T08:32:25Z</time>
      </trkpt>
      <trkpt lat="47.83411" lon="3.46117">
        <ele>173</ele>
        <time>2014-04-15T08:32:31Z</time>
      </trkpt>
      <trkpt lat="47.83407" lon="3.46113">
        <ele>173</ele>
        <time>2014-04-15T08:32:34Z</time>
      </trkpt>
      <trkpt lat="47.83401" lon="3.4611">
        <ele>173</ele>
        <time>2014-04-15T08:32:39Z</time>
      </trkpt>
      <trkpt lat="47.83397" lon="3.46108">
        <ele>173</ele>
        <time>2014-04-15T08:32:43Z</time>
      </trkpt>
      <trkpt lat="47.83393" lon="3.46105">
        <ele>173</ele>
        <time>2014-04-15T08:32:48Z</time>
      </trkpt>
      <trkpt lat="47.83387" lon="3.46105">
        <ele>173</ele>
        <time>2014-04-15T08:32:52Z</time>
      </trkpt>
      <trkpt lat="47.83382" lon="3.46105">
        <ele>173</ele>
        <time>2014-04-15T08:32:55Z</time>
      </trkpt>
      <trkpt lat="47.83376" lon="3.46103">
        <ele>174</ele>
        <time>2014-04-15T08:33:00Z</time>
      </trkpt>
      <trkpt lat="47.83372" lon="3.46103">
        <ele>174</ele>
        <time>2014-04-15T08:33:27Z</time>
      </trkpt>
      <trkpt lat="47.83367" lon="3.46101">
        <ele>174</ele>
        <time>2014-04-15T08:33:52Z</time>
      </trkpt>
      <trkpt lat="47.83362" lon="3.46098">
        <ele>174</ele>
        <time>2014-04-15T08:34:03Z</time>
      </trkpt>
      <trkpt lat="47.83357" lon="3.46096">
        <ele>174</ele>
        <time>2014-04-15T08:34:06Z</time>
      </trkpt>
      <trkpt lat="47.83352" lon="3.46094">
        <ele>174</ele>
        <time>2014-04-15T08:34:10Z</time>
      </trkpt>
      <trkpt lat="47.83348" lon="3.46092">
        <ele>174</ele>
        <time>2014-04-15T08:34:16Z</time>
      </trkpt>
      <trkpt lat="47.83343" lon="3.46089">
        <ele>174</ele>
        <time>2014-04-15T08:34:21Z</time>
      </trkpt>
      <trkpt lat="47.83338" lon="3.46087">
        <ele>175</ele>
        <time>2014-04-15T08:34:25Z</time>
      </trkpt>
      <trkpt lat="47.83333" lon="3.46086">
        <ele>175</ele>
        <time>2014-04-15T08:34:29Z</time>
      </trkpt>
      <trkpt lat="47.83328" lon="3.46084">
        <ele>175</ele>
        <time>2014-04-15T08:34:33Z</time>
      </trkpt>
      <trkpt lat="47.83323" lon="3.46084">
        <ele>175</ele>
        <time>2014-04-15T08:34:38Z</time>
      </trkpt>
      <trkpt lat="47.83318" lon="3.46084">
        <ele>175</ele>
        <time>2014-04-15T08:34:41Z</time>
      </trkpt>
      <trkpt lat="47.83313" lon="3.46082">
        <ele>176</ele>
        <time>2014-04-15T08:34:45Z</time>
      </trkpt>
      <trkpt lat="47.83308" lon="3.46079">
        <ele>176</ele>
        <time>2014-04-15T08:35:16Z</time>
      </trkpt>
      <trkpt lat="47.83303" lon="3.46078">
        <ele>176</ele>
        <time>2014-04-15T08:35:19Z</time>
      </trkpt>
      <trkpt lat="47.83299" lon="3.46077">
        <ele>176</ele>
        <time>2014-04-15T08:35:22Z</time>
      </trkpt>
      <trkpt lat="47.83294" lon="3.46078">
        <ele>176</ele>
        <time>2014-04-15T08:35:26Z</time>
      </trkpt>
      <trkpt lat="47.83289" lon="3.46076">
        <ele>176</ele>
        <time>2014-04-15T08:35:30Z</time>
      </trkpt>
      <trkpt lat="47.83284" lon="3.46076">
        <ele>176</ele>
        <time>2014-04-15T08:35:35Z</time>
      </trkpt>
      <trkpt lat="47.83279" lon="3.46074">
        <ele>176</ele>
        <time>2014-04-15T08:35:39Z</time>
      </trkpt>
      <trkpt lat="47.83275" lon="3.4607">
        <ele>176</ele>
        <time>2014-04-15T08:35:42Z</time>
      </trkpt>
      <trkpt lat="47.83274" lon="3.46067">
        <ele>176</ele>
        <time>2014-04-15T08:35:48Z</time>
      </trkpt>
      <trkpt lat="47.83275" lon="3.46078">
        <ele>176</ele>
        <time>2014-04-15T08:37:17Z</time>
      </trkpt>
      <trkpt lat="47.83273" lon="3.46079">
        <ele>176</ele>
        <time>2014-04-15T08:37:32Z</time>
      </trkpt>
      <trkpt lat="47.83269" lon="3.46075">
        <ele>176</ele>
        <time>2014-04-15T08:37:42Z</time>
      </trkpt>
      <trkpt lat="47.83264" lon="3.46073">
        <ele>176</ele>
        <time>2014-04-15T08:37:48Z</time>
      </trkpt>
      <trkpt lat="47.83258" lon="3.46066">
        <ele>176</ele>
        <time>2014-04-15T08:37:59Z</time>
      </trkpt>
      <trkpt lat="47.83253" lon="3.46066">
        <ele>176</ele>
        <time>2014-04-15T08:38:02Z</time>
      </trkpt>
      <trkpt lat="47.83248" lon="3.46065">
        <ele>176</ele>
        <time>2014-04-15T08:38:05Z</time>
      </trkpt>
      <trkpt lat="47.83243" lon="3.46064">
        <ele>176</ele>
        <time>2014-04-15T08:38:07Z</time>
      </trkpt>
      <trkpt lat="47.83238" lon="3.4606">
        <ele>177</ele>
        <time>2014-04-15T08:38:13Z</time>
      </trkpt>
      <trkpt lat="47.83233" lon="3.46061">
        <ele>177</ele>
        <time>2014-04-15T08:38:17Z</time>
      </trkpt>
      <trkpt lat="47.8323" lon="3.46056">
        <ele>177</ele>
        <time>2014-04-15T08:38:19Z</time>
      </trkpt>
      <trkpt lat="47.83229" lon="3.46049">
        <ele>177</ele>
        <time>2014-04-15T08:38:24Z</time>
      </trkpt>
      <trkpt lat="47.83227" lon="3.46042">
        <ele>177</ele>
        <time>2014-04-15T08:38:28Z</time>
      </trkpt>
      <trkpt lat="47.83225" lon="3.46035">
        <ele>177</ele>
        <time>2014-04-15T08:38:32Z</time>
      </trkpt>
      <trkpt lat="47.83223" lon="3.46028">
        <ele>177</ele>
        <time>2014-04-15T08:38:36Z</time>
      </trkpt>
      <trkpt lat="47.83222" lon="3.46022">
        <ele>177</ele>
        <time>2014-04-15T08:38:43Z</time>
      </trkpt>
      <trkpt lat="47.83217" lon="3.46015">
        <ele>177</ele>
        <time>2014-04-15T08:38:58Z</time>
      </trkpt>
      <trkpt lat="47.83214" lon="3.46009">
        <ele>177</ele>
        <time>2014-04-15T08:39:02Z</time>
      </trkpt>
      <trkpt lat="47.8321" lon="3.46005">
        <ele>177</ele>
        <time>2014-04-15T08:39:05Z</time>
      </trkpt>
      <trkpt lat="47.83205" lon="3.46001">
        <ele>177</ele>
        <time>2014-04-15T08:39:07Z</time>
      </trkpt>
      <trkpt lat="47.832" lon="3.45997">
        <ele>177</ele>
        <time>2014-04-15T08:39:13Z</time>
      </trkpt>
      <trkpt lat="47.83195" lon="3.45995">
        <ele>177</ele>
        <time>2014-04-15T08:39:17Z</time>
      </trkpt>
      <trkpt lat="47.8319" lon="3.45994">
        <ele>177</ele>
        <time>2014-04-15T08:39:20Z</time>
      </trkpt>
      <trkpt lat="47.83186" lon="3.45993">
        <ele>177</ele>
        <time>2014-04-15T08:39:23Z</time>
      </trkpt>
      <trkpt lat="47.83181" lon="3.45993">
        <ele>177</ele>
        <time>2014-04-15T08:39:26Z</time>
      </trkpt>
      <trkpt lat="47.83175" lon="3.45993">
        <ele>177</ele>
        <time>2014-04-15T08:39:30Z</time>
      </trkpt>
      <trkpt lat="47.83171" lon="3.45991">
        <ele>177</ele>
        <time>2014-04-15T08:39:35Z</time>
      </trkpt>
      <trkpt lat="47.83165" lon="3.45987">
        <ele>177</ele>
        <time>2014-04-15T08:39:39Z</time>
      </trkpt>
      <trkpt lat="47.83161" lon="3.45984">
        <ele>177</ele>
        <time>2014-04-15T08:39:43Z</time>
      </trkpt>
      <trkpt lat="47.83158" lon="3.45979">
        <ele>177</ele>
        <time>2014-04-15T08:39:49Z</time>
      </trkpt>
      <trkpt lat="47.83153" lon="3.45976">
        <ele>177</ele>
        <time>2014-04-15T08:39:54Z</time>
      </trkpt>
      <trkpt lat="47.83148" lon="3.45973">
        <ele>177</ele>
        <time>2014-04-15T08:39:58Z</time>
      </trkpt>
      <trkpt lat="47.83143" lon="3.4597">
        <ele>177</ele>
        <time>2014-04-15T08:40:46Z</time>
      </trkpt>
      <trkpt lat="47.83137" lon="3.45969">
        <ele>177</ele>
        <time>2014-04-15T08:40:50Z</time>
      </trkpt>
      <trkpt lat="47.83132" lon="3.45966">
        <ele>177</ele>
        <time>2014-04-15T08:40:52Z</time>
      </trkpt>
      <trkpt lat="47.83127" lon="3.45963">
        <ele>177</ele>
        <time>2014-04-15T08:40:55Z</time>
      </trkpt>
      <trkpt lat="47.83122" lon="3.4596">
        <ele>177</ele>
        <time>2014-04-15T08:41:00Z</time>
      </trkpt>
      <trkpt lat="47.83117" lon="3.45957">
        <ele>177</ele>
        <time>2014-04-15T08:41:04Z</time>
      </trkpt>
      <trkpt lat="47.83113" lon="3.45956">
        <ele>177</ele>
        <time>2014-04-15T08:41:08Z</time>
      </trkpt>
      <trkpt lat="47.83108" lon="3.45954">
        <ele>177</ele>
        <time>2014-04-15T08:41:13Z</time>
      </trkpt>
      <trkpt lat="47.83104" lon="3.45949">
        <ele>177</ele>
        <time>2014-04-15T08:41:18Z</time>
      </trkpt>
      <trkpt lat="47.83099" lon="3.45946">
        <ele>177</ele>
        <time>2014-04-15T08:41:22Z</time>
      </trkpt>
      <trkpt lat="47.83094" lon="3.45945">
        <ele>177</ele>
        <time>2014-04-15T08:41:25Z</time>
      </trkpt>
      <trkpt lat="47.8309" lon="3.45943">
        <ele>177</ele>
        <time>2014-04-15T08:41:29Z</time>
      </trkpt>
      <trkpt lat="47.83085" lon="3.45942">
        <ele>177</ele>
        <time>2014-04-15T08:41:32Z</time>
      </trkpt>
      <trkpt lat="47.8308" lon="3.45941">
        <ele>177</ele>
        <time>2014-04-15T08:41:35Z</time>
      </trkpt>
      <trkpt lat="47.83076" lon="3.45938">
        <ele>177</ele>
        <time>2014-04-15T08:41:38Z</time>
      </trkpt>
      <trkpt lat="47.83071" lon="3.45935">
        <ele>177</ele>
        <time>2014-04-15T08:41:42Z</time>
      </trkpt>
      <trkpt lat="47.83066" lon="3.45934">
        <ele>177</ele>
        <time>2014-04-15T08:41:48Z</time>
      </trkpt>
      <trkpt lat="47.83062" lon="3.4593">
        <ele>177</ele>
        <time>2014-04-15T08:41:53Z</time>
      </trkpt>
      <trkpt lat="47.83056" lon="3.45928">
        <ele>177</ele>
        <time>2014-04-15T08:41:57Z</time>
      </trkpt>
      <trkpt lat="47.83051" lon="3.45927">
        <ele>177</ele>
        <time>2014-04-15T08:42:00Z</time>
      </trkpt>
      <trkpt lat="47.83046" lon="3.45925">
        <ele>177</ele>
        <time>2014-04-15T08:42:03Z</time>
      </trkpt>
      <trkpt lat="47.83041" lon="3.45923">
        <ele>177</ele>
        <time>2014-04-15T08:42:06Z</time>
      </trkpt>
      <trkpt lat="47.83036" lon="3.45921">
        <ele>177</ele>
        <time>2014-04-15T08:42:09Z</time>
      </trkpt>
      <trkpt lat="47.83033" lon="3.45915">
        <ele>178</ele>
        <time>2014-04-15T08:42:13Z</time>
      </trkpt>
      <trkpt lat="47.83028" lon="3.45915">
        <ele>178</ele>
        <time>2014-04-15T08:42:19Z</time>
      </trkpt>
      <trkpt lat="47.83022" lon="3.45914">
        <ele>178</ele>
        <time>2014-04-15T08:42:23Z</time>
      </trkpt>
      <trkpt lat="47.83016" lon="3.45914">
        <ele>178</ele>
        <time>2014-04-15T08:42:27Z</time>
      </trkpt>
      <trkpt lat="47.83011" lon="3.45913">
        <ele>178</ele>
        <time>2014-04-15T08:42:30Z</time>
      </trkpt>
      <trkpt lat="47.83008" lon="3.45912">
        <ele>178</ele>
        <time>2014-04-15T08:42:38Z</time>
      </trkpt>
      <trkpt lat="47.83003" lon="3.4591">
        <ele>178</ele>
        <time>2014-04-15T08:42:54Z</time>
      </trkpt>
      <trkpt lat="47.82998" lon="3.45907">
        <ele>178</ele>
        <time>2014-04-15T08:42:58Z</time>
      </trkpt>
      <trkpt lat="47.82993" lon="3.45905">
        <ele>178</ele>
        <time>2014-04-15T08:43:00Z</time>
      </trkpt>
      <trkpt lat="47.82989" lon="3.45904">
        <ele>178</ele>
        <time>2014-04-15T08:43:03Z</time>
      </trkpt>
      <trkpt lat="47.82984" lon="3.45901">
        <ele>178</ele>
        <time>2014-04-15T08:43:08Z</time>
      </trkpt>
      <trkpt lat="47.8298" lon="3.45898">
        <ele>178</ele>
        <time>2014-04-15T08:43:14Z</time>
      </trkpt>
      <trkpt lat="47.82974" lon="3.45895">
        <ele>178</ele>
        <time>2014-04-15T08:43:18Z</time>
      </trkpt>
      <trkpt lat="47.8297" lon="3.45894">
        <ele>178</ele>
        <time>2014-04-15T08:43:22Z</time>
      </trkpt>
      <trkpt lat="47.82965" lon="3.45892">
        <ele>178</ele>
        <time>2014-04-15T08:43:24Z</time>
      </trkpt>
      <trkpt lat="47.8296" lon="3.45891">
        <ele>178</ele>
        <time>2014-04-15T08:43:29Z</time>
      </trkpt>
      <trkpt lat="47.82955" lon="3.45888">
        <ele>178</ele>
        <time>2014-04-15T08:43:33Z</time>
      </trkpt>
      <trkpt lat="47.82951" lon="3.45884">
        <ele>178</ele>
        <time>2014-04-15T08:43:37Z</time>
      </trkpt>
      <trkpt lat="47.82947" lon="3.45884">
        <ele>178</ele>
        <time>2014-04-15T08:43:43Z</time>
      </trkpt>
      <trkpt lat="47.82942" lon="3.45881">
        <ele>178</ele>
        <time>2014-04-15T08:43:47Z</time>
      </trkpt>
      <trkpt lat="47.82936" lon="3.45878">
        <ele>178</ele>
        <time>2014-04-15T08:43:49Z</time>
      </trkpt>
      <trkpt lat="47.82931" lon="3.45876">
        <ele>178</ele>
        <time>2014-04-15T08:43:53Z</time>
      </trkpt>
      <trkpt lat="47.82927" lon="3.45873">
        <ele>178</ele>
        <time>2014-04-15T08:43:57Z</time>
      </trkpt>
      <trkpt lat="47.82922" lon="3.45869">
        <ele>178</ele>
        <time>2014-04-15T08:44:03Z</time>
      </trkpt>
      <trkpt lat="47.82917" lon="3.45868">
        <ele>178</ele>
        <time>2014-04-15T08:44:13Z</time>
      </trkpt>
      <trkpt lat="47.82913" lon="3.45866">
        <ele>177</ele>
        <time>2014-04-15T08:44:18Z</time>
      </trkpt>
      <trkpt lat="47.82909" lon="3.4586">
        <ele>177</ele>
        <time>2014-04-15T08:44:21Z</time>
      </trkpt>
      <trkpt lat="47.82905" lon="3.45857">
        <ele>177</ele>
        <time>2014-04-15T08:44:24Z</time>
      </trkpt>
      <trkpt lat="47.829" lon="3.45854">
        <ele>177</ele>
        <time>2014-04-15T08:44:28Z</time>
      </trkpt>
      <trkpt lat="47.82896" lon="3.45851">
        <ele>177</ele>
        <time>2014-04-15T08:44:31Z</time>
      </trkpt>
      <trkpt lat="47.82893" lon="3.45845">
        <ele>177</ele>
        <time>2014-04-15T08:44:35Z</time>
      </trkpt>
      <trkpt lat="47.82887" lon="3.45841">
        <ele>177</ele>
        <time>2014-04-15T08:44:40Z</time>
      </trkpt>
      <trkpt lat="47.82882" lon="3.45838">
        <ele>177</ele>
        <time>2014-04-15T08:44:43Z</time>
      </trkpt>
      <trkpt lat="47.82878" lon="3.45834">
        <ele>177</ele>
        <time>2014-04-15T08:44:51Z</time>
      </trkpt>
      <trkpt lat="47.82874" lon="3.45829">
        <ele>178</ele>
        <time>2014-04-15T08:44:55Z</time>
      </trkpt>
      <trkpt lat="47.8287" lon="3.45824">
        <ele>178</ele>
        <time>2014-04-15T08:44:58Z</time>
      </trkpt>
      <trkpt lat="47.82866" lon="3.45821">
        <ele>178</ele>
        <time>2014-04-15T08:45:03Z</time>
      </trkpt>
      <trkpt lat="47.82861" lon="3.45819">
        <ele>178</ele>
        <time>2014-04-15T08:45:08Z</time>
      </trkpt>
      <trkpt lat="47.82856" lon="3.45816">
        <ele>178</ele>
        <time>2014-04-15T08:45:13Z</time>
      </trkpt>
      <trkpt lat="47.82852" lon="3.45812">
        <ele>178</ele>
        <time>2014-04-15T08:45:18Z</time>
      </trkpt>
      <trkpt lat="47.82848" lon="3.45806">
        <ele>178</ele>
        <time>2014-04-15T08:45:22Z</time>
      </trkpt>
      <trkpt lat="47.82844" lon="3.45803">
        <ele>178</ele>
        <time>2014-04-15T08:45:26Z</time>
      </trkpt>
      <trkpt lat="47.82839" lon="3.458">
        <ele>178</ele>
        <time>2014-04-15T08:45:29Z</time>
      </trkpt>
      <trkpt lat="47.82835" lon="3.45796">
        <ele>178</ele>
        <time>2014-04-15T08:45:31Z</time>
      </trkpt>
      <trkpt lat="47.82831" lon="3.45792">
        <ele>177</ele>
        <time>2014-04-15T08:45:36Z</time>
      </trkpt>
      <trkpt lat="47.82826" lon="3.45791">
        <ele>177</ele>
        <time>2014-04-15T08:45:41Z</time>
      </trkpt>
      <trkpt lat="47.82821" lon="3.45788">
        <ele>177</ele>
        <time>2014-04-15T08:45:44Z</time>
      </trkpt>
      <trkpt lat="47.82817" lon="3.45784">
        <ele>177</ele>
        <time>2014-04-15T08:45:48Z</time>
      </trkpt>
      <trkpt lat="47.82812" lon="3.4578">
        <ele>177</ele>
        <time>2014-04-15T08:45:52Z</time>
      </trkpt>
      <trkpt lat="47.82807" lon="3.45778">
        <ele>177</ele>
        <time>2014-04-15T08:45:56Z</time>
      </trkpt>
      <trkpt lat="47.82802" lon="3.45775">
        <ele>177</ele>
        <time>2014-04-15T08:46:01Z</time>
      </trkpt>
      <trkpt lat="47.82798" lon="3.45773">
        <ele>177</ele>
        <time>2014-04-15T08:46:06Z</time>
      </trkpt>
      <trkpt lat="47.82792" lon="3.45768">
        <ele>177</ele>
        <time>2014-04-15T08:46:11Z</time>
      </trkpt>
      <trkpt lat="47.82788" lon="3.45765">
        <ele>177</ele>
        <time>2014-04-15T08:46:14Z</time>
      </trkpt>
      <trkpt lat="47.82783" lon="3.45761">
        <ele>177</ele>
        <time>2014-04-15T08:46:17Z</time>
      </trkpt>
      <trkpt lat="47.82779" lon="3.45758">
        <ele>177</ele>
        <time>2014-04-15T08:46:20Z</time>
      </trkpt>
      <trkpt lat="47.82775" lon="3.45756">
        <ele>177</ele>
        <time>2014-04-15T08:46:24Z</time>
      </trkpt>
      <trkpt lat="47.8277" lon="3.45752">
        <ele>177</ele>
        <time>2014-04-15T08:46:30Z</time>
      </trkpt>
      <trkpt lat="47.82766" lon="3.45747">
        <ele>178</ele>
        <time>2014-04-15T08:46:35Z</time>
      </trkpt>
      <trkpt lat="47.82762" lon="3.45741">
        <ele>178</ele>
        <time>2014-04-15T08:46:38Z</time>
      </trkpt>
      <trkpt lat="47.82758" lon="3.45737">
        <ele>178</ele>
        <time>2014-04-15T08:46:41Z</time>
      </trkpt>
      <trkpt lat="47.82753" lon="3.45732">
        <ele>179</ele>
        <time>2014-04-15T08:46:44Z</time>
      </trkpt>
      <trkpt lat="47.82749" lon="3.45729">
        <ele>177</ele>
        <time>2014-04-15T08:46:47Z</time>
      </trkpt>
      <trkpt lat="47.82744" lon="3.45727">
        <ele>177</ele>
        <time>2014-04-15T08:46:54Z</time>
      </trkpt>
      <trkpt lat="47.8274" lon="3.45723">
        <ele>178</ele>
        <time>2014-04-15T08:46:57Z</time>
      </trkpt>
      <trkpt lat="47.82734" lon="3.45721">
        <ele>178</ele>
        <time>2014-04-15T08:47:02Z</time>
      </trkpt>
      <trkpt lat="47.8273" lon="3.45718">
        <ele>178</ele>
        <time>2014-04-15T08:47:04Z</time>
      </trkpt>
      <trkpt lat="47.82726" lon="3.45715">
        <ele>178</ele>
        <time>2014-04-15T08:47:08Z</time>
      </trkpt>
      <trkpt lat="47.82722" lon="3.45709">
        <ele>178</ele>
        <time>2014-04-15T08:47:13Z</time>
      </trkpt>
      <trkpt lat="47.82717" lon="3.45707">
        <ele>178</ele>
        <time>2014-04-15T08:47:16Z</time>
      </trkpt>
      <trkpt lat="47.82713" lon="3.45701">
        <ele>178</ele>
        <time>2014-04-15T08:47:21Z</time>
      </trkpt>
      <trkpt lat="47.82708" lon="3.45699">
        <ele>178</ele>
        <time>2014-04-15T08:47:26Z</time>
      </trkpt>
      <trkpt lat="47.82702" lon="3.45698">
        <ele>178</ele>
        <time>2014-04-15T08:47:31Z</time>
      </trkpt>
      <trkpt lat="47.82697" lon="3.45695">
        <ele>178</ele>
        <time>2014-04-15T08:47:35Z</time>
      </trkpt>
      <trkpt lat="47.82692" lon="3.4569">
        <ele>178</ele>
        <time>2014-04-15T08:47:38Z</time>
      </trkpt>
      <trkpt lat="47.82687" lon="3.45686">
        <ele>178</ele>
        <time>2014-04-15T08:47:42Z</time>
      </trkpt>
      <trkpt lat="47.82683" lon="3.45682">
        <ele>178</ele>
        <time>2014-04-15T08:47:46Z</time>
      </trkpt>
      <trkpt lat="47.82679" lon="3.45678">
        <ele>178</ele>
        <time>2014-04-15T08:47:50Z</time>
      </trkpt>
      <trkpt lat="47.82676" lon="3.45674">
        <ele>178</ele>
        <time>2014-04-15T08:47:54Z</time>
      </trkpt>
      <trkpt lat="47.82672" lon="3.45669">
        <ele>178</ele>
        <time>2014-04-15T08:48:00Z</time>
      </trkpt>
      <trkpt lat="47.82667" lon="3.45667">
        <ele>178</ele>
        <time>2014-04-15T08:48:02Z</time>
      </trkpt>
      <trkpt lat="47.82662" lon="3.45663">
        <ele>178</ele>
        <time>2014-04-15T08:48:06Z</time>
      </trkpt>
      <trkpt lat="47.82657" lon="3.45661">
        <ele>179</ele>
        <time>2014-04-15T08:48:10Z</time>
      </trkpt>
      <trkpt lat="47.82651" lon="3.45658">
        <ele>179</ele>
        <time>2014-04-15T08:48:15Z</time>
      </trkpt>
      <trkpt lat="47.82647" lon="3.45652">
        <ele>179</ele>
        <time>2014-04-15T08:48:19Z</time>
      </trkpt>
      <trkpt lat="47.82642" lon="3.45648">
        <ele>179</ele>
        <time>2014-04-15T08:48:24Z</time>
      </trkpt>
      <trkpt lat="47.82631" lon="3.45672">
        <ele>176</ele>
        <time>2014-04-15T08:48:26Z</time>
      </trkpt>
      <trkpt lat="47.82631" lon="3.45664">
        <ele>179</ele>
        <time>2014-04-15T08:48:28Z</time>
      </trkpt>
      <trkpt lat="47.82627" lon="3.45657">
        <ele>179</ele>
        <time>2014-04-15T08:48:32Z</time>
      </trkpt>
      <trkpt lat="47.82625" lon="3.45651">
        <ele>179</ele>
        <time>2014-04-15T08:48:35Z</time>
      </trkpt>
      <trkpt lat="47.8262" lon="3.45646">
        <ele>179</ele>
        <time>2014-04-15T08:48:39Z</time>
      </trkpt>
      <trkpt lat="47.82618" lon="3.45641">
        <ele>179</ele>
        <time>2014-04-15T08:48:43Z</time>
      </trkpt>
      <trkpt lat="47.82618" lon="3.45632">
        <ele>179</ele>
        <time>2014-04-15T08:48:47Z</time>
      </trkpt>
      <trkpt lat="47.82618" lon="3.45625">
        <ele>180</ele>
        <time>2014-04-15T08:48:50Z</time>
      </trkpt>
      <trkpt lat="47.8262" lon="3.45617">
        <ele>180</ele>
        <time>2014-04-15T08:48:54Z</time>
      </trkpt>
      <trkpt lat="47.82619" lon="3.45608">
        <ele>180</ele>
        <time>2014-04-15T08:48:58Z</time>
      </trkpt>
      <trkpt lat="47.82618" lon="3.456">
        <ele>180</ele>
        <time>2014-04-15T08:49:02Z</time>
      </trkpt>
      <trkpt lat="47.82625" lon="3.45599">
        <ele>180</ele>
        <time>2014-04-15T08:50:24Z</time>
      </trkpt>
      <trkpt lat="47.82625" lon="3.45608">
        <ele>180</ele>
        <time>2014-04-15T08:50:28Z</time>
      </trkpt>
      <trkpt lat="47.82625" lon="3.45615">
        <ele>180</ele>
        <time>2014-04-15T08:50:31Z</time>
      </trkpt>
      <trkpt lat="47.82626" lon="3.45621">
        <ele>180</ele>
        <time>2014-04-15T08:50:35Z</time>
      </trkpt>
      <trkpt lat="47.82629" lon="3.45626">
        <ele>179</ele>
        <time>2014-04-15T08:50:39Z</time>
      </trkpt>
      <trkpt lat="47.82633" lon="3.4563">
        <ele>179</ele>
        <time>2014-04-15T08:50:42Z</time>
      </trkpt>
      <trkpt lat="47.82638" lon="3.45634">
        <ele>179</ele>
        <time>2014-04-15T08:50:46Z</time>
      </trkpt>
      <trkpt lat="47.82643" lon="3.45636">
        <ele>179</ele>
        <time>2014-04-15T08:50:50Z</time>
      </trkpt>
      <trkpt lat="47.82648" lon="3.4564">
        <ele>179</ele>
        <time>2014-04-15T08:50:54Z</time>
      </trkpt>
      <trkpt lat="47.82652" lon="3.45642">
        <ele>179</ele>
        <time>2014-04-15T08:50:58Z</time>
      </trkpt>
      <trkpt lat="47.82658" lon="3.45644">
        <ele>179</ele>
        <time>2014-04-15T08:51:02Z</time>
      </trkpt>
      <trkpt lat="47.82663" lon="3.45648">
        <ele>179</ele>
        <time>2014-04-15T08:51:07Z</time>
      </trkpt>
      <trkpt lat="47.82666" lon="3.45654">
        <ele>179</ele>
        <time>2014-04-15T08:51:10Z</time>
      </trkpt>
      <trkpt lat="47.82671" lon="3.45658">
        <ele>179</ele>
        <time>2014-04-15T08:51:15Z</time>
      </trkpt>
      <trkpt lat="47.82675" lon="3.45661">
        <ele>179</ele>
        <time>2014-04-15T08:51:20Z</time>
      </trkpt>
      <trkpt lat="47.82679" lon="3.45666">
        <ele>179</ele>
        <time>2014-04-15T08:51:24Z</time>
      </trkpt>
      <trkpt lat="47.82683" lon="3.45671">
        <ele>178</ele>
        <time>2014-04-15T08:51:28Z</time>
      </trkpt>
      <trkpt lat="47.82686" lon="3.45677">
        <ele>178</ele>
        <time>2014-04-15T08:51:31Z</time>
      </trkpt>
      <trkpt lat="47.8269" lon="3.45681">
        <ele>178</ele>
        <time>2014-04-15T08:51:35Z</time>
      </trkpt>
      <trkpt lat="47.82695" lon="3.45681">
        <ele>178</ele>
        <time>2014-04-15T08:51:38Z</time>
      </trkpt>
      <trkpt lat="47.827" lon="3.45685">
        <ele>178</ele>
        <time>2014-04-15T08:51:42Z</time>
      </trkpt>
      <trkpt lat="47.82704" lon="3.45691">
        <ele>178</ele>
        <time>2014-04-15T08:51:45Z</time>
      </trkpt>
      <trkpt lat="47.82708" lon="3.45696">
        <ele>178</ele>
        <time>2014-04-15T08:51:50Z</time>
      </trkpt>
      <trkpt lat="47.82713" lon="3.45699">
        <ele>178</ele>
        <time>2014-04-15T08:51:55Z</time>
      </trkpt>
      <trkpt lat="47.82717" lon="3.45705">
        <ele>178</ele>
        <time>2014-04-15T08:51:59Z</time>
      </trkpt>
      <trkpt lat="47.82719" lon="3.45712">
        <ele>178</ele>
        <time>2014-04-15T08:52:03Z</time>
      </trkpt>
      <trkpt lat="47.82724" lon="3.45713">
        <ele>178</ele>
        <time>2014-04-15T08:52:07Z</time>
      </trkpt>
      <trkpt lat="47.82729" lon="3.45714">
        <ele>178</ele>
        <time>2014-04-15T08:52:11Z</time>
      </trkpt>
      <trkpt lat="47.82733" lon="3.45718">
        <ele>178</ele>
        <time>2014-04-15T08:52:15Z</time>
      </trkpt>
      <trkpt lat="47.82737" lon="3.45722">
        <ele>178</ele>
        <time>2014-04-15T08:52:19Z</time>
      </trkpt>
      <trkpt lat="47.82742" lon="3.45725">
        <ele>178</ele>
        <time>2014-04-15T08:52:25Z</time>
      </trkpt>
      <trkpt lat="47.82747" lon="3.45727">
        <ele>177</ele>
        <time>2014-04-15T08:52:29Z</time>
      </trkpt>
      <trkpt lat="47.82751" lon="3.4573">
        <ele>179</ele>
        <time>2014-04-15T08:52:32Z</time>
      </trkpt>
      <trkpt lat="47.82756" lon="3.45733">
        <ele>179</ele>
        <time>2014-04-15T08:52:35Z</time>
      </trkpt>
      <trkpt lat="47.82759" lon="3.45734">
        <ele>179</ele>
        <time>2014-04-15T08:52:40Z</time>
      </trkpt>
      <trkpt lat="47.82763" lon="3.45737">
        <ele>179</ele>
        <time>2014-04-15T08:52:50Z</time>
      </trkpt>
      <trkpt lat="47.82768" lon="3.4574">
        <ele>179</ele>
        <time>2014-04-15T08:52:53Z</time>
      </trkpt>
      <trkpt lat="47.82772" lon="3.45744">
        <ele>179</ele>
        <time>2014-04-15T08:52:57Z</time>
      </trkpt>
      <trkpt lat="47.82777" lon="3.45748">
        <ele>179</ele>
        <time>2014-04-15T08:53:02Z</time>
      </trkpt>
      <trkpt lat="47.82782" lon="3.45752">
        <ele>177</ele>
        <time>2014-04-15T08:53:06Z</time>
      </trkpt>
      <trkpt lat="47.82786" lon="3.45754">
        <ele>177</ele>
        <time>2014-04-15T08:53:08Z</time>
      </trkpt>
      <trkpt lat="47.8279" lon="3.45759">
        <ele>177</ele>
        <time>2014-04-15T08:53:12Z</time>
      </trkpt>
      <trkpt lat="47.82793" lon="3.45764">
        <ele>177</ele>
        <time>2014-04-15T08:53:17Z</time>
      </trkpt>
      <trkpt lat="47.82798" lon="3.45767">
        <ele>177</ele>
        <time>2014-04-15T08:53:20Z</time>
      </trkpt>
      <trkpt lat="47.82802" lon="3.45772">
        <ele>177</ele>
        <time>2014-04-15T08:53:26Z</time>
      </trkpt>
      <trkpt lat="47.82806" lon="3.45775">
        <ele>177</ele>
        <time>2014-04-15T08:53:30Z</time>
      </trkpt>
      <trkpt lat="47.82811" lon="3.45777">
        <ele>177</ele>
        <time>2014-04-15T08:53:34Z</time>
      </trkpt>
      <trkpt lat="47.82815" lon="3.45783">
        <ele>177</ele>
        <time>2014-04-15T08:53:38Z</time>
      </trkpt>
      <trkpt lat="47.82817" lon="3.4579">
        <ele>177</ele>
        <time>2014-04-15T08:53:46Z</time>
      </trkpt>
      <trkpt lat="47.8282" lon="3.4579">
        <ele>177</ele>
        <time>2014-04-15T08:53:53Z</time>
      </trkpt>
      <trkpt lat="47.82825" lon="3.45792">
        <ele>177</ele>
        <time>2014-04-15T08:54:06Z</time>
      </trkpt>
      <trkpt lat="47.82829" lon="3.45794">
        <ele>177</ele>
        <time>2014-04-15T08:54:10Z</time>
      </trkpt>
      <trkpt lat="47.82834" lon="3.45798">
        <ele>178</ele>
        <time>2014-04-15T08:54:36Z</time>
      </trkpt>
      <trkpt lat="47.82839" lon="3.45802">
        <ele>178</ele>
        <time>2014-04-15T08:54:41Z</time>
      </trkpt>
      <trkpt lat="47.82844" lon="3.45803">
        <ele>178</ele>
        <time>2014-04-15T08:54:45Z</time>
      </trkpt>
      <trkpt lat="47.82848" lon="3.45807">
        <ele>178</ele>
        <time>2014-04-15T08:54:49Z</time>
      </trkpt>
      <trkpt lat="47.82852" lon="3.45812">
        <ele>178</ele>
        <time>2014-04-15T08:54:53Z</time>
      </trkpt>
      <trkpt lat="47.82854" lon="3.45816">
        <ele>178</ele>
        <time>2014-04-15T08:55:00Z</time>
      </trkpt>
      <trkpt lat="47.82856" lon="3.45809">
        <ele>178</ele>
        <time>2014-04-15T08:55:03Z</time>
      </trkpt>
      <trkpt lat="47.82859" lon="3.45802">
        <ele>178</ele>
        <time>2014-04-15T08:55:06Z</time>
      </trkpt>
      <trkpt lat="47.82862" lon="3.45796">
        <ele>179</ele>
        <time>2014-04-15T08:55:11Z</time>
      </trkpt>
      <trkpt lat="47.82866" lon="3.45791">
        <ele>179</ele>
        <time>2014-04-15T08:55:15Z</time>
      </trkpt>
      <trkpt lat="47.82861" lon="3.45802">
        <ele>178</ele>
        <time>2014-04-15T08:57:34Z</time>
      </trkpt>
      <trkpt lat="47.82858" lon="3.45808">
        <ele>178</ele>
        <time>2014-04-15T08:57:37Z</time>
      </trkpt>
      <trkpt lat="47.82858" lon="3.45816">
        <ele>178</ele>
        <time>2014-04-15T08:57:41Z</time>
      </trkpt>
      <trkpt lat="47.82859" lon="3.45821">
        <ele>178</ele>
        <time>2014-04-15T08:58:03Z</time>
      </trkpt>
      <trkpt lat="47.82853" lon="3.45825">
        <ele>178</ele>
        <time>2014-04-15T08:58:08Z</time>
      </trkpt>
      <trkpt lat="47.82848" lon="3.45823">
        <ele>177</ele>
        <time>2014-04-15T08:58:14Z</time>
      </trkpt>
      <trkpt lat="47.82848" lon="3.45816">
        <ele>178</ele>
        <time>2014-04-15T08:58:18Z</time>
      </trkpt>
      <trkpt lat="47.82845" lon="3.4581">
        <ele>178</ele>
        <time>2014-04-15T08:58:23Z</time>
      </trkpt>
      <trkpt lat="47.8284" lon="3.45809">
        <ele>178</ele>
        <time>2014-04-15T08:58:27Z</time>
      </trkpt>
      <trkpt lat="47.82835" lon="3.45807">
        <ele>178</ele>
        <time>2014-04-15T08:58:31Z</time>
      </trkpt>
      <trkpt lat="47.82831" lon="3.45803">
        <ele>177</ele>
        <time>2014-04-15T08:58:37Z</time>
      </trkpt>
      <trkpt lat="47.82827" lon="3.45799">
        <ele>177</ele>
        <time>2014-04-15T08:58:42Z</time>
      </trkpt>
      <trkpt lat="47.82822" lon="3.45797">
        <ele>177</ele>
        <time>2014-04-15T08:58:45Z</time>
      </trkpt>
      <trkpt lat="47.82817" lon="3.45794">
        <ele>177</ele>
        <time>2014-04-15T08:58:50Z</time>
      </trkpt>
      <trkpt lat="47.82812" lon="3.45789">
        <ele>177</ele>
        <time>2014-04-15T08:58:55Z</time>
      </trkpt>
      <trkpt lat="47.82808" lon="3.45785">
        <ele>177</ele>
        <time>2014-04-15T08:58:57Z</time>
      </trkpt>
      <trkpt lat="47.82804" lon="3.4578">
        <ele>177</ele>
        <time>2014-04-15T08:58:59Z</time>
      </trkpt>
      <trkpt lat="47.828" lon="3.45777">
        <ele>177</ele>
        <time>2014-04-15T08:59:02Z</time>
      </trkpt>
      <trkpt lat="47.82795" lon="3.45773">
        <ele>177</ele>
        <time>2014-04-15T08:59:08Z</time>
      </trkpt>
      <trkpt lat="47.82791" lon="3.45769">
        <ele>177</ele>
        <time>2014-04-15T08:59:14Z</time>
      </trkpt>
      <trkpt lat="47.82784" lon="3.45762">
        <ele>177</ele>
        <time>2014-04-15T08:59:20Z</time>
      </trkpt>
      <trkpt lat="47.82778" lon="3.45762">
        <ele>177</ele>
        <time>2014-04-15T08:59:25Z</time>
      </trkpt>
      <trkpt lat="47.82773" lon="3.45756">
        <ele>177</ele>
        <time>2014-04-15T08:59:27Z</time>
      </trkpt>
      <trkpt lat="47.82769" lon="3.45752">
        <ele>177</ele>
        <time>2014-04-15T08:59:31Z</time>
      </trkpt>
      <trkpt lat="47.82764" lon="3.45748">
        <ele>178</ele>
        <time>2014-04-15T08:59:34Z</time>
      </trkpt>
      <trkpt lat="47.8276" lon="3.45743">
        <ele>178</ele>
        <time>2014-04-15T08:59:36Z</time>
      </trkpt>
      <trkpt lat="47.82755" lon="3.45738">
        <ele>178</ele>
        <time>2014-04-15T08:59:39Z</time>
      </trkpt>
      <trkpt lat="47.82751" lon="3.45734">
        <ele>178</ele>
        <time>2014-04-15T08:59:44Z</time>
      </trkpt>
      <trkpt lat="47.82746" lon="3.4573">
        <ele>177</ele>
        <time>2014-04-15T08:59:48Z</time>
      </trkpt>
      <trkpt lat="47.82741" lon="3.45726">
        <ele>177</ele>
        <time>2014-04-15T08:59:54Z</time>
      </trkpt>
      <trkpt lat="47.82737" lon="3.45723">
        <ele>178</ele>
        <time>2014-04-15T09:00:00Z</time>
      </trkpt>
      <trkpt lat="47.82732" lon="3.4572">
        <ele>178</ele>
        <time>2014-04-15T09:00:04Z</time>
      </trkpt>
      <trkpt lat="47.82728" lon="3.45717">
        <ele>178</ele>
        <time>2014-04-15T09:00:09Z</time>
      </trkpt>
      <trkpt lat="47.82723" lon="3.45712">
        <ele>178</ele>
        <time>2014-04-15T09:00:14Z</time>
      </trkpt>
      <trkpt lat="47.82719" lon="3.45707">
        <ele>178</ele>
        <time>2014-04-15T09:00:17Z</time>
      </trkpt>
      <trkpt lat="47.82715" lon="3.45701">
        <ele>178</ele>
        <time>2014-04-15T09:00:20Z</time>
      </trkpt>
      <trkpt lat="47.82711" lon="3.45695">
        <ele>178</ele>
        <time>2014-04-15T09:00:23Z</time>
      </trkpt>
      <trkpt lat="47.82706" lon="3.45691">
        <ele>178</ele>
        <time>2014-04-15T09:00:27Z</time>
      </trkpt>
      <trkpt lat="47.82702" lon="3.45689">
        <ele>178</ele>
        <time>2014-04-15T09:00:33Z</time>
      </trkpt>
      <trkpt lat="47.82696" lon="3.45685">
        <ele>178</ele>
        <time>2014-04-15T09:00:37Z</time>
      </trkpt>
      <trkpt lat="47.82691" lon="3.45683">
        <ele>178</ele>
        <time>2014-04-15T09:00:40Z</time>
      </trkpt>
      <trkpt lat="47.82686" lon="3.45679">
        <ele>178</ele>
        <time>2014-04-15T09:00:44Z</time>
      </trkpt>
      <trkpt lat="47.82682" lon="3.45676">
        <ele>178</ele>
        <time>2014-04-15T09:00:48Z</time>
      </trkpt>
      <trkpt lat="47.82677" lon="3.45672">
        <ele>178</ele>
        <time>2014-04-15T09:00:52Z</time>
      </trkpt>
      <trkpt lat="47.82674" lon="3.45667">
        <ele>178</ele>
        <time>2014-04-15T09:00:58Z</time>
      </trkpt>
      <trkpt lat="47.8267" lon="3.45662">
        <ele>179</ele>
        <time>2014-04-15T09:01:02Z</time>
      </trkpt>
      <trkpt lat="47.82667" lon="3.45656">
        <ele>179</ele>
        <time>2014-04-15T09:01:06Z</time>
      </trkpt>
      <trkpt lat="47.82663" lon="3.45654">
        <ele>179</ele>
        <time>2014-04-15T09:01:10Z</time>
      </trkpt>
      <trkpt lat="47.82658" lon="3.4565">
        <ele>179</ele>
        <time>2014-04-15T09:01:12Z</time>
      </trkpt>
      <trkpt lat="47.82654" lon="3.45646">
        <ele>179</ele>
        <time>2014-04-15T09:01:13Z</time>
      </trkpt>
      <trkpt lat="47.82649" lon="3.45642">
        <ele>179</ele>
        <time>2014-04-15T09:01:17Z</time>
      </trkpt>
      <trkpt lat="47.82645" lon="3.45638">
        <ele>179</ele>
        <time>2014-04-15T09:01:21Z</time>
      </trkpt>
      <trkpt lat="47.8264" lon="3.45634">
        <ele>179</ele>
        <time>2014-04-15T09:01:25Z</time>
      </trkpt>
      <trkpt lat="47.82635" lon="3.45632">
        <ele>179</ele>
        <time>2014-04-15T09:01:29Z</time>
      </trkpt>
      <trkpt lat="47.8263" lon="3.45631">
        <ele>179</ele>
        <time>2014-04-15T09:01:36Z</time>
      </trkpt>
      <trkpt lat="47.82626" lon="3.45626">
        <ele>179</ele>
        <time>2014-04-15T09:01:40Z</time>
      </trkpt>
      <trkpt lat="47.82621" lon="3.45621">
        <ele>180</ele>
        <time>2014-04-15T09:01:44Z</time>
      </trkpt>
      <trkpt lat="47.82616" lon="3.45618">
        <ele>180</ele>
        <time>2014-04-15T09:01:47Z</time>
      </trkpt>
      <trkpt lat="47.82611" lon="3.45618">
        <ele>180</ele>
        <time>2014-04-15T09:01:51Z</time>
      </trkpt>
      <trkpt lat="47.82606" lon="3.4562">
        <ele>180</ele>
        <time>2014-04-15T09:01:55Z</time>
      </trkpt>
      <trkpt lat="47.82601" lon="3.45622">
        <ele>180</ele>
        <time>2014-04-15T09:01:59Z</time>
      </trkpt>
      <trkpt lat="47.82596" lon="3.45629">
        <ele>179</ele>
        <time>2014-04-15T09:02:03Z</time>
      </trkpt>
      <trkpt lat="47.82592" lon="3.45634">
        <ele>179</ele>
        <time>2014-04-15T09:02:06Z</time>
      </trkpt>
      <trkpt lat="47.82588" lon="3.45638">
        <ele>179</ele>
        <time>2014-04-15T09:02:10Z</time>
      </trkpt>
      <trkpt lat="47.82584" lon="3.45643">
        <ele>179</ele>
        <time>2014-04-15T09:02:15Z</time>
      </trkpt>
      <trkpt lat="47.8258" lon="3.45649">
        <ele>179</ele>
        <time>2014-04-15T09:02:18Z</time>
      </trkpt>
      <trkpt lat="47.82576" lon="3.45655">
        <ele>179</ele>
        <time>2014-04-15T09:02:22Z</time>
      </trkpt>
      <trkpt lat="47.82573" lon="3.45661">
        <ele>179</ele>
        <time>2014-04-15T09:02:24Z</time>
      </trkpt>
      <trkpt lat="47.8257" lon="3.45668">
        <ele>177</ele>
        <time>2014-04-15T09:02:27Z</time>
      </trkpt>
      <trkpt lat="47.82566" lon="3.45675">
        <ele>177</ele>
        <time>2014-04-15T09:02:31Z</time>
      </trkpt>
      <trkpt lat="47.82563" lon="3.4568">
        <ele>178</ele>
        <time>2014-04-15T09:02:36Z</time>
      </trkpt>
      <trkpt lat="47.82561" lon="3.45686">
        <ele>178</ele>
        <time>2014-04-15T09:02:41Z</time>
      </trkpt>
      <trkpt lat="47.82559" lon="3.45695">
        <ele>178</ele>
        <time>2014-04-15T09:02:48Z</time>
      </trkpt>
      <trkpt lat="47.82558" lon="3.45702">
        <ele>177</ele>
        <time>2014-04-15T09:02:51Z</time>
      </trkpt>
      <trkpt lat="47.82558" lon="3.45709">
        <ele>177</ele>
        <time>2014-04-15T09:02:54Z</time>
      </trkpt>
      <trkpt lat="47.82557" lon="3.45716">
        <ele>177</ele>
        <time>2014-04-15T09:02:58Z</time>
      </trkpt>
      <trkpt lat="47.82556" lon="3.45723">
        <ele>177</ele>
        <time>2014-04-15T09:03:04Z</time>
      </trkpt>
      <trkpt lat="47.82554" lon="3.4573">
        <ele>177</ele>
        <time>2014-04-15T09:03:07Z</time>
      </trkpt>
      <trkpt lat="47.82552" lon="3.45738">
        <ele>177</ele>
        <time>2014-04-15T09:03:12Z</time>
      </trkpt>
      <trkpt lat="47.82551" lon="3.45745">
        <ele>177</ele>
        <time>2014-04-15T09:03:16Z</time>
      </trkpt>
      <trkpt lat="47.82551" lon="3.45752">
        <ele>176</ele>
        <time>2014-04-15T09:03:20Z</time>
      </trkpt>
      <trkpt lat="47.82551" lon="3.45761">
        <ele>176</ele>
        <time>2014-04-15T09:03:24Z</time>
      </trkpt>
      <trkpt lat="47.82552" lon="3.45769">
        <ele>176</ele>
        <time>2014-04-15T09:03:29Z</time>
      </trkpt>
      <trkpt lat="47.8255" lon="3.45777">
        <ele>176</ele>
        <time>2014-04-15T09:03:34Z</time>
      </trkpt>
      <trkpt lat="47.82548" lon="3.45783">
        <ele>176</ele>
        <time>2014-04-15T09:03:38Z</time>
      </trkpt>
      <trkpt lat="47.82547" lon="3.4579">
        <ele>176</ele>
        <time>2014-04-15T09:03:41Z</time>
      </trkpt>
      <trkpt lat="47.82545" lon="3.45797">
        <ele>176</ele>
        <time>2014-04-15T09:03:44Z</time>
      </trkpt>
      <trkpt lat="47.82542" lon="3.45805">
        <ele>176</ele>
        <time>2014-04-15T09:03:50Z</time>
      </trkpt>
      <trkpt lat="47.82541" lon="3.45813">
        <ele>176</ele>
        <time>2014-04-15T09:03:54Z</time>
      </trkpt>
      <trkpt lat="47.82539" lon="3.4582">
        <ele>176</ele>
        <time>2014-04-15T09:03:58Z</time>
      </trkpt>
      <trkpt lat="47.82538" lon="3.45827">
        <ele>176</ele>
        <time>2014-04-15T09:04:00Z</time>
      </trkpt>
      <trkpt lat="47.82536" lon="3.4584">
        <ele>175</ele>
        <time>2014-04-15T09:04:07Z</time>
      </trkpt>
      <trkpt lat="47.82538" lon="3.45848">
        <ele>175</ele>
        <time>2014-04-15T09:04:11Z</time>
      </trkpt>
      <trkpt lat="47.82539" lon="3.45855">
        <ele>175</ele>
        <time>2014-04-15T09:04:14Z</time>
      </trkpt>
      <trkpt lat="47.8254" lon="3.45862">
        <ele>175</ele>
        <time>2014-04-15T09:04:19Z</time>
      </trkpt>
      <trkpt lat="47.8254" lon="3.4587">
        <ele>175</ele>
        <time>2014-04-15T09:04:25Z</time>
      </trkpt>
      <trkpt lat="47.82542" lon="3.45877">
        <ele>175</ele>
        <time>2014-04-15T09:04:29Z</time>
      </trkpt>
      <trkpt lat="47.82543" lon="3.45884">
        <ele>175</ele>
        <time>2014-04-15T09:04:33Z</time>
      </trkpt>
      <trkpt lat="47.82543" lon="3.45892">
        <ele>175</ele>
        <time>2014-04-15T09:04:37Z</time>
      </trkpt>
      <trkpt lat="47.82541" lon="3.45898">
        <ele>175</ele>
        <time>2014-04-15T09:04:39Z</time>
      </trkpt>
      <trkpt lat="47.8254" lon="3.45906">
        <ele>175</ele>
        <time>2014-04-15T09:04:44Z</time>
      </trkpt>
      <trkpt lat="47.82539" lon="3.45921">
        <ele>175</ele>
        <time>2014-04-15T09:04:50Z</time>
      </trkpt>
      <trkpt lat="47.82535" lon="3.45929">
        <ele>175</ele>
        <time>2014-04-15T09:04:54Z</time>
      </trkpt>
      <trkpt lat="47.82537" lon="3.45935">
        <ele>175</ele>
        <time>2014-04-15T09:04:58Z</time>
      </trkpt>
      <trkpt lat="47.82536" lon="3.45947">
        <ele>174</ele>
        <time>2014-04-15T09:05:06Z</time>
      </trkpt>
      <trkpt lat="47.82533" lon="3.45954">
        <ele>174</ele>
        <time>2014-04-15T09:05:10Z</time>
      </trkpt>
      <trkpt lat="47.82532" lon="3.45961">
        <ele>174</ele>
        <time>2014-04-15T09:05:14Z</time>
      </trkpt>
      <trkpt lat="47.82533" lon="3.45969">
        <ele>174</ele>
        <time>2014-04-15T09:05:19Z</time>
      </trkpt>
      <trkpt lat="47.82533" lon="3.45976">
        <ele>174</ele>
        <time>2014-04-15T09:05:22Z</time>
      </trkpt>
      <trkpt lat="47.82532" lon="3.45983">
        <ele>174</ele>
        <time>2014-04-15T09:05:24Z</time>
      </trkpt>
      <trkpt lat="47.82532" lon="3.4599">
        <ele>174</ele>
        <time>2014-04-15T09:05:30Z</time>
      </trkpt>
      <trkpt lat="47.82534" lon="3.45997">
        <ele>174</ele>
        <time>2014-04-15T09:05:34Z</time>
      </trkpt>
      <trkpt lat="47.82533" lon="3.46005">
        <ele>172</ele>
        <time>2014-04-15T09:05:36Z</time>
      </trkpt>
      <trkpt lat="47.82531" lon="3.46011">
        <ele>172</ele>
        <time>2014-04-15T09:05:40Z</time>
      </trkpt>
      <trkpt lat="47.82525" lon="3.46015">
        <ele>173</ele>
        <time>2014-04-15T09:05:43Z</time>
      </trkpt>
      <trkpt lat="47.82521" lon="3.46019">
        <ele>173</ele>
        <time>2014-04-15T09:05:45Z</time>
      </trkpt>
      <trkpt lat="47.82519" lon="3.46025">
        <ele>172</ele>
        <time>2014-04-15T09:05:48Z</time>
      </trkpt>
      <trkpt lat="47.82519" lon="3.46033">
        <ele>172</ele>
        <time>2014-04-15T09:05:52Z</time>
      </trkpt>
      <trkpt lat="47.82517" lon="3.46039">
        <ele>172</ele>
        <time>2014-04-15T09:05:56Z</time>
      </trkpt>
      <trkpt lat="47.82515" lon="3.46047">
        <ele>172</ele>
        <time>2014-04-15T09:06:01Z</time>
      </trkpt>
      <trkpt lat="47.82515" lon="3.46054">
        <ele>172</ele>
        <time>2014-04-15T09:06:04Z</time>
      </trkpt>
      <trkpt lat="47.82517" lon="3.46063">
        <ele>172</ele>
        <time>2014-04-15T09:06:08Z</time>
      </trkpt>
      <trkpt lat="47.82517" lon="3.4607">
        <ele>172</ele>
        <time>2014-04-15T09:06:13Z</time>
      </trkpt>
      <trkpt lat="47.82517" lon="3.46079">
        <ele>172</ele>
        <time>2014-04-15T09:06:17Z</time>
      </trkpt>
      <trkpt lat="47.82516" lon="3.46086">
        <ele>170</ele>
        <time>2014-04-15T09:06:21Z</time>
      </trkpt>
      <trkpt lat="47.82515" lon="3.46093">
        <ele>170</ele>
        <time>2014-04-15T09:06:25Z</time>
      </trkpt>
      <trkpt lat="47.82513" lon="3.461">
        <ele>170</ele>
        <time>2014-04-15T09:06:29Z</time>
      </trkpt>
      <trkpt lat="47.82513" lon="3.46108">
        <ele>170</ele>
        <time>2014-04-15T09:06:36Z</time>
      </trkpt>
      <trkpt lat="47.82511" lon="3.46114">
        <ele>170</ele>
        <time>2014-04-15T09:06:39Z</time>
      </trkpt>
      <trkpt lat="47.8251" lon="3.46121">
        <ele>170</ele>
        <time>2014-04-15T09:06:43Z</time>
      </trkpt>
      <trkpt lat="47.82508" lon="3.46128">
        <ele>169</ele>
        <time>2014-04-15T09:06:48Z</time>
      </trkpt>
      <trkpt lat="47.82508" lon="3.46136">
        <ele>169</ele>
        <time>2014-04-15T09:06:56Z</time>
      </trkpt>
      <trkpt lat="47.82507" lon="3.46143">
        <ele>169</ele>
        <time>2014-04-15T09:07:00Z</time>
      </trkpt>
      <trkpt lat="47.82506" lon="3.46152">
        <ele>169</ele>
        <time>2014-04-15T09:07:04Z</time>
      </trkpt>
      <trkpt lat="47.82504" lon="3.4616">
        <ele>170</ele>
        <time>2014-04-15T09:07:06Z</time>
      </trkpt>
      <trkpt lat="47.82503" lon="3.46168">
        <ele>170</ele>
        <time>2014-04-15T09:07:11Z</time>
      </trkpt>
      <trkpt lat="47.82501" lon="3.46176">
        <ele>169</ele>
        <time>2014-04-15T09:07:14Z</time>
      </trkpt>
      <trkpt lat="47.82498" lon="3.46185">
        <ele>170</ele>
        <time>2014-04-15T09:07:18Z</time>
      </trkpt>
      <trkpt lat="47.82497" lon="3.46192">
        <ele>169</ele>
        <time>2014-04-15T09:07:20Z</time>
      </trkpt>
      <trkpt lat="47.82496" lon="3.46199">
        <ele>169</ele>
        <time>2014-04-15T09:07:25Z</time>
      </trkpt>
      <trkpt lat="47.82499" lon="3.46205">
        <ele>169</ele>
        <time>2014-04-15T09:07:28Z</time>
      </trkpt>
      <trkpt lat="47.82496" lon="3.4621">
        <ele>169</ele>
        <time>2014-04-15T09:07:32Z</time>
      </trkpt>
      <trkpt lat="47.82493" lon="3.46216">
        <ele>169</ele>
        <time>2014-04-15T09:07:35Z</time>
      </trkpt>
      <trkpt lat="47.82492" lon="3.46223">
        <ele>169</ele>
        <time>2014-04-15T09:07:39Z</time>
      </trkpt>
      <trkpt lat="47.8249" lon="3.46231">
        <ele>169</ele>
        <time>2014-04-15T09:07:43Z</time>
      </trkpt>
      <trkpt lat="47.82489" lon="3.46239">
        <ele>169</ele>
        <time>2014-04-15T09:07:47Z</time>
      </trkpt>
      <trkpt lat="47.82487" lon="3.46246">
        <ele>168</ele>
        <time>2014-04-15T09:07:51Z</time>
      </trkpt>
      <trkpt lat="47.82485" lon="3.46253">
        <ele>167</ele>
        <time>2014-04-15T09:07:56Z</time>
      </trkpt>
      <trkpt lat="47.82483" lon="3.4626">
        <ele>167</ele>
        <time>2014-04-15T09:08:01Z</time>
      </trkpt>
      <trkpt lat="47.82482" lon="3.46267">
        <ele>167</ele>
        <time>2014-04-15T09:08:06Z</time>
      </trkpt>
      <trkpt lat="47.82482" lon="3.46275">
        <ele>167</ele>
        <time>2014-04-15T09:08:10Z</time>
      </trkpt>
      <trkpt lat="47.8248" lon="3.46282">
        <ele>167</ele>
        <time>2014-04-15T09:08:14Z</time>
      </trkpt>
      <trkpt lat="47.82478" lon="3.46288">
        <ele>166</ele>
        <time>2014-04-15T09:08:18Z</time>
      </trkpt>
      <trkpt lat="47.82475" lon="3.46294">
        <ele>166</ele>
        <time>2014-04-15T09:08:22Z</time>
      </trkpt>
      <trkpt lat="47.82475" lon="3.46302">
        <ele>166</ele>
        <time>2014-04-15T09:08:28Z</time>
      </trkpt>
      <trkpt lat="47.82476" lon="3.46309">
        <ele>166</ele>
        <time>2014-04-15T09:08:34Z</time>
      </trkpt>
      <trkpt lat="47.82476" lon="3.46318">
        <ele>166</ele>
        <time>2014-04-15T09:08:37Z</time>
      </trkpt>
      <trkpt lat="47.82475" lon="3.46325">
        <ele>166</ele>
        <time>2014-04-15T09:08:42Z</time>
      </trkpt>
      <trkpt lat="47.82473" lon="3.46332">
        <ele>166</ele>
        <time>2014-04-15T09:08:46Z</time>
      </trkpt>
      <trkpt lat="47.8247" lon="3.46338">
        <ele>164</ele>
        <time>2014-04-15T09:08:51Z</time>
      </trkpt>
      <trkpt lat="47.82469" lon="3.46345">
        <ele>164</ele>
        <time>2014-04-15T09:08:56Z</time>
      </trkpt>
      <trkpt lat="47.82467" lon="3.46354">
        <ele>164</ele>
        <time>2014-04-15T09:08:59Z</time>
      </trkpt>
      <trkpt lat="47.82465" lon="3.4636">
        <ele>164</ele>
        <time>2014-04-15T09:09:02Z</time>
      </trkpt>
      <trkpt lat="47.82464" lon="3.46368">
        <ele>164</ele>
        <time>2014-04-15T09:09:08Z</time>
      </trkpt>
      <trkpt lat="47.82462" lon="3.46376">
        <ele>164</ele>
        <time>2014-04-15T09:09:12Z</time>
      </trkpt>
      <trkpt lat="47.8246" lon="3.46382">
        <ele>164</ele>
        <time>2014-04-15T09:09:15Z</time>
      </trkpt>
      <trkpt lat="47.82459" lon="3.4639">
        <ele>164</ele>
        <time>2014-04-15T09:09:20Z</time>
      </trkpt>
      <trkpt lat="47.82458" lon="3.46397">
        <ele>163</ele>
        <time>2014-04-15T09:09:25Z</time>
      </trkpt>
      <trkpt lat="47.82458" lon="3.46395">
        <ele>163</ele>
        <time>2014-04-15T09:09:42Z</time>
      </trkpt>
      <trkpt lat="47.8246" lon="3.4639">
        <ele>164</ele>
        <time>2014-04-15T09:09:56Z</time>
      </trkpt>
      <trkpt lat="47.82459" lon="3.46391">
        <ele>164</ele>
        <time>2014-04-15T09:10:42Z</time>
      </trkpt>
      <trkpt lat="47.82457" lon="3.46397">
        <ele>163</ele>
        <time>2014-04-15T09:10:48Z</time>
      </trkpt>
      <trkpt lat="47.82458" lon="3.46398">
        <ele>163</ele>
        <time>2014-04-15T09:11:02Z</time>
      </trkpt>
      <trkpt lat="47.82455" lon="3.46404">
        <ele>163</ele>
        <time>2014-04-15T09:11:08Z</time>
      </trkpt>
      <trkpt lat="47.82457" lon="3.46406">
        <ele>163</ele>
        <time>2014-04-15T09:11:28Z</time>
      </trkpt>
      <trkpt lat="47.82454" lon="3.46412">
        <ele>163</ele>
        <time>2014-04-15T09:11:33Z</time>
      </trkpt>
      <trkpt lat="47.8245" lon="3.46412">
        <ele>163</ele>
        <time>2014-04-15T09:11:45Z</time>
      </trkpt>
      <trkpt lat="47.82448" lon="3.46413">
        <ele>163</ele>
        <time>2014-04-15T09:12:06Z</time>
      </trkpt>
      <trkpt lat="47.8245" lon="3.46413">
        <ele>163</ele>
        <time>2014-04-15T09:12:53Z</time>
      </trkpt>
      <trkpt lat="47.82454" lon="3.46406">
        <ele>163</ele>
        <time>2014-04-15T09:13:06Z</time>
      </trkpt>
      <trkpt lat="47.82457" lon="3.46401">
        <ele>163</ele>
        <time>2014-04-15T09:13:11Z</time>
      </trkpt>
      <trkpt lat="47.82458" lon="3.46395">
        <ele>163</ele>
        <time>2014-04-15T09:23:46Z</time>
      </trkpt>
      <trkpt lat="47.82456" lon="3.46392">
        <ele>164</ele>
        <time>2014-04-15T09:41:17Z</time>
      </trkpt>
      <trkpt lat="47.82457" lon="3.46385">
        <ele>164</ele>
        <time>2014-04-15T09:41:23Z</time>
      </trkpt>
      <trkpt lat="47.82458" lon="3.4639">
        <ele>164</ele>
        <time>2014-04-15T09:41:45Z</time>
      </trkpt>
      <trkpt lat="47.82459" lon="3.46387">
        <ele>164</ele>
        <time>2014-04-15T09:42:17Z</time>
      </trkpt>
      <trkpt lat="47.82461" lon="3.46394">
        <ele>163</ele>
        <time>2014-04-15T09:42:21Z</time>
      </trkpt>
      <trkpt lat="47.82463" lon="3.46403">
        <ele>163</ele>
        <time>2014-04-15T09:42:26Z</time>
      </trkpt>
      <trkpt lat="47.82462" lon="3.46412">
        <ele>163</ele>
        <time>2014-04-15T09:42:30Z</time>
      </trkpt>
      <trkpt lat="47.8246" lon="3.46419">
        <ele>162</ele>
        <time>2014-04-15T09:42:34Z</time>
      </trkpt>
      <trkpt lat="47.82459" lon="3.46426">
        <ele>162</ele>
        <time>2014-04-15T09:42:37Z</time>
      </trkpt>
      <trkpt lat="47.82459" lon="3.46435">
        <ele>162</ele>
        <time>2014-04-15T09:42:41Z</time>
      </trkpt>
      <trkpt lat="47.82457" lon="3.46441">
        <ele>162</ele>
        <time>2014-04-15T09:42:45Z</time>
      </trkpt>
      <trkpt lat="47.82456" lon="3.46448">
        <ele>161</ele>
        <time>2014-04-15T09:42:49Z</time>
      </trkpt>
      <trkpt lat="47.82457" lon="3.46455">
        <ele>161</ele>
        <time>2014-04-15T09:42:53Z</time>
      </trkpt>
      <trkpt lat="47.82456" lon="3.46464">
        <ele>161</ele>
        <time>2014-04-15T09:42:56Z</time>
      </trkpt>
      <trkpt lat="47.82457" lon="3.46471">
        <ele>161</ele>
        <time>2014-04-15T09:43:00Z</time>
      </trkpt>
      <trkpt lat="47.82458" lon="3.46477">
        <ele>161</ele>
        <time>2014-04-15T09:43:04Z</time>
      </trkpt>
      <trkpt lat="47.8246" lon="3.46485">
        <ele>161</ele>
        <time>2014-04-15T09:43:11Z</time>
      </trkpt>
      <trkpt lat="47.82458" lon="3.46493">
        <ele>161</ele>
        <time>2014-04-15T09:43:16Z</time>
      </trkpt>
      <trkpt lat="47.82458" lon="3.465">
        <ele>159</ele>
        <time>2014-04-15T09:43:19Z</time>
      </trkpt>
      <trkpt lat="47.82461" lon="3.46517">
        <ele>159</ele>
        <time>2014-04-15T09:43:29Z</time>
      </trkpt>
      <trkpt lat="47.82462" lon="3.46525">
        <ele>159</ele>
        <time>2014-04-15T09:43:32Z</time>
      </trkpt>
      <trkpt lat="47.8246" lon="3.46532">
        <ele>159</ele>
        <time>2014-04-15T09:43:36Z</time>
      </trkpt>
      <trkpt lat="47.8246" lon="3.46541">
        <ele>159</ele>
        <time>2014-04-15T09:43:40Z</time>
      </trkpt>
      <trkpt lat="47.82457" lon="3.46549">
        <ele>159</ele>
        <time>2014-04-15T09:43:43Z</time>
      </trkpt>
      <trkpt lat="47.82455" lon="3.46556">
        <ele>159</ele>
        <time>2014-04-15T09:43:46Z</time>
      </trkpt>
      <trkpt lat="47.82453" lon="3.46563">
        <ele>159</ele>
        <time>2014-04-15T09:43:50Z</time>
      </trkpt>
      <trkpt lat="47.82452" lon="3.4657">
        <ele>159</ele>
        <time>2014-04-15T09:43:54Z</time>
      </trkpt>
      <trkpt lat="47.82452" lon="3.46577">
        <ele>159</ele>
        <time>2014-04-15T09:44:02Z</time>
      </trkpt>
      <trkpt lat="47.82448" lon="3.46607">
        <ele>157</ele>
        <time>2014-04-15T09:44:20Z</time>
      </trkpt>
      <trkpt lat="47.82452" lon="3.46609">
        <ele>157</ele>
        <time>2014-04-15T09:44:28Z</time>
      </trkpt>
      <trkpt lat="47.82457" lon="3.46611">
        <ele>157</ele>
        <time>2014-04-15T09:44:32Z</time>
      </trkpt>
      <trkpt lat="47.82462" lon="3.46614">
        <ele>157</ele>
        <time>2014-04-15T09:44:35Z</time>
      </trkpt>
      <trkpt lat="47.82467" lon="3.46616">
        <ele>157</ele>
        <time>2014-04-15T09:44:38Z</time>
      </trkpt>
      <trkpt lat="47.82472" lon="3.46617">
        <ele>157</ele>
        <time>2014-04-15T09:44:43Z</time>
      </trkpt>
      <trkpt lat="47.82477" lon="3.46621">
        <ele>157</ele>
        <time>2014-04-15T09:44:47Z</time>
      </trkpt>
      <trkpt lat="47.82482" lon="3.46624">
        <ele>157</ele>
        <time>2014-04-15T09:44:52Z</time>
      </trkpt>
      <trkpt lat="47.82487" lon="3.46627">
        <ele>157</ele>
        <time>2014-04-15T09:44:56Z</time>
      </trkpt>
      <trkpt lat="47.82492" lon="3.4663">
        <ele>157</ele>
        <time>2014-04-15T09:45:00Z</time>
      </trkpt>
      <trkpt lat="47.82497" lon="3.46633">
        <ele>157</ele>
        <time>2014-04-15T09:45:04Z</time>
      </trkpt>
      <trkpt lat="47.82501" lon="3.46637">
        <ele>156</ele>
        <time>2014-04-15T09:45:09Z</time>
      </trkpt>
      <trkpt lat="47.82506" lon="3.46642">
        <ele>156</ele>
        <time>2014-04-15T09:45:13Z</time>
      </trkpt>
      <trkpt lat="47.82511" lon="3.46645">
        <ele>156</ele>
        <time>2014-04-15T09:45:16Z</time>
      </trkpt>
      <trkpt lat="47.82516" lon="3.46647">
        <ele>156</ele>
        <time>2014-04-15T09:45:21Z</time>
      </trkpt>
      <trkpt lat="47.82521" lon="3.4665">
        <ele>156</ele>
        <time>2014-04-15T09:45:26Z</time>
      </trkpt>
      <trkpt lat="47.82525" lon="3.46655">
        <ele>156</ele>
        <time>2014-04-15T09:45:30Z</time>
      </trkpt>
      <trkpt lat="47.8253" lon="3.46658">
        <ele>156</ele>
        <time>2014-04-15T09:45:35Z</time>
      </trkpt>
      <trkpt lat="47.82534" lon="3.46661">
        <ele>156</ele>
        <time>2014-04-15T09:45:39Z</time>
      </trkpt>
      <trkpt lat="47.82539" lon="3.46664">
        <ele>156</ele>
        <time>2014-04-15T09:45:43Z</time>
      </trkpt>
      <trkpt lat="47.82544" lon="3.46667">
        <ele>154</ele>
        <time>2014-04-15T09:45:47Z</time>
      </trkpt>
      <trkpt lat="47.82549" lon="3.4667">
        <ele>154</ele>
        <time>2014-04-15T09:45:51Z</time>
      </trkpt>
      <trkpt lat="47.82554" lon="3.46668">
        <ele>154</ele>
        <time>2014-04-15T09:45:54Z</time>
      </trkpt>
      <trkpt lat="47.82559" lon="3.4667">
        <ele>154</ele>
        <time>2014-04-15T09:45:57Z</time>
      </trkpt>
      <trkpt lat="47.82563" lon="3.46676">
        <ele>154</ele>
        <time>2014-04-15T09:46:03Z</time>
      </trkpt>
      <trkpt lat="47.82567" lon="3.4668">
        <ele>154</ele>
        <time>2014-04-15T09:46:07Z</time>
      </trkpt>
      <trkpt lat="47.82572" lon="3.46683">
        <ele>154</ele>
        <time>2014-04-15T09:46:10Z</time>
      </trkpt>
      <trkpt lat="47.82576" lon="3.46686">
        <ele>154</ele>
        <time>2014-04-15T09:46:13Z</time>
      </trkpt>
      <trkpt lat="47.8258" lon="3.46689">
        <ele>154</ele>
        <time>2014-04-15T09:46:16Z</time>
      </trkpt>
      <trkpt lat="47.82585" lon="3.46693">
        <ele>155</ele>
        <time>2014-04-15T09:46:20Z</time>
      </trkpt>
      <trkpt lat="47.82589" lon="3.46698">
        <ele>155</ele>
        <time>2014-04-15T09:46:24Z</time>
      </trkpt>
      <trkpt lat="47.82595" lon="3.46701">
        <ele>155</ele>
        <time>2014-04-15T09:46:27Z</time>
      </trkpt>
      <trkpt lat="47.82599" lon="3.46704">
        <ele>155</ele>
        <time>2014-04-15T09:46:30Z</time>
      </trkpt>
      <trkpt lat="47.82604" lon="3.46707">
        <ele>155</ele>
        <time>2014-04-15T09:46:35Z</time>
      </trkpt>
      <trkpt lat="47.82609" lon="3.46711">
        <ele>155</ele>
        <time>2014-04-15T09:46:41Z</time>
      </trkpt>
      <trkpt lat="47.82614" lon="3.46715">
        <ele>155</ele>
        <time>2014-04-15T09:46:45Z</time>
      </trkpt>
      <trkpt lat="47.82617" lon="3.46721">
        <ele>155</ele>
        <time>2014-04-15T09:46:50Z</time>
      </trkpt>
      <trkpt lat="47.82617" lon="3.46729">
        <ele>155</ele>
        <time>2014-04-15T09:46:54Z</time>
      </trkpt>
      <trkpt lat="47.82615" lon="3.46736">
        <ele>155</ele>
        <time>2014-04-15T09:47:00Z</time>
      </trkpt>
      <trkpt lat="47.82614" lon="3.46744">
        <ele>154</ele>
        <time>2014-04-15T09:47:04Z</time>
      </trkpt>
      <trkpt lat="47.82613" lon="3.46751">
        <ele>153</ele>
        <time>2014-04-15T09:47:08Z</time>
      </trkpt>
      <trkpt lat="47.82613" lon="3.46758">
        <ele>153</ele>
        <time>2014-04-15T09:47:12Z</time>
      </trkpt>
      <trkpt lat="47.8261" lon="3.46764">
        <ele>153</ele>
        <time>2014-04-15T09:47:15Z</time>
      </trkpt>
      <trkpt lat="47.82607" lon="3.4677">
        <ele>153</ele>
        <time>2014-04-15T09:47:19Z</time>
      </trkpt>
      <trkpt lat="47.82605" lon="3.46778">
        <ele>153</ele>
        <time>2014-04-15T09:47:23Z</time>
      </trkpt>
      <trkpt lat="47.82604" lon="3.46785">
        <ele>153</ele>
        <time>2014-04-15T09:47:28Z</time>
      </trkpt>
      <trkpt lat="47.82603" lon="3.46792">
        <ele>153</ele>
        <time>2014-04-15T09:47:33Z</time>
      </trkpt>
      <trkpt lat="47.82601" lon="3.468">
        <ele>153</ele>
        <time>2014-04-15T09:47:38Z</time>
      </trkpt>
      <trkpt lat="47.82598" lon="3.46808">
        <ele>153</ele>
        <time>2014-04-15T09:47:40Z</time>
      </trkpt>
      <trkpt lat="47.82596" lon="3.46814">
        <ele>153</ele>
        <time>2014-04-15T09:47:44Z</time>
      </trkpt>
      <trkpt lat="47.82593" lon="3.46821">
        <ele>153</ele>
        <time>2014-04-15T09:47:48Z</time>
      </trkpt>
      <trkpt lat="47.82593" lon="3.46829">
        <ele>153</ele>
        <time>2014-04-15T09:47:52Z</time>
      </trkpt>
      <trkpt lat="47.82592" lon="3.46838">
        <ele>153</ele>
        <time>2014-04-15T09:47:54Z</time>
      </trkpt>
      <trkpt lat="47.8259" lon="3.46845">
        <ele>153</ele>
        <time>2014-04-15T09:47:58Z</time>
      </trkpt>
      <trkpt lat="47.8259" lon="3.46853">
        <ele>154</ele>
        <time>2014-04-15T09:48:03Z</time>
      </trkpt>
      <trkpt lat="47.82588" lon="3.46861">
        <ele>154</ele>
        <time>2014-04-15T09:48:07Z</time>
      </trkpt>
      <trkpt lat="47.82587" lon="3.46869">
        <ele>154</ele>
        <time>2014-04-15T09:48:10Z</time>
      </trkpt>
      <trkpt lat="47.82586" lon="3.46876">
        <ele>154</ele>
        <time>2014-04-15T09:48:13Z</time>
      </trkpt>
      <trkpt lat="47.82583" lon="3.46882">
        <ele>154</ele>
        <time>2014-04-15T09:48:17Z</time>
      </trkpt>
      <trkpt lat="47.82579" lon="3.46888">
        <ele>154</ele>
        <time>2014-04-15T09:48:21Z</time>
      </trkpt>
      <trkpt lat="47.82576" lon="3.46895">
        <ele>154</ele>
        <time>2014-04-15T09:48:25Z</time>
      </trkpt>
      <trkpt lat="47.82574" lon="3.46901">
        <ele>154</ele>
        <time>2014-04-15T09:48:31Z</time>
      </trkpt>
      <trkpt lat="47.8257" lon="3.46906">
        <ele>154</ele>
        <time>2014-04-15T09:48:35Z</time>
      </trkpt>
      <trkpt lat="47.82568" lon="3.46913">
        <ele>154</ele>
        <time>2014-04-15T09:48:40Z</time>
      </trkpt>
      <trkpt lat="47.82567" lon="3.4692">
        <ele>154</ele>
        <time>2014-04-15T09:48:45Z</time>
      </trkpt>
      <trkpt lat="47.82573" lon="3.46922">
        <ele>154</ele>
        <time>2014-04-15T09:48:53Z</time>
      </trkpt>
      <trkpt lat="47.82569" lon="3.46921">
        <ele>154</ele>
        <time>2014-04-15T09:49:33Z</time>
      </trkpt>
      <trkpt lat="47.82564" lon="3.46926">
        <ele>154</ele>
        <time>2014-04-15T09:49:36Z</time>
      </trkpt>
      <trkpt lat="47.82559" lon="3.46956">
        <ele>153</ele>
        <time>2014-04-15T09:49:57Z</time>
      </trkpt>
      <trkpt lat="47.82556" lon="3.46962">
        <ele>153</ele>
        <time>2014-04-15T09:50:01Z</time>
      </trkpt>
      <trkpt lat="47.82554" lon="3.46968">
        <ele>153</ele>
        <time>2014-04-15T09:50:04Z</time>
      </trkpt>
      <trkpt lat="47.82551" lon="3.46974">
        <ele>152</ele>
        <time>2014-04-15T09:50:10Z</time>
      </trkpt>
      <trkpt lat="47.8255" lon="3.46981">
        <ele>152</ele>
        <time>2014-04-15T09:50:13Z</time>
      </trkpt>
      <trkpt lat="47.82548" lon="3.46989">
        <ele>152</ele>
        <time>2014-04-15T09:50:17Z</time>
      </trkpt>
      <trkpt lat="47.82544" lon="3.46995">
        <ele>152</ele>
        <time>2014-04-15T09:50:20Z</time>
      </trkpt>
      <trkpt lat="47.82543" lon="3.47001">
        <ele>150</ele>
        <time>2014-04-15T09:50:24Z</time>
      </trkpt>
      <trkpt lat="47.8254" lon="3.47008">
        <ele>150</ele>
        <time>2014-04-15T09:50:29Z</time>
      </trkpt>
      <trkpt lat="47.82536" lon="3.47013">
        <ele>150</ele>
        <time>2014-04-15T09:50:33Z</time>
      </trkpt>
      <trkpt lat="47.82533" lon="3.4702">
        <ele>150</ele>
        <time>2014-04-15T09:50:37Z</time>
      </trkpt>
      <trkpt lat="47.8253" lon="3.47024">
        <ele>149</ele>
        <time>2014-04-15T09:50:43Z</time>
      </trkpt>
      <trkpt lat="47.82527" lon="3.47033">
        <ele>149</ele>
        <time>2014-04-15T09:50:50Z</time>
      </trkpt>
      <trkpt lat="47.82525" lon="3.47039">
        <ele>149</ele>
        <time>2014-04-15T09:50:53Z</time>
      </trkpt>
      <trkpt lat="47.82523" lon="3.47045">
        <ele>149</ele>
        <time>2014-04-15T09:50:57Z</time>
      </trkpt>
      <trkpt lat="47.82523" lon="3.47054">
        <ele>149</ele>
        <time>2014-04-15T09:51:00Z</time>
      </trkpt>
      <trkpt lat="47.82521" lon="3.47062">
        <ele>148</ele>
        <time>2014-04-15T09:51:03Z</time>
      </trkpt>
      <trkpt lat="47.82519" lon="3.4707">
        <ele>148</ele>
        <time>2014-04-15T09:51:06Z</time>
      </trkpt>
      <trkpt lat="47.82517" lon="3.47077">
        <ele>147</ele>
        <time>2014-04-15T09:51:10Z</time>
      </trkpt>
      <trkpt lat="47.82515" lon="3.47084">
        <ele>146</ele>
        <time>2014-04-15T09:51:14Z</time>
      </trkpt>
      <trkpt lat="47.82511" lon="3.47089">
        <ele>145</ele>
        <time>2014-04-15T09:51:17Z</time>
      </trkpt>
      <trkpt lat="47.82509" lon="3.47092">
        <ele>145</ele>
        <time>2014-04-15T09:51:25Z</time>
      </trkpt>
      <trkpt lat="47.82505" lon="3.471">
        <ele>145</ele>
        <time>2014-04-15T09:51:37Z</time>
      </trkpt>
      <trkpt lat="47.82505" lon="3.47108">
        <ele>145</ele>
        <time>2014-04-15T09:51:41Z</time>
      </trkpt>
      <trkpt lat="47.82502" lon="3.47116">
        <ele>145</ele>
        <time>2014-04-15T09:51:46Z</time>
      </trkpt>
      <trkpt lat="47.82499" lon="3.47121">
        <ele>145</ele>
        <time>2014-04-15T09:51:49Z</time>
      </trkpt>
      <trkpt lat="47.82496" lon="3.47129">
        <ele>145</ele>
        <time>2014-04-15T09:51:53Z</time>
      </trkpt>
      <trkpt lat="47.82494" lon="3.47136">
        <ele>145</ele>
        <time>2014-04-15T09:51:57Z</time>
      </trkpt>
      <trkpt lat="47.82494" lon="3.47144">
        <ele>144</ele>
        <time>2014-04-15T09:52:02Z</time>
      </trkpt>
      <trkpt lat="47.82491" lon="3.47151">
        <ele>144</ele>
        <time>2014-04-15T09:52:05Z</time>
      </trkpt>
      <trkpt lat="47.82488" lon="3.47159">
        <ele>143</ele>
        <time>2014-04-15T09:52:08Z</time>
      </trkpt>
      <trkpt lat="47.82485" lon="3.47164">
        <ele>144</ele>
        <time>2014-04-15T09:52:12Z</time>
      </trkpt>
      <trkpt lat="47.82482" lon="3.4717">
        <ele>143</ele>
        <time>2014-04-15T09:52:16Z</time>
      </trkpt>
      <trkpt lat="47.82478" lon="3.47177">
        <ele>143</ele>
        <time>2014-04-15T09:52:19Z</time>
      </trkpt>
      <trkpt lat="47.82475" lon="3.47182">
        <ele>143</ele>
        <time>2014-04-15T09:52:22Z</time>
      </trkpt>
      <trkpt lat="47.82471" lon="3.47187">
        <ele>143</ele>
        <time>2014-04-15T09:52:25Z</time>
      </trkpt>
      <trkpt lat="47.82467" lon="3.47191">
        <ele>144</ele>
        <time>2014-04-15T09:52:28Z</time>
      </trkpt>
      <trkpt lat="47.82464" lon="3.47197">
        <ele>144</ele>
        <time>2014-04-15T09:52:31Z</time>
      </trkpt>
      <trkpt lat="47.82463" lon="3.47205">
        <ele>144</ele>
        <time>2014-04-15T09:52:36Z</time>
      </trkpt>
      <trkpt lat="47.8246" lon="3.47211">
        <ele>144</ele>
        <time>2014-04-15T09:52:41Z</time>
      </trkpt>
      <trkpt lat="47.82456" lon="3.47217">
        <ele>144</ele>
        <time>2014-04-15T09:52:45Z</time>
      </trkpt>
      <trkpt lat="47.82453" lon="3.47223">
        <ele>144</ele>
        <time>2014-04-15T09:52:48Z</time>
      </trkpt>
      <trkpt lat="47.8245" lon="3.4723">
        <ele>144</ele>
        <time>2014-04-15T09:52:53Z</time>
      </trkpt>
      <trkpt lat="47.82448" lon="3.47237">
        <ele>144</ele>
        <time>2014-04-15T09:52:57Z</time>
      </trkpt>
      <trkpt lat="47.82446" lon="3.47244">
        <ele>144</ele>
        <time>2014-04-15T09:53:02Z</time>
      </trkpt>
      <trkpt lat="47.82444" lon="3.47252">
        <ele>144</ele>
        <time>2014-04-15T09:53:08Z</time>
      </trkpt>
      <trkpt lat="47.82443" lon="3.47259">
        <ele>144</ele>
        <time>2014-04-15T09:53:11Z</time>
      </trkpt>
      <trkpt lat="47.82442" lon="3.47268">
        <ele>144</ele>
        <time>2014-04-15T09:53:15Z</time>
      </trkpt>
      <trkpt lat="47.8244" lon="3.47276">
        <ele>144</ele>
        <time>2014-04-15T09:53:20Z</time>
      </trkpt>
      <trkpt lat="47.82439" lon="3.47283">
        <ele>144</ele>
        <time>2014-04-15T09:53:23Z</time>
      </trkpt>
      <trkpt lat="47.82438" lon="3.4729">
        <ele>144</ele>
        <time>2014-04-15T09:53:29Z</time>
      </trkpt>
      <trkpt lat="47.82434" lon="3.47296">
        <ele>145</ele>
        <time>2014-04-15T09:53:35Z</time>
      </trkpt>
      <trkpt lat="47.82432" lon="3.47303">
        <ele>145</ele>
        <time>2014-04-15T09:53:38Z</time>
      </trkpt>
      <trkpt lat="47.82431" lon="3.47311">
        <ele>145</ele>
        <time>2014-04-15T09:53:42Z</time>
      </trkpt>
      <trkpt lat="47.8243" lon="3.47317">
        <ele>145</ele>
        <time>2014-04-15T09:53:47Z</time>
      </trkpt>
      <trkpt lat="47.8243" lon="3.47325">
        <ele>146</ele>
        <time>2014-04-15T09:53:54Z</time>
      </trkpt>
      <trkpt lat="47.82427" lon="3.47332">
        <ele>146</ele>
        <time>2014-04-15T09:53:57Z</time>
      </trkpt>
      <trkpt lat="47.82425" lon="3.47338">
        <ele>147</ele>
        <time>2014-04-15T09:53:59Z</time>
      </trkpt>
      <trkpt lat="47.82423" lon="3.47346">
        <ele>146</ele>
        <time>2014-04-15T09:54:02Z</time>
      </trkpt>
      <trkpt lat="47.82422" lon="3.47353">
        <ele>146</ele>
        <time>2014-04-15T09:54:05Z</time>
      </trkpt>
      <trkpt lat="47.82423" lon="3.4736">
        <ele>146</ele>
        <time>2014-04-15T09:54:09Z</time>
      </trkpt>
      <trkpt lat="47.82423" lon="3.47368">
        <ele>146</ele>
        <time>2014-04-15T09:54:14Z</time>
      </trkpt>
      <trkpt lat="47.82422" lon="3.47375">
        <ele>146</ele>
        <time>2014-04-15T09:54:18Z</time>
      </trkpt>
      <trkpt lat="47.82422" lon="3.47382">
        <ele>147</ele>
        <time>2014-04-15T09:54:22Z</time>
      </trkpt>
      <trkpt lat="47.82421" lon="3.47389">
        <ele>147</ele>
        <time>2014-04-15T09:54:26Z</time>
      </trkpt>
      <trkpt lat="47.82422" lon="3.47397">
        <ele>147</ele>
        <time>2014-04-15T09:54:31Z</time>
      </trkpt>
      <trkpt lat="47.82422" lon="3.47405">
        <ele>148</ele>
        <time>2014-04-15T09:54:34Z</time>
      </trkpt>
      <trkpt lat="47.8242" lon="3.47411">
        <ele>148</ele>
        <time>2014-04-15T09:54:38Z</time>
      </trkpt>
      <trkpt lat="47.8242" lon="3.47421">
        <ele>149</ele>
        <time>2014-04-15T09:54:44Z</time>
      </trkpt>
      <trkpt lat="47.8242" lon="3.47428">
        <ele>148</ele>
        <time>2014-04-15T09:54:47Z</time>
      </trkpt>
      <trkpt lat="47.8242" lon="3.47435">
        <ele>148</ele>
        <time>2014-04-15T09:54:55Z</time>
      </trkpt>
      <trkpt lat="47.82421" lon="3.47445">
        <ele>148</ele>
        <time>2014-04-15T09:55:02Z</time>
      </trkpt>
      <trkpt lat="47.8242" lon="3.47451">
        <ele>148</ele>
        <time>2014-04-15T09:55:05Z</time>
      </trkpt>
      <trkpt lat="47.8242" lon="3.47458">
        <ele>148</ele>
        <time>2014-04-15T09:55:08Z</time>
      </trkpt>
      <trkpt lat="47.82422" lon="3.47466">
        <ele>148</ele>
        <time>2014-04-15T09:55:11Z</time>
      </trkpt>
      <trkpt lat="47.82421" lon="3.47474">
        <ele>149</ele>
        <time>2014-04-15T09:55:16Z</time>
      </trkpt>
      <trkpt lat="47.82421" lon="3.47482">
        <ele>149</ele>
        <time>2014-04-15T09:55:20Z</time>
      </trkpt>
      <trkpt lat="47.8242" lon="3.4749">
        <ele>150</ele>
        <time>2014-04-15T09:55:25Z</time>
      </trkpt>
      <trkpt lat="47.82419" lon="3.47499">
        <ele>151</ele>
        <time>2014-04-15T09:55:30Z</time>
      </trkpt>
      <trkpt lat="47.82419" lon="3.47507">
        <ele>151</ele>
        <time>2014-04-15T09:55:34Z</time>
      </trkpt>
      <trkpt lat="47.82418" lon="3.47514">
        <ele>150</ele>
        <time>2014-04-15T09:55:38Z</time>
      </trkpt>
      <trkpt lat="47.82418" lon="3.47521">
        <ele>150</ele>
        <time>2014-04-15T09:55:44Z</time>
      </trkpt>
      <trkpt lat="47.82417" lon="3.47528">
        <ele>152</ele>
        <time>2014-04-15T09:55:50Z</time>
      </trkpt>
      <trkpt lat="47.82418" lon="3.47536">
        <ele>150</ele>
        <time>2014-04-15T09:55:55Z</time>
      </trkpt>
      <trkpt lat="47.82418" lon="3.47543">
        <ele>150</ele>
        <time>2014-04-15T09:55:59Z</time>
      </trkpt>
      <trkpt lat="47.82419" lon="3.47551">
        <ele>151</ele>
        <time>2014-04-15T09:56:04Z</time>
      </trkpt>
      <trkpt lat="47.82421" lon="3.47558">
        <ele>151</ele>
        <time>2014-04-15T09:56:08Z</time>
      </trkpt>
      <trkpt lat="47.82421" lon="3.47566">
        <ele>151</ele>
        <time>2014-04-15T09:56:12Z</time>
      </trkpt>
      <trkpt lat="47.8242" lon="3.47574">
        <ele>152</ele>
        <time>2014-04-15T09:56:16Z</time>
      </trkpt>
      <trkpt lat="47.8242" lon="3.47581">
        <ele>152</ele>
        <time>2014-04-15T09:56:19Z</time>
      </trkpt>
      <trkpt lat="47.82421" lon="3.47589">
        <ele>152</ele>
        <time>2014-04-15T09:56:23Z</time>
      </trkpt>
      <trkpt lat="47.82422" lon="3.47596">
        <ele>151</ele>
        <time>2014-04-15T09:56:27Z</time>
      </trkpt>
      <trkpt lat="47.82424" lon="3.47603">
        <ele>150</ele>
        <time>2014-04-15T09:56:31Z</time>
      </trkpt>
      <trkpt lat="47.82423" lon="3.4761">
        <ele>150</ele>
        <time>2014-04-15T09:56:35Z</time>
      </trkpt>
      <trkpt lat="47.82421" lon="3.47618">
        <ele>150</ele>
        <time>2014-04-15T09:56:38Z</time>
      </trkpt>
      <trkpt lat="47.82421" lon="3.47625">
        <ele>149</ele>
        <time>2014-04-15T09:56:41Z</time>
      </trkpt>
      <trkpt lat="47.82422" lon="3.47633">
        <ele>149</ele>
        <time>2014-04-15T09:56:45Z</time>
      </trkpt>
      <trkpt lat="47.82423" lon="3.4764">
        <ele>149</ele>
        <time>2014-04-15T09:56:49Z</time>
      </trkpt>
      <trkpt lat="47.82424" lon="3.47647">
        <ele>149</ele>
        <time>2014-04-15T09:56:52Z</time>
      </trkpt>
      <trkpt lat="47.82426" lon="3.47655">
        <ele>149</ele>
        <time>2014-04-15T09:56:56Z</time>
      </trkpt>
      <trkpt lat="47.82428" lon="3.47662">
        <ele>149</ele>
        <time>2014-04-15T09:57:00Z</time>
      </trkpt>
      <trkpt lat="47.82428" lon="3.4767">
        <ele>148</ele>
        <time>2014-04-15T09:57:04Z</time>
      </trkpt>
      <trkpt lat="47.82429" lon="3.47678">
        <ele>147</ele>
        <time>2014-04-15T09:57:07Z</time>
      </trkpt>
      <trkpt lat="47.82429" lon="3.47686">
        <ele>146</ele>
        <time>2014-04-15T09:57:10Z</time>
      </trkpt>
      <trkpt lat="47.82431" lon="3.47694">
        <ele>146</ele>
        <time>2014-04-15T09:57:14Z</time>
      </trkpt>
      <trkpt lat="47.82429" lon="3.47701">
        <ele>145</ele>
        <time>2014-04-15T09:57:18Z</time>
      </trkpt>
      <trkpt lat="47.82428" lon="3.47708">
        <ele>145</ele>
        <time>2014-04-15T09:57:22Z</time>
      </trkpt>
      <trkpt lat="47.82427" lon="3.47714">
        <ele>145</ele>
        <time>2014-04-15T09:57:31Z</time>
      </trkpt>
      <trkpt lat="47.82426" lon="3.47721">
        <ele>145</ele>
        <time>2014-04-15T09:59:00Z</time>
      </trkpt>
      <trkpt lat="47.82427" lon="3.47729">
        <ele>145</ele>
        <time>2014-04-15T09:59:04Z</time>
      </trkpt>
      <trkpt lat="47.82428" lon="3.47736">
        <ele>144</ele>
        <time>2014-04-15T09:59:08Z</time>
      </trkpt>
      <trkpt lat="47.82428" lon="3.47743">
        <ele>144</ele>
        <time>2014-04-15T09:59:14Z</time>
      </trkpt>
      <trkpt lat="47.82428" lon="3.4775">
        <ele>144</ele>
        <time>2014-04-15T09:59:18Z</time>
      </trkpt>
      <trkpt lat="47.82429" lon="3.47758">
        <ele>144</ele>
        <time>2014-04-15T09:59:22Z</time>
      </trkpt>
      <trkpt lat="47.82432" lon="3.47764">
        <ele>143</ele>
        <time>2014-04-15T09:59:26Z</time>
      </trkpt>
      <trkpt lat="47.82435" lon="3.47771">
        <ele>143</ele>
        <time>2014-04-15T09:59:29Z</time>
      </trkpt>
      <trkpt lat="47.82431" lon="3.47776">
        <ele>143</ele>
        <time>2014-04-15T09:59:33Z</time>
      </trkpt>
      <trkpt lat="47.82428" lon="3.47783">
        <ele>143</ele>
        <time>2014-04-15T09:59:36Z</time>
      </trkpt>
      <trkpt lat="47.82429" lon="3.47791">
        <ele>143</ele>
        <time>2014-04-15T09:59:42Z</time>
      </trkpt>
      <trkpt lat="47.8243" lon="3.47798">
        <ele>143</ele>
        <time>2014-04-15T09:59:46Z</time>
      </trkpt>
      <trkpt lat="47.8243" lon="3.47805">
        <ele>143</ele>
        <time>2014-04-15T09:59:52Z</time>
      </trkpt>
      <trkpt lat="47.8243" lon="3.47817">
        <ele>143</ele>
        <time>2014-04-15T09:59:57Z</time>
      </trkpt>
      <trkpt lat="47.8243" lon="3.47826">
        <ele>143</ele>
        <time>2014-04-15T10:00:01Z</time>
      </trkpt>
      <trkpt lat="47.82429" lon="3.47832">
        <ele>143</ele>
        <time>2014-04-15T10:00:05Z</time>
      </trkpt>
      <trkpt lat="47.8243" lon="3.47839">
        <ele>143</ele>
        <time>2014-04-15T10:00:09Z</time>
      </trkpt>
      <trkpt lat="47.8243" lon="3.47846">
        <ele>143</ele>
        <time>2014-04-15T10:00:14Z</time>
      </trkpt>
      <trkpt lat="47.8243" lon="3.47854">
        <ele>143</ele>
        <time>2014-04-15T10:00:19Z</time>
      </trkpt>
      <trkpt lat="47.82429" lon="3.47863">
        <ele>142</ele>
        <time>2014-04-15T10:00:23Z</time>
      </trkpt>
      <trkpt lat="47.82429" lon="3.4787">
        <ele>142</ele>
        <time>2014-04-15T10:00:27Z</time>
      </trkpt>
      <trkpt lat="47.82432" lon="3.47877">
        <ele>142</ele>
        <time>2014-04-15T10:00:31Z</time>
      </trkpt>
      <trkpt lat="47.82433" lon="3.47886">
        <ele>142</ele>
        <time>2014-04-15T10:00:36Z</time>
      </trkpt>
      <trkpt lat="47.82434" lon="3.47892">
        <ele>142</ele>
        <time>2014-04-15T10:00:39Z</time>
      </trkpt>
      <trkpt lat="47.82434" lon="3.47901">
        <ele>142</ele>
        <time>2014-04-15T10:00:43Z</time>
      </trkpt>
      <trkpt lat="47.82434" lon="3.47908">
        <ele>143</ele>
        <time>2014-04-15T10:00:47Z</time>
      </trkpt>
      <trkpt lat="47.8243" lon="3.47912">
        <ele>143</ele>
        <time>2014-04-15T10:00:56Z</time>
      </trkpt>
      <trkpt lat="47.82428" lon="3.4791">
        <ele>143</ele>
        <time>2014-04-15T10:01:03Z</time>
      </trkpt>
      <trkpt lat="47.82428" lon="3.4792">
        <ele>142</ele>
        <time>2014-04-15T10:01:24Z</time>
      </trkpt>
      <trkpt lat="47.82428" lon="3.47927">
        <ele>142</ele>
        <time>2014-04-15T10:01:29Z</time>
      </trkpt>
      <trkpt lat="47.8243" lon="3.47933">
        <ele>142</ele>
        <time>2014-04-15T10:01:34Z</time>
      </trkpt>
      <trkpt lat="47.82433" lon="3.47938">
        <ele>141</ele>
        <time>2014-04-15T10:01:38Z</time>
      </trkpt>
      <trkpt lat="47.82436" lon="3.47944">
        <ele>141</ele>
        <time>2014-04-15T10:01:41Z</time>
      </trkpt>
      <trkpt lat="47.82441" lon="3.47949">
        <ele>141</ele>
        <time>2014-04-15T10:01:45Z</time>
      </trkpt>
      <trkpt lat="47.82445" lon="3.47954">
        <ele>140</ele>
        <time>2014-04-15T10:01:49Z</time>
      </trkpt>
      <trkpt lat="47.82449" lon="3.47957">
        <ele>140</ele>
        <time>2014-04-15T10:01:53Z</time>
      </trkpt>
      <trkpt lat="47.82453" lon="3.47962">
        <ele>140</ele>
        <time>2014-04-15T10:01:58Z</time>
      </trkpt>
      <trkpt lat="47.82456" lon="3.47967">
        <ele>140</ele>
        <time>2014-04-15T10:02:02Z</time>
      </trkpt>
      <trkpt lat="47.82459" lon="3.47974">
        <ele>140</ele>
        <time>2014-04-15T10:02:07Z</time>
      </trkpt>
      <trkpt lat="47.82461" lon="3.47981">
        <ele>140</ele>
        <time>2014-04-15T10:02:10Z</time>
      </trkpt>
      <trkpt lat="47.82465" lon="3.47986">
        <ele>139</ele>
        <time>2014-04-15T10:02:15Z</time>
      </trkpt>
      <trkpt lat="47.82469" lon="3.47992">
        <ele>139</ele>
        <time>2014-04-15T10:02:39Z</time>
      </trkpt>
      <trkpt lat="47.82469" lon="3.47998">
        <ele>139</ele>
        <time>2014-04-15T10:02:54Z</time>
      </trkpt>
      <trkpt lat="47.82473" lon="3.48002">
        <ele>138</ele>
        <time>2014-04-15T10:02:57Z</time>
      </trkpt>
      <trkpt lat="47.82478" lon="3.48005">
        <ele>138</ele>
        <time>2014-04-15T10:03:00Z</time>
      </trkpt>
      <trkpt lat="47.82483" lon="3.48008">
        <ele>138</ele>
        <time>2014-04-15T10:03:03Z</time>
      </trkpt>
      <trkpt lat="47.82488" lon="3.48013">
        <ele>138</ele>
        <time>2014-04-15T10:03:06Z</time>
      </trkpt>
      <trkpt lat="47.82491" lon="3.48018">
        <ele>138</ele>
        <time>2014-04-15T10:03:12Z</time>
      </trkpt>
      <trkpt lat="47.82492" lon="3.48023">
        <ele>138</ele>
        <time>2014-04-15T10:03:20Z</time>
      </trkpt>
      <trkpt lat="47.8249" lon="3.48029">
        <ele>138</ele>
        <time>2014-04-15T10:03:24Z</time>
      </trkpt>
      <trkpt lat="47.82493" lon="3.48035">
        <ele>138</ele>
        <time>2014-04-15T10:03:29Z</time>
      </trkpt>
      <trkpt lat="47.82498" lon="3.48038">
        <ele>138</ele>
        <time>2014-04-15T10:03:33Z</time>
      </trkpt>
      <trkpt lat="47.82503" lon="3.48043">
        <ele>136</ele>
        <time>2014-04-15T10:03:37Z</time>
      </trkpt>
      <trkpt lat="47.82506" lon="3.48049">
        <ele>136</ele>
        <time>2014-04-15T10:03:41Z</time>
      </trkpt>
      <trkpt lat="47.82511" lon="3.48054">
        <ele>136</ele>
        <time>2014-04-15T10:03:45Z</time>
      </trkpt>
      <trkpt lat="47.82515" lon="3.4806">
        <ele>136</ele>
        <time>2014-04-15T10:03:49Z</time>
      </trkpt>
      <trkpt lat="47.82519" lon="3.48064">
        <ele>136</ele>
        <time>2014-04-15T10:03:52Z</time>
      </trkpt>
      <trkpt lat="47.82524" lon="3.48066">
        <ele>136</ele>
        <time>2014-04-15T10:03:55Z</time>
      </trkpt>
      <trkpt lat="47.82528" lon="3.48071">
        <ele>136</ele>
        <time>2014-04-15T10:04:00Z</time>
      </trkpt>
      <trkpt lat="47.82531" lon="3.48077">
        <ele>136</ele>
        <time>2014-04-15T10:04:05Z</time>
      </trkpt>
      <trkpt lat="47.82533" lon="3.48084">
        <ele>135</ele>
        <time>2014-04-15T10:04:11Z</time>
      </trkpt>
      <trkpt lat="47.82536" lon="3.48089">
        <ele>135</ele>
        <time>2014-04-15T10:04:14Z</time>
      </trkpt>
      <trkpt lat="47.82539" lon="3.48094">
        <ele>135</ele>
        <time>2014-04-15T10:04:17Z</time>
      </trkpt>
      <trkpt lat="47.82544" lon="3.48099">
        <ele>135</ele>
        <time>2014-04-15T10:04:21Z</time>
      </trkpt>
      <trkpt lat="47.8254" lon="3.48102">
        <ele>135</ele>
        <time>2014-04-15T10:05:22Z</time>
      </trkpt>
      <trkpt lat="47.82544" lon="3.48107">
        <ele>135</ele>
        <time>2014-04-15T10:05:27Z</time>
      </trkpt>
      <trkpt lat="47.8255" lon="3.48109">
        <ele>135</ele>
        <time>2014-04-15T10:05:30Z</time>
      </trkpt>
      <trkpt lat="47.82554" lon="3.48113">
        <ele>135</ele>
        <time>2014-04-15T10:05:33Z</time>
      </trkpt>
      <trkpt lat="47.82556" lon="3.4812">
        <ele>135</ele>
        <time>2014-04-15T10:05:38Z</time>
      </trkpt>
      <trkpt lat="47.82559" lon="3.48126">
        <ele>135</ele>
        <time>2014-04-15T10:05:43Z</time>
      </trkpt>
      <trkpt lat="47.82562" lon="3.48133">
        <ele>135</ele>
        <time>2014-04-15T10:05:49Z</time>
      </trkpt>
      <trkpt lat="47.82565" lon="3.48138">
        <ele>135</ele>
        <time>2014-04-15T10:05:52Z</time>
      </trkpt>
      <trkpt lat="47.82569" lon="3.48143">
        <ele>135</ele>
        <time>2014-04-15T10:05:55Z</time>
      </trkpt>
      <trkpt lat="47.82574" lon="3.48147">
        <ele>135</ele>
        <time>2014-04-15T10:05:58Z</time>
      </trkpt>
      <trkpt lat="47.82577" lon="3.48153">
        <ele>134</ele>
        <time>2014-04-15T10:06:02Z</time>
      </trkpt>
      <trkpt lat="47.8258" lon="3.48159">
        <ele>134</ele>
        <time>2014-04-15T10:06:07Z</time>
      </trkpt>
      <trkpt lat="47.82584" lon="3.48163">
        <ele>134</ele>
        <time>2014-04-15T10:06:11Z</time>
      </trkpt>
      <trkpt lat="47.82588" lon="3.48168">
        <ele>134</ele>
        <time>2014-04-15T10:06:15Z</time>
      </trkpt>
      <trkpt lat="47.82593" lon="3.48173">
        <ele>134</ele>
        <time>2014-04-15T10:06:19Z</time>
      </trkpt>
      <trkpt lat="47.82597" lon="3.48179">
        <ele>134</ele>
        <time>2014-04-15T10:06:23Z</time>
      </trkpt>
      <trkpt lat="47.82601" lon="3.48184">
        <ele>134</ele>
        <time>2014-04-15T10:06:28Z</time>
      </trkpt>
      <trkpt lat="47.82606" lon="3.48189">
        <ele>134</ele>
        <time>2014-04-15T10:06:32Z</time>
      </trkpt>
      <trkpt lat="47.8261" lon="3.48195">
        <ele>134</ele>
        <time>2014-04-15T10:06:36Z</time>
      </trkpt>
      <trkpt lat="47.82614" lon="3.48201">
        <ele>134</ele>
        <time>2014-04-15T10:06:40Z</time>
      </trkpt>
      <trkpt lat="47.82617" lon="3.48207">
        <ele>134</ele>
        <time>2014-04-15T10:06:44Z</time>
      </trkpt>
      <trkpt lat="47.8262" lon="3.48211">
        <ele>134</ele>
        <time>2014-04-15T10:06:48Z</time>
      </trkpt>
      <trkpt lat="47.82623" lon="3.48217">
        <ele>134</ele>
        <time>2014-04-15T10:06:54Z</time>
      </trkpt>
      <trkpt lat="47.82627" lon="3.48222">
        <ele>134</ele>
        <time>2014-04-15T10:06:59Z</time>
      </trkpt>
      <trkpt lat="47.82629" lon="3.48229">
        <ele>134</ele>
        <time>2014-04-15T10:07:03Z</time>
      </trkpt>
      <trkpt lat="47.82633" lon="3.48235">
        <ele>134</ele>
        <time>2014-04-15T10:07:07Z</time>
      </trkpt>
      <trkpt lat="47.82636" lon="3.48239">
        <ele>134</ele>
        <time>2014-04-15T10:07:11Z</time>
      </trkpt>
      <trkpt lat="47.8264" lon="3.48244">
        <ele>134</ele>
        <time>2014-04-15T10:07:15Z</time>
      </trkpt>
      <trkpt lat="47.82643" lon="3.4825">
        <ele>134</ele>
        <time>2014-04-15T10:07:19Z</time>
      </trkpt>
      <trkpt lat="47.82647" lon="3.48252">
        <ele>132</ele>
        <time>2014-04-15T10:07:22Z</time>
      </trkpt>
      <trkpt lat="47.82651" lon="3.48257">
        <ele>132</ele>
        <time>2014-04-15T10:07:26Z</time>
      </trkpt>
      <trkpt lat="47.82654" lon="3.48263">
        <ele>132</ele>
        <time>2014-04-15T10:07:30Z</time>
      </trkpt>
      <trkpt lat="47.82658" lon="3.48269">
        <ele>132</ele>
        <time>2014-04-15T10:07:34Z</time>
      </trkpt>
      <trkpt lat="47.82661" lon="3.48276">
        <ele>132</ele>
        <time>2014-04-15T10:07:38Z</time>
      </trkpt>
      <trkpt lat="47.82664" lon="3.48283">
        <ele>132</ele>
        <time>2014-04-15T10:07:43Z</time>
      </trkpt>
      <trkpt lat="47.82666" lon="3.48289">
        <ele>132</ele>
        <time>2014-04-15T10:07:49Z</time>
      </trkpt>
      <trkpt lat="47.82669" lon="3.48295">
        <ele>132</ele>
        <time>2014-04-15T10:07:54Z</time>
      </trkpt>
      <trkpt lat="47.82673" lon="3.483">
        <ele>131</ele>
        <time>2014-04-15T10:07:58Z</time>
      </trkpt>
      <trkpt lat="47.82677" lon="3.48305">
        <ele>131</ele>
        <time>2014-04-15T10:08:03Z</time>
      </trkpt>
      <trkpt lat="47.82681" lon="3.4831">
        <ele>131</ele>
        <time>2014-04-15T10:08:07Z</time>
      </trkpt>
      <trkpt lat="47.82685" lon="3.48314">
        <ele>131</ele>
        <time>2014-04-15T10:08:10Z</time>
      </trkpt>
      <trkpt lat="47.82685" lon="3.48322">
        <ele>131</ele>
        <time>2014-04-15T10:08:15Z</time>
      </trkpt>
      <trkpt lat="47.82685" lon="3.48327">
        <ele>131</ele>
        <time>2014-04-15T10:08:22Z</time>
      </trkpt>
      <trkpt lat="47.8269" lon="3.48327">
        <ele>131</ele>
        <time>2014-04-15T10:08:38Z</time>
      </trkpt>
      <trkpt lat="47.82693" lon="3.48334">
        <ele>131</ele>
        <time>2014-04-15T10:08:44Z</time>
      </trkpt>
      <trkpt lat="47.82696" lon="3.4834">
        <ele>131</ele>
        <time>2014-04-15T10:08:49Z</time>
      </trkpt>
      <trkpt lat="47.82697" lon="3.48347">
        <ele>131</ele>
        <time>2014-04-15T10:08:53Z</time>
      </trkpt>
      <trkpt lat="47.82699" lon="3.48354">
        <ele>131</ele>
        <time>2014-04-15T10:08:58Z</time>
      </trkpt>
      <trkpt lat="47.827" lon="3.48362">
        <ele>132</ele>
        <time>2014-04-15T10:09:02Z</time>
      </trkpt>
      <trkpt lat="47.827" lon="3.48369">
        <ele>132</ele>
        <time>2014-04-15T10:09:06Z</time>
      </trkpt>
      <trkpt lat="47.827" lon="3.48377">
        <ele>132</ele>
        <time>2014-04-15T10:09:13Z</time>
      </trkpt>
      <trkpt lat="47.82702" lon="3.48384">
        <ele>132</ele>
        <time>2014-04-15T10:09:17Z</time>
      </trkpt>
      <trkpt lat="47.82705" lon="3.48391">
        <ele>132</ele>
        <time>2014-04-15T10:09:21Z</time>
      </trkpt>
      <trkpt lat="47.82709" lon="3.48399">
        <ele>132</ele>
        <time>2014-04-15T10:09:25Z</time>
      </trkpt>
      <trkpt lat="47.8271" lon="3.48407">
        <ele>132</ele>
        <time>2014-04-15T10:09:29Z</time>
      </trkpt>
      <trkpt lat="47.8271" lon="3.48413">
        <ele>132</ele>
        <time>2014-04-15T10:09:32Z</time>
      </trkpt>
      <trkpt lat="47.82711" lon="3.48421">
        <ele>131</ele>
        <time>2014-04-15T10:09:36Z</time>
      </trkpt>
      <trkpt lat="47.82715" lon="3.48427">
        <ele>131</ele>
        <time>2014-04-15T10:09:39Z</time>
      </trkpt>
      <trkpt lat="47.82719" lon="3.48434">
        <ele>131</ele>
        <time>2014-04-15T10:09:43Z</time>
      </trkpt>
      <trkpt lat="47.82721" lon="3.4844">
        <ele>131</ele>
        <time>2014-04-15T10:09:46Z</time>
      </trkpt>
      <trkpt lat="47.82721" lon="3.48447">
        <ele>131</ele>
        <time>2014-04-15T10:09:50Z</time>
      </trkpt>
      <trkpt lat="47.82719" lon="3.48455">
        <ele>131</ele>
        <time>2014-04-15T10:09:56Z</time>
      </trkpt>
      <trkpt lat="47.82719" lon="3.48464">
        <ele>130</ele>
        <time>2014-04-15T10:09:59Z</time>
      </trkpt>
      <trkpt lat="47.8272" lon="3.48472">
        <ele>130</ele>
        <time>2014-04-15T10:10:02Z</time>
      </trkpt>
      <trkpt lat="47.82717" lon="3.48478">
        <ele>130</ele>
        <time>2014-04-15T10:10:07Z</time>
      </trkpt>
      <trkpt lat="47.82718" lon="3.48485">
        <ele>130</ele>
        <time>2014-04-15T10:10:11Z</time>
      </trkpt>
      <trkpt lat="47.8272" lon="3.48498">
        <ele>130</ele>
        <time>2014-04-15T10:10:39Z</time>
      </trkpt>
      <trkpt lat="47.82719" lon="3.48503">
        <ele>129</ele>
        <time>2014-04-15T10:11:23Z</time>
      </trkpt>
      <trkpt lat="47.82719" lon="3.48509">
        <ele>129</ele>
        <time>2014-04-15T10:11:42Z</time>
      </trkpt>
      <trkpt lat="47.82722" lon="3.48518">
        <ele>129</ele>
        <time>2014-04-15T10:11:47Z</time>
      </trkpt>
      <trkpt lat="47.82727" lon="3.48527">
        <ele>129</ele>
        <time>2014-04-15T10:11:57Z</time>
      </trkpt>
      <trkpt lat="47.82726" lon="3.48531">
        <ele>129</ele>
        <time>2014-04-15T10:12:03Z</time>
      </trkpt>
      <trkpt lat="47.82723" lon="3.48538">
        <ele>129</ele>
        <time>2014-04-15T10:12:07Z</time>
      </trkpt>
      <trkpt lat="47.82723" lon="3.48547">
        <ele>129</ele>
        <time>2014-04-15T10:12:13Z</time>
      </trkpt>
      <trkpt lat="47.82723" lon="3.48554">
        <ele>129</ele>
        <time>2014-04-15T10:12:18Z</time>
      </trkpt>
      <trkpt lat="47.82725" lon="3.48562">
        <ele>129</ele>
        <time>2014-04-15T10:12:21Z</time>
      </trkpt>
      <trkpt lat="47.82725" lon="3.48569">
        <ele>129</ele>
        <time>2014-04-15T10:12:24Z</time>
      </trkpt>
      <trkpt lat="47.82725" lon="3.48577">
        <ele>129</ele>
        <time>2014-04-15T10:12:28Z</time>
      </trkpt>
      <trkpt lat="47.82726" lon="3.48584">
        <ele>129</ele>
        <time>2014-04-15T10:12:32Z</time>
      </trkpt>
      <trkpt lat="47.82726" lon="3.48591">
        <ele>130</ele>
        <time>2014-04-15T10:12:36Z</time>
      </trkpt>
      <trkpt lat="47.82721" lon="3.48593">
        <ele>130</ele>
        <time>2014-04-15T10:12:40Z</time>
      </trkpt>
      <trkpt lat="47.82716" lon="3.48595">
        <ele>130</ele>
        <time>2014-04-15T10:12:44Z</time>
      </trkpt>
      <trkpt lat="47.8272" lon="3.48602">
        <ele>130</ele>
        <time>2014-04-15T10:12:49Z</time>
      </trkpt>
      <trkpt lat="47.82725" lon="3.48606">
        <ele>130</ele>
        <time>2014-04-15T10:12:53Z</time>
      </trkpt>
      <trkpt lat="47.8273" lon="3.48611">
        <ele>130</ele>
        <time>2014-04-15T10:13:08Z</time>
      </trkpt>
      <trkpt lat="47.82726" lon="3.48625">
        <ele>130</ele>
        <time>2014-04-15T10:13:15Z</time>
      </trkpt>
      <trkpt lat="47.8273" lon="3.48639">
        <ele>130</ele>
        <time>2014-04-15T10:13:27Z</time>
      </trkpt>
      <trkpt lat="47.82732" lon="3.48652">
        <ele>130</ele>
        <time>2014-04-15T10:13:38Z</time>
      </trkpt>
      <trkpt lat="47.8273" lon="3.48668">
        <ele>130</ele>
        <time>2014-04-15T10:13:44Z</time>
      </trkpt>
      <trkpt lat="47.82727" lon="3.48683">
        <ele>130</ele>
        <time>2014-04-15T10:13:50Z</time>
      </trkpt>
      <trkpt lat="47.82729" lon="3.48697">
        <ele>130</ele>
        <time>2014-04-15T10:13:56Z</time>
      </trkpt>
      <trkpt lat="47.82733" lon="3.48711">
        <ele>130</ele>
        <time>2014-04-15T10:14:03Z</time>
      </trkpt>
      <trkpt lat="47.82737" lon="3.48725">
        <ele>130</ele>
        <time>2014-04-15T10:14:10Z</time>
      </trkpt>
      <trkpt lat="47.82738" lon="3.48738">
        <ele>130</ele>
        <time>2014-04-15T10:14:21Z</time>
      </trkpt>
      <trkpt lat="47.82731" lon="3.48782">
        <ele>129</ele>
        <time>2014-04-15T10:14:45Z</time>
      </trkpt>
      <trkpt lat="47.82726" lon="3.48809">
        <ele>129</ele>
        <time>2014-04-15T10:14:56Z</time>
      </trkpt>
      <trkpt lat="47.82724" lon="3.48825">
        <ele>129</ele>
        <time>2014-04-15T10:15:01Z</time>
      </trkpt>
      <trkpt lat="47.8272" lon="3.48839">
        <ele>128</ele>
        <time>2014-04-15T10:15:07Z</time>
      </trkpt>
      <trkpt lat="47.82715" lon="3.48852">
        <ele>128</ele>
        <time>2014-04-15T10:15:18Z</time>
      </trkpt>
      <trkpt lat="47.82716" lon="3.48865">
        <ele>127</ele>
        <time>2014-04-15T10:15:24Z</time>
      </trkpt>
      <trkpt lat="47.82719" lon="3.48878">
        <ele>127</ele>
        <time>2014-04-15T10:15:33Z</time>
      </trkpt>
      <trkpt lat="47.82715" lon="3.48887">
        <ele>127</ele>
        <time>2014-04-15T10:15:39Z</time>
      </trkpt>
      <trkpt lat="47.82713" lon="3.48894">
        <ele>127</ele>
        <time>2014-04-15T10:15:43Z</time>
      </trkpt>
      <trkpt lat="47.82711" lon="3.489">
        <ele>127</ele>
        <time>2014-04-15T10:15:46Z</time>
      </trkpt>
      <trkpt lat="47.82706" lon="3.48915">
        <ele>127</ele>
        <time>2014-04-15T10:15:52Z</time>
      </trkpt>
      <trkpt lat="47.82703" lon="3.48929">
        <ele>126</ele>
        <time>2014-04-15T10:15:55Z</time>
      </trkpt>
      <trkpt lat="47.827" lon="3.48942">
        <ele>126</ele>
        <time>2014-04-15T10:15:59Z</time>
      </trkpt>
      <trkpt lat="47.82698" lon="3.48949">
        <ele>126</ele>
        <time>2014-04-15T10:16:03Z</time>
      </trkpt>
      <trkpt lat="47.82696" lon="3.48956">
        <ele>126</ele>
        <time>2014-04-15T10:16:08Z</time>
      </trkpt>
      <trkpt lat="47.8269" lon="3.48964">
        <ele>126</ele>
        <time>2014-04-15T10:16:17Z</time>
      </trkpt>
      <trkpt lat="47.82684" lon="3.48963">
        <ele>126</ele>
        <time>2014-04-15T10:16:21Z</time>
      </trkpt>
      <trkpt lat="47.82677" lon="3.48955">
        <ele>126</ele>
        <time>2014-04-15T10:16:30Z</time>
      </trkpt>
      <trkpt lat="47.82668" lon="3.48959">
        <ele>126</ele>
        <time>2014-04-15T10:16:35Z</time>
      </trkpt>
      <trkpt lat="47.82658" lon="3.48963">
        <ele>127</ele>
        <time>2014-04-15T10:16:40Z</time>
      </trkpt>
      <trkpt lat="47.82648" lon="3.48964">
        <ele>127</ele>
        <time>2014-04-15T10:16:47Z</time>
      </trkpt>
      <trkpt lat="47.82639" lon="3.48967">
        <ele>127</ele>
        <time>2014-04-15T10:17:00Z</time>
      </trkpt>
      <trkpt lat="47.82637" lon="3.4898">
        <ele>127</ele>
        <time>2014-04-15T10:17:06Z</time>
      </trkpt>
      <trkpt lat="47.82638" lon="3.48995">
        <ele>127</ele>
        <time>2014-04-15T10:17:11Z</time>
      </trkpt>
      <trkpt lat="47.82643" lon="3.49006">
        <ele>128</ele>
        <time>2014-04-15T10:17:18Z</time>
      </trkpt>
      <trkpt lat="47.82649" lon="3.49016">
        <ele>128</ele>
        <time>2014-04-15T10:17:28Z</time>
      </trkpt>
      <trkpt lat="47.82642" lon="3.49026">
        <ele>128</ele>
        <time>2014-04-15T10:17:38Z</time>
      </trkpt>
      <trkpt lat="47.82634" lon="3.49033">
        <ele>128</ele>
        <time>2014-04-15T10:17:41Z</time>
      </trkpt>
      <trkpt lat="47.82627" lon="3.49044">
        <ele>128</ele>
        <time>2014-04-15T10:17:44Z</time>
      </trkpt>
      <trkpt lat="47.82606" lon="3.49068">
        <ele>129</ele>
        <time>2014-04-15T10:18:03Z</time>
      </trkpt>
      <trkpt lat="47.82596" lon="3.49072">
        <ele>129</ele>
        <time>2014-04-15T10:18:08Z</time>
      </trkpt>
      <trkpt lat="47.82589" lon="3.49083">
        <ele>130</ele>
        <time>2014-04-15T10:18:14Z</time>
      </trkpt>
      <trkpt lat="47.82583" lon="3.49093">
        <ele>130</ele>
        <time>2014-04-15T10:18:23Z</time>
      </trkpt>
      <trkpt lat="47.82579" lon="3.49105">
        <ele>129</ele>
        <time>2014-04-15T10:18:32Z</time>
      </trkpt>
      <trkpt lat="47.82577" lon="3.49118">
        <ele>129</ele>
        <time>2014-04-15T10:18:40Z</time>
      </trkpt>
      <trkpt lat="47.82566" lon="3.49121">
        <ele>128</ele>
        <time>2014-04-15T10:18:46Z</time>
      </trkpt>
      <trkpt lat="47.82559" lon="3.4913">
        <ele>128</ele>
        <time>2014-04-15T10:18:51Z</time>
      </trkpt>
      <trkpt lat="47.82552" lon="3.4914">
        <ele>128</ele>
        <time>2014-04-15T10:18:58Z</time>
      </trkpt>
      <trkpt lat="47.82543" lon="3.49144">
        <ele>128</ele>
        <time>2014-04-15T10:19:03Z</time>
      </trkpt>
      <trkpt lat="47.82534" lon="3.49144">
        <ele>128</ele>
        <time>2014-04-15T10:19:08Z</time>
      </trkpt>
      <trkpt lat="47.82528" lon="3.49153">
        <ele>127</ele>
        <time>2014-04-15T10:19:19Z</time>
      </trkpt>
      <trkpt lat="47.82525" lon="3.49144">
        <ele>127</ele>
        <time>2014-04-15T10:19:24Z</time>
      </trkpt>
      <trkpt lat="47.82519" lon="3.49147">
        <ele>127</ele>
        <time>2014-04-15T10:19:41Z</time>
      </trkpt>
      <trkpt lat="47.82514" lon="3.4915">
        <ele>127</ele>
        <time>2014-04-15T10:19:45Z</time>
      </trkpt>
      <trkpt lat="47.82499" lon="3.49157">
        <ele>126</ele>
        <time>2014-04-15T10:19:55Z</time>
      </trkpt>
      <trkpt lat="47.82495" lon="3.49159">
        <ele>126</ele>
        <time>2014-04-15T10:19:59Z</time>
      </trkpt>
      <trkpt lat="47.8249" lon="3.49162">
        <ele>126</ele>
        <time>2014-04-15T10:20:04Z</time>
      </trkpt>
      <trkpt lat="47.82485" lon="3.49163">
        <ele>126</ele>
        <time>2014-04-15T10:20:06Z</time>
      </trkpt>
      <trkpt lat="47.82481" lon="3.49164">
        <ele>126</ele>
        <time>2014-04-15T10:20:09Z</time>
      </trkpt>
      <trkpt lat="47.82475" lon="3.49163">
        <ele>126</ele>
        <time>2014-04-15T10:20:14Z</time>
      </trkpt>
      <trkpt lat="47.8247" lon="3.49163">
        <ele>126</ele>
        <time>2014-04-15T10:20:19Z</time>
      </trkpt>
      <trkpt lat="47.82469" lon="3.4917">
        <ele>126</ele>
        <time>2014-04-15T10:20:25Z</time>
      </trkpt>
      <trkpt lat="47.82465" lon="3.49173">
        <ele>126</ele>
        <time>2014-04-15T10:20:30Z</time>
      </trkpt>
      <trkpt lat="47.8246" lon="3.49174">
        <ele>126</ele>
        <time>2014-04-15T10:20:34Z</time>
      </trkpt>
      <trkpt lat="47.82457" lon="3.49177">
        <ele>125</ele>
        <time>2014-04-15T10:20:41Z</time>
      </trkpt>
      <trkpt lat="47.82458" lon="3.49181">
        <ele>125</ele>
        <time>2014-04-15T10:20:52Z</time>
      </trkpt>
      <trkpt lat="47.82457" lon="3.49189">
        <ele>125</ele>
        <time>2014-04-15T10:20:57Z</time>
      </trkpt>
      <trkpt lat="47.82459" lon="3.49194">
        <ele>125</ele>
        <time>2014-04-15T10:21:02Z</time>
      </trkpt>
      <trkpt lat="47.82462" lon="3.49201">
        <ele>125</ele>
        <time>2014-04-15T10:21:07Z</time>
      </trkpt>
      <trkpt lat="47.8246" lon="3.49208">
        <ele>125</ele>
        <time>2014-04-15T10:21:13Z</time>
      </trkpt>
      <trkpt lat="47.82463" lon="3.49212">
        <ele>125</ele>
        <time>2014-04-15T10:21:17Z</time>
      </trkpt>
      <trkpt lat="47.82467" lon="3.49218">
        <ele>125</ele>
        <time>2014-04-15T10:21:22Z</time>
      </trkpt>
      <trkpt lat="47.8247" lon="3.49224">
        <ele>125</ele>
        <time>2014-04-15T10:21:25Z</time>
      </trkpt>
      <trkpt lat="47.82474" lon="3.49229">
        <ele>125</ele>
        <time>2014-04-15T10:21:28Z</time>
      </trkpt>
      <trkpt lat="47.82477" lon="3.49236">
        <ele>125</ele>
        <time>2014-04-15T10:21:32Z</time>
      </trkpt>
      <trkpt lat="47.82481" lon="3.49241">
        <ele>125</ele>
        <time>2014-04-15T10:21:37Z</time>
      </trkpt>
      <trkpt lat="47.82487" lon="3.49246">
        <ele>125</ele>
        <time>2014-04-15T10:21:48Z</time>
      </trkpt>
      <trkpt lat="47.82491" lon="3.49252">
        <ele>124</ele>
        <time>2014-04-15T10:21:52Z</time>
      </trkpt>
      <trkpt lat="47.82493" lon="3.49259">
        <ele>124</ele>
        <time>2014-04-15T10:21:55Z</time>
      </trkpt>
      <trkpt lat="47.82494" lon="3.49267">
        <ele>124</ele>
        <time>2014-04-15T10:21:58Z</time>
      </trkpt>
      <trkpt lat="47.82493" lon="3.49275">
        <ele>125</ele>
        <time>2014-04-15T10:22:02Z</time>
      </trkpt>
      <trkpt lat="47.82493" lon="3.49282">
        <ele>125</ele>
        <time>2014-04-15T10:22:08Z</time>
      </trkpt>
      <trkpt lat="47.82498" lon="3.49286">
        <ele>125</ele>
        <time>2014-04-15T10:22:13Z</time>
      </trkpt>
      <trkpt lat="47.82502" lon="3.49286">
        <ele>126</ele>
        <time>2014-04-15T10:22:16Z</time>
      </trkpt>
      <trkpt lat="47.82507" lon="3.49287">
        <ele>126</ele>
        <time>2014-04-15T10:22:20Z</time>
      </trkpt>
      <trkpt lat="47.82507" lon="3.49295">
        <ele>126</ele>
        <time>2014-04-15T10:22:26Z</time>
      </trkpt>
      <trkpt lat="47.82508" lon="3.49301">
        <ele>126</ele>
        <time>2014-04-15T10:22:31Z</time>
      </trkpt>
      <trkpt lat="47.82505" lon="3.49306">
        <ele>126</ele>
        <time>2014-04-15T10:22:34Z</time>
      </trkpt>
      <trkpt lat="47.82501" lon="3.49312">
        <ele>126</ele>
        <time>2014-04-15T10:22:37Z</time>
      </trkpt>
      <trkpt lat="47.82498" lon="3.49317">
        <ele>125</ele>
        <time>2014-04-15T10:22:40Z</time>
      </trkpt>
      <trkpt lat="47.82495" lon="3.49323">
        <ele>125</ele>
        <time>2014-04-15T10:22:48Z</time>
      </trkpt>
      <trkpt lat="47.82492" lon="3.49328">
        <ele>126</ele>
        <time>2014-04-15T10:22:56Z</time>
      </trkpt>
      <trkpt lat="47.82487" lon="3.49331">
        <ele>125</ele>
        <time>2014-04-15T10:23:00Z</time>
      </trkpt>
      <trkpt lat="47.82482" lon="3.49332">
        <ele>125</ele>
        <time>2014-04-15T10:23:03Z</time>
      </trkpt>
      <trkpt lat="47.82477" lon="3.49335">
        <ele>126</ele>
        <time>2014-04-15T10:23:07Z</time>
      </trkpt>
      <trkpt lat="47.82472" lon="3.49338">
        <ele>125</ele>
        <time>2014-04-15T10:23:12Z</time>
      </trkpt>
      <trkpt lat="47.82468" lon="3.49341">
        <ele>125</ele>
        <time>2014-04-15T10:23:16Z</time>
      </trkpt>
      <trkpt lat="47.82463" lon="3.49346">
        <ele>125</ele>
        <time>2014-04-15T10:23:19Z</time>
      </trkpt>
      <trkpt lat="47.82459" lon="3.4935">
        <ele>125</ele>
        <time>2014-04-15T10:23:22Z</time>
      </trkpt>
      <trkpt lat="47.82454" lon="3.49354">
        <ele>125</ele>
        <time>2014-04-15T10:23:26Z</time>
      </trkpt>
      <trkpt lat="47.82451" lon="3.49358">
        <ele>125</ele>
        <time>2014-04-15T10:23:32Z</time>
      </trkpt>
      <trkpt lat="47.82446" lon="3.49361">
        <ele>125</ele>
        <time>2014-04-15T10:23:36Z</time>
      </trkpt>
      <trkpt lat="47.82441" lon="3.49363">
        <ele>125</ele>
        <time>2014-04-15T10:23:41Z</time>
      </trkpt>
      <trkpt lat="47.82437" lon="3.49366">
        <ele>125</ele>
        <time>2014-04-15T10:23:45Z</time>
      </trkpt>
      <trkpt lat="47.82433" lon="3.4937">
        <ele>125</ele>
        <time>2014-04-15T10:23:49Z</time>
      </trkpt>
      <trkpt lat="47.8243" lon="3.49376">
        <ele>125</ele>
        <time>2014-04-15T10:23:53Z</time>
      </trkpt>
      <trkpt lat="47.82426" lon="3.49382">
        <ele>125</ele>
        <time>2014-04-15T10:23:57Z</time>
      </trkpt>
      <trkpt lat="47.82425" lon="3.49389">
        <ele>124</ele>
        <time>2014-04-15T10:24:02Z</time>
      </trkpt>
      <trkpt lat="47.82423" lon="3.49397">
        <ele>124</ele>
        <time>2014-04-15T10:24:08Z</time>
      </trkpt>
      <trkpt lat="47.82419" lon="3.49404">
        <ele>124</ele>
        <time>2014-04-15T10:24:11Z</time>
      </trkpt>
      <trkpt lat="47.82415" lon="3.49409">
        <ele>123</ele>
        <time>2014-04-15T10:24:13Z</time>
      </trkpt>
      <trkpt lat="47.82411" lon="3.49413">
        <ele>123</ele>
        <time>2014-04-15T10:24:16Z</time>
      </trkpt>
      <trkpt lat="47.82408" lon="3.4942">
        <ele>123</ele>
        <time>2014-04-15T10:24:22Z</time>
      </trkpt>
      <trkpt lat="47.82406" lon="3.49426">
        <ele>123</ele>
        <time>2014-04-15T10:24:26Z</time>
      </trkpt>
      <trkpt lat="47.82405" lon="3.49434">
        <ele>123</ele>
        <time>2014-04-15T10:24:29Z</time>
      </trkpt>
      <trkpt lat="47.82402" lon="3.49439">
        <ele>123</ele>
        <time>2014-04-15T10:24:33Z</time>
      </trkpt>
      <trkpt lat="47.82399" lon="3.49445">
        <ele>123</ele>
        <time>2014-04-15T10:24:38Z</time>
      </trkpt>
      <trkpt lat="47.82395" lon="3.49449">
        <ele>123</ele>
        <time>2014-04-15T10:24:47Z</time>
      </trkpt>
      <trkpt lat="47.82391" lon="3.49454">
        <ele>123</ele>
        <time>2014-04-15T10:24:51Z</time>
      </trkpt>
      <trkpt lat="47.82386" lon="3.49459">
        <ele>123</ele>
        <time>2014-04-15T10:24:55Z</time>
      </trkpt>
      <trkpt lat="47.82382" lon="3.49462">
        <ele>123</ele>
        <time>2014-04-15T10:24:58Z</time>
      </trkpt>
      <trkpt lat="47.82378" lon="3.49467">
        <ele>123</ele>
        <time>2014-04-15T10:25:02Z</time>
      </trkpt>
      <trkpt lat="47.82374" lon="3.4947">
        <ele>123</ele>
        <time>2014-04-15T10:25:07Z</time>
      </trkpt>
      <trkpt lat="47.8237" lon="3.49476">
        <ele>123</ele>
        <time>2014-04-15T10:25:13Z</time>
      </trkpt>
      <trkpt lat="47.82366" lon="3.4948">
        <ele>123</ele>
        <time>2014-04-15T10:25:17Z</time>
      </trkpt>
      <trkpt lat="47.82362" lon="3.49485">
        <ele>123</ele>
        <time>2014-04-15T10:25:22Z</time>
      </trkpt>
      <trkpt lat="47.82359" lon="3.4949">
        <ele>123</ele>
        <time>2014-04-15T10:25:25Z</time>
      </trkpt>
      <trkpt lat="47.82354" lon="3.49493">
        <ele>123</ele>
        <time>2014-04-15T10:25:28Z</time>
      </trkpt>
      <trkpt lat="47.82349" lon="3.49495">
        <ele>123</ele>
        <time>2014-04-15T10:25:32Z</time>
      </trkpt>
      <trkpt lat="47.82346" lon="3.49502">
        <ele>123</ele>
        <time>2014-04-15T10:25:37Z</time>
      </trkpt>
      <trkpt lat="47.82344" lon="3.49508">
        <ele>123</ele>
        <time>2014-04-15T10:25:42Z</time>
      </trkpt>
      <trkpt lat="47.8234" lon="3.49515">
        <ele>123</ele>
        <time>2014-04-15T10:25:46Z</time>
      </trkpt>
      <trkpt lat="47.82334" lon="3.49516">
        <ele>123</ele>
        <time>2014-04-15T10:25:51Z</time>
      </trkpt>
      <trkpt lat="47.82329" lon="3.49517">
        <ele>123</ele>
        <time>2014-04-15T10:25:54Z</time>
      </trkpt>
      <trkpt lat="47.82323" lon="3.49521">
        <ele>123</ele>
        <time>2014-04-15T10:25:58Z</time>
      </trkpt>
      <trkpt lat="47.82319" lon="3.49527">
        <ele>123</ele>
        <time>2014-04-15T10:26:02Z</time>
      </trkpt>
      <trkpt lat="47.82315" lon="3.49532">
        <ele>124</ele>
        <time>2014-04-15T10:26:05Z</time>
      </trkpt>
      <trkpt lat="47.8231" lon="3.49537">
        <ele>124</ele>
        <time>2014-04-15T10:26:08Z</time>
      </trkpt>
      <trkpt lat="47.82306" lon="3.49541">
        <ele>124</ele>
        <time>2014-04-15T10:26:12Z</time>
      </trkpt>
      <trkpt lat="47.82307" lon="3.49548">
        <ele>124</ele>
        <time>2014-04-15T10:26:17Z</time>
      </trkpt>
      <trkpt lat="47.82303" lon="3.49554">
        <ele>124</ele>
        <time>2014-04-15T10:26:24Z</time>
      </trkpt>
      <trkpt lat="47.82299" lon="3.49555">
        <ele>124</ele>
        <time>2014-04-15T10:26:28Z</time>
      </trkpt>
      <trkpt lat="47.82293" lon="3.49559">
        <ele>124</ele>
        <time>2014-04-15T10:26:33Z</time>
      </trkpt>
      <trkpt lat="47.82288" lon="3.49561">
        <ele>124</ele>
        <time>2014-04-15T10:26:35Z</time>
      </trkpt>
      <trkpt lat="47.82283" lon="3.49564">
        <ele>124</ele>
        <time>2014-04-15T10:26:37Z</time>
      </trkpt>
      <trkpt lat="47.82278" lon="3.49566">
        <ele>124</ele>
        <time>2014-04-15T10:26:39Z</time>
      </trkpt>
      <trkpt lat="47.82274" lon="3.49569">
        <ele>124</ele>
        <time>2014-04-15T10:26:42Z</time>
      </trkpt>
      <trkpt lat="47.82269" lon="3.4957">
        <ele>124</ele>
        <time>2014-04-15T10:26:46Z</time>
      </trkpt>
      <trkpt lat="47.82265" lon="3.49572">
        <ele>124</ele>
        <time>2014-04-15T10:26:50Z</time>
      </trkpt>
      <trkpt lat="47.82257" lon="3.49577">
        <ele>125</ele>
        <time>2014-04-15T10:27:00Z</time>
      </trkpt>
      <trkpt lat="47.82247" lon="3.49576">
        <ele>125</ele>
        <time>2014-04-15T10:27:12Z</time>
      </trkpt>
      <trkpt lat="47.82238" lon="3.4958">
        <ele>125</ele>
        <time>2014-04-15T10:27:21Z</time>
      </trkpt>
      <trkpt lat="47.82229" lon="3.49577">
        <ele>124</ele>
        <time>2014-04-15T10:27:26Z</time>
      </trkpt>
      <trkpt lat="47.82222" lon="3.49576">
        <ele>124</ele>
        <time>2014-04-15T10:27:43Z</time>
      </trkpt>
      <trkpt lat="47.82216" lon="3.49576">
        <ele>124</ele>
        <time>2014-04-15T10:27:46Z</time>
      </trkpt>
      <trkpt lat="47.82211" lon="3.49577">
        <ele>124</ele>
        <time>2014-04-15T10:27:49Z</time>
      </trkpt>
      <trkpt lat="47.82208" lon="3.49574">
        <ele>124</ele>
        <time>2014-04-15T10:27:57Z</time>
      </trkpt>
      <trkpt lat="47.82204" lon="3.49578">
        <ele>124</ele>
        <time>2014-04-15T10:28:17Z</time>
      </trkpt>
      <trkpt lat="47.82199" lon="3.4958">
        <ele>124</ele>
        <time>2014-04-15T10:28:21Z</time>
      </trkpt>
      <trkpt lat="47.82194" lon="3.49583">
        <ele>124</ele>
        <time>2014-04-15T10:28:25Z</time>
      </trkpt>
      <trkpt lat="47.8219" lon="3.49588">
        <ele>124</ele>
        <time>2014-04-15T10:28:29Z</time>
      </trkpt>
      <trkpt lat="47.82187" lon="3.49593">
        <ele>123</ele>
        <time>2014-04-15T10:28:33Z</time>
      </trkpt>
      <trkpt lat="47.82184" lon="3.49599">
        <ele>123</ele>
        <time>2014-04-15T10:28:39Z</time>
      </trkpt>
      <trkpt lat="47.8218" lon="3.49606">
        <ele>123</ele>
        <time>2014-04-15T10:28:54Z</time>
      </trkpt>
      <trkpt lat="47.82175" lon="3.49609">
        <ele>123</ele>
        <time>2014-04-15T10:28:59Z</time>
      </trkpt>
      <trkpt lat="47.82171" lon="3.49613">
        <ele>123</ele>
        <time>2014-04-15T10:29:03Z</time>
      </trkpt>
      <trkpt lat="47.82166" lon="3.49616">
        <ele>123</ele>
        <time>2014-04-15T10:29:08Z</time>
      </trkpt>
      <trkpt lat="47.82162" lon="3.4962">
        <ele>123</ele>
        <time>2014-04-15T10:29:14Z</time>
      </trkpt>
      <trkpt lat="47.82157" lon="3.49623">
        <ele>122</ele>
        <time>2014-04-15T10:29:17Z</time>
      </trkpt>
      <trkpt lat="47.82153" lon="3.49629">
        <ele>122</ele>
        <time>2014-04-15T10:29:20Z</time>
      </trkpt>
      <trkpt lat="47.82149" lon="3.49636">
        <ele>122</ele>
        <time>2014-04-15T10:29:23Z</time>
      </trkpt>
      <trkpt lat="47.82146" lon="3.49642">
        <ele>122</ele>
        <time>2014-04-15T10:29:26Z</time>
      </trkpt>
      <trkpt lat="47.82143" lon="3.49646">
        <ele>122</ele>
        <time>2014-04-15T10:29:29Z</time>
      </trkpt>
      <trkpt lat="47.82138" lon="3.49651">
        <ele>122</ele>
        <time>2014-04-15T10:29:35Z</time>
      </trkpt>
      <trkpt lat="47.82135" lon="3.49655">
        <ele>122</ele>
        <time>2014-04-15T10:29:39Z</time>
      </trkpt>
      <trkpt lat="47.82131" lon="3.4966">
        <ele>122</ele>
        <time>2014-04-15T10:29:43Z</time>
      </trkpt>
      <trkpt lat="47.82127" lon="3.49664">
        <ele>122</ele>
        <time>2014-04-15T10:29:46Z</time>
      </trkpt>
      <trkpt lat="47.82123" lon="3.49665">
        <ele>122</ele>
        <time>2014-04-15T10:29:51Z</time>
      </trkpt>
      <trkpt lat="47.82117" lon="3.49669">
        <ele>121</ele>
        <time>2014-04-15T10:29:55Z</time>
      </trkpt>
      <trkpt lat="47.82112" lon="3.49672">
        <ele>121</ele>
        <time>2014-04-15T10:29:59Z</time>
      </trkpt>
      <trkpt lat="47.82108" lon="3.49677">
        <ele>121</ele>
        <time>2014-04-15T10:30:03Z</time>
      </trkpt>
      <trkpt lat="47.82104" lon="3.49682">
        <ele>121</ele>
        <time>2014-04-15T10:30:07Z</time>
      </trkpt>
      <trkpt lat="47.82098" lon="3.49686">
        <ele>121</ele>
        <time>2014-04-15T10:30:11Z</time>
      </trkpt>
      <trkpt lat="47.82094" lon="3.49689">
        <ele>121</ele>
        <time>2014-04-15T10:30:14Z</time>
      </trkpt>
      <trkpt lat="47.8209" lon="3.49691">
        <ele>121</ele>
        <time>2014-04-15T10:30:17Z</time>
      </trkpt>
      <trkpt lat="47.82085" lon="3.49695">
        <ele>121</ele>
        <time>2014-04-15T10:30:20Z</time>
      </trkpt>
      <trkpt lat="47.82082" lon="3.49699">
        <ele>120</ele>
        <time>2014-04-15T10:30:29Z</time>
      </trkpt>
      <trkpt lat="47.82077" lon="3.49702">
        <ele>120</ele>
        <time>2014-04-15T10:30:43Z</time>
      </trkpt>
      <trkpt lat="47.82075" lon="3.49711">
        <ele>120</ele>
        <time>2014-04-15T10:30:47Z</time>
      </trkpt>
      <trkpt lat="47.82073" lon="3.49718">
        <ele>120</ele>
        <time>2014-04-15T10:30:50Z</time>
      </trkpt>
      <trkpt lat="47.82072" lon="3.49724">
        <ele>120</ele>
        <time>2014-04-15T10:30:53Z</time>
      </trkpt>
      <trkpt lat="47.82071" lon="3.49731">
        <ele>120</ele>
        <time>2014-04-15T10:30:58Z</time>
      </trkpt>
      <trkpt lat="47.82071" lon="3.49738">
        <ele>119</ele>
        <time>2014-04-15T10:31:03Z</time>
      </trkpt>
      <trkpt lat="47.82075" lon="3.49744">
        <ele>119</ele>
        <time>2014-04-15T10:31:08Z</time>
      </trkpt>
      <trkpt lat="47.82077" lon="3.49751">
        <ele>120</ele>
        <time>2014-04-15T10:31:12Z</time>
      </trkpt>
      <trkpt lat="47.82078" lon="3.49759">
        <ele>120</ele>
        <time>2014-04-15T10:31:17Z</time>
      </trkpt>
      <trkpt lat="47.82082" lon="3.49765">
        <ele>120</ele>
        <time>2014-04-15T10:31:21Z</time>
      </trkpt>
      <trkpt lat="47.82084" lon="3.49771">
        <ele>121</ele>
        <time>2014-04-15T10:31:24Z</time>
      </trkpt>
      <trkpt lat="47.82086" lon="3.49778">
        <ele>122</ele>
        <time>2014-04-15T10:31:29Z</time>
      </trkpt>
      <trkpt lat="47.8209" lon="3.49782">
        <ele>122</ele>
        <time>2014-04-15T10:31:34Z</time>
      </trkpt>
      <trkpt lat="47.82095" lon="3.49785">
        <ele>122</ele>
        <time>2014-04-15T10:31:38Z</time>
      </trkpt>
      <trkpt lat="47.82098" lon="3.49791">
        <ele>123</ele>
        <time>2014-04-15T10:31:42Z</time>
      </trkpt>
      <trkpt lat="47.82102" lon="3.49795">
        <ele>123</ele>
        <time>2014-04-15T10:31:51Z</time>
      </trkpt>
      <trkpt lat="47.82106" lon="3.49794">
        <ele>123</ele>
        <time>2014-04-15T10:31:56Z</time>
      </trkpt>
      <trkpt lat="47.8211" lon="3.498">
        <ele>123</ele>
        <time>2014-04-15T10:32:03Z</time>
      </trkpt>
      <trkpt lat="47.82109" lon="3.49807">
        <ele>123</ele>
        <time>2014-04-15T10:32:07Z</time>
      </trkpt>
      <trkpt lat="47.82107" lon="3.49801">
        <ele>123</ele>
        <time>2014-04-15T10:32:19Z</time>
      </trkpt>
      <trkpt lat="47.82103" lon="3.49805">
        <ele>123</ele>
        <time>2014-04-15T10:32:24Z</time>
      </trkpt>
      <trkpt lat="47.82101" lon="3.49805">
        <ele>123</ele>
        <time>2014-04-15T10:32:30Z</time>
      </trkpt>
      <trkpt lat="47.82098" lon="3.49811">
        <ele>124</ele>
        <time>2014-04-15T10:32:37Z</time>
      </trkpt>
      <trkpt lat="47.82096" lon="3.49814">
        <ele>124</ele>
        <time>2014-04-15T10:32:44Z</time>
      </trkpt>
      <trkpt lat="47.82094" lon="3.49808">
        <ele>123</ele>
        <time>2014-04-15T10:32:53Z</time>
      </trkpt>
      <trkpt lat="47.8209" lon="3.49812">
        <ele>124</ele>
        <time>2014-04-15T10:33:00Z</time>
      </trkpt>
      <trkpt lat="47.8209" lon="3.49815">
        <ele>124</ele>
        <time>2014-04-15T10:33:18Z</time>
      </trkpt>
      <trkpt lat="47.82085" lon="3.49824">
        <ele>124</ele>
        <time>2014-04-15T10:33:43Z</time>
      </trkpt>
      <trkpt lat="47.82076" lon="3.4983">
        <ele>124</ele>
        <time>2014-04-15T10:33:55Z</time>
      </trkpt>
      <trkpt lat="47.82069" lon="3.49839">
        <ele>125</ele>
        <time>2014-04-15T10:34:03Z</time>
      </trkpt>
      <trkpt lat="47.82059" lon="3.4984">
        <ele>125</ele>
        <time>2014-04-15T10:34:10Z</time>
      </trkpt>
      <trkpt lat="47.82049" lon="3.49841">
        <ele>125</ele>
        <time>2014-04-15T10:34:16Z</time>
      </trkpt>
      <trkpt lat="47.82044" lon="3.49848">
        <ele>125</ele>
        <time>2014-04-15T10:34:20Z</time>
      </trkpt>
      <trkpt lat="47.82039" lon="3.49849">
        <ele>125</ele>
        <time>2014-04-15T10:34:24Z</time>
      </trkpt>
      <trkpt lat="47.82034" lon="3.4985">
        <ele>125</ele>
        <time>2014-04-15T10:34:31Z</time>
      </trkpt>
      <trkpt lat="47.82024" lon="3.49848">
        <ele>124</ele>
        <time>2014-04-15T10:34:38Z</time>
      </trkpt>
      <trkpt lat="47.82016" lon="3.49842">
        <ele>124</ele>
        <time>2014-04-15T10:34:48Z</time>
      </trkpt>
      <trkpt lat="47.82012" lon="3.49838">
        <ele>123</ele>
        <time>2014-04-15T10:34:53Z</time>
      </trkpt>
      <trkpt lat="47.82013" lon="3.49842">
        <ele>124</ele>
        <time>2014-04-15T10:35:34Z</time>
      </trkpt>
      <trkpt lat="47.82019" lon="3.49842">
        <ele>124</ele>
        <time>2014-04-15T10:35:38Z</time>
      </trkpt>
      <trkpt lat="47.82024" lon="3.49841">
        <ele>124</ele>
        <time>2014-04-15T10:35:41Z</time>
      </trkpt>
      <trkpt lat="47.82029" lon="3.49839">
        <ele>124</ele>
        <time>2014-04-15T10:35:43Z</time>
      </trkpt>
      <trkpt lat="47.82035" lon="3.4984">
        <ele>124</ele>
        <time>2014-04-15T10:35:46Z</time>
      </trkpt>
      <trkpt lat="47.82041" lon="3.4984">
        <ele>125</ele>
        <time>2014-04-15T10:35:50Z</time>
      </trkpt>
      <trkpt lat="47.82045" lon="3.49841">
        <ele>125</ele>
        <time>2014-04-15T10:35:53Z</time>
      </trkpt>
      <trkpt lat="47.8205" lon="3.49839">
        <ele>125</ele>
        <time>2014-04-15T10:35:56Z</time>
      </trkpt>
      <trkpt lat="47.82055" lon="3.49834">
        <ele>125</ele>
        <time>2014-04-15T10:36:00Z</time>
      </trkpt>
      <trkpt lat="47.8206" lon="3.49829">
        <ele>123</ele>
        <time>2014-04-15T10:36:04Z</time>
      </trkpt>
      <trkpt lat="47.82065" lon="3.49826">
        <ele>123</ele>
        <time>2014-04-15T10:36:09Z</time>
      </trkpt>
      <trkpt lat="47.82068" lon="3.49821">
        <ele>123</ele>
        <time>2014-04-15T10:36:14Z</time>
      </trkpt>
      <trkpt lat="47.82074" lon="3.49819">
        <ele>123</ele>
        <time>2014-04-15T10:36:19Z</time>
      </trkpt>
      <trkpt lat="47.82079" lon="3.49817">
        <ele>123</ele>
        <time>2014-04-15T10:36:23Z</time>
      </trkpt>
      <trkpt lat="47.82084" lon="3.49816">
        <ele>124</ele>
        <time>2014-04-15T10:36:26Z</time>
      </trkpt>
      <trkpt lat="47.82089" lon="3.49816">
        <ele>124</ele>
        <time>2014-04-15T10:36:30Z</time>
      </trkpt>
      <trkpt lat="47.82094" lon="3.49818">
        <ele>124</ele>
        <time>2014-04-15T10:36:37Z</time>
      </trkpt>
      <trkpt lat="47.82098" lon="3.49814">
        <ele>124</ele>
        <time>2014-04-15T10:36:42Z</time>
      </trkpt>
      <trkpt lat="47.82102" lon="3.49809">
        <ele>123</ele>
        <time>2014-04-15T10:36:46Z</time>
      </trkpt>
      <trkpt lat="47.82107" lon="3.49806">
        <ele>123</ele>
        <time>2014-04-15T10:36:50Z</time>
      </trkpt>
      <trkpt lat="47.82111" lon="3.49808">
        <ele>123</ele>
        <time>2014-04-15T10:36:56Z</time>
      </trkpt>
      <trkpt lat="47.82112" lon="3.49815">
        <ele>124</ele>
        <time>2014-04-15T10:37:02Z</time>
      </trkpt>
      <trkpt lat="47.8211" lon="3.49824">
        <ele>124</ele>
        <time>2014-04-15T10:37:07Z</time>
      </trkpt>
      <trkpt lat="47.82107" lon="3.49829">
        <ele>124</ele>
        <time>2014-04-15T10:37:11Z</time>
      </trkpt>
      <trkpt lat="47.82103" lon="3.49834">
        <ele>126</ele>
        <time>2014-04-15T10:37:15Z</time>
      </trkpt>
      <trkpt lat="47.821" lon="3.4984">
        <ele>126</ele>
        <time>2014-04-15T10:37:19Z</time>
      </trkpt>
      <trkpt lat="47.82098" lon="3.49846">
        <ele>126</ele>
        <time>2014-04-15T10:37:22Z</time>
      </trkpt>
      <trkpt lat="47.82095" lon="3.49851">
        <ele>126</ele>
        <time>2014-04-15T10:37:26Z</time>
      </trkpt>
      <trkpt lat="47.82092" lon="3.49859">
        <ele>127</ele>
        <time>2014-04-15T10:37:29Z</time>
      </trkpt>
      <trkpt lat="47.82089" lon="3.49864">
        <ele>127</ele>
        <time>2014-04-15T10:37:33Z</time>
      </trkpt>
      <trkpt lat="47.82086" lon="3.49871">
        <ele>127</ele>
        <time>2014-04-15T10:37:38Z</time>
      </trkpt>
      <trkpt lat="47.82087" lon="3.49879">
        <ele>127</ele>
        <time>2014-04-15T10:37:48Z</time>
      </trkpt>
      <trkpt lat="47.82088" lon="3.49884">
        <ele>128</ele>
        <time>2014-04-15T10:38:02Z</time>
      </trkpt>
      <trkpt lat="47.82085" lon="3.49891">
        <ele>128</ele>
        <time>2014-04-15T10:38:07Z</time>
      </trkpt>
      <trkpt lat="47.82083" lon="3.49897">
        <ele>127</ele>
        <time>2014-04-15T10:38:12Z</time>
      </trkpt>
      <trkpt lat="47.82078" lon="3.49897">
        <ele>127</ele>
        <time>2014-04-15T10:38:18Z</time>
      </trkpt>
      <trkpt lat="47.82074" lon="3.49898">
        <ele>127</ele>
        <time>2014-04-15T10:38:23Z</time>
      </trkpt>
      <trkpt lat="47.8207" lon="3.49904">
        <ele>127</ele>
        <time>2014-04-15T10:38:28Z</time>
      </trkpt>
      <trkpt lat="47.82066" lon="3.49909">
        <ele>127</ele>
        <time>2014-04-15T10:38:37Z</time>
      </trkpt>
      <trkpt lat="47.82063" lon="3.49915">
        <ele>127</ele>
        <time>2014-04-15T10:38:42Z</time>
      </trkpt>
      <trkpt lat="47.82062" lon="3.49922">
        <ele>129</ele>
        <time>2014-04-15T10:38:46Z</time>
      </trkpt>
      <trkpt lat="47.82061" lon="3.49929">
        <ele>129</ele>
        <time>2014-04-15T10:38:52Z</time>
      </trkpt>
      <trkpt lat="47.82059" lon="3.49936">
        <ele>129</ele>
        <time>2014-04-15T10:38:58Z</time>
      </trkpt>
      <trkpt lat="47.82055" lon="3.49939">
        <ele>129</ele>
        <time>2014-04-15T10:39:04Z</time>
      </trkpt>
      <trkpt lat="47.82052" lon="3.49945">
        <ele>129</ele>
        <time>2014-04-15T10:39:08Z</time>
      </trkpt>
      <trkpt lat="47.82049" lon="3.49951">
        <ele>129</ele>
        <time>2014-04-15T10:39:12Z</time>
      </trkpt>
      <trkpt lat="47.82046" lon="3.49957">
        <ele>129</ele>
        <time>2014-04-15T10:39:17Z</time>
      </trkpt>
      <trkpt lat="47.82044" lon="3.49963">
        <ele>129</ele>
        <time>2014-04-15T10:39:24Z</time>
      </trkpt>
      <trkpt lat="47.82039" lon="3.49967">
        <ele>129</ele>
        <time>2014-04-15T10:39:30Z</time>
      </trkpt>
      <trkpt lat="47.82036" lon="3.49973">
        <ele>129</ele>
        <time>2014-04-15T10:39:37Z</time>
      </trkpt>
      <trkpt lat="47.82033" lon="3.49978">
        <ele>129</ele>
        <time>2014-04-15T10:39:41Z</time>
      </trkpt>
      <trkpt lat="47.8203" lon="3.49983">
        <ele>129</ele>
        <time>2014-04-15T10:39:45Z</time>
      </trkpt>
      <trkpt lat="47.82026" lon="3.49987">
        <ele>129</ele>
        <time>2014-04-15T10:39:49Z</time>
      </trkpt>
      <trkpt lat="47.82023" lon="3.49994">
        <ele>128</ele>
        <time>2014-04-15T10:39:53Z</time>
      </trkpt>
      <trkpt lat="47.8202" lon="3.5">
        <ele>130</ele>
        <time>2014-04-15T10:39:56Z</time>
      </trkpt>
      <trkpt lat="47.82017" lon="3.50006">
        <ele>130</ele>
        <time>2014-04-15T10:39:59Z</time>
      </trkpt>
      <trkpt lat="47.82016" lon="3.50013">
        <ele>130</ele>
        <time>2014-04-15T10:40:02Z</time>
      </trkpt>
      <trkpt lat="47.82015" lon="3.50021">
        <ele>130</ele>
        <time>2014-04-15T10:40:06Z</time>
      </trkpt>
      <trkpt lat="47.82013" lon="3.50029">
        <ele>131</ele>
        <time>2014-04-15T10:40:10Z</time>
      </trkpt>
      <trkpt lat="47.82011" lon="3.50035">
        <ele>131</ele>
        <time>2014-04-15T10:40:14Z</time>
      </trkpt>
      <trkpt lat="47.82007" lon="3.50039">
        <ele>131</ele>
        <time>2014-04-15T10:40:18Z</time>
      </trkpt>
      <trkpt lat="47.82003" lon="3.50045">
        <ele>131</ele>
        <time>2014-04-15T10:40:22Z</time>
      </trkpt>
      <trkpt lat="47.81999" lon="3.5005">
        <ele>127</ele>
        <time>2014-04-15T10:40:26Z</time>
      </trkpt>
      <trkpt lat="47.81995" lon="3.50056">
        <ele>127</ele>
        <time>2014-04-15T10:40:30Z</time>
      </trkpt>
      <trkpt lat="47.81992" lon="3.50061">
        <ele>128</ele>
        <time>2014-04-15T10:40:35Z</time>
      </trkpt>
      <trkpt lat="47.8199" lon="3.50068">
        <ele>128</ele>
        <time>2014-04-15T10:40:40Z</time>
      </trkpt>
      <trkpt lat="47.81987" lon="3.50073">
        <ele>128</ele>
        <time>2014-04-15T10:40:44Z</time>
      </trkpt>
      <trkpt lat="47.81981" lon="3.50077">
        <ele>128</ele>
        <time>2014-04-15T10:40:48Z</time>
      </trkpt>
      <trkpt lat="47.81979" lon="3.50084">
        <ele>128</ele>
        <time>2014-04-15T10:40:52Z</time>
      </trkpt>
      <trkpt lat="47.81979" lon="3.50092">
        <ele>128</ele>
        <time>2014-04-15T10:40:57Z</time>
      </trkpt>
      <trkpt lat="47.81976" lon="3.50097">
        <ele>128</ele>
        <time>2014-04-15T10:41:01Z</time>
      </trkpt>
      <trkpt lat="47.81972" lon="3.50101">
        <ele>128</ele>
        <time>2014-04-15T10:41:05Z</time>
      </trkpt>
      <trkpt lat="47.81968" lon="3.50107">
        <ele>128</ele>
        <time>2014-04-15T10:41:09Z</time>
      </trkpt>
      <trkpt lat="47.81966" lon="3.50113">
        <ele>128</ele>
        <time>2014-04-15T10:41:13Z</time>
      </trkpt>
      <trkpt lat="47.81963" lon="3.5012">
        <ele>128</ele>
        <time>2014-04-15T10:41:17Z</time>
      </trkpt>
      <trkpt lat="47.8196" lon="3.50126">
        <ele>128</ele>
        <time>2014-04-15T10:41:22Z</time>
      </trkpt>
      <trkpt lat="47.81956" lon="3.50132">
        <ele>127</ele>
        <time>2014-04-15T10:41:26Z</time>
      </trkpt>
      <trkpt lat="47.81953" lon="3.50137">
        <ele>127</ele>
        <time>2014-04-15T10:41:30Z</time>
      </trkpt>
      <trkpt lat="47.81953" lon="3.50145">
        <ele>127</ele>
        <time>2014-04-15T10:41:33Z</time>
      </trkpt>
      <trkpt lat="47.81952" lon="3.50152">
        <ele>127</ele>
        <time>2014-04-15T10:41:36Z</time>
      </trkpt>
      <trkpt lat="47.8195" lon="3.50158">
        <ele>127</ele>
        <time>2014-04-15T10:41:41Z</time>
      </trkpt>
      <trkpt lat="47.81949" lon="3.50166">
        <ele>127</ele>
        <time>2014-04-15T10:41:48Z</time>
      </trkpt>
      <trkpt lat="47.81945" lon="3.50171">
        <ele>128</ele>
        <time>2014-04-15T10:41:54Z</time>
      </trkpt>
      <trkpt lat="47.81942" lon="3.50177">
        <ele>127</ele>
        <time>2014-04-15T10:41:59Z</time>
      </trkpt>
      <trkpt lat="47.81942" lon="3.50184">
        <ele>128</ele>
        <time>2014-04-15T10:42:03Z</time>
      </trkpt>
      <trkpt lat="47.81938" lon="3.5019">
        <ele>128</ele>
        <time>2014-04-15T10:42:08Z</time>
      </trkpt>
      <trkpt lat="47.81935" lon="3.50195">
        <ele>128</ele>
        <time>2014-04-15T10:42:14Z</time>
      </trkpt>
      <trkpt lat="47.81935" lon="3.50202">
        <ele>128</ele>
        <time>2014-04-15T10:42:17Z</time>
      </trkpt>
      <trkpt lat="47.81935" lon="3.50207">
        <ele>128</ele>
        <time>2014-04-15T10:42:24Z</time>
      </trkpt>
      <trkpt lat="47.81933" lon="3.50216">
        <ele>128</ele>
        <time>2014-04-15T10:42:34Z</time>
      </trkpt>
      <trkpt lat="47.8193" lon="3.50221">
        <ele>128</ele>
        <time>2014-04-15T10:42:37Z</time>
      </trkpt>
      <trkpt lat="47.81928" lon="3.50228">
        <ele>127</ele>
        <time>2014-04-15T10:42:41Z</time>
      </trkpt>
      <trkpt lat="47.81928" lon="3.50238">
        <ele>127</ele>
        <time>2014-04-15T10:42:46Z</time>
      </trkpt>
      <trkpt lat="47.81926" lon="3.50245">
        <ele>126</ele>
        <time>2014-04-15T10:42:49Z</time>
      </trkpt>
      <trkpt lat="47.81924" lon="3.50252">
        <ele>127</ele>
        <time>2014-04-15T10:42:52Z</time>
      </trkpt>
      <trkpt lat="47.81921" lon="3.50258">
        <ele>127</ele>
        <time>2014-04-15T10:42:56Z</time>
      </trkpt>
      <trkpt lat="47.81918" lon="3.50264">
        <ele>127</ele>
        <time>2014-04-15T10:43:00Z</time>
      </trkpt>
      <trkpt lat="47.81915" lon="3.5027">
        <ele>124</ele>
        <time>2014-04-15T10:43:04Z</time>
      </trkpt>
      <trkpt lat="47.81911" lon="3.50277">
        <ele>124</ele>
        <time>2014-04-15T10:43:10Z</time>
      </trkpt>
      <trkpt lat="47.81909" lon="3.50283">
        <ele>124</ele>
        <time>2014-04-15T10:43:13Z</time>
      </trkpt>
      <trkpt lat="47.81905" lon="3.50288">
        <ele>124</ele>
        <time>2014-04-15T10:43:16Z</time>
      </trkpt>
      <trkpt lat="47.81902" lon="3.50293">
        <ele>124</ele>
        <time>2014-04-15T10:43:19Z</time>
      </trkpt>
      <trkpt lat="47.81898" lon="3.50299">
        <ele>124</ele>
        <time>2014-04-15T10:43:23Z</time>
      </trkpt>
      <trkpt lat="47.81896" lon="3.50306">
        <ele>124</ele>
        <time>2014-04-15T10:43:27Z</time>
      </trkpt>
      <trkpt lat="47.81893" lon="3.50312">
        <ele>124</ele>
        <time>2014-04-15T10:43:31Z</time>
      </trkpt>
      <trkpt lat="47.81889" lon="3.50317">
        <ele>124</ele>
        <time>2014-04-15T10:43:35Z</time>
      </trkpt>
      <trkpt lat="47.81886" lon="3.50323">
        <ele>124</ele>
        <time>2014-04-15T10:43:40Z</time>
      </trkpt>
      <trkpt lat="47.81882" lon="3.50327">
        <ele>124</ele>
        <time>2014-04-15T10:43:44Z</time>
      </trkpt>
      <trkpt lat="47.81879" lon="3.50333">
        <ele>123</ele>
        <time>2014-04-15T10:43:48Z</time>
      </trkpt>
      <trkpt lat="47.81875" lon="3.50338">
        <ele>124</ele>
        <time>2014-04-15T10:43:53Z</time>
      </trkpt>
      <trkpt lat="47.8187" lon="3.50342">
        <ele>124</ele>
        <time>2014-04-15T10:43:58Z</time>
      </trkpt>
      <trkpt lat="47.81866" lon="3.50346">
        <ele>124</ele>
        <time>2014-04-15T10:44:02Z</time>
      </trkpt>
      <trkpt lat="47.81861" lon="3.50349">
        <ele>123</ele>
        <time>2014-04-15T10:44:07Z</time>
      </trkpt>
      <trkpt lat="47.81855" lon="3.50351">
        <ele>123</ele>
        <time>2014-04-15T10:44:11Z</time>
      </trkpt>
      <trkpt lat="47.8185" lon="3.50353">
        <ele>123</ele>
        <time>2014-04-15T10:44:14Z</time>
      </trkpt>
      <trkpt lat="47.81845" lon="3.50357">
        <ele>123</ele>
        <time>2014-04-15T10:44:17Z</time>
      </trkpt>
      <trkpt lat="47.81841" lon="3.50361">
        <ele>123</ele>
        <time>2014-04-15T10:44:21Z</time>
      </trkpt>
      <trkpt lat="47.81837" lon="3.50365">
        <ele>123</ele>
        <time>2014-04-15T10:44:25Z</time>
      </trkpt>
      <trkpt lat="47.81832" lon="3.50368">
        <ele>122</ele>
        <time>2014-04-15T10:44:29Z</time>
      </trkpt>
      <trkpt lat="47.81827" lon="3.5037">
        <ele>122</ele>
        <time>2014-04-15T10:44:33Z</time>
      </trkpt>
      <trkpt lat="47.81822" lon="3.50372">
        <ele>122</ele>
        <time>2014-04-15T10:44:36Z</time>
      </trkpt>
      <trkpt lat="47.81818" lon="3.50373">
        <ele>122</ele>
        <time>2014-04-15T10:44:39Z</time>
      </trkpt>
      <trkpt lat="47.81813" lon="3.50378">
        <ele>122</ele>
        <time>2014-04-15T10:44:43Z</time>
      </trkpt>
      <trkpt lat="47.81809" lon="3.50382">
        <ele>122</ele>
        <time>2014-04-15T10:44:47Z</time>
      </trkpt>
      <trkpt lat="47.81803" lon="3.50384">
        <ele>122</ele>
        <time>2014-04-15T10:44:51Z</time>
      </trkpt>
      <trkpt lat="47.81798" lon="3.50386">
        <ele>122</ele>
        <time>2014-04-15T10:44:55Z</time>
      </trkpt>
      <trkpt lat="47.81794" lon="3.50389">
        <ele>122</ele>
        <time>2014-04-15T10:44:59Z</time>
      </trkpt>
      <trkpt lat="47.81789" lon="3.50391">
        <ele>122</ele>
        <time>2014-04-15T10:45:04Z</time>
      </trkpt>
      <trkpt lat="47.81785" lon="3.50394">
        <ele>123</ele>
        <time>2014-04-15T10:45:07Z</time>
      </trkpt>
      <trkpt lat="47.8178" lon="3.50398">
        <ele>123</ele>
        <time>2014-04-15T10:45:11Z</time>
      </trkpt>
      <trkpt lat="47.81776" lon="3.50402">
        <ele>123</ele>
        <time>2014-04-15T10:45:14Z</time>
      </trkpt>
      <trkpt lat="47.81773" lon="3.50406">
        <ele>123</ele>
        <time>2014-04-15T10:45:17Z</time>
      </trkpt>
      <trkpt lat="47.81777" lon="3.50404">
        <ele>123</ele>
        <time>2014-04-15T10:45:48Z</time>
      </trkpt>
      <trkpt lat="47.81779" lon="3.504">
        <ele>123</ele>
        <time>2014-04-15T10:45:50Z</time>
      </trkpt>
      <trkpt lat="47.81779" lon="3.50395">
        <ele>123</ele>
        <time>2014-04-15T10:45:57Z</time>
      </trkpt>
      <trkpt lat="47.81776" lon="3.50389">
        <ele>123</ele>
        <time>2014-04-15T10:46:04Z</time>
      </trkpt>
      <trkpt lat="47.81772" lon="3.50387">
        <ele>122</ele>
        <time>2014-04-15T10:46:25Z</time>
      </trkpt>
      <trkpt lat="47.81771" lon="3.50387">
        <ele>123</ele>
        <time>2014-04-15T10:46:51Z</time>
      </trkpt>
      <trkpt lat="47.81766" lon="3.50389">
        <ele>123</ele>
        <time>2014-04-15T10:46:55Z</time>
      </trkpt>
      <trkpt lat="47.81762" lon="3.50392">
        <ele>123</ele>
        <time>2014-04-15T10:46:58Z</time>
      </trkpt>
      <trkpt lat="47.81757" lon="3.50393">
        <ele>123</ele>
        <time>2014-04-15T10:47:02Z</time>
      </trkpt>
      <trkpt lat="47.81751" lon="3.50394">
        <ele>123</ele>
        <time>2014-04-15T10:47:05Z</time>
      </trkpt>
      <trkpt lat="47.81747" lon="3.50396">
        <ele>125</ele>
        <time>2014-04-15T10:47:09Z</time>
      </trkpt>
      <trkpt lat="47.81744" lon="3.50407">
        <ele>125</ele>
        <time>2014-04-15T10:47:17Z</time>
      </trkpt>
      <trkpt lat="47.81738" lon="3.50407">
        <ele>125</ele>
        <time>2014-04-15T10:47:26Z</time>
      </trkpt>
      <trkpt lat="47.81734" lon="3.5041">
        <ele>125</ele>
        <time>2014-04-15T10:47:29Z</time>
      </trkpt>
      <trkpt lat="47.81725" lon="3.5041">
        <ele>125</ele>
        <time>2014-04-15T10:47:46Z</time>
      </trkpt>
      <trkpt lat="47.81722" lon="3.50415">
        <ele>125</ele>
        <time>2014-04-15T10:47:57Z</time>
      </trkpt>
      <trkpt lat="47.81717" lon="3.50419">
        <ele>127</ele>
        <time>2014-04-15T10:48:12Z</time>
      </trkpt>
      <trkpt lat="47.81712" lon="3.50414">
        <ele>125</ele>
        <time>2014-04-15T10:48:44Z</time>
      </trkpt>
      <trkpt lat="47.81707" lon="3.50409">
        <ele>126</ele>
        <time>2014-04-15T10:48:49Z</time>
      </trkpt>
      <trkpt lat="47.81703" lon="3.50412">
        <ele>126</ele>
        <time>2014-04-15T10:48:57Z</time>
      </trkpt>
      <trkpt lat="47.81698" lon="3.50415">
        <ele>126</ele>
        <time>2014-04-15T10:49:07Z</time>
      </trkpt>
      <trkpt lat="47.81693" lon="3.50418">
        <ele>128</ele>
        <time>2014-04-15T10:49:13Z</time>
      </trkpt>
      <trkpt lat="47.81691" lon="3.50412">
        <ele>126</ele>
        <time>2014-04-15T10:49:20Z</time>
      </trkpt>
      <trkpt lat="47.81689" lon="3.50406">
        <ele>126</ele>
        <time>2014-04-15T10:49:25Z</time>
      </trkpt>
      <trkpt lat="47.81684" lon="3.50404">
        <ele>126</ele>
        <time>2014-04-15T10:49:29Z</time>
      </trkpt>
      <trkpt lat="47.81679" lon="3.50405">
        <ele>127</ele>
        <time>2014-04-15T10:49:33Z</time>
      </trkpt>
      <trkpt lat="47.81674" lon="3.50405">
        <ele>127</ele>
        <time>2014-04-15T10:49:39Z</time>
      </trkpt>
      <trkpt lat="47.81669" lon="3.50406">
        <ele>127</ele>
        <time>2014-04-15T10:49:44Z</time>
      </trkpt>
      <trkpt lat="47.81665" lon="3.5041">
        <ele>129</ele>
        <time>2014-04-15T10:49:48Z</time>
      </trkpt>
      <trkpt lat="47.81663" lon="3.50417">
        <ele>129</ele>
        <time>2014-04-15T10:49:52Z</time>
      </trkpt>
      <trkpt lat="47.81661" lon="3.50423">
        <ele>130</ele>
        <time>2014-04-15T10:49:57Z</time>
      </trkpt>
      <trkpt lat="47.81657" lon="3.50427">
        <ele>131</ele>
        <time>2014-04-15T10:50:01Z</time>
      </trkpt>
      <trkpt lat="47.81652" lon="3.50432">
        <ele>131</ele>
        <time>2014-04-15T10:50:08Z</time>
      </trkpt>
      <trkpt lat="47.81648" lon="3.50437">
        <ele>132</ele>
        <time>2014-04-15T10:50:12Z</time>
      </trkpt>
      <trkpt lat="47.81643" lon="3.50438">
        <ele>132</ele>
        <time>2014-04-15T10:50:18Z</time>
      </trkpt>
      <trkpt lat="47.81638" lon="3.50441">
        <ele>133</ele>
        <time>2014-04-15T10:50:24Z</time>
      </trkpt>
      <trkpt lat="47.81633" lon="3.50442">
        <ele>133</ele>
        <time>2014-04-15T10:50:28Z</time>
      </trkpt>
      <trkpt lat="47.81628" lon="3.50443">
        <ele>133</ele>
        <time>2014-04-15T10:50:32Z</time>
      </trkpt>
      <trkpt lat="47.81625" lon="3.50449">
        <ele>134</ele>
        <time>2014-04-15T10:50:36Z</time>
      </trkpt>
      <trkpt lat="47.81622" lon="3.50457">
        <ele>134</ele>
        <time>2014-04-15T10:50:42Z</time>
      </trkpt>
      <trkpt lat="47.81619" lon="3.50462">
        <ele>134</ele>
        <time>2014-04-15T10:50:46Z</time>
      </trkpt>
      <trkpt lat="47.81615" lon="3.50467">
        <ele>134</ele>
        <time>2014-04-15T10:50:51Z</time>
      </trkpt>
      <trkpt lat="47.81612" lon="3.50474">
        <ele>135</ele>
        <time>2014-04-15T10:50:55Z</time>
      </trkpt>
      <trkpt lat="47.81611" lon="3.50481">
        <ele>135</ele>
        <time>2014-04-15T10:51:02Z</time>
      </trkpt>
      <trkpt lat="47.81607" lon="3.50487">
        <ele>135</ele>
        <time>2014-04-15T10:51:09Z</time>
      </trkpt>
      <trkpt lat="47.81604" lon="3.50493">
        <ele>135</ele>
        <time>2014-04-15T10:51:13Z</time>
      </trkpt>
      <trkpt lat="47.81601" lon="3.50497">
        <ele>136</ele>
        <time>2014-04-15T10:51:16Z</time>
      </trkpt>
      <trkpt lat="47.81596" lon="3.50501">
        <ele>137</ele>
        <time>2014-04-15T10:51:20Z</time>
      </trkpt>
      <trkpt lat="47.81592" lon="3.50506">
        <ele>137</ele>
        <time>2014-04-15T10:51:25Z</time>
      </trkpt>
      <trkpt lat="47.81588" lon="3.50512">
        <ele>137</ele>
        <time>2014-04-15T10:51:29Z</time>
      </trkpt>
      <trkpt lat="47.81584" lon="3.50517">
        <ele>137</ele>
        <time>2014-04-15T10:51:33Z</time>
      </trkpt>
      <trkpt lat="47.8158" lon="3.50521">
        <ele>142</ele>
        <time>2014-04-15T10:51:39Z</time>
      </trkpt>
      <trkpt lat="47.81576" lon="3.50524">
        <ele>142</ele>
        <time>2014-04-15T10:51:44Z</time>
      </trkpt>
      <trkpt lat="47.81572" lon="3.5053">
        <ele>143</ele>
        <time>2014-04-15T10:51:47Z</time>
      </trkpt>
      <trkpt lat="47.81569" lon="3.50538">
        <ele>143</ele>
        <time>2014-04-15T10:51:50Z</time>
      </trkpt>
      <trkpt lat="47.81566" lon="3.50544">
        <ele>143</ele>
        <time>2014-04-15T10:51:54Z</time>
      </trkpt>
      <trkpt lat="47.81563" lon="3.5055">
        <ele>144</ele>
        <time>2014-04-15T10:51:58Z</time>
      </trkpt>
      <trkpt lat="47.81559" lon="3.50555">
        <ele>144</ele>
        <time>2014-04-15T10:52:03Z</time>
      </trkpt>
      <trkpt lat="47.81556" lon="3.5056">
        <ele>144</ele>
        <time>2014-04-15T10:52:08Z</time>
      </trkpt>
      <trkpt lat="47.81552" lon="3.50566">
        <ele>144</ele>
        <time>2014-04-15T10:52:13Z</time>
      </trkpt>
      <trkpt lat="47.81546" lon="3.50569">
        <ele>145</ele>
        <time>2014-04-15T10:52:17Z</time>
      </trkpt>
      <trkpt lat="47.81542" lon="3.50573">
        <ele>145</ele>
        <time>2014-04-15T10:52:21Z</time>
      </trkpt>
      <trkpt lat="47.81538" lon="3.50577">
        <ele>146</ele>
        <time>2014-04-15T10:52:25Z</time>
      </trkpt>
      <trkpt lat="47.81537" lon="3.50585">
        <ele>148</ele>
        <time>2014-04-15T10:52:29Z</time>
      </trkpt>
      <trkpt lat="47.81535" lon="3.50591">
        <ele>148</ele>
        <time>2014-04-15T10:52:36Z</time>
      </trkpt>
      <trkpt lat="47.81534" lon="3.50599">
        <ele>149</ele>
        <time>2014-04-15T10:52:40Z</time>
      </trkpt>
      <trkpt lat="47.81531" lon="3.50607">
        <ele>149</ele>
        <time>2014-04-15T10:52:45Z</time>
      </trkpt>
      <trkpt lat="47.81529" lon="3.50614">
        <ele>149</ele>
        <time>2014-04-15T10:52:49Z</time>
      </trkpt>
      <trkpt lat="47.81526" lon="3.50619">
        <ele>149</ele>
        <time>2014-04-15T10:52:53Z</time>
      </trkpt>
      <trkpt lat="47.81525" lon="3.50626">
        <ele>150</ele>
        <time>2014-04-15T10:52:57Z</time>
      </trkpt>
      <trkpt lat="47.81527" lon="3.50633">
        <ele>150</ele>
        <time>2014-04-15T10:53:01Z</time>
      </trkpt>
      <trkpt lat="47.81527" lon="3.50641">
        <ele>150</ele>
        <time>2014-04-15T10:53:05Z</time>
      </trkpt>
      <trkpt lat="47.81525" lon="3.50647">
        <ele>150</ele>
        <time>2014-04-15T10:53:08Z</time>
      </trkpt>
      <trkpt lat="47.81523" lon="3.50653">
        <ele>151</ele>
        <time>2014-04-15T10:53:12Z</time>
      </trkpt>
      <trkpt lat="47.81522" lon="3.5066">
        <ele>152</ele>
        <time>2014-04-15T10:53:20Z</time>
      </trkpt>
      <trkpt lat="47.81521" lon="3.50668">
        <ele>153</ele>
        <time>2014-04-15T10:53:25Z</time>
      </trkpt>
      <trkpt lat="47.8152" lon="3.50675">
        <ele>153</ele>
        <time>2014-04-15T10:53:32Z</time>
      </trkpt>
      <trkpt lat="47.8152" lon="3.50683">
        <ele>153</ele>
        <time>2014-04-15T10:53:37Z</time>
      </trkpt>
      <trkpt lat="47.81519" lon="3.50691">
        <ele>153</ele>
        <time>2014-04-15T10:53:41Z</time>
      </trkpt>
      <trkpt lat="47.81519" lon="3.50699">
        <ele>153</ele>
        <time>2014-04-15T10:53:44Z</time>
      </trkpt>
      <trkpt lat="47.81518" lon="3.50706">
        <ele>153</ele>
        <time>2014-04-15T10:53:49Z</time>
      </trkpt>
      <trkpt lat="47.81515" lon="3.50713">
        <ele>153</ele>
        <time>2014-04-15T10:53:55Z</time>
      </trkpt>
      <trkpt lat="47.81513" lon="3.50721">
        <ele>153</ele>
        <time>2014-04-15T10:53:59Z</time>
      </trkpt>
      <trkpt lat="47.81511" lon="3.50729">
        <ele>154</ele>
        <time>2014-04-15T10:54:03Z</time>
      </trkpt>
      <trkpt lat="47.81512" lon="3.50736">
        <ele>154</ele>
        <time>2014-04-15T10:54:06Z</time>
      </trkpt>
      <trkpt lat="47.81512" lon="3.50743">
        <ele>155</ele>
        <time>2014-04-15T10:54:11Z</time>
      </trkpt>
      <trkpt lat="47.81511" lon="3.5075">
        <ele>156</ele>
        <time>2014-04-15T10:54:15Z</time>
      </trkpt>
      <trkpt lat="47.81509" lon="3.50758">
        <ele>156</ele>
        <time>2014-04-15T10:54:19Z</time>
      </trkpt>
      <trkpt lat="47.81508" lon="3.50766">
        <ele>155</ele>
        <time>2014-04-15T10:54:25Z</time>
      </trkpt>
      <trkpt lat="47.81506" lon="3.50774">
        <ele>155</ele>
        <time>2014-04-15T10:54:30Z</time>
      </trkpt>
      <trkpt lat="47.81505" lon="3.50781">
        <ele>155</ele>
        <time>2014-04-15T10:54:34Z</time>
      </trkpt>
      <trkpt lat="47.81505" lon="3.50788">
        <ele>155</ele>
        <time>2014-04-15T10:54:39Z</time>
      </trkpt>
      <trkpt lat="47.81504" lon="3.50795">
        <ele>155</ele>
        <time>2014-04-15T10:54:42Z</time>
      </trkpt>
      <trkpt lat="47.815" lon="3.50802">
        <ele>155</ele>
        <time>2014-04-15T10:54:46Z</time>
      </trkpt>
      <trkpt lat="47.81497" lon="3.50807">
        <ele>160</ele>
        <time>2014-04-15T10:54:52Z</time>
      </trkpt>
      <trkpt lat="47.81497" lon="3.50814">
        <ele>159</ele>
        <time>2014-04-15T10:54:56Z</time>
      </trkpt>
      <trkpt lat="47.81495" lon="3.5082">
        <ele>159</ele>
        <time>2014-04-15T10:54:59Z</time>
      </trkpt>
      <trkpt lat="47.81496" lon="3.50828">
        <ele>159</ele>
        <time>2014-04-15T10:55:02Z</time>
      </trkpt>
      <trkpt lat="47.81496" lon="3.50836">
        <ele>159</ele>
        <time>2014-04-15T10:55:06Z</time>
      </trkpt>
      <trkpt lat="47.81496" lon="3.50843">
        <ele>159</ele>
        <time>2014-04-15T10:55:10Z</time>
      </trkpt>
      <trkpt lat="47.81495" lon="3.50851">
        <ele>159</ele>
        <time>2014-04-15T10:55:15Z</time>
      </trkpt>
      <trkpt lat="47.81492" lon="3.50857">
        <ele>160</ele>
        <time>2014-04-15T10:55:19Z</time>
      </trkpt>
      <trkpt lat="47.81488" lon="3.50862">
        <ele>160</ele>
        <time>2014-04-15T10:55:23Z</time>
      </trkpt>
      <trkpt lat="47.81485" lon="3.50867">
        <ele>160</ele>
        <time>2014-04-15T10:55:26Z</time>
      </trkpt>
      <trkpt lat="47.81484" lon="3.50875">
        <ele>160</ele>
        <time>2014-04-15T10:55:33Z</time>
      </trkpt>
      <trkpt lat="47.81485" lon="3.50878">
        <ele>160</ele>
        <time>2014-04-15T10:55:39Z</time>
      </trkpt>
      <trkpt lat="47.81489" lon="3.50882">
        <ele>160</ele>
        <time>2014-04-15T10:55:46Z</time>
      </trkpt>
      <trkpt lat="47.81486" lon="3.50888">
        <ele>160</ele>
        <time>2014-04-15T10:56:01Z</time>
      </trkpt>
      <trkpt lat="47.8148" lon="3.50894">
        <ele>160</ele>
        <time>2014-04-15T10:56:10Z</time>
      </trkpt>
      <trkpt lat="47.81474" lon="3.50901">
        <ele>160</ele>
        <time>2014-04-15T10:56:13Z</time>
      </trkpt>
      <trkpt lat="47.81469" lon="3.50905">
        <ele>161</ele>
        <time>2014-04-15T10:56:16Z</time>
      </trkpt>
      <trkpt lat="47.81467" lon="3.50912">
        <ele>161</ele>
        <time>2014-04-15T10:56:22Z</time>
      </trkpt>
      <trkpt lat="47.81465" lon="3.50919">
        <ele>160</ele>
        <time>2014-04-15T10:56:25Z</time>
      </trkpt>
      <trkpt lat="47.81463" lon="3.50925">
        <ele>160</ele>
        <time>2014-04-15T10:56:29Z</time>
      </trkpt>
      <trkpt lat="47.81461" lon="3.50932">
        <ele>160</ele>
        <time>2014-04-15T10:56:36Z</time>
      </trkpt>
      <trkpt lat="47.81457" lon="3.50937">
        <ele>160</ele>
        <time>2014-04-15T10:56:40Z</time>
      </trkpt>
      <trkpt lat="47.81454" lon="3.50944">
        <ele>160</ele>
        <time>2014-04-15T10:56:49Z</time>
      </trkpt>
      <trkpt lat="47.81452" lon="3.50951">
        <ele>160</ele>
        <time>2014-04-15T10:56:52Z</time>
      </trkpt>
      <trkpt lat="47.81449" lon="3.50958">
        <ele>160</ele>
        <time>2014-04-15T10:56:55Z</time>
      </trkpt>
      <trkpt lat="47.81446" lon="3.50965">
        <ele>160</ele>
        <time>2014-04-15T10:56:58Z</time>
      </trkpt>
      <trkpt lat="47.81445" lon="3.50973">
        <ele>159</ele>
        <time>2014-04-15T10:57:02Z</time>
      </trkpt>
      <trkpt lat="47.81441" lon="3.50979">
        <ele>159</ele>
        <time>2014-04-15T10:57:09Z</time>
      </trkpt>
      <trkpt lat="47.81437" lon="3.50986">
        <ele>159</ele>
        <time>2014-04-15T10:57:13Z</time>
      </trkpt>
      <trkpt lat="47.81434" lon="3.50993">
        <ele>160</ele>
        <time>2014-04-15T10:57:16Z</time>
      </trkpt>
      <trkpt lat="47.81431" lon="3.50999">
        <ele>160</ele>
        <time>2014-04-15T10:57:20Z</time>
      </trkpt>
      <trkpt lat="47.8143" lon="3.51006">
        <ele>158</ele>
        <time>2014-04-15T10:57:24Z</time>
      </trkpt>
      <trkpt lat="47.81428" lon="3.51014">
        <ele>158</ele>
        <time>2014-04-15T10:57:28Z</time>
      </trkpt>
      <trkpt lat="47.81424" lon="3.51017">
        <ele>157</ele>
        <time>2014-04-15T10:57:33Z</time>
      </trkpt>
      <trkpt lat="47.8142" lon="3.5102">
        <ele>157</ele>
        <time>2014-04-15T10:57:39Z</time>
      </trkpt>
      <trkpt lat="47.81417" lon="3.51026">
        <ele>157</ele>
        <time>2014-04-15T10:57:43Z</time>
      </trkpt>
      <trkpt lat="47.81415" lon="3.51032">
        <ele>159</ele>
        <time>2014-04-15T10:57:47Z</time>
      </trkpt>
      <trkpt lat="47.81412" lon="3.51039">
        <ele>159</ele>
        <time>2014-04-15T10:57:51Z</time>
      </trkpt>
      <trkpt lat="47.81411" lon="3.51047">
        <ele>159</ele>
        <time>2014-04-15T10:57:55Z</time>
      </trkpt>
      <trkpt lat="47.81408" lon="3.51053">
        <ele>158</ele>
        <time>2014-04-15T10:57:59Z</time>
      </trkpt>
      <trkpt lat="47.81406" lon="3.51059">
        <ele>158</ele>
        <time>2014-04-15T10:58:05Z</time>
      </trkpt>
      <trkpt lat="47.81403" lon="3.51065">
        <ele>158</ele>
        <time>2014-04-15T10:58:08Z</time>
      </trkpt>
      <trkpt lat="47.814" lon="3.51071">
        <ele>158</ele>
        <time>2014-04-15T10:58:13Z</time>
      </trkpt>
      <trkpt lat="47.81398" lon="3.51079">
        <ele>158</ele>
        <time>2014-04-15T10:58:18Z</time>
      </trkpt>
      <trkpt lat="47.81393" lon="3.51086">
        <ele>156</ele>
        <time>2014-04-15T10:58:23Z</time>
      </trkpt>
      <trkpt lat="47.8139" lon="3.51092">
        <ele>156</ele>
        <time>2014-04-15T10:58:26Z</time>
      </trkpt>
      <trkpt lat="47.81388" lon="3.51099">
        <ele>156</ele>
        <time>2014-04-15T10:58:30Z</time>
      </trkpt>
      <trkpt lat="47.81388" lon="3.51106">
        <ele>156</ele>
        <time>2014-04-15T10:58:35Z</time>
      </trkpt>
      <trkpt lat="47.81385" lon="3.51112">
        <ele>156</ele>
        <time>2014-04-15T10:58:39Z</time>
      </trkpt>
      <trkpt lat="47.81383" lon="3.51119">
        <ele>156</ele>
        <time>2014-04-15T10:58:43Z</time>
      </trkpt>
      <trkpt lat="47.81383" lon="3.51127">
        <ele>156</ele>
        <time>2014-04-15T10:58:47Z</time>
      </trkpt>
      <trkpt lat="47.81381" lon="3.51133">
        <ele>156</ele>
        <time>2014-04-15T10:58:50Z</time>
      </trkpt>
      <trkpt lat="47.81379" lon="3.51141">
        <ele>156</ele>
        <time>2014-04-15T10:58:55Z</time>
      </trkpt>
      <trkpt lat="47.81379" lon="3.51148">
        <ele>155</ele>
        <time>2014-04-15T10:58:59Z</time>
      </trkpt>
      <trkpt lat="47.81377" lon="3.51155">
        <ele>155</ele>
        <time>2014-04-15T10:59:04Z</time>
      </trkpt>
      <trkpt lat="47.81382" lon="3.51159">
        <ele>155</ele>
        <time>2014-04-15T10:59:09Z</time>
      </trkpt>
      <trkpt lat="47.8138" lon="3.51166">
        <ele>155</ele>
        <time>2014-04-15T10:59:14Z</time>
      </trkpt>
      <trkpt lat="47.81379" lon="3.51172">
        <ele>153</ele>
        <time>2014-04-15T10:59:17Z</time>
      </trkpt>
      <trkpt lat="47.81377" lon="3.5118">
        <ele>153</ele>
        <time>2014-04-15T10:59:21Z</time>
      </trkpt>
      <trkpt lat="47.81372" lon="3.51188">
        <ele>153</ele>
        <time>2014-04-15T10:59:24Z</time>
      </trkpt>
      <trkpt lat="47.81367" lon="3.51193">
        <ele>153</ele>
        <time>2014-04-15T10:59:27Z</time>
      </trkpt>
      <trkpt lat="47.81363" lon="3.51195">
        <ele>153</ele>
        <time>2014-04-15T10:59:39Z</time>
      </trkpt>
      <trkpt lat="47.81361" lon="3.51203">
        <ele>153</ele>
        <time>2014-04-15T10:59:48Z</time>
      </trkpt>
      <trkpt lat="47.81359" lon="3.51209">
        <ele>153</ele>
        <time>2014-04-15T10:59:55Z</time>
      </trkpt>
      <trkpt lat="47.8136" lon="3.51217">
        <ele>153</ele>
        <time>2014-04-15T10:59:59Z</time>
      </trkpt>
      <trkpt lat="47.81357" lon="3.51222">
        <ele>153</ele>
        <time>2014-04-15T11:00:04Z</time>
      </trkpt>
      <trkpt lat="47.81354" lon="3.51227">
        <ele>153</ele>
        <time>2014-04-15T11:00:09Z</time>
      </trkpt>
      <trkpt lat="47.81351" lon="3.51234">
        <ele>153</ele>
        <time>2014-04-15T11:00:12Z</time>
      </trkpt>
      <trkpt lat="47.81348" lon="3.51239">
        <ele>152</ele>
        <time>2014-04-15T11:00:14Z</time>
      </trkpt>
      <trkpt lat="47.81346" lon="3.51246">
        <ele>152</ele>
        <time>2014-04-15T11:00:17Z</time>
      </trkpt>
      <trkpt lat="47.81343" lon="3.51252">
        <ele>151</ele>
        <time>2014-04-15T11:00:19Z</time>
      </trkpt>
      <trkpt lat="47.81341" lon="3.5126">
        <ele>151</ele>
        <time>2014-04-15T11:00:22Z</time>
      </trkpt>
      <trkpt lat="47.81338" lon="3.51265">
        <ele>151</ele>
        <time>2014-04-15T11:00:25Z</time>
      </trkpt>
      <trkpt lat="47.81336" lon="3.51272">
        <ele>151</ele>
        <time>2014-04-15T11:00:29Z</time>
      </trkpt>
      <trkpt lat="47.81331" lon="3.51275">
        <ele>151</ele>
        <time>2014-04-15T11:00:34Z</time>
      </trkpt>
      <trkpt lat="47.81329" lon="3.51282">
        <ele>151</ele>
        <time>2014-04-15T11:00:40Z</time>
      </trkpt>
      <trkpt lat="47.81328" lon="3.51289">
        <ele>151</ele>
        <time>2014-04-15T11:00:44Z</time>
      </trkpt>
      <trkpt lat="47.81328" lon="3.51297">
        <ele>151</ele>
        <time>2014-04-15T11:00:47Z</time>
      </trkpt>
      <trkpt lat="47.81327" lon="3.51304">
        <ele>150</ele>
        <time>2014-04-15T11:00:51Z</time>
      </trkpt>
      <trkpt lat="47.81328" lon="3.51312">
        <ele>150</ele>
        <time>2014-04-15T11:00:55Z</time>
      </trkpt>
      <trkpt lat="47.81326" lon="3.51321">
        <ele>149</ele>
        <time>2014-04-15T11:00:58Z</time>
      </trkpt>
      <trkpt lat="47.81322" lon="3.51326">
        <ele>149</ele>
        <time>2014-04-15T11:01:02Z</time>
      </trkpt>
      <trkpt lat="47.81319" lon="3.51333">
        <ele>149</ele>
        <time>2014-04-15T11:01:06Z</time>
      </trkpt>
      <trkpt lat="47.81316" lon="3.5134">
        <ele>148</ele>
        <time>2014-04-15T11:01:14Z</time>
      </trkpt>
      <trkpt lat="47.81314" lon="3.51346">
        <ele>148</ele>
        <time>2014-04-15T11:01:19Z</time>
      </trkpt>
      <trkpt lat="47.81311" lon="3.51352">
        <ele>148</ele>
        <time>2014-04-15T11:01:23Z</time>
      </trkpt>
      <trkpt lat="47.81309" lon="3.51355">
        <ele>148</ele>
        <time>2014-04-15T11:01:29Z</time>
      </trkpt>
      <trkpt lat="47.81307" lon="3.51362">
        <ele>147</ele>
        <time>2014-04-15T11:01:37Z</time>
      </trkpt>
      <trkpt lat="47.81306" lon="3.51369">
        <ele>147</ele>
        <time>2014-04-15T11:01:42Z</time>
      </trkpt>
      <trkpt lat="47.81305" lon="3.51379">
        <ele>147</ele>
        <time>2014-04-15T11:02:05Z</time>
      </trkpt>
      <trkpt lat="47.81304" lon="3.51385">
        <ele>147</ele>
        <time>2014-04-15T11:02:09Z</time>
      </trkpt>
      <trkpt lat="47.81301" lon="3.51392">
        <ele>147</ele>
        <time>2014-04-15T11:02:13Z</time>
      </trkpt>
      <trkpt lat="47.813" lon="3.514">
        <ele>147</ele>
        <time>2014-04-15T11:02:19Z</time>
      </trkpt>
      <trkpt lat="47.81297" lon="3.51405">
        <ele>147</ele>
        <time>2014-04-15T11:02:22Z</time>
      </trkpt>
      <trkpt lat="47.81295" lon="3.51412">
        <ele>146</ele>
        <time>2014-04-15T11:02:28Z</time>
      </trkpt>
      <trkpt lat="47.81293" lon="3.51418">
        <ele>144</ele>
        <time>2014-04-15T11:02:32Z</time>
      </trkpt>
      <trkpt lat="47.8129" lon="3.51425">
        <ele>144</ele>
        <time>2014-04-15T11:02:40Z</time>
      </trkpt>
      <trkpt lat="47.81287" lon="3.5143">
        <ele>144</ele>
        <time>2014-04-15T11:02:44Z</time>
      </trkpt>
      <trkpt lat="47.81284" lon="3.51436">
        <ele>144</ele>
        <time>2014-04-15T11:02:48Z</time>
      </trkpt>
      <trkpt lat="47.81281" lon="3.51442">
        <ele>143</ele>
        <time>2014-04-15T11:02:51Z</time>
      </trkpt>
      <trkpt lat="47.81278" lon="3.51448">
        <ele>143</ele>
        <time>2014-04-15T11:02:55Z</time>
      </trkpt>
      <trkpt lat="47.81275" lon="3.51454">
        <ele>143</ele>
        <time>2014-04-15T11:02:58Z</time>
      </trkpt>
      <trkpt lat="47.81273" lon="3.51461">
        <ele>143</ele>
        <time>2014-04-15T11:03:03Z</time>
      </trkpt>
      <trkpt lat="47.8127" lon="3.51467">
        <ele>142</ele>
        <time>2014-04-15T11:03:06Z</time>
      </trkpt>
      <trkpt lat="47.81268" lon="3.51472">
        <ele>142</ele>
        <time>2014-04-15T11:03:10Z</time>
      </trkpt>
      <trkpt lat="47.81264" lon="3.51479">
        <ele>141</ele>
        <time>2014-04-15T11:03:15Z</time>
      </trkpt>
      <trkpt lat="47.81263" lon="3.51486">
        <ele>141</ele>
        <time>2014-04-15T11:03:18Z</time>
      </trkpt>
      <trkpt lat="47.81261" lon="3.51492">
        <ele>140</ele>
        <time>2014-04-15T11:03:21Z</time>
      </trkpt>
      <trkpt lat="47.81259" lon="3.515">
        <ele>140</ele>
        <time>2014-04-15T11:03:24Z</time>
      </trkpt>
      <trkpt lat="47.81256" lon="3.51506">
        <ele>138</ele>
        <time>2014-04-15T11:03:28Z</time>
      </trkpt>
      <trkpt lat="47.81253" lon="3.51514">
        <ele>139</ele>
        <time>2014-04-15T11:03:34Z</time>
      </trkpt>
      <trkpt lat="47.8125" lon="3.51521">
        <ele>139</ele>
        <time>2014-04-15T11:03:37Z</time>
      </trkpt>
      <trkpt lat="47.81246" lon="3.51524">
        <ele>135</ele>
        <time>2014-04-15T11:03:42Z</time>
      </trkpt>
      <trkpt lat="47.81243" lon="3.5153">
        <ele>135</ele>
        <time>2014-04-15T11:03:45Z</time>
      </trkpt>
      <trkpt lat="47.81241" lon="3.51538">
        <ele>134</ele>
        <time>2014-04-15T11:03:49Z</time>
      </trkpt>
      <trkpt lat="47.81237" lon="3.51544">
        <ele>134</ele>
        <time>2014-04-15T11:03:52Z</time>
      </trkpt>
      <trkpt lat="47.81233" lon="3.51547">
        <ele>134</ele>
        <time>2014-04-15T11:03:58Z</time>
      </trkpt>
      <trkpt lat="47.81228" lon="3.51552">
        <ele>134</ele>
        <time>2014-04-15T11:04:03Z</time>
      </trkpt>
      <trkpt lat="47.81224" lon="3.51556">
        <ele>133</ele>
        <time>2014-04-15T11:04:06Z</time>
      </trkpt>
      <trkpt lat="47.8122" lon="3.5156">
        <ele>133</ele>
        <time>2014-04-15T11:04:09Z</time>
      </trkpt>
      <trkpt lat="47.81215" lon="3.51566">
        <ele>133</ele>
        <time>2014-04-15T11:04:13Z</time>
      </trkpt>
      <trkpt lat="47.8121" lon="3.51569">
        <ele>133</ele>
        <time>2014-04-15T11:04:17Z</time>
      </trkpt>
      <trkpt lat="47.81206" lon="3.51573">
        <ele>133</ele>
        <time>2014-04-15T11:04:21Z</time>
      </trkpt>
      <trkpt lat="47.81202" lon="3.51578">
        <ele>132</ele>
        <time>2014-04-15T11:04:25Z</time>
      </trkpt>
      <trkpt lat="47.81199" lon="3.51584">
        <ele>131</ele>
        <time>2014-04-15T11:04:29Z</time>
      </trkpt>
      <trkpt lat="47.81196" lon="3.51588">
        <ele>131</ele>
        <time>2014-04-15T11:04:32Z</time>
      </trkpt>
      <trkpt lat="47.81192" lon="3.51588">
        <ele>130</ele>
        <time>2014-04-15T11:04:39Z</time>
      </trkpt>
      <trkpt lat="47.81188" lon="3.51592">
        <ele>130</ele>
        <time>2014-04-15T11:04:53Z</time>
      </trkpt>
      <trkpt lat="47.81187" lon="3.516">
        <ele>130</ele>
        <time>2014-04-15T11:04:57Z</time>
      </trkpt>
      <trkpt lat="47.81185" lon="3.51607">
        <ele>130</ele>
        <time>2014-04-15T11:05:01Z</time>
      </trkpt>
      <trkpt lat="47.8118" lon="3.51611">
        <ele>130</ele>
        <time>2014-04-15T11:05:08Z</time>
      </trkpt>
      <trkpt lat="47.81177" lon="3.51617">
        <ele>130</ele>
        <time>2014-04-15T11:05:11Z</time>
      </trkpt>
      <trkpt lat="47.81174" lon="3.51623">
        <ele>130</ele>
        <time>2014-04-15T11:05:16Z</time>
      </trkpt>
      <trkpt lat="47.8117" lon="3.51627">
        <ele>130</ele>
        <time>2014-04-15T11:05:25Z</time>
      </trkpt>
      <trkpt lat="47.81168" lon="3.51629">
        <ele>129</ele>
        <time>2014-04-15T11:05:31Z</time>
      </trkpt>
      <trkpt lat="47.81165" lon="3.51624">
        <ele>125</ele>
        <time>2014-04-15T11:05:51Z</time>
      </trkpt>
      <trkpt lat="47.81163" lon="3.51632">
        <ele>125</ele>
        <time>2014-04-15T11:05:56Z</time>
      </trkpt>
      <trkpt lat="47.81159" lon="3.51639">
        <ele>125</ele>
        <time>2014-04-15T11:05:59Z</time>
      </trkpt>
      <trkpt lat="47.81155" lon="3.51648">
        <ele>125</ele>
        <time>2014-04-15T11:06:02Z</time>
      </trkpt>
      <trkpt lat="47.81153" lon="3.51656">
        <ele>125</ele>
        <time>2014-04-15T11:06:05Z</time>
      </trkpt>
      <trkpt lat="47.81151" lon="3.51662">
        <ele>125</ele>
        <time>2014-04-15T11:06:08Z</time>
      </trkpt>
      <trkpt lat="47.81146" lon="3.51667">
        <ele>123</ele>
        <time>2014-04-15T11:06:12Z</time>
      </trkpt>
      <trkpt lat="47.81143" lon="3.51672">
        <ele>123</ele>
        <time>2014-04-15T11:06:17Z</time>
      </trkpt>
      <trkpt lat="47.81141" lon="3.5168">
        <ele>122</ele>
        <time>2014-04-15T11:06:23Z</time>
      </trkpt>
      <trkpt lat="47.81139" lon="3.51686">
        <ele>122</ele>
        <time>2014-04-15T11:06:26Z</time>
      </trkpt>
      <trkpt lat="47.81137" lon="3.51694">
        <ele>122</ele>
        <time>2014-04-15T11:06:28Z</time>
      </trkpt>
      <trkpt lat="47.81135" lon="3.517">
        <ele>121</ele>
        <time>2014-04-15T11:06:32Z</time>
      </trkpt>
      <trkpt lat="47.81134" lon="3.51708">
        <ele>121</ele>
        <time>2014-04-15T11:06:35Z</time>
      </trkpt>
      <trkpt lat="47.81131" lon="3.51713">
        <ele>121</ele>
        <time>2014-04-15T11:06:39Z</time>
      </trkpt>
      <trkpt lat="47.81126" lon="3.51718">
        <ele>121</ele>
        <time>2014-04-15T11:06:43Z</time>
      </trkpt>
      <trkpt lat="47.81123" lon="3.51723">
        <ele>120</ele>
        <time>2014-04-15T11:06:47Z</time>
      </trkpt>
      <trkpt lat="47.81121" lon="3.5173">
        <ele>120</ele>
        <time>2014-04-15T11:06:52Z</time>
      </trkpt>
      <trkpt lat="47.81118" lon="3.51735">
        <ele>120</ele>
        <time>2014-04-15T11:06:55Z</time>
      </trkpt>
      <trkpt lat="47.81115" lon="3.5174">
        <ele>120</ele>
        <time>2014-04-15T11:06:58Z</time>
      </trkpt>
      <trkpt lat="47.81111" lon="3.51745">
        <ele>119</ele>
        <time>2014-04-15T11:07:07Z</time>
      </trkpt>
      <trkpt lat="47.81108" lon="3.51751">
        <ele>117</ele>
        <time>2014-04-15T11:07:12Z</time>
      </trkpt>
      <trkpt lat="47.81104" lon="3.51756">
        <ele>117</ele>
        <time>2014-04-15T11:07:16Z</time>
      </trkpt>
      <trkpt lat="47.811" lon="3.51761">
        <ele>117</ele>
        <time>2014-04-15T11:07:20Z</time>
      </trkpt>
      <trkpt lat="47.81097" lon="3.51767">
        <ele>117</ele>
        <time>2014-04-15T11:07:26Z</time>
      </trkpt>
      <trkpt lat="47.81094" lon="3.51772">
        <ele>117</ele>
        <time>2014-04-15T11:07:31Z</time>
      </trkpt>
      <trkpt lat="47.8109" lon="3.51778">
        <ele>117</ele>
        <time>2014-04-15T11:07:35Z</time>
      </trkpt>
      <trkpt lat="47.81087" lon="3.51784">
        <ele>116</ele>
        <time>2014-04-15T11:07:39Z</time>
      </trkpt>
      <trkpt lat="47.81088" lon="3.51791">
        <ele>116</ele>
        <time>2014-04-15T11:07:45Z</time>
      </trkpt>
      <trkpt lat="47.81086" lon="3.51797">
        <ele>116</ele>
        <time>2014-04-15T11:07:51Z</time>
      </trkpt>
      <trkpt lat="47.81083" lon="3.51804">
        <ele>114</ele>
        <time>2014-04-15T11:07:55Z</time>
      </trkpt>
      <trkpt lat="47.81081" lon="3.51811">
        <ele>114</ele>
        <time>2014-04-15T11:07:59Z</time>
      </trkpt>
      <trkpt lat="47.81077" lon="3.51817">
        <ele>114</ele>
        <time>2014-04-15T11:08:03Z</time>
      </trkpt>
      <trkpt lat="47.81074" lon="3.51822">
        <ele>114</ele>
        <time>2014-04-15T11:08:06Z</time>
      </trkpt>
      <trkpt lat="47.8107" lon="3.51827">
        <ele>114</ele>
        <time>2014-04-15T11:08:09Z</time>
      </trkpt>
      <trkpt lat="47.81067" lon="3.51833">
        <ele>114</ele>
        <time>2014-04-15T11:08:13Z</time>
      </trkpt>
      <trkpt lat="47.81063" lon="3.51837">
        <ele>113</ele>
        <time>2014-04-15T11:08:19Z</time>
      </trkpt>
      <trkpt lat="47.8106" lon="3.51843">
        <ele>113</ele>
        <time>2014-04-15T11:08:24Z</time>
      </trkpt>
      <trkpt lat="47.81056" lon="3.51849">
        <ele>112</ele>
        <time>2014-04-15T11:08:29Z</time>
      </trkpt>
      <trkpt lat="47.81053" lon="3.51856">
        <ele>112</ele>
        <time>2014-04-15T11:08:34Z</time>
      </trkpt>
      <trkpt lat="47.81053" lon="3.51863">
        <ele>112</ele>
        <time>2014-04-15T11:08:39Z</time>
      </trkpt>
      <trkpt lat="47.81049" lon="3.51869">
        <ele>112</ele>
        <time>2014-04-15T11:08:47Z</time>
      </trkpt>
      <trkpt lat="47.81046" lon="3.51876">
        <ele>112</ele>
        <time>2014-04-15T11:08:51Z</time>
      </trkpt>
      <trkpt lat="47.81044" lon="3.51884">
        <ele>112</ele>
        <time>2014-04-15T11:08:56Z</time>
      </trkpt>
      <trkpt lat="47.81042" lon="3.51891">
        <ele>112</ele>
        <time>2014-04-15T11:09:01Z</time>
      </trkpt>
      <trkpt lat="47.8104" lon="3.51897">
        <ele>112</ele>
        <time>2014-04-15T11:09:05Z</time>
      </trkpt>
      <trkpt lat="47.81036" lon="3.51902">
        <ele>112</ele>
        <time>2014-04-15T11:09:10Z</time>
      </trkpt>
      <trkpt lat="47.81032" lon="3.51907">
        <ele>112</ele>
        <time>2014-04-15T11:09:14Z</time>
      </trkpt>
      <trkpt lat="47.81029" lon="3.51913">
        <ele>112</ele>
        <time>2014-04-15T11:09:18Z</time>
      </trkpt>
      <trkpt lat="47.81027" lon="3.51919">
        <ele>112</ele>
        <time>2014-04-15T11:09:21Z</time>
      </trkpt>
      <trkpt lat="47.81024" lon="3.51925">
        <ele>112</ele>
        <time>2014-04-15T11:09:24Z</time>
      </trkpt>
      <trkpt lat="47.8102" lon="3.5193">
        <ele>112</ele>
        <time>2014-04-15T11:09:28Z</time>
      </trkpt>
      <trkpt lat="47.81016" lon="3.51935">
        <ele>112</ele>
        <time>2014-04-15T11:09:32Z</time>
      </trkpt>
      <trkpt lat="47.81013" lon="3.51941">
        <ele>112</ele>
        <time>2014-04-15T11:09:36Z</time>
      </trkpt>
      <trkpt lat="47.81009" lon="3.51946">
        <ele>112</ele>
        <time>2014-04-15T11:09:39Z</time>
      </trkpt>
      <trkpt lat="47.81006" lon="3.51951">
        <ele>112</ele>
        <time>2014-04-15T11:09:43Z</time>
      </trkpt>
      <trkpt lat="47.81004" lon="3.51958">
        <ele>112</ele>
        <time>2014-04-15T11:09:47Z</time>
      </trkpt>
      <trkpt lat="47.81001" lon="3.51964">
        <ele>112</ele>
        <time>2014-04-15T11:09:51Z</time>
      </trkpt>
      <trkpt lat="47.81" lon="3.5197">
        <ele>112</ele>
        <time>2014-04-15T11:09:55Z</time>
      </trkpt>
      <trkpt lat="47.80997" lon="3.51976">
        <ele>112</ele>
        <time>2014-04-15T11:09:59Z</time>
      </trkpt>
      <trkpt lat="47.80994" lon="3.51982">
        <ele>112</ele>
        <time>2014-04-15T11:10:03Z</time>
      </trkpt>
      <trkpt lat="47.8099" lon="3.51986">
        <ele>112</ele>
        <time>2014-04-15T11:10:08Z</time>
      </trkpt>
      <trkpt lat="47.80987" lon="3.51993">
        <ele>112</ele>
        <time>2014-04-15T11:10:12Z</time>
      </trkpt>
      <trkpt lat="47.80985" lon="3.51999">
        <ele>112</ele>
        <time>2014-04-15T11:10:17Z</time>
      </trkpt>
      <trkpt lat="47.80985" lon="3.52007">
        <ele>112</ele>
        <time>2014-04-15T11:10:21Z</time>
      </trkpt>
      <trkpt lat="47.80987" lon="3.52015">
        <ele>113</ele>
        <time>2014-04-15T11:10:24Z</time>
      </trkpt>
      <trkpt lat="47.80988" lon="3.52022">
        <ele>113</ele>
        <time>2014-04-15T11:10:27Z</time>
      </trkpt>
      <trkpt lat="47.80987" lon="3.52029">
        <ele>113</ele>
        <time>2014-04-15T11:10:31Z</time>
      </trkpt>
      <trkpt lat="47.80985" lon="3.52035">
        <ele>113</ele>
        <time>2014-04-15T11:10:35Z</time>
      </trkpt>
      <trkpt lat="47.80983" lon="3.52041">
        <ele>113</ele>
        <time>2014-04-15T11:10:39Z</time>
      </trkpt>
      <trkpt lat="47.80982" lon="3.52048">
        <ele>113</ele>
        <time>2014-04-15T11:10:44Z</time>
      </trkpt>
      <trkpt lat="47.80979" lon="3.52054">
        <ele>113</ele>
        <time>2014-04-15T11:10:48Z</time>
      </trkpt>
      <trkpt lat="47.80977" lon="3.52061">
        <ele>113</ele>
        <time>2014-04-15T11:10:52Z</time>
      </trkpt>
      <trkpt lat="47.80974" lon="3.52065">
        <ele>113</ele>
        <time>2014-04-15T11:10:56Z</time>
      </trkpt>
      <trkpt lat="47.8097" lon="3.5207">
        <ele>113</ele>
        <time>2014-04-15T11:11:00Z</time>
      </trkpt>
      <trkpt lat="47.80968" lon="3.52077">
        <ele>113</ele>
        <time>2014-04-15T11:11:03Z</time>
      </trkpt>
      <trkpt lat="47.80966" lon="3.52084">
        <ele>113</ele>
        <time>2014-04-15T11:11:05Z</time>
      </trkpt>
      <trkpt lat="47.80963" lon="3.52091">
        <ele>113</ele>
        <time>2014-04-15T11:11:08Z</time>
      </trkpt>
      <trkpt lat="47.80951" lon="3.52101">
        <ele>113</ele>
        <time>2014-04-15T11:11:18Z</time>
      </trkpt>
      <trkpt lat="47.80947" lon="3.52102">
        <ele>113</ele>
        <time>2014-04-15T11:11:21Z</time>
      </trkpt>
      <trkpt lat="47.80941" lon="3.52107">
        <ele>113</ele>
        <time>2014-04-15T11:11:25Z</time>
      </trkpt>
      <trkpt lat="47.80937" lon="3.52111">
        <ele>113</ele>
        <time>2014-04-15T11:11:29Z</time>
      </trkpt>
      <trkpt lat="47.80933" lon="3.52107">
        <ele>113</ele>
        <time>2014-04-15T11:11:36Z</time>
      </trkpt>
      <trkpt lat="47.80934" lon="3.52099">
        <ele>113</ele>
        <time>2014-04-15T11:11:39Z</time>
      </trkpt>
      <trkpt lat="47.80935" lon="3.5209">
        <ele>113</ele>
        <time>2014-04-15T11:11:43Z</time>
      </trkpt>
      <trkpt lat="47.80938" lon="3.52077">
        <ele>113</ele>
        <time>2014-04-15T11:13:23Z</time>
      </trkpt>
      <trkpt lat="47.8094" lon="3.52078">
        <ele>113</ele>
        <time>2014-04-15T11:16:42Z</time>
      </trkpt>
      <trkpt lat="47.80938" lon="3.52079">
        <ele>113</ele>
        <time>2014-04-15T11:23:36Z</time>
      </trkpt>
      <trkpt lat="47.80935" lon="3.52084">
        <ele>113</ele>
        <time>2014-04-15T11:23:49Z</time>
      </trkpt>
      <trkpt lat="47.80934" lon="3.52091">
        <ele>113</ele>
        <time>2014-04-15T11:24:25Z</time>
      </trkpt>
      <trkpt lat="47.80937" lon="3.52097">
        <ele>113</ele>
        <time>2014-04-15T11:24:30Z</time>
      </trkpt>
      <trkpt lat="47.80939" lon="3.52085">
        <ele>113</ele>
        <time>2014-04-15T11:24:59Z</time>
      </trkpt>
      <trkpt lat="47.80937" lon="3.52079">
        <ele>113</ele>
        <time>2014-04-15T11:25:10Z</time>
      </trkpt>
      <trkpt lat="47.80937" lon="3.52072">
        <ele>113</ele>
        <time>2014-04-15T11:26:23Z</time>
      </trkpt>
      <trkpt lat="47.80943" lon="3.52068">
        <ele>113</ele>
        <time>2014-04-15T11:28:54Z</time>
      </trkpt>
      <trkpt lat="47.80947" lon="3.52071">
        <ele>113</ele>
        <time>2014-04-15T11:29:03Z</time>
      </trkpt>
      <trkpt lat="47.80955" lon="3.52076">
        <ele>113</ele>
        <time>2014-04-15T11:29:51Z</time>
      </trkpt>
      <trkpt lat="47.8096" lon="3.52075">
        <ele>113</ele>
        <time>2014-04-15T11:30:00Z</time>
      </trkpt>
      <trkpt lat="47.80962" lon="3.52081">
        <ele>113</ele>
        <time>2014-04-15T11:30:14Z</time>
      </trkpt>
      <trkpt lat="47.8096" lon="3.52081">
        <ele>113</ele>
        <time>2014-04-15T11:30:34Z</time>
      </trkpt>
      <trkpt lat="47.80956" lon="3.52076">
        <ele>113</ele>
        <time>2014-04-15T11:31:03Z</time>
      </trkpt>
      <trkpt lat="47.80958" lon="3.52069">
        <ele>113</ele>
        <time>2014-04-15T11:32:03Z</time>
      </trkpt>
      <trkpt lat="47.80964" lon="3.52074">
        <ele>113</ele>
        <time>2014-04-15T11:32:31Z</time>
      </trkpt>
      <trkpt lat="47.80963" lon="3.52072">
        <ele>113</ele>
        <time>2014-04-15T11:33:47Z</time>
      </trkpt>
      <trkpt lat="47.80959" lon="3.52076">
        <ele>113</ele>
        <time>2014-04-15T11:34:07Z</time>
      </trkpt>
      <trkpt lat="47.80957" lon="3.52078">
        <ele>113</ele>
        <time>2014-04-15T11:34:47Z</time>
      </trkpt>
      <trkpt lat="47.80952" lon="3.52079">
        <ele>113</ele>
        <time>2014-04-15T11:34:50Z</time>
      </trkpt>
      <trkpt lat="47.80947" lon="3.52079">
        <ele>113</ele>
        <time>2014-04-15T11:35:31Z</time>
      </trkpt>
      <trkpt lat="47.8095" lon="3.52082">
        <ele>113</ele>
        <time>2014-04-15T11:36:35Z</time>
      </trkpt>
      <trkpt lat="47.80954" lon="3.52079">
        <ele>113</ele>
        <time>2014-04-15T11:36:42Z</time>
      </trkpt>
      <trkpt lat="47.80957" lon="3.52073">
        <ele>113</ele>
        <time>2014-04-15T11:36:52Z</time>
      </trkpt>
      <trkpt lat="47.80951" lon="3.52072">
        <ele>113</ele>
        <time>2014-04-15T11:40:32Z</time>
      </trkpt>
      <trkpt lat="47.80947" lon="3.52074">
        <ele>113</ele>
        <time>2014-04-15T11:40:41Z</time>
      </trkpt>
      <trkpt lat="47.80945" lon="3.52077">
        <ele>113</ele>
        <time>2014-04-15T11:41:31Z</time>
      </trkpt>
      <trkpt lat="47.80944" lon="3.52073">
        <ele>113</ele>
        <time>2014-04-15T11:43:07Z</time>
      </trkpt>
      <trkpt lat="47.80944" lon="3.52075">
        <ele>113</ele>
        <time>2014-04-15T11:45:23Z</time>
      </trkpt>
      <trkpt lat="47.80949" lon="3.52077">
        <ele>113</ele>
        <time>2014-04-15T11:45:29Z</time>
      </trkpt>
      <trkpt lat="47.80954" lon="3.52077">
        <ele>113</ele>
        <time>2014-04-15T11:45:46Z</time>
      </trkpt>
      <trkpt lat="47.80964" lon="3.52079">
        <ele>113</ele>
        <time>2014-04-15T11:45:57Z</time>
      </trkpt>
      <trkpt lat="47.80967" lon="3.52074">
        <ele>113</ele>
        <time>2014-04-15T11:46:01Z</time>
      </trkpt>
      <trkpt lat="47.80965" lon="3.52071">
        <ele>113</ele>
        <time>2014-04-15T11:46:30Z</time>
      </trkpt>
      <trkpt lat="47.8096" lon="3.52072">
        <ele>113</ele>
        <time>2014-04-15T11:46:32Z</time>
      </trkpt>
      <trkpt lat="47.80957" lon="3.52076">
        <ele>113</ele>
        <time>2014-04-15T11:50:32Z</time>
      </trkpt>
      <trkpt lat="47.80954" lon="3.52076">
        <ele>113</ele>
        <time>2014-04-15T11:54:45Z</time>
      </trkpt>
      <trkpt lat="47.80948" lon="3.52078">
        <ele>113</ele>
        <time>2014-04-15T11:54:47Z</time>
      </trkpt>
      <trkpt lat="47.80943" lon="3.52081">
        <ele>113</ele>
        <time>2014-04-15T11:54:49Z</time>
      </trkpt>
      <trkpt lat="47.80939" lon="3.52085">
        <ele>113</ele>
        <time>2014-04-15T11:54:51Z</time>
      </trkpt>
      <trkpt lat="47.8094" lon="3.52085">
        <ele>113</ele>
        <time>2014-04-15T11:55:15Z</time>
      </trkpt>
      <trkpt lat="47.80936" lon="3.52088">
        <ele>113</ele>
        <time>2014-04-15T11:55:35Z</time>
      </trkpt>
      <trkpt lat="47.80937" lon="3.52096">
        <ele>113</ele>
        <time>2014-04-15T11:55:39Z</time>
      </trkpt>
      <trkpt lat="47.80941" lon="3.52102">
        <ele>113</ele>
        <time>2014-04-15T11:55:45Z</time>
      </trkpt>
      <trkpt lat="47.80941" lon="3.5211">
        <ele>113</ele>
        <time>2014-04-15T11:55:51Z</time>
      </trkpt>
      <trkpt lat="47.80938" lon="3.52116">
        <ele>113</ele>
        <time>2014-04-15T11:55:56Z</time>
      </trkpt>
      <trkpt lat="47.80935" lon="3.52122">
        <ele>113</ele>
        <time>2014-04-15T11:55:59Z</time>
      </trkpt>
      <trkpt lat="47.80932" lon="3.52128">
        <ele>113</ele>
        <time>2014-04-15T11:56:02Z</time>
      </trkpt>
      <trkpt lat="47.80926" lon="3.5214">
        <ele>112</ele>
        <time>2014-04-15T11:56:10Z</time>
      </trkpt>
      <trkpt lat="47.80922" lon="3.52144">
        <ele>112</ele>
        <time>2014-04-15T11:56:14Z</time>
      </trkpt>
      <trkpt lat="47.80923" lon="3.52151">
        <ele>112</ele>
        <time>2014-04-15T11:56:20Z</time>
      </trkpt>
      <trkpt lat="47.80927" lon="3.52154">
        <ele>112</ele>
        <time>2014-04-15T11:56:23Z</time>
      </trkpt>
      <trkpt lat="47.80929" lon="3.5216">
        <ele>112</ele>
        <time>2014-04-15T11:56:29Z</time>
      </trkpt>
      <trkpt lat="47.80926" lon="3.52167">
        <ele>112</ele>
        <time>2014-04-15T11:56:33Z</time>
      </trkpt>
      <trkpt lat="47.80929" lon="3.52167">
        <ele>112</ele>
        <time>2014-04-15T11:56:39Z</time>
      </trkpt>
      <trkpt lat="47.80928" lon="3.52174">
        <ele>112</ele>
        <time>2014-04-15T11:56:45Z</time>
      </trkpt>
      <trkpt lat="47.80924" lon="3.52181">
        <ele>112</ele>
        <time>2014-04-15T11:56:49Z</time>
      </trkpt>
      <trkpt lat="47.80921" lon="3.52187">
        <ele>112</ele>
        <time>2014-04-15T11:56:52Z</time>
      </trkpt>
      <trkpt lat="47.80918" lon="3.52194">
        <ele>112</ele>
        <time>2014-04-15T11:56:56Z</time>
      </trkpt>
      <trkpt lat="47.80917" lon="3.522">
        <ele>112</ele>
        <time>2014-04-15T11:57:01Z</time>
      </trkpt>
      <trkpt lat="47.80918" lon="3.52205">
        <ele>112</ele>
        <time>2014-04-15T11:57:08Z</time>
      </trkpt>
      <trkpt lat="47.80917" lon="3.52213">
        <ele>112</ele>
        <time>2014-04-15T11:57:14Z</time>
      </trkpt>
      <trkpt lat="47.80916" lon="3.52219">
        <ele>112</ele>
        <time>2014-04-15T11:57:18Z</time>
      </trkpt>
      <trkpt lat="47.80914" lon="3.52226">
        <ele>112</ele>
        <time>2014-04-15T11:57:23Z</time>
      </trkpt>
      <trkpt lat="47.8091" lon="3.5223">
        <ele>112</ele>
        <time>2014-04-15T11:57:26Z</time>
      </trkpt>
      <trkpt lat="47.80905" lon="3.52234">
        <ele>112</ele>
        <time>2014-04-15T11:57:29Z</time>
      </trkpt>
      <trkpt lat="47.80901" lon="3.52236">
        <ele>112</ele>
        <time>2014-04-15T11:57:31Z</time>
      </trkpt>
      <trkpt lat="47.80896" lon="3.52241">
        <ele>113</ele>
        <time>2014-04-15T11:57:34Z</time>
      </trkpt>
      <trkpt lat="47.80891" lon="3.52247">
        <ele>113</ele>
        <time>2014-04-15T11:57:37Z</time>
      </trkpt>
      <trkpt lat="47.80889" lon="3.52253">
        <ele>114</ele>
        <time>2014-04-15T11:57:42Z</time>
      </trkpt>
      <trkpt lat="47.80888" lon="3.5226">
        <ele>114</ele>
        <time>2014-04-15T11:57:46Z</time>
      </trkpt>
      <trkpt lat="47.80887" lon="3.52267">
        <ele>114</ele>
        <time>2014-04-15T11:57:50Z</time>
      </trkpt>
      <trkpt lat="47.80884" lon="3.52274">
        <ele>114</ele>
        <time>2014-04-15T11:57:55Z</time>
      </trkpt>
      <trkpt lat="47.80881" lon="3.52279">
        <ele>115</ele>
        <time>2014-04-15T11:57:59Z</time>
      </trkpt>
      <trkpt lat="47.80878" lon="3.52284">
        <ele>115</ele>
        <time>2014-04-15T11:58:03Z</time>
      </trkpt>
      <trkpt lat="47.80874" lon="3.52289">
        <ele>115</ele>
        <time>2014-04-15T11:58:07Z</time>
      </trkpt>
      <trkpt lat="47.80868" lon="3.52292">
        <ele>115</ele>
        <time>2014-04-15T11:58:11Z</time>
      </trkpt>
      <trkpt lat="47.80874" lon="3.523">
        <ele>115</ele>
        <time>2014-04-15T11:58:16Z</time>
      </trkpt>
      <trkpt lat="47.80879" lon="3.52302">
        <ele>115</ele>
        <time>2014-04-15T11:58:19Z</time>
      </trkpt>
      <trkpt lat="47.80881" lon="3.52309">
        <ele>115</ele>
        <time>2014-04-15T11:58:33Z</time>
      </trkpt>
      <trkpt lat="47.8088" lon="3.52316">
        <ele>115</ele>
        <time>2014-04-15T11:58:37Z</time>
      </trkpt>
      <trkpt lat="47.80878" lon="3.52324">
        <ele>116</ele>
        <time>2014-04-15T11:58:40Z</time>
      </trkpt>
      <trkpt lat="47.80876" lon="3.52331">
        <ele>116</ele>
        <time>2014-04-15T11:58:44Z</time>
      </trkpt>
      <trkpt lat="47.80872" lon="3.52337">
        <ele>118</ele>
        <time>2014-04-15T11:58:49Z</time>
      </trkpt>
      <trkpt lat="47.80869" lon="3.52343">
        <ele>118</ele>
        <time>2014-04-15T11:58:51Z</time>
      </trkpt>
      <trkpt lat="47.80866" lon="3.52348">
        <ele>118</ele>
        <time>2014-04-15T11:58:55Z</time>
      </trkpt>
      <trkpt lat="47.80864" lon="3.52354">
        <ele>118</ele>
        <time>2014-04-15T11:59:00Z</time>
      </trkpt>
      <trkpt lat="47.80859" lon="3.5236">
        <ele>118</ele>
        <time>2014-04-15T11:59:03Z</time>
      </trkpt>
      <trkpt lat="47.80858" lon="3.52367">
        <ele>118</ele>
        <time>2014-04-15T11:59:07Z</time>
      </trkpt>
      <trkpt lat="47.80858" lon="3.52375">
        <ele>119</ele>
        <time>2014-04-15T11:59:12Z</time>
      </trkpt>
      <trkpt lat="47.80857" lon="3.52382">
        <ele>119</ele>
        <time>2014-04-15T11:59:16Z</time>
      </trkpt>
      <trkpt lat="47.80855" lon="3.52389">
        <ele>119</ele>
        <time>2014-04-15T11:59:20Z</time>
      </trkpt>
      <trkpt lat="47.80851" lon="3.52395">
        <ele>119</ele>
        <time>2014-04-15T11:59:24Z</time>
      </trkpt>
      <trkpt lat="47.80847" lon="3.524">
        <ele>119</ele>
        <time>2014-04-15T11:59:27Z</time>
      </trkpt>
      <trkpt lat="47.80842" lon="3.52404">
        <ele>119</ele>
        <time>2014-04-15T11:59:30Z</time>
      </trkpt>
      <trkpt lat="47.80838" lon="3.5241">
        <ele>120</ele>
        <time>2014-04-15T11:59:34Z</time>
      </trkpt>
      <trkpt lat="47.80835" lon="3.52417">
        <ele>120</ele>
        <time>2014-04-15T11:59:38Z</time>
      </trkpt>
      <trkpt lat="47.80833" lon="3.52424">
        <ele>120</ele>
        <time>2014-04-15T11:59:44Z</time>
      </trkpt>
      <trkpt lat="47.80832" lon="3.52432">
        <ele>121</ele>
        <time>2014-04-15T11:59:49Z</time>
      </trkpt>
      <trkpt lat="47.8083" lon="3.5244">
        <ele>122</ele>
        <time>2014-04-15T11:59:53Z</time>
      </trkpt>
      <trkpt lat="47.80829" lon="3.52447">
        <ele>122</ele>
        <time>2014-04-15T11:59:56Z</time>
      </trkpt>
      <trkpt lat="47.80828" lon="3.52455">
        <ele>123</ele>
        <time>2014-04-15T12:00:01Z</time>
      </trkpt>
      <trkpt lat="47.80831" lon="3.52459">
        <ele>123</ele>
        <time>2014-04-15T12:00:26Z</time>
      </trkpt>
      <trkpt lat="47.80826" lon="3.52463">
        <ele>123</ele>
        <time>2014-04-15T12:00:28Z</time>
      </trkpt>
      <trkpt lat="47.80829" lon="3.52466">
        <ele>123</ele>
        <time>2014-04-15T12:00:38Z</time>
      </trkpt>
      <trkpt lat="47.80829" lon="3.52466">
        <ele>123</ele>
        <time>2014-04-15T12:01:31Z</time>
      </trkpt>
      <trkpt lat="47.80828" lon="3.52473">
        <ele>123</ele>
        <time>2014-04-15T12:01:36Z</time>
      </trkpt>
      <trkpt lat="47.80827" lon="3.52481">
        <ele>123</ele>
        <time>2014-04-15T12:01:40Z</time>
      </trkpt>
      <trkpt lat="47.80825" lon="3.52487">
        <ele>124</ele>
        <time>2014-04-15T12:01:44Z</time>
      </trkpt>
      <trkpt lat="47.80822" lon="3.52493">
        <ele>124</ele>
        <time>2014-04-15T12:01:49Z</time>
      </trkpt>
      <trkpt lat="47.80819" lon="3.525">
        <ele>124</ele>
        <time>2014-04-15T12:01:53Z</time>
      </trkpt>
      <trkpt lat="47.80816" lon="3.52505">
        <ele>126</ele>
        <time>2014-04-15T12:01:56Z</time>
      </trkpt>
      <trkpt lat="47.80813" lon="3.52511">
        <ele>126</ele>
        <time>2014-04-15T12:01:59Z</time>
      </trkpt>
      <trkpt lat="47.8081" lon="3.52518">
        <ele>126</ele>
        <time>2014-04-15T12:02:03Z</time>
      </trkpt>
      <trkpt lat="47.80807" lon="3.52524">
        <ele>126</ele>
        <time>2014-04-15T12:02:07Z</time>
      </trkpt>
      <trkpt lat="47.80809" lon="3.52531">
        <ele>127</ele>
        <time>2014-04-15T12:02:11Z</time>
      </trkpt>
      <trkpt lat="47.8081" lon="3.52539">
        <ele>127</ele>
        <time>2014-04-15T12:02:16Z</time>
      </trkpt>
      <trkpt lat="47.80808" lon="3.52546">
        <ele>127</ele>
        <time>2014-04-15T12:02:20Z</time>
      </trkpt>
      <trkpt lat="47.80791" lon="3.52585">
        <ele>130</ele>
        <time>2014-04-15T12:02:47Z</time>
      </trkpt>
      <trkpt lat="47.80789" lon="3.52591">
        <ele>130</ele>
        <time>2014-04-15T12:02:52Z</time>
      </trkpt>
      <trkpt lat="47.80785" lon="3.52596">
        <ele>130</ele>
        <time>2014-04-15T12:02:57Z</time>
      </trkpt>
      <trkpt lat="47.80784" lon="3.52603">
        <ele>130</ele>
        <time>2014-04-15T12:03:00Z</time>
      </trkpt>
      <trkpt lat="47.80782" lon="3.52609">
        <ele>131</ele>
        <time>2014-04-15T12:03:03Z</time>
      </trkpt>
      <trkpt lat="47.8078" lon="3.52616">
        <ele>131</ele>
        <time>2014-04-15T12:03:06Z</time>
      </trkpt>
      <trkpt lat="47.80776" lon="3.52623">
        <ele>131</ele>
        <time>2014-04-15T12:03:10Z</time>
      </trkpt>
      <trkpt lat="47.80773" lon="3.52629">
        <ele>131</ele>
        <time>2014-04-15T12:03:14Z</time>
      </trkpt>
      <trkpt lat="47.8077" lon="3.52635">
        <ele>131</ele>
        <time>2014-04-15T12:03:19Z</time>
      </trkpt>
      <trkpt lat="47.80767" lon="3.5264">
        <ele>131</ele>
        <time>2014-04-15T12:03:23Z</time>
      </trkpt>
      <trkpt lat="47.80763" lon="3.52646">
        <ele>131</ele>
        <time>2014-04-15T12:03:29Z</time>
      </trkpt>
      <trkpt lat="47.80758" lon="3.52649">
        <ele>132</ele>
        <time>2014-04-15T12:03:34Z</time>
      </trkpt>
      <trkpt lat="47.80753" lon="3.52654">
        <ele>132</ele>
        <time>2014-04-15T12:03:40Z</time>
      </trkpt>
      <trkpt lat="47.8075" lon="3.5266">
        <ele>132</ele>
        <time>2014-04-15T12:03:44Z</time>
      </trkpt>
      <trkpt lat="47.80749" lon="3.52667">
        <ele>133</ele>
        <time>2014-04-15T12:03:48Z</time>
      </trkpt>
      <trkpt lat="47.80748" lon="3.52675">
        <ele>134</ele>
        <time>2014-04-15T12:03:52Z</time>
      </trkpt>
      <trkpt lat="47.80746" lon="3.52682">
        <ele>135</ele>
        <time>2014-04-15T12:03:55Z</time>
      </trkpt>
      <trkpt lat="47.80746" lon="3.52689">
        <ele>135</ele>
        <time>2014-04-15T12:03:59Z</time>
      </trkpt>
      <trkpt lat="47.80749" lon="3.52696">
        <ele>136</ele>
        <time>2014-04-15T12:04:03Z</time>
      </trkpt>
      <trkpt lat="47.80747" lon="3.52703">
        <ele>136</ele>
        <time>2014-04-15T12:04:06Z</time>
      </trkpt>
      <trkpt lat="47.80746" lon="3.52709">
        <ele>136</ele>
        <time>2014-04-15T12:04:09Z</time>
      </trkpt>
      <trkpt lat="47.80746" lon="3.52717">
        <ele>137</ele>
        <time>2014-04-15T12:04:14Z</time>
      </trkpt>
      <trkpt lat="47.80744" lon="3.52725">
        <ele>137</ele>
        <time>2014-04-15T12:04:18Z</time>
      </trkpt>
      <trkpt lat="47.80739" lon="3.52728">
        <ele>137</ele>
        <time>2014-04-15T12:04:20Z</time>
      </trkpt>
      <trkpt lat="47.80735" lon="3.52732">
        <ele>137</ele>
        <time>2014-04-15T12:04:23Z</time>
      </trkpt>
      <trkpt lat="47.80736" lon="3.5274">
        <ele>137</ele>
        <time>2014-04-15T12:04:29Z</time>
      </trkpt>
      <trkpt lat="47.80736" lon="3.52747">
        <ele>138</ele>
        <time>2014-04-15T12:04:33Z</time>
      </trkpt>
      <trkpt lat="47.80738" lon="3.52754">
        <ele>139</ele>
        <time>2014-04-15T12:04:36Z</time>
      </trkpt>
      <trkpt lat="47.80741" lon="3.52761">
        <ele>139</ele>
        <time>2014-04-15T12:04:40Z</time>
      </trkpt>
      <trkpt lat="47.80743" lon="3.52769">
        <ele>139</ele>
        <time>2014-04-15T12:04:44Z</time>
      </trkpt>
      <trkpt lat="47.80745" lon="3.52775">
        <ele>139</ele>
        <time>2014-04-15T12:04:47Z</time>
      </trkpt>
      <trkpt lat="47.80747" lon="3.52783">
        <ele>139</ele>
        <time>2014-04-15T12:04:51Z</time>
      </trkpt>
      <trkpt lat="47.80749" lon="3.52791">
        <ele>139</ele>
        <time>2014-04-15T12:04:56Z</time>
      </trkpt>
      <trkpt lat="47.80748" lon="3.52798">
        <ele>139</ele>
        <time>2014-04-15T12:05:00Z</time>
      </trkpt>
      <trkpt lat="47.80747" lon="3.52805">
        <ele>140</ele>
        <time>2014-04-15T12:05:04Z</time>
      </trkpt>
      <trkpt lat="47.80746" lon="3.52813">
        <ele>140</ele>
        <time>2014-04-15T12:05:08Z</time>
      </trkpt>
      <trkpt lat="47.80746" lon="3.52821">
        <ele>139</ele>
        <time>2014-04-15T12:05:12Z</time>
      </trkpt>
      <trkpt lat="47.80744" lon="3.52828">
        <ele>139</ele>
        <time>2014-04-15T12:05:16Z</time>
      </trkpt>
      <trkpt lat="47.80742" lon="3.52836">
        <ele>140</ele>
        <time>2014-04-15T12:05:20Z</time>
      </trkpt>
      <trkpt lat="47.80739" lon="3.52843">
        <ele>140</ele>
        <time>2014-04-15T12:05:24Z</time>
      </trkpt>
      <trkpt lat="47.80737" lon="3.52849">
        <ele>141</ele>
        <time>2014-04-15T12:05:29Z</time>
      </trkpt>
      <trkpt lat="47.80734" lon="3.52855">
        <ele>141</ele>
        <time>2014-04-15T12:05:34Z</time>
      </trkpt>
      <trkpt lat="47.80732" lon="3.52862">
        <ele>141</ele>
        <time>2014-04-15T12:05:39Z</time>
      </trkpt>
      <trkpt lat="47.8073" lon="3.5287">
        <ele>142</ele>
        <time>2014-04-15T12:05:43Z</time>
      </trkpt>
      <trkpt lat="47.80729" lon="3.52877">
        <ele>142</ele>
        <time>2014-04-15T12:05:47Z</time>
      </trkpt>
      <trkpt lat="47.80726" lon="3.52884">
        <ele>142</ele>
        <time>2014-04-15T12:05:52Z</time>
      </trkpt>
      <trkpt lat="47.80724" lon="3.52891">
        <ele>142</ele>
        <time>2014-04-15T12:05:56Z</time>
      </trkpt>
      <trkpt lat="47.80722" lon="3.52898">
        <ele>142</ele>
        <time>2014-04-15T12:06:01Z</time>
      </trkpt>
      <trkpt lat="47.80722" lon="3.52906">
        <ele>142</ele>
        <time>2014-04-15T12:06:06Z</time>
      </trkpt>
      <trkpt lat="47.80723" lon="3.52913">
        <ele>142</ele>
        <time>2014-04-15T12:06:10Z</time>
      </trkpt>
      <trkpt lat="47.80721" lon="3.5292">
        <ele>144</ele>
        <time>2014-04-15T12:06:14Z</time>
      </trkpt>
      <trkpt lat="47.8072" lon="3.52927">
        <ele>144</ele>
        <time>2014-04-15T12:06:18Z</time>
      </trkpt>
      <trkpt lat="47.80719" lon="3.52934">
        <ele>144</ele>
        <time>2014-04-15T12:06:23Z</time>
      </trkpt>
      <trkpt lat="47.80719" lon="3.52939">
        <ele>144</ele>
        <time>2014-04-15T12:06:30Z</time>
      </trkpt>
      <trkpt lat="47.80721" lon="3.52946">
        <ele>144</ele>
        <time>2014-04-15T12:06:36Z</time>
      </trkpt>
      <trkpt lat="47.8072" lon="3.52954">
        <ele>144</ele>
        <time>2014-04-15T12:06:39Z</time>
      </trkpt>
      <trkpt lat="47.80719" lon="3.52961">
        <ele>145</ele>
        <time>2014-04-15T12:06:42Z</time>
      </trkpt>
      <trkpt lat="47.80717" lon="3.5297">
        <ele>145</ele>
        <time>2014-04-15T12:06:45Z</time>
      </trkpt>
      <trkpt lat="47.80714" lon="3.52979">
        <ele>145</ele>
        <time>2014-04-15T12:06:48Z</time>
      </trkpt>
      <trkpt lat="47.8071" lon="3.52985">
        <ele>145</ele>
        <time>2014-04-15T12:06:51Z</time>
      </trkpt>
      <trkpt lat="47.80707" lon="3.52991">
        <ele>145</ele>
        <time>2014-04-15T12:06:54Z</time>
      </trkpt>
      <trkpt lat="47.80704" lon="3.52999">
        <ele>146</ele>
        <time>2014-04-15T12:06:57Z</time>
      </trkpt>
      <trkpt lat="47.80701" lon="3.53006">
        <ele>148</ele>
        <time>2014-04-15T12:07:00Z</time>
      </trkpt>
      <trkpt lat="47.80697" lon="3.53012">
        <ele>148</ele>
        <time>2014-04-15T12:07:03Z</time>
      </trkpt>
      <trkpt lat="47.80696" lon="3.53019">
        <ele>148</ele>
        <time>2014-04-15T12:07:06Z</time>
      </trkpt>
      <trkpt lat="47.80694" lon="3.53027">
        <ele>149</ele>
        <time>2014-04-15T12:07:10Z</time>
      </trkpt>
      <trkpt lat="47.80692" lon="3.53033">
        <ele>149</ele>
        <time>2014-04-15T12:07:15Z</time>
      </trkpt>
      <trkpt lat="47.80688" lon="3.53038">
        <ele>149</ele>
        <time>2014-04-15T12:07:20Z</time>
      </trkpt>
      <trkpt lat="47.80684" lon="3.53043">
        <ele>149</ele>
        <time>2014-04-15T12:07:24Z</time>
      </trkpt>
      <trkpt lat="47.80681" lon="3.53049">
        <ele>149</ele>
        <time>2014-04-15T12:07:29Z</time>
      </trkpt>
      <trkpt lat="47.80677" lon="3.53055">
        <ele>150</ele>
        <time>2014-04-15T12:07:34Z</time>
      </trkpt>
      <trkpt lat="47.80673" lon="3.5306">
        <ele>150</ele>
        <time>2014-04-15T12:07:37Z</time>
      </trkpt>
      <trkpt lat="47.8067" lon="3.53065">
        <ele>150</ele>
        <time>2014-04-15T12:07:40Z</time>
      </trkpt>
      <trkpt lat="47.80667" lon="3.53072">
        <ele>151</ele>
        <time>2014-04-15T12:07:44Z</time>
      </trkpt>
      <trkpt lat="47.80665" lon="3.53078">
        <ele>152</ele>
        <time>2014-04-15T12:07:47Z</time>
      </trkpt>
      <trkpt lat="47.80663" lon="3.53086">
        <ele>152</ele>
        <time>2014-04-15T12:07:51Z</time>
      </trkpt>
      <trkpt lat="47.80663" lon="3.53093">
        <ele>153</ele>
        <time>2014-04-15T12:07:55Z</time>
      </trkpt>
      <trkpt lat="47.80664" lon="3.531">
        <ele>153</ele>
        <time>2014-04-15T12:08:01Z</time>
      </trkpt>
      <trkpt lat="47.80666" lon="3.53105">
        <ele>153</ele>
        <time>2014-04-15T12:08:06Z</time>
      </trkpt>
      <trkpt lat="47.8067" lon="3.53111">
        <ele>153</ele>
        <time>2014-04-15T12:08:11Z</time>
      </trkpt>
      <trkpt lat="47.80673" lon="3.53116">
        <ele>153</ele>
        <time>2014-04-15T12:08:16Z</time>
      </trkpt>
      <trkpt lat="47.80677" lon="3.53122">
        <ele>153</ele>
        <time>2014-04-15T12:08:22Z</time>
      </trkpt>
      <trkpt lat="47.80679" lon="3.53129">
        <ele>153</ele>
        <time>2014-04-15T12:08:27Z</time>
      </trkpt>
      <trkpt lat="47.80679" lon="3.53136">
        <ele>153</ele>
        <time>2014-04-15T12:08:32Z</time>
      </trkpt>
      <trkpt lat="47.80678" lon="3.53143">
        <ele>154</ele>
        <time>2014-04-15T12:08:37Z</time>
      </trkpt>
      <trkpt lat="47.80681" lon="3.5315">
        <ele>154</ele>
        <time>2014-04-15T12:08:41Z</time>
      </trkpt>
      <trkpt lat="47.80681" lon="3.53159">
        <ele>154</ele>
        <time>2014-04-15T12:08:45Z</time>
      </trkpt>
      <trkpt lat="47.8068" lon="3.53165">
        <ele>154</ele>
        <time>2014-04-15T12:08:48Z</time>
      </trkpt>
      <trkpt lat="47.80678" lon="3.53171">
        <ele>155</ele>
        <time>2014-04-15T12:08:50Z</time>
      </trkpt>
      <trkpt lat="47.80674" lon="3.53177">
        <ele>155</ele>
        <time>2014-04-15T12:08:53Z</time>
      </trkpt>
      <trkpt lat="47.8067" lon="3.53183">
        <ele>155</ele>
        <time>2014-04-15T12:08:58Z</time>
      </trkpt>
      <trkpt lat="47.80669" lon="3.5319">
        <ele>155</ele>
        <time>2014-04-15T12:09:04Z</time>
      </trkpt>
      <trkpt lat="47.80665" lon="3.53193">
        <ele>156</ele>
        <time>2014-04-15T12:09:09Z</time>
      </trkpt>
      <trkpt lat="47.80662" lon="3.53198">
        <ele>156</ele>
        <time>2014-04-15T12:09:14Z</time>
      </trkpt>
      <trkpt lat="47.80654" lon="3.53217">
        <ele>157</ele>
        <time>2014-04-15T12:09:30Z</time>
      </trkpt>
      <trkpt lat="47.80652" lon="3.53223">
        <ele>157</ele>
        <time>2014-04-15T12:09:33Z</time>
      </trkpt>
      <trkpt lat="47.8065" lon="3.5323">
        <ele>157</ele>
        <time>2014-04-15T12:09:37Z</time>
      </trkpt>
      <trkpt lat="47.80646" lon="3.53235">
        <ele>157</ele>
        <time>2014-04-15T12:09:41Z</time>
      </trkpt>
      <trkpt lat="47.80642" lon="3.53242">
        <ele>157</ele>
        <time>2014-04-15T12:09:45Z</time>
      </trkpt>
      <trkpt lat="47.80639" lon="3.53248">
        <ele>157</ele>
        <time>2014-04-15T12:09:50Z</time>
      </trkpt>
      <trkpt lat="47.80639" lon="3.53256">
        <ele>158</ele>
        <time>2014-04-15T12:09:54Z</time>
      </trkpt>
      <trkpt lat="47.8064" lon="3.53263">
        <ele>158</ele>
        <time>2014-04-15T12:09:57Z</time>
      </trkpt>
      <trkpt lat="47.80645" lon="3.53268">
        <ele>158</ele>
        <time>2014-04-15T12:10:01Z</time>
      </trkpt>
      <trkpt lat="47.80648" lon="3.53273">
        <ele>158</ele>
        <time>2014-04-15T12:10:04Z</time>
      </trkpt>
      <trkpt lat="47.80648" lon="3.5328">
        <ele>158</ele>
        <time>2014-04-15T12:10:08Z</time>
      </trkpt>
      <trkpt lat="47.80645" lon="3.53287">
        <ele>158</ele>
        <time>2014-04-15T12:10:12Z</time>
      </trkpt>
      <trkpt lat="47.80645" lon="3.53294">
        <ele>158</ele>
        <time>2014-04-15T12:10:15Z</time>
      </trkpt>
      <trkpt lat="47.80645" lon="3.53302">
        <ele>159</ele>
        <time>2014-04-15T12:10:18Z</time>
      </trkpt>
      <trkpt lat="47.80643" lon="3.5331">
        <ele>159</ele>
        <time>2014-04-15T12:10:20Z</time>
      </trkpt>
      <trkpt lat="47.80641" lon="3.53316">
        <ele>159</ele>
        <time>2014-04-15T12:10:34Z</time>
      </trkpt>
      <trkpt lat="47.80638" lon="3.53321">
        <ele>159</ele>
        <time>2014-04-15T12:10:37Z</time>
      </trkpt>
      <trkpt lat="47.80637" lon="3.53328">
        <ele>159</ele>
        <time>2014-04-15T12:10:41Z</time>
      </trkpt>
      <trkpt lat="47.80636" lon="3.53335">
        <ele>160</ele>
        <time>2014-04-15T12:10:45Z</time>
      </trkpt>
      <trkpt lat="47.80635" lon="3.53341">
        <ele>160</ele>
        <time>2014-04-15T12:10:49Z</time>
      </trkpt>
      <trkpt lat="47.80633" lon="3.53348">
        <ele>160</ele>
        <time>2014-04-15T12:10:54Z</time>
      </trkpt>
      <trkpt lat="47.80628" lon="3.53353">
        <ele>161</ele>
        <time>2014-04-15T12:11:00Z</time>
      </trkpt>
      <trkpt lat="47.80628" lon="3.53359">
        <ele>161</ele>
        <time>2014-04-15T12:11:09Z</time>
      </trkpt>
      <trkpt lat="47.80626" lon="3.53366">
        <ele>161</ele>
        <time>2014-04-15T12:11:23Z</time>
      </trkpt>
      <trkpt lat="47.80621" lon="3.53366">
        <ele>161</ele>
        <time>2014-04-15T12:11:30Z</time>
      </trkpt>
      <trkpt lat="47.80617" lon="3.53362">
        <ele>161</ele>
        <time>2014-04-15T12:11:35Z</time>
      </trkpt>
      <trkpt lat="47.80615" lon="3.53369">
        <ele>161</ele>
        <time>2014-04-15T12:11:42Z</time>
      </trkpt>
      <trkpt lat="47.80614" lon="3.53376">
        <ele>161</ele>
        <time>2014-04-15T12:11:45Z</time>
      </trkpt>
      <trkpt lat="47.80612" lon="3.53385">
        <ele>161</ele>
        <time>2014-04-15T12:11:48Z</time>
      </trkpt>
      <trkpt lat="47.8061" lon="3.53393">
        <ele>161</ele>
        <time>2014-04-15T12:11:51Z</time>
      </trkpt>
      <trkpt lat="47.80606" lon="3.53399">
        <ele>162</ele>
        <time>2014-04-15T12:11:55Z</time>
      </trkpt>
      <trkpt lat="47.80604" lon="3.53405">
        <ele>162</ele>
        <time>2014-04-15T12:11:58Z</time>
      </trkpt>
      <trkpt lat="47.80602" lon="3.53412">
        <ele>162</ele>
        <time>2014-04-15T12:12:02Z</time>
      </trkpt>
      <trkpt lat="47.80601" lon="3.53419">
        <ele>163</ele>
        <time>2014-04-15T12:12:06Z</time>
      </trkpt>
      <trkpt lat="47.806" lon="3.53425">
        <ele>163</ele>
        <time>2014-04-15T12:12:10Z</time>
      </trkpt>
      <trkpt lat="47.80599" lon="3.53434">
        <ele>163</ele>
        <time>2014-04-15T12:12:15Z</time>
      </trkpt>
      <trkpt lat="47.80597" lon="3.53441">
        <ele>163</ele>
        <time>2014-04-15T12:12:18Z</time>
      </trkpt>
      <trkpt lat="47.80593" lon="3.53448">
        <ele>163</ele>
        <time>2014-04-15T12:12:22Z</time>
      </trkpt>
      <trkpt lat="47.80591" lon="3.53455">
        <ele>164</ele>
        <time>2014-04-15T12:12:30Z</time>
      </trkpt>
      <trkpt lat="47.80588" lon="3.53462">
        <ele>164</ele>
        <time>2014-04-15T12:12:34Z</time>
      </trkpt>
      <trkpt lat="47.80586" lon="3.53468">
        <ele>164</ele>
        <time>2014-04-15T12:12:38Z</time>
      </trkpt>
      <trkpt lat="47.80585" lon="3.53476">
        <ele>164</ele>
        <time>2014-04-15T12:12:45Z</time>
      </trkpt>
      <trkpt lat="47.80582" lon="3.53482">
        <ele>165</ele>
        <time>2014-04-15T12:12:48Z</time>
      </trkpt>
      <trkpt lat="47.80579" lon="3.53487">
        <ele>165</ele>
        <time>2014-04-15T12:12:51Z</time>
      </trkpt>
      <trkpt lat="47.80575" lon="3.53493">
        <ele>165</ele>
        <time>2014-04-15T12:12:55Z</time>
      </trkpt>
      <trkpt lat="47.80572" lon="3.53499">
        <ele>165</ele>
        <time>2014-04-15T12:12:58Z</time>
      </trkpt>
      <trkpt lat="47.8057" lon="3.53505">
        <ele>166</ele>
        <time>2014-04-15T12:13:01Z</time>
      </trkpt>
      <trkpt lat="47.80568" lon="3.53512">
        <ele>166</ele>
        <time>2014-04-15T12:13:05Z</time>
      </trkpt>
      <trkpt lat="47.80568" lon="3.5352">
        <ele>167</ele>
        <time>2014-04-15T12:13:09Z</time>
      </trkpt>
      <trkpt lat="47.80566" lon="3.53528">
        <ele>167</ele>
        <time>2014-04-15T12:13:12Z</time>
      </trkpt>
      <trkpt lat="47.80563" lon="3.53534">
        <ele>167</ele>
        <time>2014-04-15T12:13:15Z</time>
      </trkpt>
      <trkpt lat="47.8056" lon="3.53541">
        <ele>167</ele>
        <time>2014-04-15T12:13:20Z</time>
      </trkpt>
      <trkpt lat="47.80557" lon="3.53546">
        <ele>167</ele>
        <time>2014-04-15T12:13:25Z</time>
      </trkpt>
      <trkpt lat="47.80554" lon="3.53551">
        <ele>168</ele>
        <time>2014-04-15T12:13:29Z</time>
      </trkpt>
      <trkpt lat="47.80551" lon="3.53556">
        <ele>168</ele>
        <time>2014-04-15T12:13:33Z</time>
      </trkpt>
      <trkpt lat="47.80547" lon="3.5356">
        <ele>168</ele>
        <time>2014-04-15T12:13:36Z</time>
      </trkpt>
      <trkpt lat="47.80542" lon="3.53565">
        <ele>168</ele>
        <time>2014-04-15T12:13:41Z</time>
      </trkpt>
      <trkpt lat="47.80539" lon="3.53571">
        <ele>168</ele>
        <time>2014-04-15T12:13:46Z</time>
      </trkpt>
      <trkpt lat="47.80538" lon="3.53579">
        <ele>168</ele>
        <time>2014-04-15T12:13:53Z</time>
      </trkpt>
      <trkpt lat="47.80534" lon="3.53583">
        <ele>168</ele>
        <time>2014-04-15T12:13:57Z</time>
      </trkpt>
      <trkpt lat="47.80529" lon="3.53586">
        <ele>170</ele>
        <time>2014-04-15T12:14:00Z</time>
      </trkpt>
      <trkpt lat="47.80524" lon="3.5359">
        <ele>170</ele>
        <time>2014-04-15T12:14:03Z</time>
      </trkpt>
      <trkpt lat="47.8052" lon="3.53595">
        <ele>170</ele>
        <time>2014-04-15T12:14:07Z</time>
      </trkpt>
      <trkpt lat="47.80517" lon="3.53602">
        <ele>170</ele>
        <time>2014-04-15T12:14:10Z</time>
      </trkpt>
      <trkpt lat="47.80513" lon="3.53605">
        <ele>170</ele>
        <time>2014-04-15T12:14:13Z</time>
      </trkpt>
      <trkpt lat="47.80509" lon="3.53609">
        <ele>171</ele>
        <time>2014-04-15T12:14:17Z</time>
      </trkpt>
      <trkpt lat="47.80504" lon="3.53614">
        <ele>171</ele>
        <time>2014-04-15T12:14:20Z</time>
      </trkpt>
      <trkpt lat="47.80501" lon="3.53617">
        <ele>171</ele>
        <time>2014-04-15T12:14:24Z</time>
      </trkpt>
      <trkpt lat="47.80497" lon="3.53622">
        <ele>171</ele>
        <time>2014-04-15T12:14:29Z</time>
      </trkpt>
      <trkpt lat="47.80493" lon="3.53629">
        <ele>172</ele>
        <time>2014-04-15T12:14:33Z</time>
      </trkpt>
      <trkpt lat="47.80489" lon="3.53633">
        <ele>172</ele>
        <time>2014-04-15T12:14:36Z</time>
      </trkpt>
      <trkpt lat="47.80485" lon="3.53636">
        <ele>172</ele>
        <time>2014-04-15T12:14:39Z</time>
      </trkpt>
      <trkpt lat="47.8048" lon="3.53641">
        <ele>172</ele>
        <time>2014-04-15T12:14:43Z</time>
      </trkpt>
      <trkpt lat="47.80476" lon="3.53644">
        <ele>172</ele>
        <time>2014-04-15T12:14:47Z</time>
      </trkpt>
      <trkpt lat="47.80473" lon="3.5365">
        <ele>172</ele>
        <time>2014-04-15T12:14:52Z</time>
      </trkpt>
      <trkpt lat="47.80476" lon="3.53658">
        <ele>172</ele>
        <time>2014-04-15T12:14:56Z</time>
      </trkpt>
      <trkpt lat="47.80481" lon="3.53662">
        <ele>172</ele>
        <time>2014-04-15T12:15:01Z</time>
      </trkpt>
      <trkpt lat="47.80485" lon="3.53665">
        <ele>173</ele>
        <time>2014-04-15T12:15:04Z</time>
      </trkpt>
      <trkpt lat="47.80488" lon="3.53671">
        <ele>174</ele>
        <time>2014-04-15T12:15:08Z</time>
      </trkpt>
      <trkpt lat="47.80484" lon="3.53676">
        <ele>174</ele>
        <time>2014-04-15T12:15:12Z</time>
      </trkpt>
      <trkpt lat="47.80479" lon="3.53674">
        <ele>174</ele>
        <time>2014-04-15T12:15:15Z</time>
      </trkpt>
      <trkpt lat="47.80474" lon="3.5367">
        <ele>174</ele>
        <time>2014-04-15T12:15:18Z</time>
      </trkpt>
      <trkpt lat="47.80469" lon="3.5367">
        <ele>174</ele>
        <time>2014-04-15T12:15:21Z</time>
      </trkpt>
      <trkpt lat="47.80464" lon="3.53668">
        <ele>174</ele>
        <time>2014-04-15T12:15:26Z</time>
      </trkpt>
      <trkpt lat="47.80458" lon="3.53666">
        <ele>172</ele>
        <time>2014-04-15T12:15:33Z</time>
      </trkpt>
      <trkpt lat="47.80455" lon="3.53671">
        <ele>174</ele>
        <time>2014-04-15T12:15:35Z</time>
      </trkpt>
      <trkpt lat="47.80451" lon="3.53675">
        <ele>174</ele>
        <time>2014-04-15T12:15:38Z</time>
      </trkpt>
      <trkpt lat="47.80448" lon="3.5368">
        <ele>174</ele>
        <time>2014-04-15T12:15:41Z</time>
      </trkpt>
      <trkpt lat="47.80445" lon="3.53685">
        <ele>174</ele>
        <time>2014-04-15T12:15:44Z</time>
      </trkpt>
      <trkpt lat="47.80442" lon="3.53693">
        <ele>174</ele>
        <time>2014-04-15T12:15:47Z</time>
      </trkpt>
      <trkpt lat="47.80439" lon="3.537">
        <ele>174</ele>
        <time>2014-04-15T12:15:50Z</time>
      </trkpt>
      <trkpt lat="47.80435" lon="3.53705">
        <ele>174</ele>
        <time>2014-04-15T12:15:53Z</time>
      </trkpt>
      <trkpt lat="47.80431" lon="3.53711">
        <ele>174</ele>
        <time>2014-04-15T12:15:57Z</time>
      </trkpt>
      <trkpt lat="47.80428" lon="3.53716">
        <ele>174</ele>
        <time>2014-04-15T12:16:02Z</time>
      </trkpt>
      <trkpt lat="47.80426" lon="3.53723">
        <ele>175</ele>
        <time>2014-04-15T12:16:08Z</time>
      </trkpt>
      <trkpt lat="47.80422" lon="3.53727">
        <ele>175</ele>
        <time>2014-04-15T12:16:12Z</time>
      </trkpt>
      <trkpt lat="47.80418" lon="3.53733">
        <ele>175</ele>
        <time>2014-04-15T12:16:16Z</time>
      </trkpt>
      <trkpt lat="47.80416" lon="3.5374">
        <ele>175</ele>
        <time>2014-04-15T12:16:20Z</time>
      </trkpt>
      <trkpt lat="47.80413" lon="3.53748">
        <ele>176</ele>
        <time>2014-04-15T12:16:24Z</time>
      </trkpt>
      <trkpt lat="47.8041" lon="3.53753">
        <ele>177</ele>
        <time>2014-04-15T12:16:28Z</time>
      </trkpt>
      <trkpt lat="47.80405" lon="3.53759">
        <ele>177</ele>
        <time>2014-04-15T12:16:32Z</time>
      </trkpt>
      <trkpt lat="47.80403" lon="3.53766">
        <ele>177</ele>
        <time>2014-04-15T12:16:36Z</time>
      </trkpt>
      <trkpt lat="47.80404" lon="3.53771">
        <ele>177</ele>
        <time>2014-04-15T12:16:45Z</time>
      </trkpt>
      <trkpt lat="47.80402" lon="3.53778">
        <ele>178</ele>
        <time>2014-04-15T12:17:02Z</time>
      </trkpt>
      <trkpt lat="47.80399" lon="3.53784">
        <ele>178</ele>
        <time>2014-04-15T12:17:04Z</time>
      </trkpt>
      <trkpt lat="47.80395" lon="3.53791">
        <ele>178</ele>
        <time>2014-04-15T12:17:07Z</time>
      </trkpt>
      <trkpt lat="47.80393" lon="3.53798">
        <ele>178</ele>
        <time>2014-04-15T12:17:11Z</time>
      </trkpt>
      <trkpt lat="47.8039" lon="3.53804">
        <ele>178</ele>
        <time>2014-04-15T12:17:16Z</time>
      </trkpt>
      <trkpt lat="47.80389" lon="3.53811">
        <ele>179</ele>
        <time>2014-04-15T12:17:27Z</time>
      </trkpt>
      <trkpt lat="47.80385" lon="3.53816">
        <ele>179</ele>
        <time>2014-04-15T12:17:32Z</time>
      </trkpt>
      <trkpt lat="47.80383" lon="3.53822">
        <ele>179</ele>
        <time>2014-04-15T12:17:35Z</time>
      </trkpt>
      <trkpt lat="47.80381" lon="3.53829">
        <ele>179</ele>
        <time>2014-04-15T12:17:39Z</time>
      </trkpt>
      <trkpt lat="47.80379" lon="3.53836">
        <ele>181</ele>
        <time>2014-04-15T12:17:44Z</time>
      </trkpt>
      <trkpt lat="47.80377" lon="3.53844">
        <ele>181</ele>
        <time>2014-04-15T12:17:49Z</time>
      </trkpt>
      <trkpt lat="47.80375" lon="3.5385">
        <ele>181</ele>
        <time>2014-04-15T12:17:53Z</time>
      </trkpt>
      <trkpt lat="47.80371" lon="3.53856">
        <ele>181</ele>
        <time>2014-04-15T12:17:57Z</time>
      </trkpt>
      <trkpt lat="47.80367" lon="3.53858">
        <ele>182</ele>
        <time>2014-04-15T12:18:00Z</time>
      </trkpt>
      <trkpt lat="47.80361" lon="3.53859">
        <ele>182</ele>
        <time>2014-04-15T12:18:03Z</time>
      </trkpt>
      <trkpt lat="47.80357" lon="3.53863">
        <ele>182</ele>
        <time>2014-04-15T12:18:07Z</time>
      </trkpt>
      <trkpt lat="47.80356" lon="3.5387">
        <ele>182</ele>
        <time>2014-04-15T12:18:11Z</time>
      </trkpt>
      <trkpt lat="47.80354" lon="3.53878">
        <ele>182</ele>
        <time>2014-04-15T12:18:15Z</time>
      </trkpt>
      <trkpt lat="47.80352" lon="3.53885">
        <ele>182</ele>
        <time>2014-04-15T12:18:19Z</time>
      </trkpt>
      <trkpt lat="47.80349" lon="3.53891">
        <ele>183</ele>
        <time>2014-04-15T12:18:23Z</time>
      </trkpt>
      <trkpt lat="47.80348" lon="3.53897">
        <ele>183</ele>
        <time>2014-04-15T12:18:27Z</time>
      </trkpt>
      <trkpt lat="47.80347" lon="3.53905">
        <ele>183</ele>
        <time>2014-04-15T12:18:31Z</time>
      </trkpt>
      <trkpt lat="47.80345" lon="3.53913">
        <ele>184</ele>
        <time>2014-04-15T12:18:34Z</time>
      </trkpt>
      <trkpt lat="47.80343" lon="3.53921">
        <ele>184</ele>
        <time>2014-04-15T12:18:38Z</time>
      </trkpt>
      <trkpt lat="47.8034" lon="3.53928">
        <ele>184</ele>
        <time>2014-04-15T12:18:42Z</time>
      </trkpt>
      <trkpt lat="47.80336" lon="3.53934">
        <ele>184</ele>
        <time>2014-04-15T12:18:47Z</time>
      </trkpt>
      <trkpt lat="47.80332" lon="3.53939">
        <ele>187</ele>
        <time>2014-04-15T12:18:51Z</time>
      </trkpt>
      <trkpt lat="47.80327" lon="3.53944">
        <ele>187</ele>
        <time>2014-04-15T12:18:56Z</time>
      </trkpt>
      <trkpt lat="47.80326" lon="3.53951">
        <ele>187</ele>
        <time>2014-04-15T12:19:00Z</time>
      </trkpt>
      <trkpt lat="47.80322" lon="3.53957">
        <ele>187</ele>
        <time>2014-04-15T12:19:03Z</time>
      </trkpt>
      <trkpt lat="47.80318" lon="3.53963">
        <ele>187</ele>
        <time>2014-04-15T12:19:07Z</time>
      </trkpt>
      <trkpt lat="47.80314" lon="3.53968">
        <ele>188</ele>
        <time>2014-04-15T12:19:11Z</time>
      </trkpt>
      <trkpt lat="47.80311" lon="3.53973">
        <ele>188</ele>
        <time>2014-04-15T12:19:16Z</time>
      </trkpt>
      <trkpt lat="47.80311" lon="3.53988">
        <ele>187</ele>
        <time>2014-04-15T12:19:28Z</time>
      </trkpt>
      <trkpt lat="47.80308" lon="3.53994">
        <ele>187</ele>
        <time>2014-04-15T12:19:34Z</time>
      </trkpt>
      <trkpt lat="47.80305" lon="3.54001">
        <ele>188</ele>
        <time>2014-04-15T12:19:39Z</time>
      </trkpt>
      <trkpt lat="47.80301" lon="3.54007">
        <ele>188</ele>
        <time>2014-04-15T12:19:43Z</time>
      </trkpt>
      <trkpt lat="47.803" lon="3.54015">
        <ele>188</ele>
        <time>2014-04-15T12:19:47Z</time>
      </trkpt>
      <trkpt lat="47.80296" lon="3.54021">
        <ele>188</ele>
        <time>2014-04-15T12:19:52Z</time>
      </trkpt>
      <trkpt lat="47.80293" lon="3.54025">
        <ele>189</ele>
        <time>2014-04-15T12:19:55Z</time>
      </trkpt>
      <trkpt lat="47.8029" lon="3.5403">
        <ele>189</ele>
        <time>2014-04-15T12:19:58Z</time>
      </trkpt>
      <trkpt lat="47.80285" lon="3.54036">
        <ele>189</ele>
        <time>2014-04-15T12:20:02Z</time>
      </trkpt>
      <trkpt lat="47.80282" lon="3.54042">
        <ele>189</ele>
        <time>2014-04-15T12:20:06Z</time>
      </trkpt>
      <trkpt lat="47.80279" lon="3.54049">
        <ele>189</ele>
        <time>2014-04-15T12:20:10Z</time>
      </trkpt>
      <trkpt lat="47.8028" lon="3.54057">
        <ele>189</ele>
        <time>2014-04-15T12:20:14Z</time>
      </trkpt>
      <trkpt lat="47.80278" lon="3.54065">
        <ele>189</ele>
        <time>2014-04-15T12:20:18Z</time>
      </trkpt>
      <trkpt lat="47.80274" lon="3.5407">
        <ele>190</ele>
        <time>2014-04-15T12:20:21Z</time>
      </trkpt>
      <trkpt lat="47.80268" lon="3.54073">
        <ele>190</ele>
        <time>2014-04-15T12:20:24Z</time>
      </trkpt>
      <trkpt lat="47.80263" lon="3.54076">
        <ele>190</ele>
        <time>2014-04-15T12:20:27Z</time>
      </trkpt>
      <trkpt lat="47.80259" lon="3.5408">
        <ele>190</ele>
        <time>2014-04-15T12:20:30Z</time>
      </trkpt>
      <trkpt lat="47.80255" lon="3.54086">
        <ele>191</ele>
        <time>2014-04-15T12:20:34Z</time>
      </trkpt>
      <trkpt lat="47.80251" lon="3.54091">
        <ele>190</ele>
        <time>2014-04-15T12:20:37Z</time>
      </trkpt>
      <trkpt lat="47.80246" lon="3.54096">
        <ele>192</ele>
        <time>2014-04-15T12:20:40Z</time>
      </trkpt>
      <trkpt lat="47.80242" lon="3.54102">
        <ele>192</ele>
        <time>2014-04-15T12:20:43Z</time>
      </trkpt>
      <trkpt lat="47.80238" lon="3.54107">
        <ele>192</ele>
        <time>2014-04-15T12:20:46Z</time>
      </trkpt>
      <trkpt lat="47.80234" lon="3.54112">
        <ele>193</ele>
        <time>2014-04-15T12:20:51Z</time>
      </trkpt>
      <trkpt lat="47.80231" lon="3.54118">
        <ele>193</ele>
        <time>2014-04-15T12:20:55Z</time>
      </trkpt>
      <trkpt lat="47.80231" lon="3.54126">
        <ele>193</ele>
        <time>2014-04-15T12:20:59Z</time>
      </trkpt>
      <trkpt lat="47.8023" lon="3.54134">
        <ele>192</ele>
        <time>2014-04-15T12:21:03Z</time>
      </trkpt>
      <trkpt lat="47.8023" lon="3.5414">
        <ele>192</ele>
        <time>2014-04-15T12:21:08Z</time>
      </trkpt>
      <trkpt lat="47.80227" lon="3.54146">
        <ele>192</ele>
        <time>2014-04-15T12:21:12Z</time>
      </trkpt>
      <trkpt lat="47.80223" lon="3.5415">
        <ele>192</ele>
        <time>2014-04-15T12:21:17Z</time>
      </trkpt>
      <trkpt lat="47.80221" lon="3.54156">
        <ele>192</ele>
        <time>2014-04-15T12:21:22Z</time>
      </trkpt>
      <trkpt lat="47.80221" lon="3.54164">
        <ele>192</ele>
        <time>2014-04-15T12:21:27Z</time>
      </trkpt>
      <trkpt lat="47.80221" lon="3.54171">
        <ele>192</ele>
        <time>2014-04-15T12:21:31Z</time>
      </trkpt>
      <trkpt lat="47.80219" lon="3.54179">
        <ele>192</ele>
        <time>2014-04-15T12:21:35Z</time>
      </trkpt>
      <trkpt lat="47.80215" lon="3.54182">
        <ele>193</ele>
        <time>2014-04-15T12:21:41Z</time>
      </trkpt>
      <trkpt lat="47.8021" lon="3.54186">
        <ele>193</ele>
        <time>2014-04-15T12:21:46Z</time>
      </trkpt>
      <trkpt lat="47.80209" lon="3.54195">
        <ele>193</ele>
        <time>2014-04-15T12:21:51Z</time>
      </trkpt>
      <trkpt lat="47.80206" lon="3.542">
        <ele>193</ele>
        <time>2014-04-15T12:21:54Z</time>
      </trkpt>
      <trkpt lat="47.80202" lon="3.54205">
        <ele>194</ele>
        <time>2014-04-15T12:21:57Z</time>
      </trkpt>
      <trkpt lat="47.80199" lon="3.5421">
        <ele>194</ele>
        <time>2014-04-15T12:22:00Z</time>
      </trkpt>
      <trkpt lat="47.80198" lon="3.54218">
        <ele>194</ele>
        <time>2014-04-15T12:22:03Z</time>
      </trkpt>
      <trkpt lat="47.80202" lon="3.54224">
        <ele>194</ele>
        <time>2014-04-15T12:22:07Z</time>
      </trkpt>
      <trkpt lat="47.80204" lon="3.5423">
        <ele>194</ele>
        <time>2014-04-15T12:22:10Z</time>
      </trkpt>
      <trkpt lat="47.80205" lon="3.54239">
        <ele>194</ele>
        <time>2014-04-15T12:22:14Z</time>
      </trkpt>
      <trkpt lat="47.80203" lon="3.54246">
        <ele>194</ele>
        <time>2014-04-15T12:22:18Z</time>
      </trkpt>
      <trkpt lat="47.80198" lon="3.54251">
        <ele>196</ele>
        <time>2014-04-15T12:22:22Z</time>
      </trkpt>
      <trkpt lat="47.80196" lon="3.54258">
        <ele>196</ele>
        <time>2014-04-15T12:22:26Z</time>
      </trkpt>
      <trkpt lat="47.80195" lon="3.54265">
        <ele>196</ele>
        <time>2014-04-15T12:22:30Z</time>
      </trkpt>
      <trkpt lat="47.80191" lon="3.54271">
        <ele>197</ele>
        <time>2014-04-15T12:22:34Z</time>
      </trkpt>
      <trkpt lat="47.80185" lon="3.54275">
        <ele>197</ele>
        <time>2014-04-15T12:22:37Z</time>
      </trkpt>
      <trkpt lat="47.80181" lon="3.54278">
        <ele>197</ele>
        <time>2014-04-15T12:22:39Z</time>
      </trkpt>
      <trkpt lat="47.80177" lon="3.54281">
        <ele>198</ele>
        <time>2014-04-15T12:22:41Z</time>
      </trkpt>
      <trkpt lat="47.80172" lon="3.54286">
        <ele>198</ele>
        <time>2014-04-15T12:22:44Z</time>
      </trkpt>
      <trkpt lat="47.80173" lon="3.54294">
        <ele>198</ele>
        <time>2014-04-15T12:22:49Z</time>
      </trkpt>
      <trkpt lat="47.80171" lon="3.54303">
        <ele>198</ele>
        <time>2014-04-15T12:22:54Z</time>
      </trkpt>
      <trkpt lat="47.80173" lon="3.54311">
        <ele>199</ele>
        <time>2014-04-15T12:22:57Z</time>
      </trkpt>
      <trkpt lat="47.80177" lon="3.54317">
        <ele>199</ele>
        <time>2014-04-15T12:23:00Z</time>
      </trkpt>
      <trkpt lat="47.80179" lon="3.54323">
        <ele>200</ele>
        <time>2014-04-15T12:23:05Z</time>
      </trkpt>
      <trkpt lat="47.80178" lon="3.54329">
        <ele>200</ele>
        <time>2014-04-15T12:23:10Z</time>
      </trkpt>
      <trkpt lat="47.8018" lon="3.54337">
        <ele>201</ele>
        <time>2014-04-15T12:23:16Z</time>
      </trkpt>
      <trkpt lat="47.80184" lon="3.54341">
        <ele>201</ele>
        <time>2014-04-15T12:23:18Z</time>
      </trkpt>
      <trkpt lat="47.80187" lon="3.54346">
        <ele>201</ele>
        <time>2014-04-15T12:23:21Z</time>
      </trkpt>
      <trkpt lat="47.80183" lon="3.54353">
        <ele>201</ele>
        <time>2014-04-15T12:23:25Z</time>
      </trkpt>
      <trkpt lat="47.80179" lon="3.54357">
        <ele>201</ele>
        <time>2014-04-15T12:23:28Z</time>
      </trkpt>
      <trkpt lat="47.80174" lon="3.54363">
        <ele>201</ele>
        <time>2014-04-15T12:23:31Z</time>
      </trkpt>
      <trkpt lat="47.8017" lon="3.54368">
        <ele>201</ele>
        <time>2014-04-15T12:23:34Z</time>
      </trkpt>
      <trkpt lat="47.80166" lon="3.54371">
        <ele>203</ele>
        <time>2014-04-15T12:23:36Z</time>
      </trkpt>
      <trkpt lat="47.80162" lon="3.54375">
        <ele>203</ele>
        <time>2014-04-15T12:23:38Z</time>
      </trkpt>
      <trkpt lat="47.80156" lon="3.54379">
        <ele>203</ele>
        <time>2014-04-15T12:23:41Z</time>
      </trkpt>
      <trkpt lat="47.80156" lon="3.54385">
        <ele>203</ele>
        <time>2014-04-15T12:23:51Z</time>
      </trkpt>
      <trkpt lat="47.80158" lon="3.54387">
        <ele>203</ele>
        <time>2014-04-15T12:24:09Z</time>
      </trkpt>
      <trkpt lat="47.80155" lon="3.54394">
        <ele>203</ele>
        <time>2014-04-15T12:24:13Z</time>
      </trkpt>
      <trkpt lat="47.80155" lon="3.54402">
        <ele>204</ele>
        <time>2014-04-15T12:24:17Z</time>
      </trkpt>
      <trkpt lat="47.80152" lon="3.54409">
        <ele>204</ele>
        <time>2014-04-15T12:24:21Z</time>
      </trkpt>
      <trkpt lat="47.80148" lon="3.54416">
        <ele>204</ele>
        <time>2014-04-15T12:24:25Z</time>
      </trkpt>
      <trkpt lat="47.80145" lon="3.54422">
        <ele>204</ele>
        <time>2014-04-15T12:24:28Z</time>
      </trkpt>
      <trkpt lat="47.80141" lon="3.54428">
        <ele>204</ele>
        <time>2014-04-15T12:24:31Z</time>
      </trkpt>
      <trkpt lat="47.80137" lon="3.54433">
        <ele>204</ele>
        <time>2014-04-15T12:24:34Z</time>
      </trkpt>
      <trkpt lat="47.80132" lon="3.54437">
        <ele>204</ele>
        <time>2014-04-15T12:24:37Z</time>
      </trkpt>
      <trkpt lat="47.80128" lon="3.54442">
        <ele>204</ele>
        <time>2014-04-15T12:24:40Z</time>
      </trkpt>
      <trkpt lat="47.80126" lon="3.54449">
        <ele>204</ele>
        <time>2014-04-15T12:24:44Z</time>
      </trkpt>
      <trkpt lat="47.80123" lon="3.54456">
        <ele>204</ele>
        <time>2014-04-15T12:24:48Z</time>
      </trkpt>
      <trkpt lat="47.80118" lon="3.54461">
        <ele>204</ele>
        <time>2014-04-15T12:24:51Z</time>
      </trkpt>
      <trkpt lat="47.80114" lon="3.54467">
        <ele>204</ele>
        <time>2014-04-15T12:24:55Z</time>
      </trkpt>
      <trkpt lat="47.80112" lon="3.54473">
        <ele>204</ele>
        <time>2014-04-15T12:24:59Z</time>
      </trkpt>
      <trkpt lat="47.80114" lon="3.54479">
        <ele>204</ele>
        <time>2014-04-15T12:25:02Z</time>
      </trkpt>
      <trkpt lat="47.80117" lon="3.54485">
        <ele>204</ele>
        <time>2014-04-15T12:25:05Z</time>
      </trkpt>
      <trkpt lat="47.80115" lon="3.54492">
        <ele>204</ele>
        <time>2014-04-15T12:25:10Z</time>
      </trkpt>
      <trkpt lat="47.8011" lon="3.54497">
        <ele>204</ele>
        <time>2014-04-15T12:25:13Z</time>
      </trkpt>
      <trkpt lat="47.80104" lon="3.545">
        <ele>204</ele>
        <time>2014-04-15T12:25:15Z</time>
      </trkpt>
      <trkpt lat="47.80101" lon="3.54504">
        <ele>204</ele>
        <time>2014-04-15T12:25:17Z</time>
      </trkpt>
      <trkpt lat="47.801" lon="3.54508">
        <ele>204</ele>
        <time>2014-04-15T12:25:19Z</time>
      </trkpt>
      <trkpt lat="47.80098" lon="3.54512">
        <ele>204</ele>
        <time>2014-04-15T12:25:21Z</time>
      </trkpt>
      <trkpt lat="47.801" lon="3.54522">
        <ele>204</ele>
        <time>2014-04-15T12:25:26Z</time>
      </trkpt>
      <trkpt lat="47.80103" lon="3.54526">
        <ele>204</ele>
        <time>2014-04-15T12:25:29Z</time>
      </trkpt>
      <trkpt lat="47.80106" lon="3.54532">
        <ele>205</ele>
        <time>2014-04-15T12:25:32Z</time>
      </trkpt>
      <trkpt lat="47.80108" lon="3.54539">
        <ele>205</ele>
        <time>2014-04-15T12:25:36Z</time>
      </trkpt>
      <trkpt lat="47.80111" lon="3.54547">
        <ele>205</ele>
        <time>2014-04-15T12:25:40Z</time>
      </trkpt>
      <trkpt lat="47.80112" lon="3.54555">
        <ele>205</ele>
        <time>2014-04-15T12:25:44Z</time>
      </trkpt>
      <trkpt lat="47.80112" lon="3.54563">
        <ele>205</ele>
        <time>2014-04-15T12:25:49Z</time>
      </trkpt>
      <trkpt lat="47.80113" lon="3.5457">
        <ele>205</ele>
        <time>2014-04-15T12:25:53Z</time>
      </trkpt>
      <trkpt lat="47.80112" lon="3.54578">
        <ele>205</ele>
        <time>2014-04-15T12:25:57Z</time>
      </trkpt>
      <trkpt lat="47.80112" lon="3.54585">
        <ele>204</ele>
        <time>2014-04-15T12:26:01Z</time>
      </trkpt>
      <trkpt lat="47.8011" lon="3.54593">
        <ele>204</ele>
        <time>2014-04-15T12:26:06Z</time>
      </trkpt>
      <trkpt lat="47.80109" lon="3.546">
        <ele>203</ele>
        <time>2014-04-15T12:26:09Z</time>
      </trkpt>
      <trkpt lat="47.80106" lon="3.54607">
        <ele>203</ele>
        <time>2014-04-15T12:26:12Z</time>
      </trkpt>
      <trkpt lat="47.80101" lon="3.54616">
        <ele>203</ele>
        <time>2014-04-15T12:26:19Z</time>
      </trkpt>
      <trkpt lat="47.801" lon="3.54624">
        <ele>203</ele>
        <time>2014-04-15T12:26:24Z</time>
      </trkpt>
      <trkpt lat="47.80097" lon="3.54631">
        <ele>203</ele>
        <time>2014-04-15T12:26:28Z</time>
      </trkpt>
      <trkpt lat="47.80096" lon="3.54638">
        <ele>202</ele>
        <time>2014-04-15T12:26:32Z</time>
      </trkpt>
      <trkpt lat="47.80099" lon="3.54645">
        <ele>202</ele>
        <time>2014-04-15T12:26:36Z</time>
      </trkpt>
      <trkpt lat="47.80102" lon="3.54652">
        <ele>202</ele>
        <time>2014-04-15T12:26:39Z</time>
      </trkpt>
      <trkpt lat="47.80102" lon="3.54659">
        <ele>202</ele>
        <time>2014-04-15T12:26:43Z</time>
      </trkpt>
      <trkpt lat="47.80098" lon="3.54666">
        <ele>202</ele>
        <time>2014-04-15T12:26:47Z</time>
      </trkpt>
      <trkpt lat="47.80096" lon="3.54672">
        <ele>200</ele>
        <time>2014-04-15T12:26:51Z</time>
      </trkpt>
      <trkpt lat="47.80097" lon="3.5468">
        <ele>200</ele>
        <time>2014-04-15T12:26:55Z</time>
      </trkpt>
      <trkpt lat="47.80097" lon="3.54688">
        <ele>200</ele>
        <time>2014-04-15T12:26:59Z</time>
      </trkpt>
      <trkpt lat="47.80098" lon="3.54695">
        <ele>200</ele>
        <time>2014-04-15T12:27:03Z</time>
      </trkpt>
      <trkpt lat="47.80097" lon="3.54702">
        <ele>200</ele>
        <time>2014-04-15T12:27:08Z</time>
      </trkpt>
      <trkpt lat="47.80099" lon="3.54709">
        <ele>200</ele>
        <time>2014-04-15T12:27:12Z</time>
      </trkpt>
      <trkpt lat="47.80098" lon="3.54719">
        <ele>200</ele>
        <time>2014-04-15T12:27:19Z</time>
      </trkpt>
      <trkpt lat="47.80095" lon="3.54727">
        <ele>199</ele>
        <time>2014-04-15T12:27:23Z</time>
      </trkpt>
      <trkpt lat="47.80092" lon="3.54734">
        <ele>199</ele>
        <time>2014-04-15T12:27:27Z</time>
      </trkpt>
      <trkpt lat="47.80089" lon="3.54739">
        <ele>198</ele>
        <time>2014-04-15T12:27:30Z</time>
      </trkpt>
      <trkpt lat="47.80086" lon="3.54746">
        <ele>198</ele>
        <time>2014-04-15T12:27:34Z</time>
      </trkpt>
      <trkpt lat="47.80083" lon="3.54753">
        <ele>197</ele>
        <time>2014-04-15T12:27:38Z</time>
      </trkpt>
      <trkpt lat="47.80082" lon="3.5476">
        <ele>197</ele>
        <time>2014-04-15T12:27:43Z</time>
      </trkpt>
      <trkpt lat="47.80077" lon="3.54763">
        <ele>197</ele>
        <time>2014-04-15T12:27:47Z</time>
      </trkpt>
      <trkpt lat="47.80072" lon="3.54775">
        <ele>197</ele>
        <time>2014-04-15T12:27:54Z</time>
      </trkpt>
      <trkpt lat="47.80076" lon="3.54782">
        <ele>197</ele>
        <time>2014-04-15T12:27:58Z</time>
      </trkpt>
      <trkpt lat="47.80079" lon="3.54789">
        <ele>197</ele>
        <time>2014-04-15T12:28:02Z</time>
      </trkpt>
      <trkpt lat="47.8008" lon="3.54802">
        <ele>197</ele>
        <time>2014-04-15T12:28:09Z</time>
      </trkpt>
      <trkpt lat="47.8008" lon="3.54809">
        <ele>198</ele>
        <time>2014-04-15T12:28:13Z</time>
      </trkpt>
      <trkpt lat="47.80076" lon="3.54814">
        <ele>198</ele>
        <time>2014-04-15T12:28:17Z</time>
      </trkpt>
      <trkpt lat="47.80073" lon="3.54821">
        <ele>198</ele>
        <time>2014-04-15T12:28:22Z</time>
      </trkpt>
      <trkpt lat="47.80069" lon="3.54828">
        <ele>198</ele>
        <time>2014-04-15T12:28:26Z</time>
      </trkpt>
      <trkpt lat="47.80065" lon="3.54833">
        <ele>197</ele>
        <time>2014-04-15T12:28:30Z</time>
      </trkpt>
      <trkpt lat="47.80063" lon="3.5484">
        <ele>197</ele>
        <time>2014-04-15T12:28:37Z</time>
      </trkpt>
      <trkpt lat="47.80062" lon="3.54849">
        <ele>197</ele>
        <time>2014-04-15T12:28:41Z</time>
      </trkpt>
      <trkpt lat="47.8006" lon="3.54855">
        <ele>197</ele>
        <time>2014-04-15T12:28:44Z</time>
      </trkpt>
      <trkpt lat="47.80056" lon="3.54861">
        <ele>197</ele>
        <time>2014-04-15T12:28:49Z</time>
      </trkpt>
      <trkpt lat="47.80036" lon="3.54894">
        <ele>196</ele>
        <time>2014-04-15T12:29:12Z</time>
      </trkpt>
      <trkpt lat="47.80036" lon="3.54902">
        <ele>196</ele>
        <time>2014-04-15T12:29:22Z</time>
      </trkpt>
      <trkpt lat="47.80036" lon="3.54909">
        <ele>196</ele>
        <time>2014-04-15T12:29:26Z</time>
      </trkpt>
      <trkpt lat="47.80034" lon="3.54916">
        <ele>195</ele>
        <time>2014-04-15T12:29:31Z</time>
      </trkpt>
      <trkpt lat="47.80034" lon="3.54924">
        <ele>193</ele>
        <time>2014-04-15T12:29:37Z</time>
      </trkpt>
      <trkpt lat="47.80037" lon="3.54931">
        <ele>193</ele>
        <time>2014-04-15T12:29:40Z</time>
      </trkpt>
      <trkpt lat="47.80035" lon="3.54939">
        <ele>193</ele>
        <time>2014-04-15T12:29:44Z</time>
      </trkpt>
      <trkpt lat="47.80033" lon="3.54946">
        <ele>193</ele>
        <time>2014-04-15T12:29:48Z</time>
      </trkpt>
      <trkpt lat="47.80036" lon="3.54951">
        <ele>193</ele>
        <time>2014-04-15T12:29:52Z</time>
      </trkpt>
      <trkpt lat="47.8004" lon="3.54956">
        <ele>193</ele>
        <time>2014-04-15T12:29:55Z</time>
      </trkpt>
      <trkpt lat="47.80042" lon="3.54962">
        <ele>193</ele>
        <time>2014-04-15T12:29:58Z</time>
      </trkpt>
      <trkpt lat="47.80041" lon="3.54969">
        <ele>192</ele>
        <time>2014-04-15T12:30:01Z</time>
      </trkpt>
      <trkpt lat="47.80038" lon="3.54975">
        <ele>192</ele>
        <time>2014-04-15T12:30:04Z</time>
      </trkpt>
      <trkpt lat="47.80037" lon="3.54983">
        <ele>192</ele>
        <time>2014-04-15T12:30:08Z</time>
      </trkpt>
      <trkpt lat="47.80038" lon="3.5499">
        <ele>192</ele>
        <time>2014-04-15T12:30:11Z</time>
      </trkpt>
      <trkpt lat="47.80037" lon="3.54998">
        <ele>192</ele>
        <time>2014-04-15T12:30:15Z</time>
      </trkpt>
      <trkpt lat="47.80036" lon="3.55005">
        <ele>189</ele>
        <time>2014-04-15T12:30:22Z</time>
      </trkpt>
      <trkpt lat="47.80035" lon="3.55013">
        <ele>189</ele>
        <time>2014-04-15T12:30:26Z</time>
      </trkpt>
      <trkpt lat="47.80033" lon="3.55019">
        <ele>189</ele>
        <time>2014-04-15T12:30:29Z</time>
      </trkpt>
      <trkpt lat="47.80031" lon="3.55027">
        <ele>189</ele>
        <time>2014-04-15T12:30:34Z</time>
      </trkpt>
      <trkpt lat="47.80031" lon="3.55035">
        <ele>189</ele>
        <time>2014-04-15T12:30:38Z</time>
      </trkpt>
      <trkpt lat="47.80031" lon="3.55042">
        <ele>189</ele>
        <time>2014-04-15T12:30:42Z</time>
      </trkpt>
      <trkpt lat="47.80032" lon="3.55049">
        <ele>188</ele>
        <time>2014-04-15T12:30:45Z</time>
      </trkpt>
      <trkpt lat="47.80033" lon="3.55056">
        <ele>188</ele>
        <time>2014-04-15T12:30:49Z</time>
      </trkpt>
      <trkpt lat="47.80034" lon="3.55063">
        <ele>188</ele>
        <time>2014-04-15T12:30:56Z</time>
      </trkpt>
      <trkpt lat="47.80031" lon="3.55068">
        <ele>188</ele>
        <time>2014-04-15T12:31:00Z</time>
      </trkpt>
      <trkpt lat="47.80028" lon="3.55076">
        <ele>188</ele>
        <time>2014-04-15T12:31:04Z</time>
      </trkpt>
      <trkpt lat="47.80024" lon="3.55082">
        <ele>188</ele>
        <time>2014-04-15T12:31:08Z</time>
      </trkpt>
      <trkpt lat="47.80018" lon="3.55086">
        <ele>186</ele>
        <time>2014-04-15T12:31:12Z</time>
      </trkpt>
      <trkpt lat="47.80018" lon="3.55093">
        <ele>186</ele>
        <time>2014-04-15T12:31:17Z</time>
      </trkpt>
      <trkpt lat="47.80018" lon="3.55101">
        <ele>186</ele>
        <time>2014-04-15T12:31:21Z</time>
      </trkpt>
      <trkpt lat="47.80015" lon="3.55106">
        <ele>186</ele>
        <time>2014-04-15T12:31:26Z</time>
      </trkpt>
      <trkpt lat="47.80014" lon="3.55113">
        <ele>185</ele>
        <time>2014-04-15T12:31:30Z</time>
      </trkpt>
      <trkpt lat="47.80011" lon="3.55119">
        <ele>185</ele>
        <time>2014-04-15T12:31:33Z</time>
      </trkpt>
      <trkpt lat="47.80008" lon="3.55124">
        <ele>185</ele>
        <time>2014-04-15T12:31:37Z</time>
      </trkpt>
      <trkpt lat="47.80005" lon="3.5513">
        <ele>185</ele>
        <time>2014-04-15T12:31:41Z</time>
      </trkpt>
      <trkpt lat="47.80006" lon="3.55136">
        <ele>185</ele>
        <time>2014-04-15T12:31:45Z</time>
      </trkpt>
      <trkpt lat="47.80005" lon="3.55144">
        <ele>185</ele>
        <time>2014-04-15T12:31:50Z</time>
      </trkpt>
      <trkpt lat="47.80004" lon="3.55152">
        <ele>184</ele>
        <time>2014-04-15T12:31:54Z</time>
      </trkpt>
      <trkpt lat="47.8" lon="3.55158">
        <ele>184</ele>
        <time>2014-04-15T12:31:58Z</time>
      </trkpt>
      <trkpt lat="47.79998" lon="3.55165">
        <ele>183</ele>
        <time>2014-04-15T12:32:03Z</time>
      </trkpt>
      <trkpt lat="47.79994" lon="3.55173">
        <ele>182</ele>
        <time>2014-04-15T12:32:07Z</time>
      </trkpt>
      <trkpt lat="47.79994" lon="3.5518">
        <ele>181</ele>
        <time>2014-04-15T12:32:13Z</time>
      </trkpt>
      <trkpt lat="47.79992" lon="3.55186">
        <ele>181</ele>
        <time>2014-04-15T12:32:17Z</time>
      </trkpt>
      <trkpt lat="47.79989" lon="3.55192">
        <ele>181</ele>
        <time>2014-04-15T12:32:20Z</time>
      </trkpt>
      <trkpt lat="47.79988" lon="3.55199">
        <ele>180</ele>
        <time>2014-04-15T12:32:24Z</time>
      </trkpt>
      <trkpt lat="47.79984" lon="3.55206">
        <ele>180</ele>
        <time>2014-04-15T12:32:28Z</time>
      </trkpt>
      <trkpt lat="47.79983" lon="3.55213">
        <ele>180</ele>
        <time>2014-04-15T12:32:33Z</time>
      </trkpt>
      <trkpt lat="47.79981" lon="3.5522">
        <ele>179</ele>
        <time>2014-04-15T12:32:38Z</time>
      </trkpt>
      <trkpt lat="47.79964" lon="3.55236">
        <ele>179</ele>
        <time>2014-04-15T12:33:18Z</time>
      </trkpt>
      <trkpt lat="47.79963" lon="3.55243">
        <ele>179</ele>
        <time>2014-04-15T12:33:23Z</time>
      </trkpt>
      <trkpt lat="47.79962" lon="3.5525">
        <ele>176</ele>
        <time>2014-04-15T12:33:28Z</time>
      </trkpt>
      <trkpt lat="47.79959" lon="3.55256">
        <ele>176</ele>
        <time>2014-04-15T12:33:33Z</time>
      </trkpt>
      <trkpt lat="47.79955" lon="3.55261">
        <ele>176</ele>
        <time>2014-04-15T12:33:38Z</time>
      </trkpt>
      <trkpt lat="47.79951" lon="3.55266">
        <ele>176</ele>
        <time>2014-04-15T12:33:43Z</time>
      </trkpt>
      <trkpt lat="47.79949" lon="3.55274">
        <ele>176</ele>
        <time>2014-04-15T12:33:47Z</time>
      </trkpt>
      <trkpt lat="47.7995" lon="3.55281">
        <ele>176</ele>
        <time>2014-04-15T12:33:51Z</time>
      </trkpt>
      <trkpt lat="47.79947" lon="3.55289">
        <ele>176</ele>
        <time>2014-04-15T12:33:55Z</time>
      </trkpt>
      <trkpt lat="47.79947" lon="3.55296">
        <ele>175</ele>
        <time>2014-04-15T12:33:58Z</time>
      </trkpt>
      <trkpt lat="47.7995" lon="3.55303">
        <ele>175</ele>
        <time>2014-04-15T12:34:01Z</time>
      </trkpt>
      <trkpt lat="47.79951" lon="3.5531">
        <ele>175</ele>
        <time>2014-04-15T12:34:08Z</time>
      </trkpt>
      <trkpt lat="47.7995" lon="3.55318">
        <ele>175</ele>
        <time>2014-04-15T12:34:14Z</time>
      </trkpt>
      <trkpt lat="47.79947" lon="3.55325">
        <ele>175</ele>
        <time>2014-04-15T12:34:18Z</time>
      </trkpt>
      <trkpt lat="47.79943" lon="3.55332">
        <ele>174</ele>
        <time>2014-04-15T12:34:21Z</time>
      </trkpt>
      <trkpt lat="47.7994" lon="3.55337">
        <ele>172</ele>
        <time>2014-04-15T12:34:24Z</time>
      </trkpt>
      <trkpt lat="47.79939" lon="3.55345">
        <ele>172</ele>
        <time>2014-04-15T12:34:29Z</time>
      </trkpt>
      <trkpt lat="47.79937" lon="3.55352">
        <ele>172</ele>
        <time>2014-04-15T12:34:35Z</time>
      </trkpt>
      <trkpt lat="47.79936" lon="3.55359">
        <ele>172</ele>
        <time>2014-04-15T12:34:39Z</time>
      </trkpt>
      <trkpt lat="47.79934" lon="3.55367">
        <ele>171</ele>
        <time>2014-04-15T12:34:43Z</time>
      </trkpt>
      <trkpt lat="47.79934" lon="3.55375">
        <ele>171</ele>
        <time>2014-04-15T12:34:47Z</time>
      </trkpt>
      <trkpt lat="47.79933" lon="3.55382">
        <ele>171</ele>
        <time>2014-04-15T12:34:52Z</time>
      </trkpt>
      <trkpt lat="47.79931" lon="3.55389">
        <ele>170</ele>
        <time>2014-04-15T12:34:57Z</time>
      </trkpt>
      <trkpt lat="47.79929" lon="3.55396">
        <ele>170</ele>
        <time>2014-04-15T12:35:00Z</time>
      </trkpt>
      <trkpt lat="47.79927" lon="3.55403">
        <ele>170</ele>
        <time>2014-04-15T12:35:04Z</time>
      </trkpt>
      <trkpt lat="47.79926" lon="3.5541">
        <ele>169</ele>
        <time>2014-04-15T12:35:12Z</time>
      </trkpt>
      <trkpt lat="47.79926" lon="3.55418">
        <ele>168</ele>
        <time>2014-04-15T12:35:17Z</time>
      </trkpt>
      <trkpt lat="47.79926" lon="3.55425">
        <ele>167</ele>
        <time>2014-04-15T12:35:19Z</time>
      </trkpt>
      <trkpt lat="47.79925" lon="3.55433">
        <ele>167</ele>
        <time>2014-04-15T12:35:22Z</time>
      </trkpt>
      <trkpt lat="47.79922" lon="3.55441">
        <ele>167</ele>
        <time>2014-04-15T12:35:27Z</time>
      </trkpt>
      <trkpt lat="47.79919" lon="3.55447">
        <ele>167</ele>
        <time>2014-04-15T12:35:32Z</time>
      </trkpt>
      <trkpt lat="47.79915" lon="3.55453">
        <ele>166</ele>
        <time>2014-04-15T12:35:36Z</time>
      </trkpt>
      <trkpt lat="47.79911" lon="3.55459">
        <ele>165</ele>
        <time>2014-04-15T12:35:40Z</time>
      </trkpt>
      <trkpt lat="47.79908" lon="3.55464">
        <ele>165</ele>
        <time>2014-04-15T12:35:44Z</time>
      </trkpt>
      <trkpt lat="47.79905" lon="3.55471">
        <ele>165</ele>
        <time>2014-04-15T12:35:49Z</time>
      </trkpt>
      <trkpt lat="47.79902" lon="3.55477">
        <ele>165</ele>
        <time>2014-04-15T12:35:52Z</time>
      </trkpt>
      <trkpt lat="47.79898" lon="3.55483">
        <ele>164</ele>
        <time>2014-04-15T12:35:56Z</time>
      </trkpt>
      <trkpt lat="47.79897" lon="3.55486">
        <ele>164</ele>
        <time>2014-04-15T12:36:18Z</time>
      </trkpt>
      <trkpt lat="47.79895" lon="3.55492">
        <ele>164</ele>
        <time>2014-04-15T12:36:23Z</time>
      </trkpt>
      <trkpt lat="47.79891" lon="3.55496">
        <ele>164</ele>
        <time>2014-04-15T12:36:29Z</time>
      </trkpt>
      <trkpt lat="47.79888" lon="3.55501">
        <ele>161</ele>
        <time>2014-04-15T12:36:32Z</time>
      </trkpt>
      <trkpt lat="47.79885" lon="3.55508">
        <ele>161</ele>
        <time>2014-04-15T12:36:35Z</time>
      </trkpt>
      <trkpt lat="47.79882" lon="3.55514">
        <ele>161</ele>
        <time>2014-04-15T12:36:39Z</time>
      </trkpt>
      <trkpt lat="47.79881" lon="3.55521">
        <ele>160</ele>
        <time>2014-04-15T12:36:43Z</time>
      </trkpt>
      <trkpt lat="47.79878" lon="3.55527">
        <ele>160</ele>
        <time>2014-04-15T12:36:47Z</time>
      </trkpt>
      <trkpt lat="47.79875" lon="3.55533">
        <ele>160</ele>
        <time>2014-04-15T12:36:51Z</time>
      </trkpt>
      <trkpt lat="47.79874" lon="3.55541">
        <ele>160</ele>
        <time>2014-04-15T12:36:56Z</time>
      </trkpt>
      <trkpt lat="47.79869" lon="3.55543">
        <ele>160</ele>
        <time>2014-04-15T12:37:00Z</time>
      </trkpt>
      <trkpt lat="47.79864" lon="3.55544">
        <ele>159</ele>
        <time>2014-04-15T12:37:05Z</time>
      </trkpt>
      <trkpt lat="47.79861" lon="3.55551">
        <ele>159</ele>
        <time>2014-04-15T12:37:09Z</time>
      </trkpt>
      <trkpt lat="47.79858" lon="3.55557">
        <ele>159</ele>
        <time>2014-04-15T12:37:14Z</time>
      </trkpt>
      <trkpt lat="47.79857" lon="3.55564">
        <ele>158</ele>
        <time>2014-04-15T12:37:18Z</time>
      </trkpt>
      <trkpt lat="47.79855" lon="3.5557">
        <ele>158</ele>
        <time>2014-04-15T12:37:22Z</time>
      </trkpt>
      <trkpt lat="47.79852" lon="3.55576">
        <ele>157</ele>
        <time>2014-04-15T12:37:26Z</time>
      </trkpt>
      <trkpt lat="47.79848" lon="3.55582">
        <ele>157</ele>
        <time>2014-04-15T12:37:30Z</time>
      </trkpt>
      <trkpt lat="47.79845" lon="3.55588">
        <ele>154</ele>
        <time>2014-04-15T12:37:33Z</time>
      </trkpt>
      <trkpt lat="47.79844" lon="3.55595">
        <ele>154</ele>
        <time>2014-04-15T12:37:37Z</time>
      </trkpt>
      <trkpt lat="47.79843" lon="3.55602">
        <ele>154</ele>
        <time>2014-04-15T12:37:41Z</time>
      </trkpt>
      <trkpt lat="47.79841" lon="3.5561">
        <ele>153</ele>
        <time>2014-04-15T12:37:46Z</time>
      </trkpt>
      <trkpt lat="47.79839" lon="3.55617">
        <ele>153</ele>
        <time>2014-04-15T12:37:50Z</time>
      </trkpt>
      <trkpt lat="47.79838" lon="3.55623">
        <ele>153</ele>
        <time>2014-04-15T12:37:55Z</time>
      </trkpt>
      <trkpt lat="47.79835" lon="3.55629">
        <ele>152</ele>
        <time>2014-04-15T12:37:59Z</time>
      </trkpt>
      <trkpt lat="47.79834" lon="3.55636">
        <ele>152</ele>
        <time>2014-04-15T12:38:05Z</time>
      </trkpt>
      <trkpt lat="47.79831" lon="3.55641">
        <ele>150</ele>
        <time>2014-04-15T12:38:10Z</time>
      </trkpt>
      <trkpt lat="47.79827" lon="3.55646">
        <ele>149</ele>
        <time>2014-04-15T12:38:14Z</time>
      </trkpt>
      <trkpt lat="47.79823" lon="3.55653">
        <ele>149</ele>
        <time>2014-04-15T12:38:18Z</time>
      </trkpt>
      <trkpt lat="47.79822" lon="3.5566">
        <ele>149</ele>
        <time>2014-04-15T12:38:22Z</time>
      </trkpt>
      <trkpt lat="47.7982" lon="3.55666">
        <ele>149</ele>
        <time>2014-04-15T12:38:25Z</time>
      </trkpt>
      <trkpt lat="47.79817" lon="3.55673">
        <ele>146</ele>
        <time>2014-04-15T12:38:29Z</time>
      </trkpt>
      <trkpt lat="47.79813" lon="3.5568">
        <ele>145</ele>
        <time>2014-04-15T12:38:50Z</time>
      </trkpt>
      <trkpt lat="47.79811" lon="3.55686">
        <ele>145</ele>
        <time>2014-04-15T12:38:54Z</time>
      </trkpt>
      <trkpt lat="47.79808" lon="3.55694">
        <ele>145</ele>
        <time>2014-04-15T12:38:59Z</time>
      </trkpt>
      <trkpt lat="47.79806" lon="3.55702">
        <ele>144</ele>
        <time>2014-04-15T12:39:03Z</time>
      </trkpt>
      <trkpt lat="47.79804" lon="3.55708">
        <ele>144</ele>
        <time>2014-04-15T12:39:08Z</time>
      </trkpt>
      <trkpt lat="47.79806" lon="3.55714">
        <ele>144</ele>
        <time>2014-04-15T12:39:14Z</time>
      </trkpt>
      <trkpt lat="47.79809" lon="3.55719">
        <ele>143</ele>
        <time>2014-04-15T12:39:18Z</time>
      </trkpt>
      <trkpt lat="47.79809" lon="3.55726">
        <ele>143</ele>
        <time>2014-04-15T12:39:23Z</time>
      </trkpt>
      <trkpt lat="47.79807" lon="3.55735">
        <ele>143</ele>
        <time>2014-04-15T12:39:26Z</time>
      </trkpt>
      <trkpt lat="47.79805" lon="3.55741">
        <ele>143</ele>
        <time>2014-04-15T12:39:29Z</time>
      </trkpt>
      <trkpt lat="47.79802" lon="3.55748">
        <ele>143</ele>
        <time>2014-04-15T12:39:34Z</time>
      </trkpt>
      <trkpt lat="47.79799" lon="3.55755">
        <ele>140</ele>
        <time>2014-04-15T12:39:39Z</time>
      </trkpt>
      <trkpt lat="47.79798" lon="3.55763">
        <ele>139</ele>
        <time>2014-04-15T12:39:43Z</time>
      </trkpt>
      <trkpt lat="47.79797" lon="3.55769">
        <ele>139</ele>
        <time>2014-04-15T12:39:47Z</time>
      </trkpt>
      <trkpt lat="47.79796" lon="3.55777">
        <ele>139</ele>
        <time>2014-04-15T12:39:55Z</time>
      </trkpt>
      <trkpt lat="47.79794" lon="3.55783">
        <ele>139</ele>
        <time>2014-04-15T12:39:59Z</time>
      </trkpt>
      <trkpt lat="47.79791" lon="3.5579">
        <ele>139</ele>
        <time>2014-04-15T12:40:02Z</time>
      </trkpt>
      <trkpt lat="47.79788" lon="3.55796">
        <ele>139</ele>
        <time>2014-04-15T12:40:05Z</time>
      </trkpt>
      <trkpt lat="47.79785" lon="3.55802">
        <ele>139</ele>
        <time>2014-04-15T12:40:09Z</time>
      </trkpt>
      <trkpt lat="47.79782" lon="3.55808">
        <ele>138</ele>
        <time>2014-04-15T12:40:16Z</time>
      </trkpt>
      <trkpt lat="47.79778" lon="3.55811">
        <ele>138</ele>
        <time>2014-04-15T12:40:21Z</time>
      </trkpt>
      <trkpt lat="47.79776" lon="3.55819">
        <ele>138</ele>
        <time>2014-04-15T12:40:29Z</time>
      </trkpt>
      <trkpt lat="47.79773" lon="3.55824">
        <ele>138</ele>
        <time>2014-04-15T12:40:34Z</time>
      </trkpt>
      <trkpt lat="47.79771" lon="3.5583">
        <ele>138</ele>
        <time>2014-04-15T12:40:38Z</time>
      </trkpt>
      <trkpt lat="47.79773" lon="3.55836">
        <ele>136</ele>
        <time>2014-04-15T12:40:42Z</time>
      </trkpt>
      <trkpt lat="47.79774" lon="3.55844">
        <ele>136</ele>
        <time>2014-04-15T12:40:47Z</time>
      </trkpt>
      <trkpt lat="47.7977" lon="3.55849">
        <ele>136</ele>
        <time>2014-04-15T12:40:52Z</time>
      </trkpt>
      <trkpt lat="47.79765" lon="3.55853">
        <ele>136</ele>
        <time>2014-04-15T12:40:56Z</time>
      </trkpt>
      <trkpt lat="47.79763" lon="3.55859">
        <ele>136</ele>
        <time>2014-04-15T12:41:00Z</time>
      </trkpt>
      <trkpt lat="47.7976" lon="3.55865">
        <ele>136</ele>
        <time>2014-04-15T12:41:03Z</time>
      </trkpt>
      <trkpt lat="47.79758" lon="3.55872">
        <ele>136</ele>
        <time>2014-04-15T12:41:09Z</time>
      </trkpt>
      <trkpt lat="47.79758" lon="3.55879">
        <ele>136</ele>
        <time>2014-04-15T12:41:15Z</time>
      </trkpt>
      <trkpt lat="47.79755" lon="3.55885">
        <ele>136</ele>
        <time>2014-04-15T12:41:23Z</time>
      </trkpt>
      <trkpt lat="47.79751" lon="3.55891">
        <ele>135</ele>
        <time>2014-04-15T12:41:26Z</time>
      </trkpt>
      <trkpt lat="47.79747" lon="3.55899">
        <ele>136</ele>
        <time>2014-04-15T12:41:29Z</time>
      </trkpt>
      <trkpt lat="47.79745" lon="3.55907">
        <ele>136</ele>
        <time>2014-04-15T12:41:32Z</time>
      </trkpt>
      <trkpt lat="47.79742" lon="3.55902">
        <ele>136</ele>
        <time>2014-04-15T12:41:47Z</time>
      </trkpt>
      <trkpt lat="47.79743" lon="3.55899">
        <ele>136</ele>
        <time>2014-04-15T12:42:09Z</time>
      </trkpt>
      <trkpt lat="47.79743" lon="3.55893">
        <ele>136</ele>
        <time>2014-04-15T12:42:18Z</time>
      </trkpt>
      <trkpt lat="47.79747" lon="3.55892">
        <ele>136</ele>
        <time>2014-04-15T12:42:31Z</time>
      </trkpt>
      <trkpt lat="47.79744" lon="3.55892">
        <ele>136</ele>
        <time>2014-04-15T12:45:02Z</time>
      </trkpt>
      <trkpt lat="47.79742" lon="3.559">
        <ele>136</ele>
        <time>2014-04-15T12:45:05Z</time>
      </trkpt>
      <trkpt lat="47.79742" lon="3.55907">
        <ele>136</ele>
        <time>2014-04-15T12:45:08Z</time>
      </trkpt>
      <trkpt lat="47.79739" lon="3.55915">
        <ele>136</ele>
        <time>2014-04-15T12:45:11Z</time>
      </trkpt>
      <trkpt lat="47.79736" lon="3.5592">
        <ele>135</ele>
        <time>2014-04-15T12:45:14Z</time>
      </trkpt>
      <trkpt lat="47.79733" lon="3.55926">
        <ele>135</ele>
        <time>2014-04-15T12:45:18Z</time>
      </trkpt>
      <trkpt lat="47.7973" lon="3.55933">
        <ele>135</ele>
        <time>2014-04-15T12:45:22Z</time>
      </trkpt>
      <trkpt lat="47.79729" lon="3.5594">
        <ele>135</ele>
        <time>2014-04-15T12:45:26Z</time>
      </trkpt>
      <trkpt lat="47.79726" lon="3.55946">
        <ele>135</ele>
        <time>2014-04-15T12:45:30Z</time>
      </trkpt>
      <trkpt lat="47.79722" lon="3.5595">
        <ele>135</ele>
        <time>2014-04-15T12:45:34Z</time>
      </trkpt>
      <trkpt lat="47.79718" lon="3.55955">
        <ele>135</ele>
        <time>2014-04-15T12:45:39Z</time>
      </trkpt>
      <trkpt lat="47.79716" lon="3.55961">
        <ele>135</ele>
        <time>2014-04-15T12:45:44Z</time>
      </trkpt>
      <trkpt lat="47.79714" lon="3.55968">
        <ele>135</ele>
        <time>2014-04-15T12:45:48Z</time>
      </trkpt>
      <trkpt lat="47.79713" lon="3.55976">
        <ele>135</ele>
        <time>2014-04-15T12:45:52Z</time>
      </trkpt>
      <trkpt lat="47.79711" lon="3.55983">
        <ele>135</ele>
        <time>2014-04-15T12:45:56Z</time>
      </trkpt>
      <trkpt lat="47.79709" lon="3.5599">
        <ele>135</ele>
        <time>2014-04-15T12:46:00Z</time>
      </trkpt>
      <trkpt lat="47.7971" lon="3.55996">
        <ele>135</ele>
        <time>2014-04-15T12:46:05Z</time>
      </trkpt>
      <trkpt lat="47.79712" lon="3.56003">
        <ele>134</ele>
        <time>2014-04-15T12:46:10Z</time>
      </trkpt>
      <trkpt lat="47.79717" lon="3.56004">
        <ele>134</ele>
        <time>2014-04-15T12:46:24Z</time>
      </trkpt>
      <trkpt lat="47.79713" lon="3.56011">
        <ele>134</ele>
        <time>2014-04-15T12:46:34Z</time>
      </trkpt>
      <trkpt lat="47.79708" lon="3.56013">
        <ele>134</ele>
        <time>2014-04-15T12:46:37Z</time>
      </trkpt>
      <trkpt lat="47.79703" lon="3.56016">
        <ele>134</ele>
        <time>2014-04-15T12:46:41Z</time>
      </trkpt>
      <trkpt lat="47.79699" lon="3.5602">
        <ele>134</ele>
        <time>2014-04-15T12:46:45Z</time>
      </trkpt>
      <trkpt lat="47.79695" lon="3.56025">
        <ele>134</ele>
        <time>2014-04-15T12:46:50Z</time>
      </trkpt>
      <trkpt lat="47.79693" lon="3.56028">
        <ele>134</ele>
        <time>2014-04-15T12:46:56Z</time>
      </trkpt>
      <trkpt lat="47.79693" lon="3.56035">
        <ele>134</ele>
        <time>2014-04-15T12:47:07Z</time>
      </trkpt>
      <trkpt lat="47.79691" lon="3.56042">
        <ele>134</ele>
        <time>2014-04-15T12:47:14Z</time>
      </trkpt>
      <trkpt lat="47.79689" lon="3.56049">
        <ele>134</ele>
        <time>2014-04-15T12:47:19Z</time>
      </trkpt>
      <trkpt lat="47.79686" lon="3.56056">
        <ele>134</ele>
        <time>2014-04-15T12:47:24Z</time>
      </trkpt>
      <trkpt lat="47.79681" lon="3.56061">
        <ele>134</ele>
        <time>2014-04-15T12:47:28Z</time>
      </trkpt>
      <trkpt lat="47.79679" lon="3.56068">
        <ele>134</ele>
        <time>2014-04-15T12:47:33Z</time>
      </trkpt>
      <trkpt lat="47.79678" lon="3.56075">
        <ele>134</ele>
        <time>2014-04-15T12:47:37Z</time>
      </trkpt>
      <trkpt lat="47.79674" lon="3.56081">
        <ele>135</ele>
        <time>2014-04-15T12:47:41Z</time>
      </trkpt>
      <trkpt lat="47.79671" lon="3.56087">
        <ele>135</ele>
        <time>2014-04-15T12:47:45Z</time>
      </trkpt>
      <trkpt lat="47.79669" lon="3.56094">
        <ele>134</ele>
        <time>2014-04-15T12:47:51Z</time>
      </trkpt>
      <trkpt lat="47.79669" lon="3.56101">
        <ele>134</ele>
        <time>2014-04-15T12:47:56Z</time>
      </trkpt>
      <trkpt lat="47.79668" lon="3.56109">
        <ele>134</ele>
        <time>2014-04-15T12:48:00Z</time>
      </trkpt>
      <trkpt lat="47.79665" lon="3.56115">
        <ele>135</ele>
        <time>2014-04-15T12:48:04Z</time>
      </trkpt>
      <trkpt lat="47.7966" lon="3.5612">
        <ele>135</ele>
        <time>2014-04-15T12:48:07Z</time>
      </trkpt>
      <trkpt lat="47.79657" lon="3.56126">
        <ele>135</ele>
        <time>2014-04-15T12:48:12Z</time>
      </trkpt>
      <trkpt lat="47.79655" lon="3.56132">
        <ele>135</ele>
        <time>2014-04-15T12:48:15Z</time>
      </trkpt>
      <trkpt lat="47.7965" lon="3.56139">
        <ele>135</ele>
        <time>2014-04-15T12:48:18Z</time>
      </trkpt>
      <trkpt lat="47.79646" lon="3.56146">
        <ele>135</ele>
        <time>2014-04-15T12:48:21Z</time>
      </trkpt>
      <trkpt lat="47.79643" lon="3.56153">
        <ele>135</ele>
        <time>2014-04-15T12:48:25Z</time>
      </trkpt>
      <trkpt lat="47.79643" lon="3.56161">
        <ele>135</ele>
        <time>2014-04-15T12:48:28Z</time>
      </trkpt>
      <trkpt lat="47.79643" lon="3.56168">
        <ele>135</ele>
        <time>2014-04-15T12:48:32Z</time>
      </trkpt>
      <trkpt lat="47.79641" lon="3.56175">
        <ele>135</ele>
        <time>2014-04-15T12:48:37Z</time>
      </trkpt>
      <trkpt lat="47.7964" lon="3.56183">
        <ele>135</ele>
        <time>2014-04-15T12:48:42Z</time>
      </trkpt>
      <trkpt lat="47.79635" lon="3.56189">
        <ele>135</ele>
        <time>2014-04-15T12:48:47Z</time>
      </trkpt>
      <trkpt lat="47.79631" lon="3.56195">
        <ele>135</ele>
        <time>2014-04-15T12:48:52Z</time>
      </trkpt>
      <trkpt lat="47.79629" lon="3.56202">
        <ele>135</ele>
        <time>2014-04-15T12:48:56Z</time>
      </trkpt>
      <trkpt lat="47.79627" lon="3.56209">
        <ele>135</ele>
        <time>2014-04-15T12:48:59Z</time>
      </trkpt>
      <trkpt lat="47.79625" lon="3.56216">
        <ele>134</ele>
        <time>2014-04-15T12:49:03Z</time>
      </trkpt>
      <trkpt lat="47.79622" lon="3.56221">
        <ele>134</ele>
        <time>2014-04-15T12:49:08Z</time>
      </trkpt>
      <trkpt lat="47.79621" lon="3.56228">
        <ele>134</ele>
        <time>2014-04-15T12:49:13Z</time>
      </trkpt>
      <trkpt lat="47.7962" lon="3.56235">
        <ele>134</ele>
        <time>2014-04-15T12:49:19Z</time>
      </trkpt>
      <trkpt lat="47.79618" lon="3.56243">
        <ele>134</ele>
        <time>2014-04-15T12:49:24Z</time>
      </trkpt>
      <trkpt lat="47.79616" lon="3.56249">
        <ele>134</ele>
        <time>2014-04-15T12:49:28Z</time>
      </trkpt>
      <trkpt lat="47.79614" lon="3.56255">
        <ele>134</ele>
        <time>2014-04-15T12:49:32Z</time>
      </trkpt>
      <trkpt lat="47.79614" lon="3.56263">
        <ele>134</ele>
        <time>2014-04-15T12:49:37Z</time>
      </trkpt>
      <trkpt lat="47.79612" lon="3.56271">
        <ele>134</ele>
        <time>2014-04-15T12:49:42Z</time>
      </trkpt>
      <trkpt lat="47.79609" lon="3.56278">
        <ele>134</ele>
        <time>2014-04-15T12:49:46Z</time>
      </trkpt>
      <trkpt lat="47.79606" lon="3.56285">
        <ele>134</ele>
        <time>2014-04-15T12:49:50Z</time>
      </trkpt>
      <trkpt lat="47.79604" lon="3.56292">
        <ele>134</ele>
        <time>2014-04-15T12:49:55Z</time>
      </trkpt>
      <trkpt lat="47.79604" lon="3.563">
        <ele>134</ele>
        <time>2014-04-15T12:49:59Z</time>
      </trkpt>
      <trkpt lat="47.79603" lon="3.56307">
        <ele>134</ele>
        <time>2014-04-15T12:50:03Z</time>
      </trkpt>
      <trkpt lat="47.79601" lon="3.56315">
        <ele>134</ele>
        <time>2014-04-15T12:50:06Z</time>
      </trkpt>
      <trkpt lat="47.79598" lon="3.56322">
        <ele>134</ele>
        <time>2014-04-15T12:50:10Z</time>
      </trkpt>
      <trkpt lat="47.79598" lon="3.5633">
        <ele>134</ele>
        <time>2014-04-15T12:50:14Z</time>
      </trkpt>
      <trkpt lat="47.79596" lon="3.56336">
        <ele>133</ele>
        <time>2014-04-15T12:50:17Z</time>
      </trkpt>
      <trkpt lat="47.79593" lon="3.56343">
        <ele>133</ele>
        <time>2014-04-15T12:50:21Z</time>
      </trkpt>
      <trkpt lat="47.79589" lon="3.56348">
        <ele>133</ele>
        <time>2014-04-15T12:50:25Z</time>
      </trkpt>
      <trkpt lat="47.79581" lon="3.56368">
        <ele>133</ele>
        <time>2014-04-15T12:50:38Z</time>
      </trkpt>
      <trkpt lat="47.79577" lon="3.56373">
        <ele>133</ele>
        <time>2014-04-15T12:50:43Z</time>
      </trkpt>
      <trkpt lat="47.79576" lon="3.56381">
        <ele>133</ele>
        <time>2014-04-15T12:50:48Z</time>
      </trkpt>
      <trkpt lat="47.79578" lon="3.56387">
        <ele>133</ele>
        <time>2014-04-15T12:50:53Z</time>
      </trkpt>
      <trkpt lat="47.79578" lon="3.56392">
        <ele>133</ele>
        <time>2014-04-15T12:51:01Z</time>
      </trkpt>
      <trkpt lat="47.79575" lon="3.56397">
        <ele>133</ele>
        <time>2014-04-15T12:51:34Z</time>
      </trkpt>
      <trkpt lat="47.79572" lon="3.56404">
        <ele>133</ele>
        <time>2014-04-15T12:51:36Z</time>
      </trkpt>
      <trkpt lat="47.79574" lon="3.56414">
        <ele>133</ele>
        <time>2014-04-15T12:51:41Z</time>
      </trkpt>
      <trkpt lat="47.79574" lon="3.56421">
        <ele>133</ele>
        <time>2014-04-15T12:51:45Z</time>
      </trkpt>
      <trkpt lat="47.79571" lon="3.56426">
        <ele>132</ele>
        <time>2014-04-15T12:51:49Z</time>
      </trkpt>
      <trkpt lat="47.79568" lon="3.56432">
        <ele>132</ele>
        <time>2014-04-15T12:51:55Z</time>
      </trkpt>
      <trkpt lat="47.79564" lon="3.56435">
        <ele>132</ele>
        <time>2014-04-15T12:52:00Z</time>
      </trkpt>
      <trkpt lat="47.7956" lon="3.56441">
        <ele>132</ele>
        <time>2014-04-15T12:52:03Z</time>
      </trkpt>
      <trkpt lat="47.79556" lon="3.56477">
        <ele>132</ele>
        <time>2014-04-15T12:52:20Z</time>
      </trkpt>
      <trkpt lat="47.79556" lon="3.56485">
        <ele>132</ele>
        <time>2014-04-15T12:52:25Z</time>
      </trkpt>
      <trkpt lat="47.79553" lon="3.56492">
        <ele>132</ele>
        <time>2014-04-15T12:52:31Z</time>
      </trkpt>
      <trkpt lat="47.79549" lon="3.56497">
        <ele>131</ele>
        <time>2014-04-15T12:52:35Z</time>
      </trkpt>
      <trkpt lat="47.79546" lon="3.56503">
        <ele>130</ele>
        <time>2014-04-15T12:52:39Z</time>
      </trkpt>
      <trkpt lat="47.79544" lon="3.56508">
        <ele>130</ele>
        <time>2014-04-15T12:52:48Z</time>
      </trkpt>
      <trkpt lat="47.79545" lon="3.56516">
        <ele>130</ele>
        <time>2014-04-15T12:52:55Z</time>
      </trkpt>
      <trkpt lat="47.79545" lon="3.56524">
        <ele>130</ele>
        <time>2014-04-15T12:53:00Z</time>
      </trkpt>
      <trkpt lat="47.79546" lon="3.56531">
        <ele>130</ele>
        <time>2014-04-15T12:53:04Z</time>
      </trkpt>
      <trkpt lat="47.79545" lon="3.56538">
        <ele>130</ele>
        <time>2014-04-15T12:53:09Z</time>
      </trkpt>
      <trkpt lat="47.79545" lon="3.56547">
        <ele>130</ele>
        <time>2014-04-15T12:53:15Z</time>
      </trkpt>
      <trkpt lat="47.79546" lon="3.56555">
        <ele>130</ele>
        <time>2014-04-15T12:53:19Z</time>
      </trkpt>
      <trkpt lat="47.79546" lon="3.56562">
        <ele>130</ele>
        <time>2014-04-15T12:53:22Z</time>
      </trkpt>
      <trkpt lat="47.79547" lon="3.5657">
        <ele>130</ele>
        <time>2014-04-15T12:53:26Z</time>
      </trkpt>
      <trkpt lat="47.79546" lon="3.56577">
        <ele>130</ele>
        <time>2014-04-15T12:53:29Z</time>
      </trkpt>
      <trkpt lat="47.79545" lon="3.56584">
        <ele>129</ele>
        <time>2014-04-15T12:53:34Z</time>
      </trkpt>
      <trkpt lat="47.79545" lon="3.56592">
        <ele>129</ele>
        <time>2014-04-15T12:53:38Z</time>
      </trkpt>
      <trkpt lat="47.79544" lon="3.56599">
        <ele>129</ele>
        <time>2014-04-15T12:53:42Z</time>
      </trkpt>
      <trkpt lat="47.79542" lon="3.56605">
        <ele>129</ele>
        <time>2014-04-15T12:53:47Z</time>
      </trkpt>
      <trkpt lat="47.79544" lon="3.56611">
        <ele>129</ele>
        <time>2014-04-15T12:53:51Z</time>
      </trkpt>
      <trkpt lat="47.79548" lon="3.56618">
        <ele>129</ele>
        <time>2014-04-15T12:53:55Z</time>
      </trkpt>
      <trkpt lat="47.79552" lon="3.56621">
        <ele>129</ele>
        <time>2014-04-15T12:53:58Z</time>
      </trkpt>
      <trkpt lat="47.79557" lon="3.56625">
        <ele>129</ele>
        <time>2014-04-15T12:54:02Z</time>
      </trkpt>
      <trkpt lat="47.79556" lon="3.56631">
        <ele>129</ele>
        <time>2014-04-15T12:54:05Z</time>
      </trkpt>
      <trkpt lat="47.79554" lon="3.5664">
        <ele>129</ele>
        <time>2014-04-15T12:54:09Z</time>
      </trkpt>
      <trkpt lat="47.79553" lon="3.56647">
        <ele>129</ele>
        <time>2014-04-15T12:54:12Z</time>
      </trkpt>
      <trkpt lat="47.79552" lon="3.56654">
        <ele>129</ele>
        <time>2014-04-15T12:54:15Z</time>
      </trkpt>
      <trkpt lat="47.79551" lon="3.56661">
        <ele>129</ele>
        <time>2014-04-15T12:54:19Z</time>
      </trkpt>
      <trkpt lat="47.79554" lon="3.56669">
        <ele>129</ele>
        <time>2014-04-15T12:54:23Z</time>
      </trkpt>
      <trkpt lat="47.79552" lon="3.56675">
        <ele>129</ele>
        <time>2014-04-15T12:54:28Z</time>
      </trkpt>
      <trkpt lat="47.7955" lon="3.56683">
        <ele>129</ele>
        <time>2014-04-15T12:54:34Z</time>
      </trkpt>
      <trkpt lat="47.79552" lon="3.56689">
        <ele>129</ele>
        <time>2014-04-15T12:54:38Z</time>
      </trkpt>
      <trkpt lat="47.79552" lon="3.56696">
        <ele>129</ele>
        <time>2014-04-15T12:54:41Z</time>
      </trkpt>
      <trkpt lat="47.79553" lon="3.56704">
        <ele>129</ele>
        <time>2014-04-15T12:54:45Z</time>
      </trkpt>
      <trkpt lat="47.79555" lon="3.5671">
        <ele>129</ele>
        <time>2014-04-15T12:54:51Z</time>
      </trkpt>
      <trkpt lat="47.79555" lon="3.56718">
        <ele>129</ele>
        <time>2014-04-15T12:54:57Z</time>
      </trkpt>
      <trkpt lat="47.79555" lon="3.56725">
        <ele>129</ele>
        <time>2014-04-15T12:55:03Z</time>
      </trkpt>
      <trkpt lat="47.79555" lon="3.56734">
        <ele>129</ele>
        <time>2014-04-15T12:55:11Z</time>
      </trkpt>
      <trkpt lat="47.79556" lon="3.56741">
        <ele>129</ele>
        <time>2014-04-15T12:55:16Z</time>
      </trkpt>
      <trkpt lat="47.79554" lon="3.56748">
        <ele>129</ele>
        <time>2014-04-15T12:55:22Z</time>
      </trkpt>
      <trkpt lat="47.79552" lon="3.56754">
        <ele>129</ele>
        <time>2014-04-15T12:55:26Z</time>
      </trkpt>
      <trkpt lat="47.79556" lon="3.56762">
        <ele>129</ele>
        <time>2014-04-15T12:55:35Z</time>
      </trkpt>
      <trkpt lat="47.79557" lon="3.56773">
        <ele>129</ele>
        <time>2014-04-15T12:55:44Z</time>
      </trkpt>
      <trkpt lat="47.79558" lon="3.56781">
        <ele>129</ele>
        <time>2014-04-15T12:55:48Z</time>
      </trkpt>
      <trkpt lat="47.7956" lon="3.56789">
        <ele>129</ele>
        <time>2014-04-15T12:55:52Z</time>
      </trkpt>
      <trkpt lat="47.79563" lon="3.56795">
        <ele>129</ele>
        <time>2014-04-15T12:55:56Z</time>
      </trkpt>
      <trkpt lat="47.79566" lon="3.56802">
        <ele>129</ele>
        <time>2014-04-15T12:56:00Z</time>
      </trkpt>
      <trkpt lat="47.79568" lon="3.56808">
        <ele>129</ele>
        <time>2014-04-15T12:56:03Z</time>
      </trkpt>
      <trkpt lat="47.79569" lon="3.56816">
        <ele>129</ele>
        <time>2014-04-15T12:56:07Z</time>
      </trkpt>
      <trkpt lat="47.79568" lon="3.56827">
        <ele>128</ele>
        <time>2014-04-15T12:56:17Z</time>
      </trkpt>
      <trkpt lat="47.79569" lon="3.56833">
        <ele>128</ele>
        <time>2014-04-15T12:56:27Z</time>
      </trkpt>
      <trkpt lat="47.79573" lon="3.56839">
        <ele>128</ele>
        <time>2014-04-15T12:56:38Z</time>
      </trkpt>
      <trkpt lat="47.79576" lon="3.56845">
        <ele>128</ele>
        <time>2014-04-15T12:56:45Z</time>
      </trkpt>
      <trkpt lat="47.79577" lon="3.56852">
        <ele>129</ele>
        <time>2014-04-15T12:56:53Z</time>
      </trkpt>
      <trkpt lat="47.79576" lon="3.5686">
        <ele>129</ele>
        <time>2014-04-15T12:56:58Z</time>
      </trkpt>
      <trkpt lat="47.79573" lon="3.56869">
        <ele>130</ele>
        <time>2014-04-15T12:57:00Z</time>
      </trkpt>
      <trkpt lat="47.79572" lon="3.56877">
        <ele>130</ele>
        <time>2014-04-15T12:57:02Z</time>
      </trkpt>
      <trkpt lat="47.79576" lon="3.56882">
        <ele>130</ele>
        <time>2014-04-15T12:57:06Z</time>
      </trkpt>
      <trkpt lat="47.79581" lon="3.56883">
        <ele>130</ele>
        <time>2014-04-15T12:57:09Z</time>
      </trkpt>
      <trkpt lat="47.79587" lon="3.56883">
        <ele>127</ele>
        <time>2014-04-15T12:57:13Z</time>
      </trkpt>
      <trkpt lat="47.79592" lon="3.56882">
        <ele>127</ele>
        <time>2014-04-15T12:57:18Z</time>
      </trkpt>
      <trkpt lat="47.796" lon="3.56884">
        <ele>127</ele>
        <time>2014-04-15T12:57:31Z</time>
      </trkpt>
      <trkpt lat="47.79606" lon="3.56885">
        <ele>126</ele>
        <time>2014-04-15T12:57:39Z</time>
      </trkpt>
      <trkpt lat="47.79612" lon="3.56887">
        <ele>126</ele>
        <time>2014-04-15T12:57:42Z</time>
      </trkpt>
      <trkpt lat="47.79616" lon="3.56893">
        <ele>126</ele>
        <time>2014-04-15T12:57:45Z</time>
      </trkpt>
      <trkpt lat="47.79619" lon="3.56898">
        <ele>126</ele>
        <time>2014-04-15T12:57:47Z</time>
      </trkpt>
      <trkpt lat="47.79624" lon="3.56904">
        <ele>126</ele>
        <time>2014-04-15T12:57:50Z</time>
      </trkpt>
      <trkpt lat="47.79628" lon="3.5691">
        <ele>126</ele>
        <time>2014-04-15T12:57:53Z</time>
      </trkpt>
      <trkpt lat="47.79631" lon="3.56917">
        <ele>126</ele>
        <time>2014-04-15T12:57:57Z</time>
      </trkpt>
      <trkpt lat="47.79633" lon="3.56922">
        <ele>126</ele>
        <time>2014-04-15T12:58:01Z</time>
      </trkpt>
      <trkpt lat="47.79636" lon="3.56929">
        <ele>126</ele>
        <time>2014-04-15T12:58:05Z</time>
      </trkpt>
      <trkpt lat="47.79636" lon="3.56936">
        <ele>126</ele>
        <time>2014-04-15T12:58:09Z</time>
      </trkpt>
      <trkpt lat="47.79638" lon="3.56943">
        <ele>126</ele>
        <time>2014-04-15T12:58:14Z</time>
      </trkpt>
      <trkpt lat="47.79641" lon="3.56949">
        <ele>126</ele>
        <time>2014-04-15T12:58:18Z</time>
      </trkpt>
      <trkpt lat="47.79643" lon="3.56956">
        <ele>126</ele>
        <time>2014-04-15T12:58:23Z</time>
      </trkpt>
      <trkpt lat="47.79646" lon="3.56962">
        <ele>126</ele>
        <time>2014-04-15T12:58:27Z</time>
      </trkpt>
      <trkpt lat="47.79649" lon="3.56969">
        <ele>127</ele>
        <time>2014-04-15T12:58:30Z</time>
      </trkpt>
      <trkpt lat="47.7965" lon="3.56977">
        <ele>127</ele>
        <time>2014-04-15T12:58:34Z</time>
      </trkpt>
      <trkpt lat="47.79648" lon="3.56984">
        <ele>127</ele>
        <time>2014-04-15T12:58:38Z</time>
      </trkpt>
      <trkpt lat="47.79643" lon="3.56998">
        <ele>127</ele>
        <time>2014-04-15T12:58:47Z</time>
      </trkpt>
      <trkpt lat="47.79643" lon="3.57005">
        <ele>128</ele>
        <time>2014-04-15T12:58:51Z</time>
      </trkpt>
      <trkpt lat="47.79644" lon="3.57013">
        <ele>128</ele>
        <time>2014-04-15T12:58:55Z</time>
      </trkpt>
      <trkpt lat="47.79646" lon="3.57019">
        <ele>128</ele>
        <time>2014-04-15T12:58:58Z</time>
      </trkpt>
      <trkpt lat="47.79648" lon="3.57027">
        <ele>128</ele>
        <time>2014-04-15T12:59:02Z</time>
      </trkpt>
      <trkpt lat="47.79649" lon="3.57034">
        <ele>129</ele>
        <time>2014-04-15T12:59:06Z</time>
      </trkpt>
      <trkpt lat="47.79651" lon="3.57041">
        <ele>129</ele>
        <time>2014-04-15T12:59:11Z</time>
      </trkpt>
      <trkpt lat="47.79654" lon="3.57047">
        <ele>129</ele>
        <time>2014-04-15T12:59:16Z</time>
      </trkpt>
      <trkpt lat="47.79655" lon="3.57054">
        <ele>129</ele>
        <time>2014-04-15T12:59:20Z</time>
      </trkpt>
      <trkpt lat="47.79656" lon="3.57061">
        <ele>129</ele>
        <time>2014-04-15T12:59:25Z</time>
      </trkpt>
      <trkpt lat="47.7966" lon="3.57065">
        <ele>129</ele>
        <time>2014-04-15T12:59:29Z</time>
      </trkpt>
      <trkpt lat="47.79664" lon="3.57071">
        <ele>130</ele>
        <time>2014-04-15T12:59:34Z</time>
      </trkpt>
      <trkpt lat="47.79667" lon="3.57075">
        <ele>128</ele>
        <time>2014-04-15T12:59:39Z</time>
      </trkpt>
      <trkpt lat="47.79671" lon="3.5708">
        <ele>129</ele>
        <time>2014-04-15T12:59:44Z</time>
      </trkpt>
      <trkpt lat="47.79673" lon="3.57088">
        <ele>129</ele>
        <time>2014-04-15T12:59:49Z</time>
      </trkpt>
      <trkpt lat="47.79676" lon="3.57094">
        <ele>128</ele>
        <time>2014-04-15T12:59:54Z</time>
      </trkpt>
      <trkpt lat="47.79679" lon="3.571">
        <ele>127</ele>
        <time>2014-04-15T13:00:00Z</time>
      </trkpt>
      <trkpt lat="47.79683" lon="3.57106">
        <ele>127</ele>
        <time>2014-04-15T13:00:04Z</time>
      </trkpt>
      <trkpt lat="47.79684" lon="3.57114">
        <ele>127</ele>
        <time>2014-04-15T13:00:08Z</time>
      </trkpt>
      <trkpt lat="47.79685" lon="3.57121">
        <ele>126</ele>
        <time>2014-04-15T13:00:12Z</time>
      </trkpt>
      <trkpt lat="47.79688" lon="3.57127">
        <ele>126</ele>
        <time>2014-04-15T13:00:17Z</time>
      </trkpt>
      <trkpt lat="47.79693" lon="3.57131">
        <ele>126</ele>
        <time>2014-04-15T13:00:20Z</time>
      </trkpt>
      <trkpt lat="47.79698" lon="3.57135">
        <ele>126</ele>
        <time>2014-04-15T13:00:24Z</time>
      </trkpt>
      <trkpt lat="47.79708" lon="3.57136">
        <ele>126</ele>
        <time>2014-04-15T13:00:30Z</time>
      </trkpt>
      <trkpt lat="47.79713" lon="3.57148">
        <ele>125</ele>
        <time>2014-04-15T13:00:42Z</time>
      </trkpt>
      <trkpt lat="47.79718" lon="3.5715">
        <ele>125</ele>
        <time>2014-04-15T13:00:47Z</time>
      </trkpt>
      <trkpt lat="47.79724" lon="3.5715">
        <ele>125</ele>
        <time>2014-04-15T13:00:52Z</time>
      </trkpt>
      <trkpt lat="47.79729" lon="3.5715">
        <ele>125</ele>
        <time>2014-04-15T13:00:55Z</time>
      </trkpt>
      <trkpt lat="47.79734" lon="3.57148">
        <ele>125</ele>
        <time>2014-04-15T13:01:00Z</time>
      </trkpt>
      <trkpt lat="47.79736" lon="3.57142">
        <ele>125</ele>
        <time>2014-04-15T13:01:07Z</time>
      </trkpt>
      <trkpt lat="47.79741" lon="3.57142">
        <ele>125</ele>
        <time>2014-04-15T13:01:14Z</time>
      </trkpt>
      <trkpt lat="47.79745" lon="3.57148">
        <ele>125</ele>
        <time>2014-04-15T13:01:18Z</time>
      </trkpt>
      <trkpt lat="47.79749" lon="3.57154">
        <ele>124</ele>
        <time>2014-04-15T13:01:21Z</time>
      </trkpt>
      <trkpt lat="47.79752" lon="3.57161">
        <ele>123</ele>
        <time>2014-04-15T13:01:25Z</time>
      </trkpt>
      <trkpt lat="47.79752" lon="3.57166">
        <ele>124</ele>
        <time>2014-04-15T13:01:36Z</time>
      </trkpt>
      <trkpt lat="47.79755" lon="3.5717">
        <ele>123</ele>
        <time>2014-04-15T13:01:46Z</time>
      </trkpt>
      <trkpt lat="47.79759" lon="3.57176">
        <ele>123</ele>
        <time>2014-04-15T13:02:01Z</time>
      </trkpt>
      <trkpt lat="47.79762" lon="3.57182">
        <ele>122</ele>
        <time>2014-04-15T13:02:06Z</time>
      </trkpt>
      <trkpt lat="47.79764" lon="3.57188">
        <ele>122</ele>
        <time>2014-04-15T13:02:12Z</time>
      </trkpt>
      <trkpt lat="47.79765" lon="3.57196">
        <ele>122</ele>
        <time>2014-04-15T13:02:18Z</time>
      </trkpt>
      <trkpt lat="47.79764" lon="3.57203">
        <ele>122</ele>
        <time>2014-04-15T13:02:23Z</time>
      </trkpt>
      <trkpt lat="47.79766" lon="3.5721">
        <ele>122</ele>
        <time>2014-04-15T13:02:30Z</time>
      </trkpt>
      <trkpt lat="47.7977" lon="3.57214">
        <ele>122</ele>
        <time>2014-04-15T13:02:40Z</time>
      </trkpt>
      <trkpt lat="47.79699" lon="3.57149">
        <ele>126</ele>
        <time>2014-04-15T13:27:50Z</time>
      </trkpt>
      <trkpt lat="47.79706" lon="3.5715">
        <ele>126</ele>
        <time>2014-04-15T13:27:57Z</time>
      </trkpt>
      <trkpt lat="47.79705" lon="3.57157">
        <ele>126</ele>
        <time>2014-04-15T13:28:06Z</time>
      </trkpt>
      <trkpt lat="47.79701" lon="3.57162">
        <ele>126</ele>
        <time>2014-04-15T13:28:10Z</time>
      </trkpt>
      <trkpt lat="47.79698" lon="3.57168">
        <ele>125</ele>
        <time>2014-04-15T13:28:15Z</time>
      </trkpt>
      <trkpt lat="47.79694" lon="3.57173">
        <ele>125</ele>
        <time>2014-04-15T13:28:19Z</time>
      </trkpt>
      <trkpt lat="47.79689" lon="3.57176">
        <ele>125</ele>
        <time>2014-04-15T13:28:23Z</time>
      </trkpt>
      <trkpt lat="47.79684" lon="3.57177">
        <ele>125</ele>
        <time>2014-04-15T13:28:26Z</time>
      </trkpt>
      <trkpt lat="47.7968" lon="3.57181">
        <ele>125</ele>
        <time>2014-04-15T13:28:30Z</time>
      </trkpt>
      <trkpt lat="47.79674" lon="3.57183">
        <ele>125</ele>
        <time>2014-04-15T13:28:36Z</time>
      </trkpt>
      <trkpt lat="47.79669" lon="3.57184">
        <ele>125</ele>
        <time>2014-04-15T13:28:39Z</time>
      </trkpt>
      <trkpt lat="47.79666" lon="3.57188">
        <ele>124</ele>
        <time>2014-04-15T13:28:45Z</time>
      </trkpt>
      <trkpt lat="47.79661" lon="3.57192">
        <ele>124</ele>
        <time>2014-04-15T13:28:50Z</time>
      </trkpt>
      <trkpt lat="47.79656" lon="3.57194">
        <ele>123</ele>
        <time>2014-04-15T13:28:52Z</time>
      </trkpt>
      <trkpt lat="47.79652" lon="3.57198">
        <ele>123</ele>
        <time>2014-04-15T13:28:54Z</time>
      </trkpt>
      <trkpt lat="47.79647" lon="3.57202">
        <ele>123</ele>
        <time>2014-04-15T13:28:57Z</time>
      </trkpt>
      <trkpt lat="47.79643" lon="3.57206">
        <ele>123</ele>
        <time>2014-04-15T13:29:00Z</time>
      </trkpt>
      <trkpt lat="47.79637" lon="3.57207">
        <ele>122</ele>
        <time>2014-04-15T13:29:07Z</time>
      </trkpt>
      <trkpt lat="47.79632" lon="3.57208">
        <ele>122</ele>
        <time>2014-04-15T13:29:10Z</time>
      </trkpt>
      <trkpt lat="47.79628" lon="3.57212">
        <ele>122</ele>
        <time>2014-04-15T13:29:15Z</time>
      </trkpt>
      <trkpt lat="47.79624" lon="3.57222">
        <ele>122</ele>
        <time>2014-04-15T13:29:23Z</time>
      </trkpt>
      <trkpt lat="47.79621" lon="3.57226">
        <ele>121</ele>
        <time>2014-04-15T13:29:27Z</time>
      </trkpt>
      <trkpt lat="47.79616" lon="3.5723">
        <ele>121</ele>
        <time>2014-04-15T13:29:33Z</time>
      </trkpt>
      <trkpt lat="47.79609" lon="3.5724">
        <ele>120</ele>
        <time>2014-04-15T13:29:44Z</time>
      </trkpt>
      <trkpt lat="47.79603" lon="3.57245">
        <ele>120</ele>
        <time>2014-04-15T13:29:49Z</time>
      </trkpt>
      <trkpt lat="47.79604" lon="3.57252">
        <ele>116</ele>
        <time>2014-04-15T13:29:56Z</time>
      </trkpt>
      <trkpt lat="47.79604" lon="3.57259">
        <ele>116</ele>
        <time>2014-04-15T13:30:01Z</time>
      </trkpt>
      <trkpt lat="47.79602" lon="3.57266">
        <ele>116</ele>
        <time>2014-04-15T13:30:05Z</time>
      </trkpt>
      <trkpt lat="47.796" lon="3.57273">
        <ele>116</ele>
        <time>2014-04-15T13:30:09Z</time>
      </trkpt>
      <trkpt lat="47.79596" lon="3.57276">
        <ele>116</ele>
        <time>2014-04-15T13:30:14Z</time>
      </trkpt>
      <trkpt lat="47.79589" lon="3.57287">
        <ele>115</ele>
        <time>2014-04-15T13:30:22Z</time>
      </trkpt>
      <trkpt lat="47.79579" lon="3.57288">
        <ele>114</ele>
        <time>2014-04-15T13:30:29Z</time>
      </trkpt>
      <trkpt lat="47.79575" lon="3.57302">
        <ele>113</ele>
        <time>2014-04-15T13:30:42Z</time>
      </trkpt>
      <trkpt lat="47.79569" lon="3.573">
        <ele>113</ele>
        <time>2014-04-15T13:30:47Z</time>
      </trkpt>
      <trkpt lat="47.79564" lon="3.57301">
        <ele>113</ele>
        <time>2014-04-15T13:31:01Z</time>
      </trkpt>
      <trkpt lat="47.79557" lon="3.5731">
        <ele>113</ele>
        <time>2014-04-15T13:31:08Z</time>
      </trkpt>
      <trkpt lat="47.7955" lon="3.5732">
        <ele>113</ele>
        <time>2014-04-15T13:31:14Z</time>
      </trkpt>
      <trkpt lat="47.79547" lon="3.57325">
        <ele>113</ele>
        <time>2014-04-15T13:31:20Z</time>
      </trkpt>
      <trkpt lat="47.79542" lon="3.57337">
        <ele>110</ele>
        <time>2014-04-15T13:31:30Z</time>
      </trkpt>
      <trkpt lat="47.79535" lon="3.57344">
        <ele>110</ele>
        <time>2014-04-15T13:31:38Z</time>
      </trkpt>
      <trkpt lat="47.79527" lon="3.57351">
        <ele>110</ele>
        <time>2014-04-15T13:31:44Z</time>
      </trkpt>
      <trkpt lat="47.79522" lon="3.57355">
        <ele>110</ele>
        <time>2014-04-15T13:31:47Z</time>
      </trkpt>
      <trkpt lat="47.79517" lon="3.57359">
        <ele>110</ele>
        <time>2014-04-15T13:31:50Z</time>
      </trkpt>
      <trkpt lat="47.79512" lon="3.57359">
        <ele>110</ele>
        <time>2014-04-15T13:31:52Z</time>
      </trkpt>
      <trkpt lat="47.79507" lon="3.5736">
        <ele>110</ele>
        <time>2014-04-15T13:31:55Z</time>
      </trkpt>
      <trkpt lat="47.79502" lon="3.57357">
        <ele>111</ele>
        <time>2014-04-15T13:31:58Z</time>
      </trkpt>
      <trkpt lat="47.795" lon="3.57363">
        <ele>110</ele>
        <time>2014-04-15T13:32:04Z</time>
      </trkpt>
      <trkpt lat="47.79497" lon="3.57369">
        <ele>111</ele>
        <time>2014-04-15T13:32:09Z</time>
      </trkpt>
      <trkpt lat="47.79494" lon="3.57375">
        <ele>111</ele>
        <time>2014-04-15T13:32:15Z</time>
      </trkpt>
      <trkpt lat="47.79494" lon="3.57382">
        <ele>111</ele>
        <time>2014-04-15T13:32:20Z</time>
      </trkpt>
      <trkpt lat="47.79493" lon="3.5739">
        <ele>110</ele>
        <time>2014-04-15T13:32:24Z</time>
      </trkpt>
      <trkpt lat="47.79493" lon="3.57397">
        <ele>110</ele>
        <time>2014-04-15T13:32:28Z</time>
      </trkpt>
      <trkpt lat="47.7949" lon="3.57403">
        <ele>110</ele>
        <time>2014-04-15T13:32:34Z</time>
      </trkpt>
      <trkpt lat="47.79485" lon="3.57406">
        <ele>110</ele>
        <time>2014-04-15T13:32:41Z</time>
      </trkpt>
      <trkpt lat="47.7948" lon="3.57401">
        <ele>110</ele>
        <time>2014-04-15T13:32:46Z</time>
      </trkpt>
      <trkpt lat="47.79476" lon="3.57398">
        <ele>110</ele>
        <time>2014-04-15T13:32:51Z</time>
      </trkpt>
      <trkpt lat="47.79473" lon="3.57397">
        <ele>110</ele>
        <time>2014-04-15T13:32:59Z</time>
      </trkpt>
      <trkpt lat="47.79466" lon="3.57401">
        <ele>110</ele>
        <time>2014-04-15T13:33:22Z</time>
      </trkpt>
      <trkpt lat="47.79463" lon="3.57407">
        <ele>110</ele>
        <time>2014-04-15T13:33:25Z</time>
      </trkpt>
      <trkpt lat="47.79458" lon="3.57412">
        <ele>110</ele>
        <time>2014-04-15T13:33:28Z</time>
      </trkpt>
      <trkpt lat="47.79455" lon="3.57417">
        <ele>108</ele>
        <time>2014-04-15T13:33:31Z</time>
      </trkpt>
      <trkpt lat="47.79457" lon="3.57424">
        <ele>108</ele>
        <time>2014-04-15T13:33:34Z</time>
      </trkpt>
      <trkpt lat="47.79459" lon="3.57431">
        <ele>108</ele>
        <time>2014-04-15T13:33:37Z</time>
      </trkpt>
      <trkpt lat="47.79461" lon="3.57439">
        <ele>108</ele>
        <time>2014-04-15T13:33:40Z</time>
      </trkpt>
      <trkpt lat="47.79463" lon="3.57447">
        <ele>108</ele>
        <time>2014-04-15T13:33:43Z</time>
      </trkpt>
      <trkpt lat="47.79465" lon="3.57454">
        <ele>108</ele>
        <time>2014-04-15T13:33:47Z</time>
      </trkpt>
      <trkpt lat="47.79469" lon="3.57452">
        <ele>108</ele>
        <time>2014-04-15T13:34:17Z</time>
      </trkpt>
      <trkpt lat="47.79473" lon="3.57457">
        <ele>107</ele>
        <time>2014-04-15T13:34:25Z</time>
      </trkpt>
      <trkpt lat="47.79467" lon="3.57457">
        <ele>107</ele>
        <time>2014-04-15T13:34:30Z</time>
      </trkpt>
      <trkpt lat="47.79462" lon="3.5746">
        <ele>107</ele>
        <time>2014-04-15T13:34:37Z</time>
      </trkpt>
      <trkpt lat="47.79463" lon="3.57467">
        <ele>107</ele>
        <time>2014-04-15T13:34:40Z</time>
      </trkpt>
      <trkpt lat="47.79466" lon="3.57473">
        <ele>107</ele>
        <time>2014-04-15T13:34:44Z</time>
      </trkpt>
      <trkpt lat="47.79471" lon="3.57476">
        <ele>107</ele>
        <time>2014-04-15T13:34:47Z</time>
      </trkpt>
      <trkpt lat="47.79477" lon="3.57479">
        <ele>107</ele>
        <time>2014-04-15T13:34:49Z</time>
      </trkpt>
      <trkpt lat="47.79482" lon="3.57484">
        <ele>107</ele>
        <time>2014-04-15T13:34:51Z</time>
      </trkpt>
      <trkpt lat="47.79483" lon="3.5749">
        <ele>107</ele>
        <time>2014-04-15T13:34:54Z</time>
      </trkpt>
      <trkpt lat="47.79477" lon="3.57492">
        <ele>107</ele>
        <time>2014-04-15T13:34:58Z</time>
      </trkpt>
      <trkpt lat="47.79472" lon="3.57491">
        <ele>107</ele>
        <time>2014-04-15T13:35:00Z</time>
      </trkpt>
      <trkpt lat="47.79467" lon="3.5749">
        <ele>107</ele>
        <time>2014-04-15T13:35:03Z</time>
      </trkpt>
      <trkpt lat="47.79467" lon="3.575">
        <ele>107</ele>
        <time>2014-04-15T13:35:09Z</time>
      </trkpt>
      <trkpt lat="47.79469" lon="3.57506">
        <ele>105</ele>
        <time>2014-04-15T13:35:11Z</time>
      </trkpt>
      <trkpt lat="47.79473" lon="3.57504">
        <ele>105</ele>
        <time>2014-04-15T13:35:23Z</time>
      </trkpt>
      <trkpt lat="47.79471" lon="3.57497">
        <ele>107</ele>
        <time>2014-04-15T13:35:24Z</time>
      </trkpt>
      <trkpt lat="47.79467" lon="3.57495">
        <ele>107</ele>
        <time>2014-04-15T13:35:32Z</time>
      </trkpt>
      <trkpt lat="47.79454" lon="3.57497">
        <ele>107</ele>
        <time>2014-04-15T13:35:54Z</time>
      </trkpt>
      <trkpt lat="47.79454" lon="3.57489">
        <ele>107</ele>
        <time>2014-04-15T13:35:57Z</time>
      </trkpt>
      <trkpt lat="47.79457" lon="3.57483">
        <ele>107</ele>
        <time>2014-04-15T13:36:00Z</time>
      </trkpt>
      <trkpt lat="47.79461" lon="3.5748">
        <ele>107</ele>
        <time>2014-04-15T13:36:02Z</time>
      </trkpt>
      <trkpt lat="47.79464" lon="3.57475">
        <ele>107</ele>
        <time>2014-04-15T13:36:07Z</time>
      </trkpt>
      <trkpt lat="47.79464" lon="3.57467">
        <ele>107</ele>
        <time>2014-04-15T13:36:12Z</time>
      </trkpt>
      <trkpt lat="47.79469" lon="3.57461">
        <ele>107</ele>
        <time>2014-04-15T13:36:15Z</time>
      </trkpt>
      <trkpt lat="47.79472" lon="3.57456">
        <ele>107</ele>
        <time>2014-04-15T13:36:18Z</time>
      </trkpt>
      <trkpt lat="47.79471" lon="3.57449">
        <ele>108</ele>
        <time>2014-04-15T13:36:22Z</time>
      </trkpt>
      <trkpt lat="47.79471" lon="3.57442">
        <ele>108</ele>
        <time>2014-04-15T13:36:27Z</time>
      </trkpt>
      <trkpt lat="47.79469" lon="3.57441">
        <ele>108</ele>
        <time>2014-04-15T13:37:01Z</time>
      </trkpt>
      <trkpt lat="47.79469" lon="3.57434">
        <ele>108</ele>
        <time>2014-04-15T13:37:04Z</time>
      </trkpt>
      <trkpt lat="47.79468" lon="3.57427">
        <ele>108</ele>
        <time>2014-04-15T13:37:07Z</time>
      </trkpt>
      <trkpt lat="47.79466" lon="3.5742">
        <ele>108</ele>
        <time>2014-04-15T13:37:10Z</time>
      </trkpt>
      <trkpt lat="47.79464" lon="3.57411">
        <ele>110</ele>
        <time>2014-04-15T13:37:13Z</time>
      </trkpt>
      <trkpt lat="47.79462" lon="3.57403">
        <ele>110</ele>
        <time>2014-04-15T13:37:16Z</time>
      </trkpt>
      <trkpt lat="47.79461" lon="3.57397">
        <ele>110</ele>
        <time>2014-04-15T13:37:19Z</time>
      </trkpt>
      <trkpt lat="47.79462" lon="3.5739">
        <ele>111</ele>
        <time>2014-04-15T13:37:23Z</time>
      </trkpt>
      <trkpt lat="47.7946" lon="3.57383">
        <ele>111</ele>
        <time>2014-04-15T13:37:29Z</time>
      </trkpt>
      <trkpt lat="47.79458" lon="3.57376">
        <ele>111</ele>
        <time>2014-04-15T13:37:33Z</time>
      </trkpt>
      <trkpt lat="47.79455" lon="3.57369">
        <ele>111</ele>
        <time>2014-04-15T13:37:37Z</time>
      </trkpt>
      <trkpt lat="47.79455" lon="3.57363">
        <ele>111</ele>
        <time>2014-04-15T13:37:40Z</time>
      </trkpt>
      <trkpt lat="47.79458" lon="3.57356">
        <ele>111</ele>
        <time>2014-04-15T13:37:43Z</time>
      </trkpt>
      <trkpt lat="47.79461" lon="3.57352">
        <ele>112</ele>
        <time>2014-04-15T13:37:45Z</time>
      </trkpt>
      <trkpt lat="47.79465" lon="3.57347">
        <ele>112</ele>
        <time>2014-04-15T13:37:48Z</time>
      </trkpt>
      <trkpt lat="47.79464" lon="3.57339">
        <ele>112</ele>
        <time>2014-04-15T13:37:53Z</time>
      </trkpt>
      <trkpt lat="47.79463" lon="3.57331">
        <ele>113</ele>
        <time>2014-04-15T13:37:58Z</time>
      </trkpt>
      <trkpt lat="47.79459" lon="3.57326">
        <ele>113</ele>
        <time>2014-04-15T13:38:06Z</time>
      </trkpt>
      <trkpt lat="47.79456" lon="3.5732">
        <ele>113</ele>
        <time>2014-04-15T13:38:09Z</time>
      </trkpt>
      <trkpt lat="47.79456" lon="3.57313">
        <ele>113</ele>
        <time>2014-04-15T13:38:12Z</time>
      </trkpt>
      <trkpt lat="47.79458" lon="3.57306">
        <ele>113</ele>
        <time>2014-04-15T13:38:15Z</time>
      </trkpt>
      <trkpt lat="47.79459" lon="3.57298">
        <ele>113</ele>
        <time>2014-04-15T13:38:19Z</time>
      </trkpt>
      <trkpt lat="47.79459" lon="3.57289">
        <ele>113</ele>
        <time>2014-04-15T13:38:23Z</time>
      </trkpt>
      <trkpt lat="47.7946" lon="3.57283">
        <ele>113</ele>
        <time>2014-04-15T13:38:28Z</time>
      </trkpt>
      <trkpt lat="47.79457" lon="3.57277">
        <ele>113</ele>
        <time>2014-04-15T13:38:33Z</time>
      </trkpt>
      <trkpt lat="47.79454" lon="3.5727">
        <ele>113</ele>
        <time>2014-04-15T13:38:37Z</time>
      </trkpt>
      <trkpt lat="47.79451" lon="3.57264">
        <ele>113</ele>
        <time>2014-04-15T13:38:40Z</time>
      </trkpt>
      <trkpt lat="47.79447" lon="3.57258">
        <ele>113</ele>
        <time>2014-04-15T13:38:44Z</time>
      </trkpt>
      <trkpt lat="47.79443" lon="3.57253">
        <ele>113</ele>
        <time>2014-04-15T13:38:49Z</time>
      </trkpt>
      <trkpt lat="47.79439" lon="3.57249">
        <ele>114</ele>
        <time>2014-04-15T13:38:53Z</time>
      </trkpt>
      <trkpt lat="47.79434" lon="3.57248">
        <ele>114</ele>
        <time>2014-04-15T13:38:56Z</time>
      </trkpt>
      <trkpt lat="47.79429" lon="3.5725">
        <ele>114</ele>
        <time>2014-04-15T13:38:59Z</time>
      </trkpt>
      <trkpt lat="47.79425" lon="3.57248">
        <ele>113</ele>
        <time>2014-04-15T13:39:01Z</time>
      </trkpt>
      <trkpt lat="47.7942" lon="3.57243">
        <ele>113</ele>
        <time>2014-04-15T13:39:03Z</time>
      </trkpt>
      <trkpt lat="47.79414" lon="3.57235">
        <ele>114</ele>
        <time>2014-04-15T13:39:05Z</time>
      </trkpt>
      <trkpt lat="47.79411" lon="3.57231">
        <ele>114</ele>
        <time>2014-04-15T13:39:06Z</time>
      </trkpt>
      <trkpt lat="47.79408" lon="3.57227">
        <ele>115</ele>
        <time>2014-04-15T13:39:07Z</time>
      </trkpt>
      <trkpt lat="47.79407" lon="3.57222">
        <ele>115</ele>
        <time>2014-04-15T13:39:09Z</time>
      </trkpt>
      <trkpt lat="47.79408" lon="3.57218">
        <ele>115</ele>
        <time>2014-04-15T13:39:12Z</time>
      </trkpt>
      <trkpt lat="47.79403" lon="3.57216">
        <ele>115</ele>
        <time>2014-04-15T13:39:21Z</time>
      </trkpt>
      <trkpt lat="47.79399" lon="3.5721">
        <ele>116</ele>
        <time>2014-04-15T13:39:25Z</time>
      </trkpt>
      <trkpt lat="47.79397" lon="3.57209">
        <ele>116</ele>
        <time>2014-04-15T13:39:31Z</time>
      </trkpt>
      <trkpt lat="47.79392" lon="3.57206">
        <ele>116</ele>
        <time>2014-04-15T13:39:37Z</time>
      </trkpt>
      <trkpt lat="47.79388" lon="3.57204">
        <ele>116</ele>
        <time>2014-04-15T13:39:43Z</time>
      </trkpt>
      <trkpt lat="47.79383" lon="3.57203">
        <ele>116</ele>
        <time>2014-04-15T13:39:48Z</time>
      </trkpt>
      <trkpt lat="47.79378" lon="3.57202">
        <ele>116</ele>
        <time>2014-04-15T13:39:52Z</time>
      </trkpt>
      <trkpt lat="47.79374" lon="3.57196">
        <ele>116</ele>
        <time>2014-04-15T13:39:55Z</time>
      </trkpt>
      <trkpt lat="47.7937" lon="3.57192">
        <ele>116</ele>
        <time>2014-04-15T13:40:00Z</time>
      </trkpt>
      <trkpt lat="47.79365" lon="3.57188">
        <ele>116</ele>
        <time>2014-04-15T13:40:03Z</time>
      </trkpt>
      <trkpt lat="47.79361" lon="3.57184">
        <ele>117</ele>
        <time>2014-04-15T13:40:09Z</time>
      </trkpt>
      <trkpt lat="47.79356" lon="3.57183">
        <ele>117</ele>
        <time>2014-04-15T13:40:14Z</time>
      </trkpt>
      <trkpt lat="47.79351" lon="3.57182">
        <ele>117</ele>
        <time>2014-04-15T13:40:19Z</time>
      </trkpt>
      <trkpt lat="47.79347" lon="3.57181">
        <ele>117</ele>
        <time>2014-04-15T13:40:29Z</time>
      </trkpt>
    </trkseg>
  </trk>
</gpx>